<?xml version="1.0" encoding="UTF-8" standalone="no" ?>
<gpx xmlns="http://www.topografix.com/GPX/1/1" xmlns:xsi="http://www.w3.org/2001/XMLSchema-instance" xsi:schemaLocation="http://www.topografix.com/GPX/1/1 http://www.topografix.com/GPX/1/1/gpx.xsd" version="1.1" creator="VisuGPX - https://www.visugpx.com">
  <metadata>
    <name>SO-NE-St Léger St Pazanne Machecoul St Hubert St Philbert La Chevrolière Pont St Martin Breuil Les Couets</name>
    <desc><![CDATA[SO-NE-St Léger St Pazanne Machecoul St Hubert St Philbert La Chevrolière Pont St Martin Breuil Les Couets]]></desc>
  </metadata>
  <trk>
    <name><![CDATA[22 oct. 2023 11:46:06]]></name>
    <trkseg>
      <trkpt lat="47.1677" lon="-1.62616">
        <ele>23.26</ele>
        <time>2023-10-22T09:48:02Z</time>
      </trkpt>
      <trkpt lat="47.1677" lon="-1.62616">
        <ele>22.93</ele>
        <time>2023-10-22T09:48:03Z</time>
      </trkpt>
      <trkpt lat="47.1677" lon="-1.62616">
        <ele>23.03</ele>
        <time>2023-10-22T09:48:04Z</time>
      </trkpt>
      <trkpt lat="47.1677" lon="-1.62616">
        <ele>22.8</ele>
        <time>2023-10-22T09:48:05Z</time>
      </trkpt>
      <trkpt lat="47.16746" lon="-1.62659">
        <ele>46.12</ele>
        <time>2023-10-22T09:48:45Z</time>
      </trkpt>
      <trkpt lat="47.16736" lon="-1.62656">
        <ele>42.72</ele>
        <time>2023-10-22T09:48:48Z</time>
      </trkpt>
      <trkpt lat="47.16722" lon="-1.62666">
        <ele>42.42</ele>
        <time>2023-10-22T09:48:51Z</time>
      </trkpt>
      <trkpt lat="47.16706" lon="-1.62674">
        <ele>29.02</ele>
        <time>2023-10-22T09:48:54Z</time>
      </trkpt>
      <trkpt lat="47.16701" lon="-1.62688">
        <ele>32.95</ele>
        <time>2023-10-22T09:48:56Z</time>
      </trkpt>
      <trkpt lat="47.16703" lon="-1.62702">
        <ele>33.22</ele>
        <time>2023-10-22T09:48:58Z</time>
      </trkpt>
      <trkpt lat="47.16712" lon="-1.62714">
        <ele>33.25</ele>
        <time>2023-10-22T09:49:00Z</time>
      </trkpt>
      <trkpt lat="47.1672" lon="-1.62726">
        <ele>31.16</ele>
        <time>2023-10-22T09:49:02Z</time>
      </trkpt>
      <trkpt lat="47.16729" lon="-1.62741">
        <ele>31.38</ele>
        <time>2023-10-22T09:49:04Z</time>
      </trkpt>
      <trkpt lat="47.16742" lon="-1.62747">
        <ele>31.82</ele>
        <time>2023-10-22T09:49:07Z</time>
      </trkpt>
      <trkpt lat="47.16744" lon="-1.62762">
        <ele>30.22</ele>
        <time>2023-10-22T09:49:10Z</time>
      </trkpt>
      <trkpt lat="47.16771" lon="-1.62784">
        <ele>32.06</ele>
        <time>2023-10-22T09:49:11Z</time>
      </trkpt>
      <trkpt lat="47.16781" lon="-1.62797">
        <ele>32.56</ele>
        <time>2023-10-22T09:49:14Z</time>
      </trkpt>
      <trkpt lat="47.16793" lon="-1.62808">
        <ele>30.51</ele>
        <time>2023-10-22T09:49:16Z</time>
      </trkpt>
      <trkpt lat="47.16809" lon="-1.62819">
        <ele>28.61</ele>
        <time>2023-10-22T09:49:18Z</time>
      </trkpt>
      <trkpt lat="47.1683" lon="-1.62845">
        <ele>40.93</ele>
        <time>2023-10-22T09:49:20Z</time>
      </trkpt>
      <trkpt lat="47.16848" lon="-1.62859">
        <ele>46.32</ele>
        <time>2023-10-22T09:49:21Z</time>
      </trkpt>
      <trkpt lat="47.16858" lon="-1.62872">
        <ele>49.51</ele>
        <time>2023-10-22T09:49:23Z</time>
      </trkpt>
      <trkpt lat="47.16867" lon="-1.62882">
        <ele>43.73</ele>
        <time>2023-10-22T09:49:25Z</time>
      </trkpt>
      <trkpt lat="47.16878" lon="-1.62898">
        <ele>44.89</ele>
        <time>2023-10-22T09:49:27Z</time>
      </trkpt>
      <trkpt lat="47.16885" lon="-1.62915">
        <ele>46.25</ele>
        <time>2023-10-22T09:49:29Z</time>
      </trkpt>
      <trkpt lat="47.16888" lon="-1.62935">
        <ele>49.44</ele>
        <time>2023-10-22T09:49:31Z</time>
      </trkpt>
      <trkpt lat="47.16887" lon="-1.62951">
        <ele>54.89</ele>
        <time>2023-10-22T09:49:33Z</time>
      </trkpt>
      <trkpt lat="47.16889" lon="-1.62974">
        <ele>56.6</ele>
        <time>2023-10-22T09:49:35Z</time>
      </trkpt>
      <trkpt lat="47.16892" lon="-1.62989">
        <ele>57.04</ele>
        <time>2023-10-22T09:49:36Z</time>
      </trkpt>
      <trkpt lat="47.16888" lon="-1.63009">
        <ele>62.22</ele>
        <time>2023-10-22T09:49:38Z</time>
      </trkpt>
      <trkpt lat="47.16887" lon="-1.63027">
        <ele>65.13</ele>
        <time>2023-10-22T09:49:40Z</time>
      </trkpt>
      <trkpt lat="47.16888" lon="-1.63051">
        <ele>68.03</ele>
        <time>2023-10-22T09:49:42Z</time>
      </trkpt>
      <trkpt lat="47.16888" lon="-1.63065">
        <ele>67.13</ele>
        <time>2023-10-22T09:49:43Z</time>
      </trkpt>
      <trkpt lat="47.16888" lon="-1.63084">
        <ele>69.87</ele>
        <time>2023-10-22T09:49:45Z</time>
      </trkpt>
      <trkpt lat="47.16891" lon="-1.63104">
        <ele>69.7</ele>
        <time>2023-10-22T09:49:47Z</time>
      </trkpt>
      <trkpt lat="47.16894" lon="-1.63122">
        <ele>70.64</ele>
        <time>2023-10-22T09:49:49Z</time>
      </trkpt>
      <trkpt lat="47.169" lon="-1.6314">
        <ele>70.15</ele>
        <time>2023-10-22T09:49:51Z</time>
      </trkpt>
      <trkpt lat="47.16905" lon="-1.63159">
        <ele>68.76</ele>
        <time>2023-10-22T09:49:53Z</time>
      </trkpt>
      <trkpt lat="47.16913" lon="-1.63177">
        <ele>71.68</ele>
        <time>2023-10-22T09:49:55Z</time>
      </trkpt>
      <trkpt lat="47.16921" lon="-1.63192">
        <ele>74.08</ele>
        <time>2023-10-22T09:49:57Z</time>
      </trkpt>
      <trkpt lat="47.16929" lon="-1.63206">
        <ele>73.68</ele>
        <time>2023-10-22T09:49:59Z</time>
      </trkpt>
      <trkpt lat="47.16939" lon="-1.63222">
        <ele>72.46</ele>
        <time>2023-10-22T09:50:01Z</time>
      </trkpt>
      <trkpt lat="47.16948" lon="-1.63234">
        <ele>73.33</ele>
        <time>2023-10-22T09:50:03Z</time>
      </trkpt>
      <trkpt lat="47.16957" lon="-1.63244">
        <ele>74.55</ele>
        <time>2023-10-22T09:50:05Z</time>
      </trkpt>
      <trkpt lat="47.16964" lon="-1.63254">
        <ele>74.67</ele>
        <time>2023-10-22T09:50:07Z</time>
      </trkpt>
      <trkpt lat="47.16963" lon="-1.63273">
        <ele>75.58</ele>
        <time>2023-10-22T09:50:11Z</time>
      </trkpt>
      <trkpt lat="47.16955" lon="-1.63286">
        <ele>75.81</ele>
        <time>2023-10-22T09:50:13Z</time>
      </trkpt>
      <trkpt lat="47.16947" lon="-1.63302">
        <ele>75.37</ele>
        <time>2023-10-22T09:50:15Z</time>
      </trkpt>
      <trkpt lat="47.16936" lon="-1.63314">
        <ele>78.55</ele>
        <time>2023-10-22T09:50:17Z</time>
      </trkpt>
      <trkpt lat="47.16926" lon="-1.63329">
        <ele>78.46</ele>
        <time>2023-10-22T09:50:19Z</time>
      </trkpt>
      <trkpt lat="47.16914" lon="-1.63344">
        <ele>77.41</ele>
        <time>2023-10-22T09:50:21Z</time>
      </trkpt>
      <trkpt lat="47.16904" lon="-1.63359">
        <ele>77.35</ele>
        <time>2023-10-22T09:50:23Z</time>
      </trkpt>
      <trkpt lat="47.16894" lon="-1.63373">
        <ele>76.7</ele>
        <time>2023-10-22T09:50:25Z</time>
      </trkpt>
      <trkpt lat="47.16884" lon="-1.63388">
        <ele>76.65</ele>
        <time>2023-10-22T09:50:27Z</time>
      </trkpt>
      <trkpt lat="47.16875" lon="-1.63404">
        <ele>77.07</ele>
        <time>2023-10-22T09:50:29Z</time>
      </trkpt>
      <trkpt lat="47.16866" lon="-1.63419">
        <ele>78.11</ele>
        <time>2023-10-22T09:50:31Z</time>
      </trkpt>
      <trkpt lat="47.16857" lon="-1.63435">
        <ele>77.76</ele>
        <time>2023-10-22T09:50:33Z</time>
      </trkpt>
      <trkpt lat="47.16847" lon="-1.63451">
        <ele>78.45</ele>
        <time>2023-10-22T09:50:35Z</time>
      </trkpt>
      <trkpt lat="47.16838" lon="-1.63466">
        <ele>78.39</ele>
        <time>2023-10-22T09:50:37Z</time>
      </trkpt>
      <trkpt lat="47.16828" lon="-1.63481">
        <ele>78.39</ele>
        <time>2023-10-22T09:50:39Z</time>
      </trkpt>
      <trkpt lat="47.1682" lon="-1.63497">
        <ele>79.39</ele>
        <time>2023-10-22T09:50:41Z</time>
      </trkpt>
      <trkpt lat="47.16809" lon="-1.63512">
        <ele>79.74</ele>
        <time>2023-10-22T09:50:43Z</time>
      </trkpt>
      <trkpt lat="47.168" lon="-1.63527">
        <ele>80.59</ele>
        <time>2023-10-22T09:50:45Z</time>
      </trkpt>
      <trkpt lat="47.16791" lon="-1.63542">
        <ele>80.52</ele>
        <time>2023-10-22T09:50:47Z</time>
      </trkpt>
      <trkpt lat="47.16782" lon="-1.63559">
        <ele>80.56</ele>
        <time>2023-10-22T09:50:49Z</time>
      </trkpt>
      <trkpt lat="47.16773" lon="-1.63574">
        <ele>81.37</ele>
        <time>2023-10-22T09:50:51Z</time>
      </trkpt>
      <trkpt lat="47.16764" lon="-1.63589">
        <ele>80.86</ele>
        <time>2023-10-22T09:50:53Z</time>
      </trkpt>
      <trkpt lat="47.16755" lon="-1.63606">
        <ele>80.29</ele>
        <time>2023-10-22T09:50:55Z</time>
      </trkpt>
      <trkpt lat="47.16748" lon="-1.63621">
        <ele>79.59</ele>
        <time>2023-10-22T09:50:57Z</time>
      </trkpt>
      <trkpt lat="47.16742" lon="-1.63636">
        <ele>78.63</ele>
        <time>2023-10-22T09:50:59Z</time>
      </trkpt>
      <trkpt lat="47.16747" lon="-1.63648">
        <ele>78.23</ele>
        <time>2023-10-22T09:51:01Z</time>
      </trkpt>
      <trkpt lat="47.16759" lon="-1.63653">
        <ele>78.17</ele>
        <time>2023-10-22T09:51:03Z</time>
      </trkpt>
      <trkpt lat="47.16772" lon="-1.63657">
        <ele>78.25</ele>
        <time>2023-10-22T09:51:05Z</time>
      </trkpt>
      <trkpt lat="47.16786" lon="-1.63662">
        <ele>78</ele>
        <time>2023-10-22T09:51:07Z</time>
      </trkpt>
      <trkpt lat="47.16801" lon="-1.63665">
        <ele>77.32</ele>
        <time>2023-10-22T09:51:09Z</time>
      </trkpt>
      <trkpt lat="47.16815" lon="-1.63672">
        <ele>74.92</ele>
        <time>2023-10-22T09:51:11Z</time>
      </trkpt>
      <trkpt lat="47.1683" lon="-1.63679">
        <ele>74.32</ele>
        <time>2023-10-22T09:51:13Z</time>
      </trkpt>
      <trkpt lat="47.16845" lon="-1.63682">
        <ele>73.96</ele>
        <time>2023-10-22T09:51:15Z</time>
      </trkpt>
      <trkpt lat="47.1686" lon="-1.6369">
        <ele>75.81</ele>
        <time>2023-10-22T09:51:17Z</time>
      </trkpt>
      <trkpt lat="47.16875" lon="-1.63696">
        <ele>75.41</ele>
        <time>2023-10-22T09:51:19Z</time>
      </trkpt>
      <trkpt lat="47.16891" lon="-1.63701">
        <ele>75.41</ele>
        <time>2023-10-22T09:51:21Z</time>
      </trkpt>
      <trkpt lat="47.16907" lon="-1.63711">
        <ele>72.41</ele>
        <time>2023-10-22T09:51:23Z</time>
      </trkpt>
      <trkpt lat="47.16921" lon="-1.63712">
        <ele>74.81</ele>
        <time>2023-10-22T09:51:25Z</time>
      </trkpt>
      <trkpt lat="47.16935" lon="-1.6372">
        <ele>73.44</ele>
        <time>2023-10-22T09:51:27Z</time>
      </trkpt>
      <trkpt lat="47.16951" lon="-1.63727">
        <ele>70.89</ele>
        <time>2023-10-22T09:51:29Z</time>
      </trkpt>
      <trkpt lat="47.16967" lon="-1.63733">
        <ele>69.19</ele>
        <time>2023-10-22T09:51:31Z</time>
      </trkpt>
      <trkpt lat="47.16981" lon="-1.63741">
        <ele>68.88</ele>
        <time>2023-10-22T09:51:33Z</time>
      </trkpt>
      <trkpt lat="47.16997" lon="-1.63743">
        <ele>68.98</ele>
        <time>2023-10-22T09:51:35Z</time>
      </trkpt>
      <trkpt lat="47.17011" lon="-1.63749">
        <ele>70.98</ele>
        <time>2023-10-22T09:51:37Z</time>
      </trkpt>
      <trkpt lat="47.17026" lon="-1.63753">
        <ele>73.5</ele>
        <time>2023-10-22T09:51:39Z</time>
      </trkpt>
      <trkpt lat="47.17035" lon="-1.63758">
        <ele>72.19</ele>
        <time>2023-10-22T09:51:40Z</time>
      </trkpt>
      <trkpt lat="47.17049" lon="-1.63766">
        <ele>73.09</ele>
        <time>2023-10-22T09:51:42Z</time>
      </trkpt>
      <trkpt lat="47.17061" lon="-1.63779">
        <ele>72.67</ele>
        <time>2023-10-22T09:51:44Z</time>
      </trkpt>
      <trkpt lat="47.17067" lon="-1.6379">
        <ele>71.48</ele>
        <time>2023-10-22T09:51:45Z</time>
      </trkpt>
      <trkpt lat="47.17073" lon="-1.63809">
        <ele>74.27</ele>
        <time>2023-10-22T09:51:47Z</time>
      </trkpt>
      <trkpt lat="47.1708" lon="-1.63827">
        <ele>77.12</ele>
        <time>2023-10-22T09:51:49Z</time>
      </trkpt>
      <trkpt lat="47.17087" lon="-1.63849">
        <ele>76.75</ele>
        <time>2023-10-22T09:51:51Z</time>
      </trkpt>
      <trkpt lat="47.17093" lon="-1.63869">
        <ele>75.85</ele>
        <time>2023-10-22T09:51:53Z</time>
      </trkpt>
      <trkpt lat="47.171" lon="-1.63889">
        <ele>75.84</ele>
        <time>2023-10-22T09:51:55Z</time>
      </trkpt>
      <trkpt lat="47.17106" lon="-1.63906">
        <ele>76.72</ele>
        <time>2023-10-22T09:51:57Z</time>
      </trkpt>
      <trkpt lat="47.17112" lon="-1.63921">
        <ele>77.37</ele>
        <time>2023-10-22T09:51:59Z</time>
      </trkpt>
      <trkpt lat="47.17119" lon="-1.63936">
        <ele>77.77</ele>
        <time>2023-10-22T09:52:01Z</time>
      </trkpt>
      <trkpt lat="47.17128" lon="-1.63946">
        <ele>77.26</ele>
        <time>2023-10-22T09:52:03Z</time>
      </trkpt>
      <trkpt lat="47.17138" lon="-1.63953">
        <ele>79.09</ele>
        <time>2023-10-22T09:52:07Z</time>
      </trkpt>
      <trkpt lat="47.17139" lon="-1.63973">
        <ele>80.85</ele>
        <time>2023-10-22T09:52:10Z</time>
      </trkpt>
      <trkpt lat="47.17139" lon="-1.63993">
        <ele>80.38</ele>
        <time>2023-10-22T09:52:12Z</time>
      </trkpt>
      <trkpt lat="47.17136" lon="-1.64012">
        <ele>81.88</ele>
        <time>2023-10-22T09:52:14Z</time>
      </trkpt>
      <trkpt lat="47.17134" lon="-1.64035">
        <ele>81.22</ele>
        <time>2023-10-22T09:52:16Z</time>
      </trkpt>
      <trkpt lat="47.17131" lon="-1.64055">
        <ele>81.78</ele>
        <time>2023-10-22T09:52:18Z</time>
      </trkpt>
      <trkpt lat="47.1713" lon="-1.64077">
        <ele>81.65</ele>
        <time>2023-10-22T09:52:20Z</time>
      </trkpt>
      <trkpt lat="47.17128" lon="-1.64101">
        <ele>80.25</ele>
        <time>2023-10-22T09:52:22Z</time>
      </trkpt>
      <trkpt lat="47.17125" lon="-1.64124">
        <ele>78.92</ele>
        <time>2023-10-22T09:52:24Z</time>
      </trkpt>
      <trkpt lat="47.17121" lon="-1.64143">
        <ele>80.72</ele>
        <time>2023-10-22T09:52:26Z</time>
      </trkpt>
      <trkpt lat="47.1712" lon="-1.64164">
        <ele>81.39</ele>
        <time>2023-10-22T09:52:28Z</time>
      </trkpt>
      <trkpt lat="47.17117" lon="-1.64186">
        <ele>82.5</ele>
        <time>2023-10-22T09:52:30Z</time>
      </trkpt>
      <trkpt lat="47.17114" lon="-1.64208">
        <ele>82.07</ele>
        <time>2023-10-22T09:52:32Z</time>
      </trkpt>
      <trkpt lat="47.17112" lon="-1.64231">
        <ele>82.56</ele>
        <time>2023-10-22T09:52:34Z</time>
      </trkpt>
      <trkpt lat="47.17109" lon="-1.64251">
        <ele>84.96</ele>
        <time>2023-10-22T09:52:36Z</time>
      </trkpt>
      <trkpt lat="47.17106" lon="-1.64274">
        <ele>84.24</ele>
        <time>2023-10-22T09:52:38Z</time>
      </trkpt>
      <trkpt lat="47.17104" lon="-1.64294">
        <ele>84.61</ele>
        <time>2023-10-22T09:52:40Z</time>
      </trkpt>
      <trkpt lat="47.17102" lon="-1.64316">
        <ele>84.95</ele>
        <time>2023-10-22T09:52:42Z</time>
      </trkpt>
      <trkpt lat="47.17099" lon="-1.64335">
        <ele>86.44</ele>
        <time>2023-10-22T09:52:44Z</time>
      </trkpt>
      <trkpt lat="47.17097" lon="-1.64359">
        <ele>84.95</ele>
        <time>2023-10-22T09:52:46Z</time>
      </trkpt>
      <trkpt lat="47.17095" lon="-1.64382">
        <ele>85.96</ele>
        <time>2023-10-22T09:52:48Z</time>
      </trkpt>
      <trkpt lat="47.17093" lon="-1.64407">
        <ele>84.77</ele>
        <time>2023-10-22T09:52:50Z</time>
      </trkpt>
      <trkpt lat="47.17092" lon="-1.64427">
        <ele>86.4</ele>
        <time>2023-10-22T09:52:52Z</time>
      </trkpt>
      <trkpt lat="47.1709" lon="-1.64453">
        <ele>84.61</ele>
        <time>2023-10-22T09:52:54Z</time>
      </trkpt>
      <trkpt lat="47.17088" lon="-1.64473">
        <ele>86.38</ele>
        <time>2023-10-22T09:52:56Z</time>
      </trkpt>
      <trkpt lat="47.17088" lon="-1.64498">
        <ele>84.39</ele>
        <time>2023-10-22T09:52:58Z</time>
      </trkpt>
      <trkpt lat="47.17086" lon="-1.64521">
        <ele>84.06</ele>
        <time>2023-10-22T09:53:00Z</time>
      </trkpt>
      <trkpt lat="47.17084" lon="-1.64547">
        <ele>82.67</ele>
        <time>2023-10-22T09:53:02Z</time>
      </trkpt>
      <trkpt lat="47.17084" lon="-1.64569">
        <ele>83.36</ele>
        <time>2023-10-22T09:53:04Z</time>
      </trkpt>
      <trkpt lat="47.17083" lon="-1.64592">
        <ele>84.21</ele>
        <time>2023-10-22T09:53:06Z</time>
      </trkpt>
      <trkpt lat="47.17083" lon="-1.64617">
        <ele>84.97</ele>
        <time>2023-10-22T09:53:08Z</time>
      </trkpt>
      <trkpt lat="47.17083" lon="-1.64639">
        <ele>84.99</ele>
        <time>2023-10-22T09:53:10Z</time>
      </trkpt>
      <trkpt lat="47.17083" lon="-1.64663">
        <ele>84.86</ele>
        <time>2023-10-22T09:53:12Z</time>
      </trkpt>
      <trkpt lat="47.17084" lon="-1.64683">
        <ele>85.55</ele>
        <time>2023-10-22T09:53:14Z</time>
      </trkpt>
      <trkpt lat="47.17085" lon="-1.64705">
        <ele>85.29</ele>
        <time>2023-10-22T09:53:16Z</time>
      </trkpt>
      <trkpt lat="47.17086" lon="-1.64718">
        <ele>84.04</ele>
        <time>2023-10-22T09:53:17Z</time>
      </trkpt>
      <trkpt lat="47.17088" lon="-1.64739">
        <ele>84.8</ele>
        <time>2023-10-22T09:53:19Z</time>
      </trkpt>
      <trkpt lat="47.17089" lon="-1.64761">
        <ele>85.49</ele>
        <time>2023-10-22T09:53:21Z</time>
      </trkpt>
      <trkpt lat="47.1709" lon="-1.64784">
        <ele>84.61</ele>
        <time>2023-10-22T09:53:23Z</time>
      </trkpt>
      <trkpt lat="47.17091" lon="-1.64811">
        <ele>82.8</ele>
        <time>2023-10-22T09:53:25Z</time>
      </trkpt>
      <trkpt lat="47.17093" lon="-1.64836">
        <ele>80.62</ele>
        <time>2023-10-22T09:53:27Z</time>
      </trkpt>
      <trkpt lat="47.17096" lon="-1.64861">
        <ele>79.45</ele>
        <time>2023-10-22T09:53:29Z</time>
      </trkpt>
      <trkpt lat="47.17097" lon="-1.64883">
        <ele>80.17</ele>
        <time>2023-10-22T09:53:31Z</time>
      </trkpt>
      <trkpt lat="47.171" lon="-1.64908">
        <ele>79.31</ele>
        <time>2023-10-22T09:53:33Z</time>
      </trkpt>
      <trkpt lat="47.17102" lon="-1.64931">
        <ele>78.87</ele>
        <time>2023-10-22T09:53:35Z</time>
      </trkpt>
      <trkpt lat="47.17103" lon="-1.64953">
        <ele>79.95</ele>
        <time>2023-10-22T09:53:37Z</time>
      </trkpt>
      <trkpt lat="47.17105" lon="-1.64976">
        <ele>81.23</ele>
        <time>2023-10-22T09:53:39Z</time>
      </trkpt>
      <trkpt lat="47.17107" lon="-1.65">
        <ele>80.46</ele>
        <time>2023-10-22T09:53:41Z</time>
      </trkpt>
      <trkpt lat="47.17108" lon="-1.65022">
        <ele>81.53</ele>
        <time>2023-10-22T09:53:43Z</time>
      </trkpt>
      <trkpt lat="47.1711" lon="-1.65044">
        <ele>81.78</ele>
        <time>2023-10-22T09:53:45Z</time>
      </trkpt>
      <trkpt lat="47.17112" lon="-1.65066">
        <ele>81.92</ele>
        <time>2023-10-22T09:53:47Z</time>
      </trkpt>
      <trkpt lat="47.17114" lon="-1.6509">
        <ele>80.47</ele>
        <time>2023-10-22T09:53:49Z</time>
      </trkpt>
      <trkpt lat="47.17115" lon="-1.65112">
        <ele>81</ele>
        <time>2023-10-22T09:53:51Z</time>
      </trkpt>
      <trkpt lat="47.17116" lon="-1.65134">
        <ele>81.45</ele>
        <time>2023-10-22T09:53:53Z</time>
      </trkpt>
      <trkpt lat="47.17118" lon="-1.65157">
        <ele>80.4</ele>
        <time>2023-10-22T09:53:55Z</time>
      </trkpt>
      <trkpt lat="47.17119" lon="-1.6518">
        <ele>80.66</ele>
        <time>2023-10-22T09:53:57Z</time>
      </trkpt>
      <trkpt lat="47.17121" lon="-1.65202">
        <ele>81.1</ele>
        <time>2023-10-22T09:53:59Z</time>
      </trkpt>
      <trkpt lat="47.17122" lon="-1.65223">
        <ele>80.93</ele>
        <time>2023-10-22T09:54:01Z</time>
      </trkpt>
      <trkpt lat="47.17123" lon="-1.65243">
        <ele>81.25</ele>
        <time>2023-10-22T09:54:03Z</time>
      </trkpt>
      <trkpt lat="47.17126" lon="-1.65262">
        <ele>82.1</ele>
        <time>2023-10-22T09:54:05Z</time>
      </trkpt>
      <trkpt lat="47.17133" lon="-1.65281">
        <ele>81.53</ele>
        <time>2023-10-22T09:54:07Z</time>
      </trkpt>
      <trkpt lat="47.17138" lon="-1.653">
        <ele>81.83</ele>
        <time>2023-10-22T09:54:09Z</time>
      </trkpt>
      <trkpt lat="47.17137" lon="-1.65322">
        <ele>81.25</ele>
        <time>2023-10-22T09:54:11Z</time>
      </trkpt>
      <trkpt lat="47.17131" lon="-1.65337">
        <ele>81.83</ele>
        <time>2023-10-22T09:54:13Z</time>
      </trkpt>
      <trkpt lat="47.17121" lon="-1.65351">
        <ele>81.18</ele>
        <time>2023-10-22T09:54:15Z</time>
      </trkpt>
      <trkpt lat="47.17117" lon="-1.65371">
        <ele>81.16</ele>
        <time>2023-10-22T09:54:17Z</time>
      </trkpt>
      <trkpt lat="47.17117" lon="-1.65391">
        <ele>81.95</ele>
        <time>2023-10-22T09:54:19Z</time>
      </trkpt>
      <trkpt lat="47.17117" lon="-1.65412">
        <ele>82.38</ele>
        <time>2023-10-22T09:54:21Z</time>
      </trkpt>
      <trkpt lat="47.17118" lon="-1.65435">
        <ele>83.42</ele>
        <time>2023-10-22T09:54:23Z</time>
      </trkpt>
      <trkpt lat="47.17118" lon="-1.65457">
        <ele>85.23</ele>
        <time>2023-10-22T09:54:25Z</time>
      </trkpt>
      <trkpt lat="47.17116" lon="-1.65479">
        <ele>86.07</ele>
        <time>2023-10-22T09:54:27Z</time>
      </trkpt>
      <trkpt lat="47.17112" lon="-1.655">
        <ele>86.22</ele>
        <time>2023-10-22T09:54:29Z</time>
      </trkpt>
      <trkpt lat="47.17105" lon="-1.65532">
        <ele>85.51</ele>
        <time>2023-10-22T09:54:32Z</time>
      </trkpt>
      <trkpt lat="47.17097" lon="-1.65551">
        <ele>85.6</ele>
        <time>2023-10-22T09:54:34Z</time>
      </trkpt>
      <trkpt lat="47.17087" lon="-1.65567">
        <ele>84.98</ele>
        <time>2023-10-22T09:54:36Z</time>
      </trkpt>
      <trkpt lat="47.17078" lon="-1.65584">
        <ele>85.34</ele>
        <time>2023-10-22T09:54:38Z</time>
      </trkpt>
      <trkpt lat="47.17068" lon="-1.656">
        <ele>85.23</ele>
        <time>2023-10-22T09:54:40Z</time>
      </trkpt>
      <trkpt lat="47.17058" lon="-1.65617">
        <ele>85.24</ele>
        <time>2023-10-22T09:54:42Z</time>
      </trkpt>
      <trkpt lat="47.17049" lon="-1.65634">
        <ele>84.9</ele>
        <time>2023-10-22T09:54:44Z</time>
      </trkpt>
      <trkpt lat="47.17039" lon="-1.65652">
        <ele>84.28</ele>
        <time>2023-10-22T09:54:46Z</time>
      </trkpt>
      <trkpt lat="47.17029" lon="-1.65671">
        <ele>83.2</ele>
        <time>2023-10-22T09:54:48Z</time>
      </trkpt>
      <trkpt lat="47.17019" lon="-1.65692">
        <ele>81.86</ele>
        <time>2023-10-22T09:54:50Z</time>
      </trkpt>
      <trkpt lat="47.1701" lon="-1.65712">
        <ele>82.21</ele>
        <time>2023-10-22T09:54:52Z</time>
      </trkpt>
      <trkpt lat="47.17005" lon="-1.65735">
        <ele>83.11</ele>
        <time>2023-10-22T09:54:54Z</time>
      </trkpt>
      <trkpt lat="47.16998" lon="-1.65757">
        <ele>83.52</ele>
        <time>2023-10-22T09:54:56Z</time>
      </trkpt>
      <trkpt lat="47.16987" lon="-1.65772">
        <ele>83.62</ele>
        <time>2023-10-22T09:54:58Z</time>
      </trkpt>
      <trkpt lat="47.16971" lon="-1.6578">
        <ele>83.1</ele>
        <time>2023-10-22T09:55:00Z</time>
      </trkpt>
      <trkpt lat="47.16958" lon="-1.65795">
        <ele>82.87</ele>
        <time>2023-10-22T09:55:02Z</time>
      </trkpt>
      <trkpt lat="47.16947" lon="-1.65814">
        <ele>82.44</ele>
        <time>2023-10-22T09:55:04Z</time>
      </trkpt>
      <trkpt lat="47.16937" lon="-1.65834">
        <ele>81.87</ele>
        <time>2023-10-22T09:55:06Z</time>
      </trkpt>
      <trkpt lat="47.16927" lon="-1.65854">
        <ele>81.75</ele>
        <time>2023-10-22T09:55:08Z</time>
      </trkpt>
      <trkpt lat="47.16917" lon="-1.65873">
        <ele>81.34</ele>
        <time>2023-10-22T09:55:10Z</time>
      </trkpt>
      <trkpt lat="47.16908" lon="-1.65893">
        <ele>81.52</ele>
        <time>2023-10-22T09:55:12Z</time>
      </trkpt>
      <trkpt lat="47.16899" lon="-1.65913">
        <ele>81.46</ele>
        <time>2023-10-22T09:55:14Z</time>
      </trkpt>
      <trkpt lat="47.16889" lon="-1.65933">
        <ele>81.56</ele>
        <time>2023-10-22T09:55:16Z</time>
      </trkpt>
      <trkpt lat="47.16881" lon="-1.65952">
        <ele>81.42</ele>
        <time>2023-10-22T09:55:18Z</time>
      </trkpt>
      <trkpt lat="47.16873" lon="-1.65974">
        <ele>80.79</ele>
        <time>2023-10-22T09:55:20Z</time>
      </trkpt>
      <trkpt lat="47.16866" lon="-1.65997">
        <ele>80.71</ele>
        <time>2023-10-22T09:55:22Z</time>
      </trkpt>
      <trkpt lat="47.1686" lon="-1.66019">
        <ele>80.76</ele>
        <time>2023-10-22T09:55:24Z</time>
      </trkpt>
      <trkpt lat="47.16855" lon="-1.66042">
        <ele>81.16</ele>
        <time>2023-10-22T09:55:26Z</time>
      </trkpt>
      <trkpt lat="47.16851" lon="-1.66065">
        <ele>81.05</ele>
        <time>2023-10-22T09:55:28Z</time>
      </trkpt>
      <trkpt lat="47.16848" lon="-1.6609">
        <ele>79.33</ele>
        <time>2023-10-22T09:55:30Z</time>
      </trkpt>
      <trkpt lat="47.16848" lon="-1.66114">
        <ele>78.27</ele>
        <time>2023-10-22T09:55:32Z</time>
      </trkpt>
      <trkpt lat="47.16846" lon="-1.66137">
        <ele>78.45</ele>
        <time>2023-10-22T09:55:34Z</time>
      </trkpt>
      <trkpt lat="47.16845" lon="-1.66158">
        <ele>79.74</ele>
        <time>2023-10-22T09:55:36Z</time>
      </trkpt>
      <trkpt lat="47.16847" lon="-1.66183">
        <ele>78.3</ele>
        <time>2023-10-22T09:55:38Z</time>
      </trkpt>
      <trkpt lat="47.16849" lon="-1.66206">
        <ele>78.18</ele>
        <time>2023-10-22T09:55:40Z</time>
      </trkpt>
      <trkpt lat="47.16851" lon="-1.66227">
        <ele>78.98</ele>
        <time>2023-10-22T09:55:42Z</time>
      </trkpt>
      <trkpt lat="47.16852" lon="-1.66248">
        <ele>80.55</ele>
        <time>2023-10-22T09:55:44Z</time>
      </trkpt>
      <trkpt lat="47.16853" lon="-1.66269">
        <ele>81.41</ele>
        <time>2023-10-22T09:55:46Z</time>
      </trkpt>
      <trkpt lat="47.16856" lon="-1.66292">
        <ele>80.54</ele>
        <time>2023-10-22T09:55:48Z</time>
      </trkpt>
      <trkpt lat="47.16858" lon="-1.66314">
        <ele>80.55</ele>
        <time>2023-10-22T09:55:50Z</time>
      </trkpt>
      <trkpt lat="47.16859" lon="-1.66337">
        <ele>80.75</ele>
        <time>2023-10-22T09:55:52Z</time>
      </trkpt>
      <trkpt lat="47.16861" lon="-1.6636">
        <ele>81.28</ele>
        <time>2023-10-22T09:55:54Z</time>
      </trkpt>
      <trkpt lat="47.16863" lon="-1.6638">
        <ele>82.13</ele>
        <time>2023-10-22T09:55:56Z</time>
      </trkpt>
      <trkpt lat="47.16865" lon="-1.66401">
        <ele>83.48</ele>
        <time>2023-10-22T09:55:58Z</time>
      </trkpt>
      <trkpt lat="47.16867" lon="-1.66422">
        <ele>84.34</ele>
        <time>2023-10-22T09:56:00Z</time>
      </trkpt>
      <trkpt lat="47.1687" lon="-1.66446">
        <ele>82.65</ele>
        <time>2023-10-22T09:56:02Z</time>
      </trkpt>
      <trkpt lat="47.16873" lon="-1.66467">
        <ele>83.03</ele>
        <time>2023-10-22T09:56:04Z</time>
      </trkpt>
      <trkpt lat="47.16875" lon="-1.66488">
        <ele>83.95</ele>
        <time>2023-10-22T09:56:06Z</time>
      </trkpt>
      <trkpt lat="47.16876" lon="-1.66509">
        <ele>83.36</ele>
        <time>2023-10-22T09:56:08Z</time>
      </trkpt>
      <trkpt lat="47.16878" lon="-1.6653">
        <ele>82.44</ele>
        <time>2023-10-22T09:56:10Z</time>
      </trkpt>
      <trkpt lat="47.16881" lon="-1.66554">
        <ele>81.1</ele>
        <time>2023-10-22T09:56:12Z</time>
      </trkpt>
      <trkpt lat="47.16884" lon="-1.66575">
        <ele>80.88</ele>
        <time>2023-10-22T09:56:14Z</time>
      </trkpt>
      <trkpt lat="47.16886" lon="-1.66595">
        <ele>81.37</ele>
        <time>2023-10-22T09:56:16Z</time>
      </trkpt>
      <trkpt lat="47.16888" lon="-1.66615">
        <ele>82.36</ele>
        <time>2023-10-22T09:56:18Z</time>
      </trkpt>
      <trkpt lat="47.1689" lon="-1.66638">
        <ele>82.01</ele>
        <time>2023-10-22T09:56:20Z</time>
      </trkpt>
      <trkpt lat="47.16891" lon="-1.66661">
        <ele>81.62</ele>
        <time>2023-10-22T09:56:22Z</time>
      </trkpt>
      <trkpt lat="47.16891" lon="-1.66682">
        <ele>81.23</ele>
        <time>2023-10-22T09:56:24Z</time>
      </trkpt>
      <trkpt lat="47.16887" lon="-1.66704">
        <ele>81.28</ele>
        <time>2023-10-22T09:56:26Z</time>
      </trkpt>
      <trkpt lat="47.16881" lon="-1.66726">
        <ele>80.24</ele>
        <time>2023-10-22T09:56:28Z</time>
      </trkpt>
      <trkpt lat="47.16873" lon="-1.66744">
        <ele>81.64</ele>
        <time>2023-10-22T09:56:30Z</time>
      </trkpt>
      <trkpt lat="47.16864" lon="-1.66762">
        <ele>81.77</ele>
        <time>2023-10-22T09:56:32Z</time>
      </trkpt>
      <trkpt lat="47.16855" lon="-1.6678">
        <ele>81.71</ele>
        <time>2023-10-22T09:56:34Z</time>
      </trkpt>
      <trkpt lat="47.16846" lon="-1.66798">
        <ele>81.92</ele>
        <time>2023-10-22T09:56:36Z</time>
      </trkpt>
      <trkpt lat="47.16835" lon="-1.66816">
        <ele>83.04</ele>
        <time>2023-10-22T09:56:38Z</time>
      </trkpt>
      <trkpt lat="47.16826" lon="-1.66835">
        <ele>82.94</ele>
        <time>2023-10-22T09:56:40Z</time>
      </trkpt>
      <trkpt lat="47.16816" lon="-1.66855">
        <ele>82.65</ele>
        <time>2023-10-22T09:56:42Z</time>
      </trkpt>
      <trkpt lat="47.16806" lon="-1.66872">
        <ele>83.23</ele>
        <time>2023-10-22T09:56:44Z</time>
      </trkpt>
      <trkpt lat="47.16795" lon="-1.66886">
        <ele>84.56</ele>
        <time>2023-10-22T09:56:46Z</time>
      </trkpt>
      <trkpt lat="47.16782" lon="-1.66898">
        <ele>84.36</ele>
        <time>2023-10-22T09:56:48Z</time>
      </trkpt>
      <trkpt lat="47.16769" lon="-1.66907">
        <ele>84.23</ele>
        <time>2023-10-22T09:56:50Z</time>
      </trkpt>
      <trkpt lat="47.16753" lon="-1.66914">
        <ele>81.93</ele>
        <time>2023-10-22T09:56:52Z</time>
      </trkpt>
      <trkpt lat="47.16738" lon="-1.66918">
        <ele>82.04</ele>
        <time>2023-10-22T09:56:54Z</time>
      </trkpt>
      <trkpt lat="47.16729" lon="-1.66921">
        <ele>80.92</ele>
        <time>2023-10-22T09:56:55Z</time>
      </trkpt>
      <trkpt lat="47.16715" lon="-1.66925">
        <ele>80.36</ele>
        <time>2023-10-22T09:56:57Z</time>
      </trkpt>
      <trkpt lat="47.16701" lon="-1.66932">
        <ele>81.58</ele>
        <time>2023-10-22T09:56:59Z</time>
      </trkpt>
      <trkpt lat="47.16691" lon="-1.66936">
        <ele>79.4</ele>
        <time>2023-10-22T09:57:00Z</time>
      </trkpt>
      <trkpt lat="47.16679" lon="-1.66944">
        <ele>80.47</ele>
        <time>2023-10-22T09:57:02Z</time>
      </trkpt>
      <trkpt lat="47.16669" lon="-1.66963">
        <ele>80.18</ele>
        <time>2023-10-22T09:57:04Z</time>
      </trkpt>
      <trkpt lat="47.16662" lon="-1.66983">
        <ele>80.62</ele>
        <time>2023-10-22T09:57:06Z</time>
      </trkpt>
      <trkpt lat="47.16658" lon="-1.67003">
        <ele>82.67</ele>
        <time>2023-10-22T09:57:08Z</time>
      </trkpt>
      <trkpt lat="47.16654" lon="-1.67024">
        <ele>84.6</ele>
        <time>2023-10-22T09:57:10Z</time>
      </trkpt>
      <trkpt lat="47.1665" lon="-1.67047">
        <ele>85.17</ele>
        <time>2023-10-22T09:57:12Z</time>
      </trkpt>
      <trkpt lat="47.16645" lon="-1.67071">
        <ele>82.67</ele>
        <time>2023-10-22T09:57:14Z</time>
      </trkpt>
      <trkpt lat="47.1664" lon="-1.67094">
        <ele>82.29</ele>
        <time>2023-10-22T09:57:16Z</time>
      </trkpt>
      <trkpt lat="47.16636" lon="-1.67113">
        <ele>82.52</ele>
        <time>2023-10-22T09:57:18Z</time>
      </trkpt>
      <trkpt lat="47.16632" lon="-1.67134">
        <ele>81.97</ele>
        <time>2023-10-22T09:57:20Z</time>
      </trkpt>
      <trkpt lat="47.16628" lon="-1.67154">
        <ele>82.03</ele>
        <time>2023-10-22T09:57:22Z</time>
      </trkpt>
      <trkpt lat="47.16623" lon="-1.67173">
        <ele>81.85</ele>
        <time>2023-10-22T09:57:24Z</time>
      </trkpt>
      <trkpt lat="47.16619" lon="-1.67193">
        <ele>82.71</ele>
        <time>2023-10-22T09:57:26Z</time>
      </trkpt>
      <trkpt lat="47.16617" lon="-1.67212">
        <ele>82.21</ele>
        <time>2023-10-22T09:57:28Z</time>
      </trkpt>
      <trkpt lat="47.16613" lon="-1.67229">
        <ele>82.44</ele>
        <time>2023-10-22T09:57:30Z</time>
      </trkpt>
      <trkpt lat="47.16609" lon="-1.67246">
        <ele>82.36</ele>
        <time>2023-10-22T09:57:32Z</time>
      </trkpt>
      <trkpt lat="47.16606" lon="-1.6726">
        <ele>83.48</ele>
        <time>2023-10-22T09:57:34Z</time>
      </trkpt>
      <trkpt lat="47.166" lon="-1.67276">
        <ele>82.49</ele>
        <time>2023-10-22T09:57:36Z</time>
      </trkpt>
      <trkpt lat="47.16593" lon="-1.67295">
        <ele>80.94</ele>
        <time>2023-10-22T09:57:38Z</time>
      </trkpt>
      <trkpt lat="47.16585" lon="-1.6731">
        <ele>82.08</ele>
        <time>2023-10-22T09:57:40Z</time>
      </trkpt>
      <trkpt lat="47.16577" lon="-1.67327">
        <ele>82.88</ele>
        <time>2023-10-22T09:57:42Z</time>
      </trkpt>
      <trkpt lat="47.16568" lon="-1.67345">
        <ele>83.17</ele>
        <time>2023-10-22T09:57:44Z</time>
      </trkpt>
      <trkpt lat="47.16559" lon="-1.67367">
        <ele>80.47</ele>
        <time>2023-10-22T09:57:46Z</time>
      </trkpt>
      <trkpt lat="47.16547" lon="-1.67382">
        <ele>80.67</ele>
        <time>2023-10-22T09:57:48Z</time>
      </trkpt>
      <trkpt lat="47.16537" lon="-1.67398">
        <ele>80.55</ele>
        <time>2023-10-22T09:57:50Z</time>
      </trkpt>
      <trkpt lat="47.16528" lon="-1.67414">
        <ele>79.63</ele>
        <time>2023-10-22T09:57:52Z</time>
      </trkpt>
      <trkpt lat="47.16518" lon="-1.6743">
        <ele>79.04</ele>
        <time>2023-10-22T09:57:54Z</time>
      </trkpt>
      <trkpt lat="47.16507" lon="-1.67445">
        <ele>79.21</ele>
        <time>2023-10-22T09:57:56Z</time>
      </trkpt>
      <trkpt lat="47.16498" lon="-1.67462">
        <ele>78.28</ele>
        <time>2023-10-22T09:57:58Z</time>
      </trkpt>
      <trkpt lat="47.16489" lon="-1.67478">
        <ele>77.92</ele>
        <time>2023-10-22T09:58:00Z</time>
      </trkpt>
      <trkpt lat="47.1648" lon="-1.67495">
        <ele>78.43</ele>
        <time>2023-10-22T09:58:02Z</time>
      </trkpt>
      <trkpt lat="47.16471" lon="-1.67512">
        <ele>78.75</ele>
        <time>2023-10-22T09:58:04Z</time>
      </trkpt>
      <trkpt lat="47.16462" lon="-1.6753">
        <ele>78.6</ele>
        <time>2023-10-22T09:58:06Z</time>
      </trkpt>
      <trkpt lat="47.16454" lon="-1.67544">
        <ele>79.51</ele>
        <time>2023-10-22T09:58:08Z</time>
      </trkpt>
      <trkpt lat="47.16444" lon="-1.67561">
        <ele>79.44</ele>
        <time>2023-10-22T09:58:10Z</time>
      </trkpt>
      <trkpt lat="47.16436" lon="-1.67577">
        <ele>79.23</ele>
        <time>2023-10-22T09:58:12Z</time>
      </trkpt>
      <trkpt lat="47.16427" lon="-1.67595">
        <ele>79.15</ele>
        <time>2023-10-22T09:58:14Z</time>
      </trkpt>
      <trkpt lat="47.16419" lon="-1.67612">
        <ele>78.94</ele>
        <time>2023-10-22T09:58:16Z</time>
      </trkpt>
      <trkpt lat="47.1641" lon="-1.6763">
        <ele>79.08</ele>
        <time>2023-10-22T09:58:18Z</time>
      </trkpt>
      <trkpt lat="47.16401" lon="-1.67648">
        <ele>78.5</ele>
        <time>2023-10-22T09:58:20Z</time>
      </trkpt>
      <trkpt lat="47.16392" lon="-1.67666">
        <ele>79.23</ele>
        <time>2023-10-22T09:58:22Z</time>
      </trkpt>
      <trkpt lat="47.16383" lon="-1.67684">
        <ele>79.18</ele>
        <time>2023-10-22T09:58:24Z</time>
      </trkpt>
      <trkpt lat="47.16374" lon="-1.67699">
        <ele>80.18</ele>
        <time>2023-10-22T09:58:26Z</time>
      </trkpt>
      <trkpt lat="47.16366" lon="-1.67716">
        <ele>79.03</ele>
        <time>2023-10-22T09:58:28Z</time>
      </trkpt>
      <trkpt lat="47.16358" lon="-1.67733">
        <ele>78.69</ele>
        <time>2023-10-22T09:58:30Z</time>
      </trkpt>
      <trkpt lat="47.16349" lon="-1.67749">
        <ele>78.49</ele>
        <time>2023-10-22T09:58:32Z</time>
      </trkpt>
      <trkpt lat="47.16339" lon="-1.67767">
        <ele>78.67</ele>
        <time>2023-10-22T09:58:34Z</time>
      </trkpt>
      <trkpt lat="47.1633" lon="-1.67783">
        <ele>78.71</ele>
        <time>2023-10-22T09:58:36Z</time>
      </trkpt>
      <trkpt lat="47.16322" lon="-1.678">
        <ele>79.46</ele>
        <time>2023-10-22T09:58:38Z</time>
      </trkpt>
      <trkpt lat="47.16312" lon="-1.67818">
        <ele>79.49</ele>
        <time>2023-10-22T09:58:40Z</time>
      </trkpt>
      <trkpt lat="47.16303" lon="-1.67834">
        <ele>79.83</ele>
        <time>2023-10-22T09:58:42Z</time>
      </trkpt>
      <trkpt lat="47.16294" lon="-1.67852">
        <ele>78.72</ele>
        <time>2023-10-22T09:58:44Z</time>
      </trkpt>
      <trkpt lat="47.16286" lon="-1.67867">
        <ele>79.13</ele>
        <time>2023-10-22T09:58:46Z</time>
      </trkpt>
      <trkpt lat="47.16277" lon="-1.67885">
        <ele>78.39</ele>
        <time>2023-10-22T09:58:48Z</time>
      </trkpt>
      <trkpt lat="47.16268" lon="-1.67899">
        <ele>79.69</ele>
        <time>2023-10-22T09:58:50Z</time>
      </trkpt>
      <trkpt lat="47.16259" lon="-1.67912">
        <ele>81.75</ele>
        <time>2023-10-22T09:58:52Z</time>
      </trkpt>
      <trkpt lat="47.16249" lon="-1.67927">
        <ele>82.15</ele>
        <time>2023-10-22T09:58:54Z</time>
      </trkpt>
      <trkpt lat="47.16238" lon="-1.67943">
        <ele>81.95</ele>
        <time>2023-10-22T09:58:56Z</time>
      </trkpt>
      <trkpt lat="47.1623" lon="-1.67959">
        <ele>80.29</ele>
        <time>2023-10-22T09:58:58Z</time>
      </trkpt>
      <trkpt lat="47.16224" lon="-1.67976">
        <ele>80.71</ele>
        <time>2023-10-22T09:59:00Z</time>
      </trkpt>
      <trkpt lat="47.16216" lon="-1.67991">
        <ele>81.15</ele>
        <time>2023-10-22T09:59:02Z</time>
      </trkpt>
      <trkpt lat="47.16204" lon="-1.68002">
        <ele>80.9</ele>
        <time>2023-10-22T09:59:04Z</time>
      </trkpt>
      <trkpt lat="47.16192" lon="-1.68014">
        <ele>80.69</ele>
        <time>2023-10-22T09:59:06Z</time>
      </trkpt>
      <trkpt lat="47.16181" lon="-1.68029">
        <ele>80.44</ele>
        <time>2023-10-22T09:59:08Z</time>
      </trkpt>
      <trkpt lat="47.16172" lon="-1.68042">
        <ele>79.93</ele>
        <time>2023-10-22T09:59:10Z</time>
      </trkpt>
      <trkpt lat="47.16163" lon="-1.68055">
        <ele>79.67</ele>
        <time>2023-10-22T09:59:12Z</time>
      </trkpt>
      <trkpt lat="47.16154" lon="-1.68069">
        <ele>80.79</ele>
        <time>2023-10-22T09:59:14Z</time>
      </trkpt>
      <trkpt lat="47.16146" lon="-1.68085">
        <ele>80.89</ele>
        <time>2023-10-22T09:59:16Z</time>
      </trkpt>
      <trkpt lat="47.16139" lon="-1.68103">
        <ele>80.5</ele>
        <time>2023-10-22T09:59:18Z</time>
      </trkpt>
      <trkpt lat="47.16135" lon="-1.68123">
        <ele>80.17</ele>
        <time>2023-10-22T09:59:20Z</time>
      </trkpt>
      <trkpt lat="47.16131" lon="-1.68143">
        <ele>79.8</ele>
        <time>2023-10-22T09:59:22Z</time>
      </trkpt>
      <trkpt lat="47.16127" lon="-1.68162">
        <ele>79.7</ele>
        <time>2023-10-22T09:59:24Z</time>
      </trkpt>
      <trkpt lat="47.16122" lon="-1.6818">
        <ele>79.81</ele>
        <time>2023-10-22T09:59:26Z</time>
      </trkpt>
      <trkpt lat="47.16119" lon="-1.68201">
        <ele>79.63</ele>
        <time>2023-10-22T09:59:28Z</time>
      </trkpt>
      <trkpt lat="47.16114" lon="-1.68221">
        <ele>80.26</ele>
        <time>2023-10-22T09:59:30Z</time>
      </trkpt>
      <trkpt lat="47.16111" lon="-1.68242">
        <ele>80.98</ele>
        <time>2023-10-22T09:59:32Z</time>
      </trkpt>
      <trkpt lat="47.16104" lon="-1.6826">
        <ele>80.51</ele>
        <time>2023-10-22T09:59:34Z</time>
      </trkpt>
      <trkpt lat="47.16102" lon="-1.68275">
        <ele>78.49</ele>
        <time>2023-10-22T09:59:35Z</time>
      </trkpt>
      <trkpt lat="47.16097" lon="-1.68299">
        <ele>77.39</ele>
        <time>2023-10-22T09:59:37Z</time>
      </trkpt>
      <trkpt lat="47.16095" lon="-1.68313">
        <ele>75.48</ele>
        <time>2023-10-22T09:59:38Z</time>
      </trkpt>
      <trkpt lat="47.16094" lon="-1.68328">
        <ele>73.09</ele>
        <time>2023-10-22T09:59:39Z</time>
      </trkpt>
      <trkpt lat="47.16089" lon="-1.68351">
        <ele>73.1</ele>
        <time>2023-10-22T09:59:41Z</time>
      </trkpt>
      <trkpt lat="47.16086" lon="-1.68375">
        <ele>72.07</ele>
        <time>2023-10-22T09:59:43Z</time>
      </trkpt>
      <trkpt lat="47.16082" lon="-1.68397">
        <ele>71.02</ele>
        <time>2023-10-22T09:59:45Z</time>
      </trkpt>
      <trkpt lat="47.16078" lon="-1.68415">
        <ele>73</ele>
        <time>2023-10-22T09:59:47Z</time>
      </trkpt>
      <trkpt lat="47.16072" lon="-1.68433">
        <ele>71.93</ele>
        <time>2023-10-22T09:59:49Z</time>
      </trkpt>
      <trkpt lat="47.16068" lon="-1.68453">
        <ele>72.31</ele>
        <time>2023-10-22T09:59:51Z</time>
      </trkpt>
      <trkpt lat="47.16064" lon="-1.68473">
        <ele>73.32</ele>
        <time>2023-10-22T09:59:53Z</time>
      </trkpt>
      <trkpt lat="47.16062" lon="-1.68494">
        <ele>73.06</ele>
        <time>2023-10-22T09:59:55Z</time>
      </trkpt>
      <trkpt lat="47.16059" lon="-1.68516">
        <ele>73.22</ele>
        <time>2023-10-22T09:59:57Z</time>
      </trkpt>
      <trkpt lat="47.16056" lon="-1.68537">
        <ele>74.29</ele>
        <time>2023-10-22T09:59:59Z</time>
      </trkpt>
      <trkpt lat="47.16053" lon="-1.68558">
        <ele>74.58</ele>
        <time>2023-10-22T10:00:01Z</time>
      </trkpt>
      <trkpt lat="47.1605" lon="-1.68578">
        <ele>76</ele>
        <time>2023-10-22T10:00:03Z</time>
      </trkpt>
      <trkpt lat="47.16046" lon="-1.68601">
        <ele>74.87</ele>
        <time>2023-10-22T10:00:05Z</time>
      </trkpt>
      <trkpt lat="47.16045" lon="-1.68621">
        <ele>74.68</ele>
        <time>2023-10-22T10:00:07Z</time>
      </trkpt>
      <trkpt lat="47.16044" lon="-1.68642">
        <ele>74.21</ele>
        <time>2023-10-22T10:00:09Z</time>
      </trkpt>
      <trkpt lat="47.16044" lon="-1.68664">
        <ele>75.07</ele>
        <time>2023-10-22T10:00:11Z</time>
      </trkpt>
      <trkpt lat="47.16044" lon="-1.68685">
        <ele>73.82</ele>
        <time>2023-10-22T10:00:13Z</time>
      </trkpt>
      <trkpt lat="47.16045" lon="-1.68706">
        <ele>75.02</ele>
        <time>2023-10-22T10:00:15Z</time>
      </trkpt>
      <trkpt lat="47.16048" lon="-1.68727">
        <ele>74.6</ele>
        <time>2023-10-22T10:00:17Z</time>
      </trkpt>
      <trkpt lat="47.16051" lon="-1.68748">
        <ele>74.44</ele>
        <time>2023-10-22T10:00:19Z</time>
      </trkpt>
      <trkpt lat="47.16055" lon="-1.68768">
        <ele>75.51</ele>
        <time>2023-10-22T10:00:21Z</time>
      </trkpt>
      <trkpt lat="47.16059" lon="-1.68786">
        <ele>75.73</ele>
        <time>2023-10-22T10:00:23Z</time>
      </trkpt>
      <trkpt lat="47.16065" lon="-1.68804">
        <ele>76.98</ele>
        <time>2023-10-22T10:00:25Z</time>
      </trkpt>
      <trkpt lat="47.1607" lon="-1.68823">
        <ele>77.3</ele>
        <time>2023-10-22T10:00:27Z</time>
      </trkpt>
      <trkpt lat="47.16075" lon="-1.68841">
        <ele>77.6</ele>
        <time>2023-10-22T10:00:29Z</time>
      </trkpt>
      <trkpt lat="47.16081" lon="-1.68859">
        <ele>76.87</ele>
        <time>2023-10-22T10:00:31Z</time>
      </trkpt>
      <trkpt lat="47.16086" lon="-1.68878">
        <ele>77.05</ele>
        <time>2023-10-22T10:00:33Z</time>
      </trkpt>
      <trkpt lat="47.16092" lon="-1.68898">
        <ele>77.06</ele>
        <time>2023-10-22T10:00:35Z</time>
      </trkpt>
      <trkpt lat="47.16097" lon="-1.68917">
        <ele>76.76</ele>
        <time>2023-10-22T10:00:37Z</time>
      </trkpt>
      <trkpt lat="47.16103" lon="-1.68938">
        <ele>76.12</ele>
        <time>2023-10-22T10:00:39Z</time>
      </trkpt>
      <trkpt lat="47.1611" lon="-1.68957">
        <ele>75.51</ele>
        <time>2023-10-22T10:00:41Z</time>
      </trkpt>
      <trkpt lat="47.16117" lon="-1.68978">
        <ele>76.29</ele>
        <time>2023-10-22T10:00:43Z</time>
      </trkpt>
      <trkpt lat="47.16123" lon="-1.69">
        <ele>76.08</ele>
        <time>2023-10-22T10:00:45Z</time>
      </trkpt>
      <trkpt lat="47.1613" lon="-1.69025">
        <ele>74.22</ele>
        <time>2023-10-22T10:00:47Z</time>
      </trkpt>
      <trkpt lat="47.16135" lon="-1.69048">
        <ele>73.93</ele>
        <time>2023-10-22T10:00:49Z</time>
      </trkpt>
      <trkpt lat="47.16138" lon="-1.69072">
        <ele>73.37</ele>
        <time>2023-10-22T10:00:51Z</time>
      </trkpt>
      <trkpt lat="47.16139" lon="-1.69086">
        <ele>72.87</ele>
        <time>2023-10-22T10:00:52Z</time>
      </trkpt>
      <trkpt lat="47.1614" lon="-1.69099">
        <ele>73.09</ele>
        <time>2023-10-22T10:00:53Z</time>
      </trkpt>
      <trkpt lat="47.16142" lon="-1.69124">
        <ele>72.64</ele>
        <time>2023-10-22T10:00:55Z</time>
      </trkpt>
      <trkpt lat="47.16143" lon="-1.69137">
        <ele>72.92</ele>
        <time>2023-10-22T10:00:56Z</time>
      </trkpt>
      <trkpt lat="47.16143" lon="-1.69161">
        <ele>73.57</ele>
        <time>2023-10-22T10:00:58Z</time>
      </trkpt>
      <trkpt lat="47.16142" lon="-1.69187">
        <ele>74.73</ele>
        <time>2023-10-22T10:01:00Z</time>
      </trkpt>
      <trkpt lat="47.16141" lon="-1.69212">
        <ele>74.36</ele>
        <time>2023-10-22T10:01:02Z</time>
      </trkpt>
      <trkpt lat="47.16139" lon="-1.69238">
        <ele>74.12</ele>
        <time>2023-10-22T10:01:04Z</time>
      </trkpt>
      <trkpt lat="47.16136" lon="-1.69261">
        <ele>74.34</ele>
        <time>2023-10-22T10:01:06Z</time>
      </trkpt>
      <trkpt lat="47.16136" lon="-1.69275">
        <ele>73.29</ele>
        <time>2023-10-22T10:01:07Z</time>
      </trkpt>
      <trkpt lat="47.16132" lon="-1.69298">
        <ele>73.47</ele>
        <time>2023-10-22T10:01:09Z</time>
      </trkpt>
      <trkpt lat="47.16129" lon="-1.6932">
        <ele>73.58</ele>
        <time>2023-10-22T10:01:11Z</time>
      </trkpt>
      <trkpt lat="47.16125" lon="-1.69342">
        <ele>73.86</ele>
        <time>2023-10-22T10:01:13Z</time>
      </trkpt>
      <trkpt lat="47.16123" lon="-1.69364">
        <ele>73.81</ele>
        <time>2023-10-22T10:01:15Z</time>
      </trkpt>
      <trkpt lat="47.1612" lon="-1.69386">
        <ele>74.8</ele>
        <time>2023-10-22T10:01:17Z</time>
      </trkpt>
      <trkpt lat="47.16118" lon="-1.6941">
        <ele>73.67</ele>
        <time>2023-10-22T10:01:19Z</time>
      </trkpt>
      <trkpt lat="47.16117" lon="-1.69433">
        <ele>73.41</ele>
        <time>2023-10-22T10:01:21Z</time>
      </trkpt>
      <trkpt lat="47.16117" lon="-1.69454">
        <ele>74.21</ele>
        <time>2023-10-22T10:01:23Z</time>
      </trkpt>
      <trkpt lat="47.16114" lon="-1.69475">
        <ele>75.04</ele>
        <time>2023-10-22T10:01:25Z</time>
      </trkpt>
      <trkpt lat="47.16113" lon="-1.69497">
        <ele>74.67</ele>
        <time>2023-10-22T10:01:27Z</time>
      </trkpt>
      <trkpt lat="47.16111" lon="-1.69518">
        <ele>75.21</ele>
        <time>2023-10-22T10:01:29Z</time>
      </trkpt>
      <trkpt lat="47.1611" lon="-1.69539">
        <ele>76.14</ele>
        <time>2023-10-22T10:01:31Z</time>
      </trkpt>
      <trkpt lat="47.16109" lon="-1.69561">
        <ele>74.72</ele>
        <time>2023-10-22T10:01:33Z</time>
      </trkpt>
      <trkpt lat="47.16106" lon="-1.69582">
        <ele>73.96</ele>
        <time>2023-10-22T10:01:35Z</time>
      </trkpt>
      <trkpt lat="47.16105" lon="-1.69604">
        <ele>74.42</ele>
        <time>2023-10-22T10:01:37Z</time>
      </trkpt>
      <trkpt lat="47.16103" lon="-1.69624">
        <ele>74.74</ele>
        <time>2023-10-22T10:01:39Z</time>
      </trkpt>
      <trkpt lat="47.16101" lon="-1.69644">
        <ele>75.38</ele>
        <time>2023-10-22T10:01:41Z</time>
      </trkpt>
      <trkpt lat="47.161" lon="-1.69664">
        <ele>76.22</ele>
        <time>2023-10-22T10:01:43Z</time>
      </trkpt>
      <trkpt lat="47.16098" lon="-1.69685">
        <ele>75.46</ele>
        <time>2023-10-22T10:01:45Z</time>
      </trkpt>
      <trkpt lat="47.16097" lon="-1.69705">
        <ele>74.52</ele>
        <time>2023-10-22T10:01:47Z</time>
      </trkpt>
      <trkpt lat="47.16096" lon="-1.69728">
        <ele>74.11</ele>
        <time>2023-10-22T10:01:49Z</time>
      </trkpt>
      <trkpt lat="47.16094" lon="-1.69749">
        <ele>75.19</ele>
        <time>2023-10-22T10:01:51Z</time>
      </trkpt>
      <trkpt lat="47.16093" lon="-1.69768">
        <ele>73.98</ele>
        <time>2023-10-22T10:01:53Z</time>
      </trkpt>
      <trkpt lat="47.16092" lon="-1.69787">
        <ele>75.48</ele>
        <time>2023-10-22T10:01:55Z</time>
      </trkpt>
      <trkpt lat="47.1609" lon="-1.69807">
        <ele>76.21</ele>
        <time>2023-10-22T10:01:57Z</time>
      </trkpt>
      <trkpt lat="47.16089" lon="-1.6983">
        <ele>75.69</ele>
        <time>2023-10-22T10:01:59Z</time>
      </trkpt>
      <trkpt lat="47.16089" lon="-1.69852">
        <ele>75.46</ele>
        <time>2023-10-22T10:02:01Z</time>
      </trkpt>
      <trkpt lat="47.16086" lon="-1.69872">
        <ele>74.32</ele>
        <time>2023-10-22T10:02:03Z</time>
      </trkpt>
      <trkpt lat="47.16085" lon="-1.69896">
        <ele>72.72</ele>
        <time>2023-10-22T10:02:05Z</time>
      </trkpt>
      <trkpt lat="47.16084" lon="-1.69917">
        <ele>72.42</ele>
        <time>2023-10-22T10:02:07Z</time>
      </trkpt>
      <trkpt lat="47.16081" lon="-1.69937">
        <ele>74.21</ele>
        <time>2023-10-22T10:02:09Z</time>
      </trkpt>
      <trkpt lat="47.16081" lon="-1.69959">
        <ele>72.95</ele>
        <time>2023-10-22T10:02:11Z</time>
      </trkpt>
      <trkpt lat="47.1608" lon="-1.69977">
        <ele>72</ele>
        <time>2023-10-22T10:02:13Z</time>
      </trkpt>
      <trkpt lat="47.16078" lon="-1.69998">
        <ele>71.95</ele>
        <time>2023-10-22T10:02:15Z</time>
      </trkpt>
      <trkpt lat="47.16076" lon="-1.7002">
        <ele>72.68</ele>
        <time>2023-10-22T10:02:17Z</time>
      </trkpt>
      <trkpt lat="47.16075" lon="-1.70043">
        <ele>71.75</ele>
        <time>2023-10-22T10:02:19Z</time>
      </trkpt>
      <trkpt lat="47.16074" lon="-1.70064">
        <ele>73.01</ele>
        <time>2023-10-22T10:02:21Z</time>
      </trkpt>
      <trkpt lat="47.16073" lon="-1.70085">
        <ele>72.26</ele>
        <time>2023-10-22T10:02:23Z</time>
      </trkpt>
      <trkpt lat="47.16069" lon="-1.70107">
        <ele>73.81</ele>
        <time>2023-10-22T10:02:25Z</time>
      </trkpt>
      <trkpt lat="47.16065" lon="-1.70129">
        <ele>73.36</ele>
        <time>2023-10-22T10:02:27Z</time>
      </trkpt>
      <trkpt lat="47.1606" lon="-1.70149">
        <ele>73.14</ele>
        <time>2023-10-22T10:02:29Z</time>
      </trkpt>
      <trkpt lat="47.16052" lon="-1.70167">
        <ele>74.37</ele>
        <time>2023-10-22T10:02:31Z</time>
      </trkpt>
      <trkpt lat="47.16043" lon="-1.70185">
        <ele>75.86</ele>
        <time>2023-10-22T10:02:33Z</time>
      </trkpt>
      <trkpt lat="47.16035" lon="-1.70201">
        <ele>77.65</ele>
        <time>2023-10-22T10:02:35Z</time>
      </trkpt>
      <trkpt lat="47.16027" lon="-1.70217">
        <ele>79.4</ele>
        <time>2023-10-22T10:02:37Z</time>
      </trkpt>
      <trkpt lat="47.1602" lon="-1.70238">
        <ele>77.7</ele>
        <time>2023-10-22T10:02:39Z</time>
      </trkpt>
      <trkpt lat="47.16012" lon="-1.70256">
        <ele>78.68</ele>
        <time>2023-10-22T10:02:41Z</time>
      </trkpt>
      <trkpt lat="47.16004" lon="-1.70274">
        <ele>79.72</ele>
        <time>2023-10-22T10:02:43Z</time>
      </trkpt>
      <trkpt lat="47.15996" lon="-1.70292">
        <ele>79.74</ele>
        <time>2023-10-22T10:02:45Z</time>
      </trkpt>
      <trkpt lat="47.15984" lon="-1.70317">
        <ele>80.25</ele>
        <time>2023-10-22T10:02:48Z</time>
      </trkpt>
      <trkpt lat="47.15975" lon="-1.70334">
        <ele>81.07</ele>
        <time>2023-10-22T10:02:50Z</time>
      </trkpt>
      <trkpt lat="47.15968" lon="-1.70354">
        <ele>79.89</ele>
        <time>2023-10-22T10:02:52Z</time>
      </trkpt>
      <trkpt lat="47.1596" lon="-1.70372">
        <ele>79.56</ele>
        <time>2023-10-22T10:02:54Z</time>
      </trkpt>
      <trkpt lat="47.15952" lon="-1.70393">
        <ele>77.92</ele>
        <time>2023-10-22T10:02:56Z</time>
      </trkpt>
      <trkpt lat="47.15944" lon="-1.70409">
        <ele>78.15</ele>
        <time>2023-10-22T10:02:58Z</time>
      </trkpt>
      <trkpt lat="47.15935" lon="-1.70426">
        <ele>79.16</ele>
        <time>2023-10-22T10:03:00Z</time>
      </trkpt>
      <trkpt lat="47.15927" lon="-1.70445">
        <ele>79.32</ele>
        <time>2023-10-22T10:03:02Z</time>
      </trkpt>
      <trkpt lat="47.15919" lon="-1.70464">
        <ele>77.51</ele>
        <time>2023-10-22T10:03:04Z</time>
      </trkpt>
      <trkpt lat="47.1591" lon="-1.70481">
        <ele>77.11</ele>
        <time>2023-10-22T10:03:06Z</time>
      </trkpt>
      <trkpt lat="47.15901" lon="-1.70498">
        <ele>77.28</ele>
        <time>2023-10-22T10:03:08Z</time>
      </trkpt>
      <trkpt lat="47.15894" lon="-1.70518">
        <ele>77.04</ele>
        <time>2023-10-22T10:03:10Z</time>
      </trkpt>
      <trkpt lat="47.15887" lon="-1.70538">
        <ele>76.64</ele>
        <time>2023-10-22T10:03:12Z</time>
      </trkpt>
      <trkpt lat="47.15882" lon="-1.70559">
        <ele>76.59</ele>
        <time>2023-10-22T10:03:14Z</time>
      </trkpt>
      <trkpt lat="47.15877" lon="-1.70579">
        <ele>76.73</ele>
        <time>2023-10-22T10:03:16Z</time>
      </trkpt>
      <trkpt lat="47.15871" lon="-1.70599">
        <ele>76.85</ele>
        <time>2023-10-22T10:03:18Z</time>
      </trkpt>
      <trkpt lat="47.15866" lon="-1.70619">
        <ele>76.01</ele>
        <time>2023-10-22T10:03:20Z</time>
      </trkpt>
      <trkpt lat="47.15861" lon="-1.7064">
        <ele>74.73</ele>
        <time>2023-10-22T10:03:22Z</time>
      </trkpt>
      <trkpt lat="47.15853" lon="-1.70659">
        <ele>74.43</ele>
        <time>2023-10-22T10:03:24Z</time>
      </trkpt>
      <trkpt lat="47.15846" lon="-1.70678">
        <ele>74.44</ele>
        <time>2023-10-22T10:03:26Z</time>
      </trkpt>
      <trkpt lat="47.15839" lon="-1.70695">
        <ele>75.34</ele>
        <time>2023-10-22T10:03:28Z</time>
      </trkpt>
      <trkpt lat="47.15831" lon="-1.70713">
        <ele>74.78</ele>
        <time>2023-10-22T10:03:30Z</time>
      </trkpt>
      <trkpt lat="47.15822" lon="-1.70731">
        <ele>74.64</ele>
        <time>2023-10-22T10:03:32Z</time>
      </trkpt>
      <trkpt lat="47.15814" lon="-1.70747">
        <ele>74.68</ele>
        <time>2023-10-22T10:03:34Z</time>
      </trkpt>
      <trkpt lat="47.15806" lon="-1.70764">
        <ele>75.08</ele>
        <time>2023-10-22T10:03:36Z</time>
      </trkpt>
      <trkpt lat="47.15799" lon="-1.70781">
        <ele>75.22</ele>
        <time>2023-10-22T10:03:38Z</time>
      </trkpt>
      <trkpt lat="47.1579" lon="-1.70798">
        <ele>76.06</ele>
        <time>2023-10-22T10:03:40Z</time>
      </trkpt>
      <trkpt lat="47.15782" lon="-1.70814">
        <ele>76.46</ele>
        <time>2023-10-22T10:03:42Z</time>
      </trkpt>
      <trkpt lat="47.15774" lon="-1.70831">
        <ele>76.02</ele>
        <time>2023-10-22T10:03:44Z</time>
      </trkpt>
      <trkpt lat="47.15766" lon="-1.70847">
        <ele>75.96</ele>
        <time>2023-10-22T10:03:46Z</time>
      </trkpt>
      <trkpt lat="47.15758" lon="-1.70863">
        <ele>76.08</ele>
        <time>2023-10-22T10:03:48Z</time>
      </trkpt>
      <trkpt lat="47.15747" lon="-1.70878">
        <ele>77.17</ele>
        <time>2023-10-22T10:03:50Z</time>
      </trkpt>
      <trkpt lat="47.15739" lon="-1.70895">
        <ele>77.15</ele>
        <time>2023-10-22T10:03:52Z</time>
      </trkpt>
      <trkpt lat="47.1573" lon="-1.7091">
        <ele>78.08</ele>
        <time>2023-10-22T10:03:54Z</time>
      </trkpt>
      <trkpt lat="47.15721" lon="-1.70927">
        <ele>77.56</ele>
        <time>2023-10-22T10:03:56Z</time>
      </trkpt>
      <trkpt lat="47.15713" lon="-1.70943">
        <ele>77.38</ele>
        <time>2023-10-22T10:03:58Z</time>
      </trkpt>
      <trkpt lat="47.15706" lon="-1.70959">
        <ele>77.88</ele>
        <time>2023-10-22T10:04:00Z</time>
      </trkpt>
      <trkpt lat="47.15698" lon="-1.70976">
        <ele>77.95</ele>
        <time>2023-10-22T10:04:02Z</time>
      </trkpt>
      <trkpt lat="47.15689" lon="-1.70992">
        <ele>78.39</ele>
        <time>2023-10-22T10:04:04Z</time>
      </trkpt>
      <trkpt lat="47.15681" lon="-1.71008">
        <ele>79.29</ele>
        <time>2023-10-22T10:04:06Z</time>
      </trkpt>
      <trkpt lat="47.15675" lon="-1.71024">
        <ele>78.29</ele>
        <time>2023-10-22T10:04:08Z</time>
      </trkpt>
      <trkpt lat="47.15669" lon="-1.71039">
        <ele>78.19</ele>
        <time>2023-10-22T10:04:10Z</time>
      </trkpt>
      <trkpt lat="47.15662" lon="-1.71053">
        <ele>77.45</ele>
        <time>2023-10-22T10:04:12Z</time>
      </trkpt>
      <trkpt lat="47.15657" lon="-1.71064">
        <ele>77.04</ele>
        <time>2023-10-22T10:04:14Z</time>
      </trkpt>
      <trkpt lat="47.15649" lon="-1.71072">
        <ele>76.74</ele>
        <time>2023-10-22T10:04:16Z</time>
      </trkpt>
      <trkpt lat="47.15636" lon="-1.71077">
        <ele>76.83</ele>
        <time>2023-10-22T10:04:18Z</time>
      </trkpt>
      <trkpt lat="47.15627" lon="-1.71091">
        <ele>76.85</ele>
        <time>2023-10-22T10:04:20Z</time>
      </trkpt>
      <trkpt lat="47.15618" lon="-1.71107">
        <ele>76.67</ele>
        <time>2023-10-22T10:04:22Z</time>
      </trkpt>
      <trkpt lat="47.1561" lon="-1.71121">
        <ele>76.36</ele>
        <time>2023-10-22T10:04:24Z</time>
      </trkpt>
      <trkpt lat="47.15602" lon="-1.71137">
        <ele>76.61</ele>
        <time>2023-10-22T10:04:26Z</time>
      </trkpt>
      <trkpt lat="47.15592" lon="-1.71153">
        <ele>75.62</ele>
        <time>2023-10-22T10:04:28Z</time>
      </trkpt>
      <trkpt lat="47.15583" lon="-1.71168">
        <ele>76.21</ele>
        <time>2023-10-22T10:04:30Z</time>
      </trkpt>
      <trkpt lat="47.15575" lon="-1.71184">
        <ele>75.56</ele>
        <time>2023-10-22T10:04:32Z</time>
      </trkpt>
      <trkpt lat="47.15565" lon="-1.71199">
        <ele>75.11</ele>
        <time>2023-10-22T10:04:34Z</time>
      </trkpt>
      <trkpt lat="47.15557" lon="-1.71213">
        <ele>76.18</ele>
        <time>2023-10-22T10:04:36Z</time>
      </trkpt>
      <trkpt lat="47.1555" lon="-1.71229">
        <ele>75.85</ele>
        <time>2023-10-22T10:04:38Z</time>
      </trkpt>
      <trkpt lat="47.15542" lon="-1.71247">
        <ele>75.98</ele>
        <time>2023-10-22T10:04:40Z</time>
      </trkpt>
      <trkpt lat="47.15535" lon="-1.71265">
        <ele>75.51</ele>
        <time>2023-10-22T10:04:42Z</time>
      </trkpt>
      <trkpt lat="47.15527" lon="-1.71282">
        <ele>76.86</ele>
        <time>2023-10-22T10:04:44Z</time>
      </trkpt>
      <trkpt lat="47.15519" lon="-1.713">
        <ele>76.54</ele>
        <time>2023-10-22T10:04:46Z</time>
      </trkpt>
      <trkpt lat="47.15511" lon="-1.71317">
        <ele>76.5</ele>
        <time>2023-10-22T10:04:48Z</time>
      </trkpt>
      <trkpt lat="47.15503" lon="-1.71334">
        <ele>76.11</ele>
        <time>2023-10-22T10:04:50Z</time>
      </trkpt>
      <trkpt lat="47.15494" lon="-1.71349">
        <ele>76.28</ele>
        <time>2023-10-22T10:04:52Z</time>
      </trkpt>
      <trkpt lat="47.15482" lon="-1.71364">
        <ele>76.56</ele>
        <time>2023-10-22T10:04:54Z</time>
      </trkpt>
      <trkpt lat="47.15472" lon="-1.71379">
        <ele>76.5</ele>
        <time>2023-10-22T10:04:56Z</time>
      </trkpt>
      <trkpt lat="47.15461" lon="-1.71395">
        <ele>76.1</ele>
        <time>2023-10-22T10:04:58Z</time>
      </trkpt>
      <trkpt lat="47.15449" lon="-1.71407">
        <ele>75.71</ele>
        <time>2023-10-22T10:05:00Z</time>
      </trkpt>
      <trkpt lat="47.15436" lon="-1.71422">
        <ele>75.18</ele>
        <time>2023-10-22T10:05:02Z</time>
      </trkpt>
      <trkpt lat="47.15424" lon="-1.71434">
        <ele>74.72</ele>
        <time>2023-10-22T10:05:04Z</time>
      </trkpt>
      <trkpt lat="47.1541" lon="-1.71445">
        <ele>74.18</ele>
        <time>2023-10-22T10:05:06Z</time>
      </trkpt>
      <trkpt lat="47.15397" lon="-1.71457">
        <ele>73.37</ele>
        <time>2023-10-22T10:05:08Z</time>
      </trkpt>
      <trkpt lat="47.15384" lon="-1.71467">
        <ele>73.9</ele>
        <time>2023-10-22T10:05:10Z</time>
      </trkpt>
      <trkpt lat="47.15371" lon="-1.71478">
        <ele>74.15</ele>
        <time>2023-10-22T10:05:12Z</time>
      </trkpt>
      <trkpt lat="47.15357" lon="-1.71491">
        <ele>73.95</ele>
        <time>2023-10-22T10:05:14Z</time>
      </trkpt>
      <trkpt lat="47.15346" lon="-1.71504">
        <ele>74.36</ele>
        <time>2023-10-22T10:05:16Z</time>
      </trkpt>
      <trkpt lat="47.15333" lon="-1.71518">
        <ele>74.07</ele>
        <time>2023-10-22T10:05:18Z</time>
      </trkpt>
      <trkpt lat="47.1532" lon="-1.71531">
        <ele>73.96</ele>
        <time>2023-10-22T10:05:20Z</time>
      </trkpt>
      <trkpt lat="47.15309" lon="-1.71545">
        <ele>73.61</ele>
        <time>2023-10-22T10:05:22Z</time>
      </trkpt>
      <trkpt lat="47.15296" lon="-1.71558">
        <ele>73.65</ele>
        <time>2023-10-22T10:05:24Z</time>
      </trkpt>
      <trkpt lat="47.15285" lon="-1.71571">
        <ele>73.76</ele>
        <time>2023-10-22T10:05:26Z</time>
      </trkpt>
      <trkpt lat="47.15271" lon="-1.71583">
        <ele>73.49</ele>
        <time>2023-10-22T10:05:28Z</time>
      </trkpt>
      <trkpt lat="47.1526" lon="-1.71596">
        <ele>73.92</ele>
        <time>2023-10-22T10:05:30Z</time>
      </trkpt>
      <trkpt lat="47.15249" lon="-1.7161">
        <ele>74.99</ele>
        <time>2023-10-22T10:05:32Z</time>
      </trkpt>
      <trkpt lat="47.15237" lon="-1.71623">
        <ele>74.77</ele>
        <time>2023-10-22T10:05:34Z</time>
      </trkpt>
      <trkpt lat="47.15224" lon="-1.71623">
        <ele>74.52</ele>
        <time>2023-10-22T10:05:36Z</time>
      </trkpt>
      <trkpt lat="47.15211" lon="-1.71614">
        <ele>74.18</ele>
        <time>2023-10-22T10:05:38Z</time>
      </trkpt>
      <trkpt lat="47.15197" lon="-1.71604">
        <ele>74.15</ele>
        <time>2023-10-22T10:05:40Z</time>
      </trkpt>
      <trkpt lat="47.15183" lon="-1.71592">
        <ele>74.39</ele>
        <time>2023-10-22T10:05:42Z</time>
      </trkpt>
      <trkpt lat="47.1517" lon="-1.71582">
        <ele>75.02</ele>
        <time>2023-10-22T10:05:44Z</time>
      </trkpt>
      <trkpt lat="47.15156" lon="-1.71573">
        <ele>75.83</ele>
        <time>2023-10-22T10:05:46Z</time>
      </trkpt>
      <trkpt lat="47.15142" lon="-1.71563">
        <ele>76.42</ele>
        <time>2023-10-22T10:05:48Z</time>
      </trkpt>
      <trkpt lat="47.15129" lon="-1.71553">
        <ele>76</ele>
        <time>2023-10-22T10:05:50Z</time>
      </trkpt>
      <trkpt lat="47.15116" lon="-1.71542">
        <ele>75.19</ele>
        <time>2023-10-22T10:05:52Z</time>
      </trkpt>
      <trkpt lat="47.15104" lon="-1.71531">
        <ele>75.3</ele>
        <time>2023-10-22T10:05:54Z</time>
      </trkpt>
      <trkpt lat="47.15092" lon="-1.7152">
        <ele>74.82</ele>
        <time>2023-10-22T10:05:56Z</time>
      </trkpt>
      <trkpt lat="47.1508" lon="-1.71509">
        <ele>73.51</ele>
        <time>2023-10-22T10:05:58Z</time>
      </trkpt>
      <trkpt lat="47.15069" lon="-1.71497">
        <ele>73.35</ele>
        <time>2023-10-22T10:06:00Z</time>
      </trkpt>
      <trkpt lat="47.15057" lon="-1.71485">
        <ele>73.05</ele>
        <time>2023-10-22T10:06:02Z</time>
      </trkpt>
      <trkpt lat="47.15046" lon="-1.71474">
        <ele>71.4</ele>
        <time>2023-10-22T10:06:04Z</time>
      </trkpt>
      <trkpt lat="47.15034" lon="-1.71462">
        <ele>71.28</ele>
        <time>2023-10-22T10:06:06Z</time>
      </trkpt>
      <trkpt lat="47.15023" lon="-1.7145">
        <ele>71.65</ele>
        <time>2023-10-22T10:06:08Z</time>
      </trkpt>
      <trkpt lat="47.15012" lon="-1.7144">
        <ele>71.88</ele>
        <time>2023-10-22T10:06:10Z</time>
      </trkpt>
      <trkpt lat="47.15" lon="-1.71429">
        <ele>72</ele>
        <time>2023-10-22T10:06:12Z</time>
      </trkpt>
      <trkpt lat="47.14989" lon="-1.71419">
        <ele>71.79</ele>
        <time>2023-10-22T10:06:14Z</time>
      </trkpt>
      <trkpt lat="47.14975" lon="-1.71407">
        <ele>71.56</ele>
        <time>2023-10-22T10:06:16Z</time>
      </trkpt>
      <trkpt lat="47.14963" lon="-1.71394">
        <ele>71.7</ele>
        <time>2023-10-22T10:06:18Z</time>
      </trkpt>
      <trkpt lat="47.14952" lon="-1.71382">
        <ele>72.09</ele>
        <time>2023-10-22T10:06:20Z</time>
      </trkpt>
      <trkpt lat="47.1494" lon="-1.7137">
        <ele>72.35</ele>
        <time>2023-10-22T10:06:22Z</time>
      </trkpt>
      <trkpt lat="47.1493" lon="-1.71357">
        <ele>73.47</ele>
        <time>2023-10-22T10:06:24Z</time>
      </trkpt>
      <trkpt lat="47.1492" lon="-1.71343">
        <ele>72.87</ele>
        <time>2023-10-22T10:06:26Z</time>
      </trkpt>
      <trkpt lat="47.14909" lon="-1.7133">
        <ele>72.62</ele>
        <time>2023-10-22T10:06:28Z</time>
      </trkpt>
      <trkpt lat="47.14898" lon="-1.71316">
        <ele>70.74</ele>
        <time>2023-10-22T10:06:30Z</time>
      </trkpt>
      <trkpt lat="47.14889" lon="-1.71304">
        <ele>72.3</ele>
        <time>2023-10-22T10:06:32Z</time>
      </trkpt>
      <trkpt lat="47.14878" lon="-1.71293">
        <ele>74.4</ele>
        <time>2023-10-22T10:06:34Z</time>
      </trkpt>
      <trkpt lat="47.14867" lon="-1.71283">
        <ele>73.92</ele>
        <time>2023-10-22T10:06:36Z</time>
      </trkpt>
      <trkpt lat="47.14857" lon="-1.71271">
        <ele>73.53</ele>
        <time>2023-10-22T10:06:38Z</time>
      </trkpt>
      <trkpt lat="47.14848" lon="-1.71255">
        <ele>73.98</ele>
        <time>2023-10-22T10:06:40Z</time>
      </trkpt>
      <trkpt lat="47.1484" lon="-1.71238">
        <ele>74.34</ele>
        <time>2023-10-22T10:06:42Z</time>
      </trkpt>
      <trkpt lat="47.14834" lon="-1.71219">
        <ele>75.6</ele>
        <time>2023-10-22T10:06:44Z</time>
      </trkpt>
      <trkpt lat="47.14827" lon="-1.71203">
        <ele>76.21</ele>
        <time>2023-10-22T10:06:46Z</time>
      </trkpt>
      <trkpt lat="47.14819" lon="-1.71185">
        <ele>75.6</ele>
        <time>2023-10-22T10:06:48Z</time>
      </trkpt>
      <trkpt lat="47.14812" lon="-1.71168">
        <ele>75.07</ele>
        <time>2023-10-22T10:06:50Z</time>
      </trkpt>
      <trkpt lat="47.14805" lon="-1.71149">
        <ele>74.54</ele>
        <time>2023-10-22T10:06:52Z</time>
      </trkpt>
      <trkpt lat="47.14797" lon="-1.71133">
        <ele>73.97</ele>
        <time>2023-10-22T10:06:54Z</time>
      </trkpt>
      <trkpt lat="47.1479" lon="-1.71116">
        <ele>75.14</ele>
        <time>2023-10-22T10:06:56Z</time>
      </trkpt>
      <trkpt lat="47.14782" lon="-1.71098">
        <ele>73.52</ele>
        <time>2023-10-22T10:06:58Z</time>
      </trkpt>
      <trkpt lat="47.14775" lon="-1.71079">
        <ele>72.79</ele>
        <time>2023-10-22T10:07:00Z</time>
      </trkpt>
      <trkpt lat="47.14768" lon="-1.71062">
        <ele>72.64</ele>
        <time>2023-10-22T10:07:02Z</time>
      </trkpt>
      <trkpt lat="47.14763" lon="-1.71042">
        <ele>72.05</ele>
        <time>2023-10-22T10:07:04Z</time>
      </trkpt>
      <trkpt lat="47.14757" lon="-1.71025">
        <ele>72.87</ele>
        <time>2023-10-22T10:07:06Z</time>
      </trkpt>
      <trkpt lat="47.14752" lon="-1.71004">
        <ele>70.42</ele>
        <time>2023-10-22T10:07:08Z</time>
      </trkpt>
      <trkpt lat="47.14748" lon="-1.70989">
        <ele>71.42</ele>
        <time>2023-10-22T10:07:10Z</time>
      </trkpt>
      <trkpt lat="47.14738" lon="-1.70982">
        <ele>71.94</ele>
        <time>2023-10-22T10:07:12Z</time>
      </trkpt>
      <trkpt lat="47.14727" lon="-1.70991">
        <ele>71.15</ele>
        <time>2023-10-22T10:07:14Z</time>
      </trkpt>
      <trkpt lat="47.14718" lon="-1.71005">
        <ele>71.77</ele>
        <time>2023-10-22T10:07:16Z</time>
      </trkpt>
      <trkpt lat="47.14712" lon="-1.71023">
        <ele>72.7</ele>
        <time>2023-10-22T10:07:18Z</time>
      </trkpt>
      <trkpt lat="47.14712" lon="-1.71044">
        <ele>74.81</ele>
        <time>2023-10-22T10:07:20Z</time>
      </trkpt>
      <trkpt lat="47.14714" lon="-1.71065">
        <ele>74.77</ele>
        <time>2023-10-22T10:07:22Z</time>
      </trkpt>
      <trkpt lat="47.14717" lon="-1.71086">
        <ele>75.73</ele>
        <time>2023-10-22T10:07:24Z</time>
      </trkpt>
      <trkpt lat="47.14721" lon="-1.71106">
        <ele>76.39</ele>
        <time>2023-10-22T10:07:26Z</time>
      </trkpt>
      <trkpt lat="47.14723" lon="-1.71127">
        <ele>76.93</ele>
        <time>2023-10-22T10:07:28Z</time>
      </trkpt>
      <trkpt lat="47.14727" lon="-1.71148">
        <ele>77.6</ele>
        <time>2023-10-22T10:07:30Z</time>
      </trkpt>
      <trkpt lat="47.14731" lon="-1.71169">
        <ele>77.47</ele>
        <time>2023-10-22T10:07:32Z</time>
      </trkpt>
      <trkpt lat="47.14736" lon="-1.71189">
        <ele>77.44</ele>
        <time>2023-10-22T10:07:34Z</time>
      </trkpt>
      <trkpt lat="47.1474" lon="-1.7121">
        <ele>77.55</ele>
        <time>2023-10-22T10:07:36Z</time>
      </trkpt>
      <trkpt lat="47.14746" lon="-1.7123">
        <ele>77.42</ele>
        <time>2023-10-22T10:07:38Z</time>
      </trkpt>
      <trkpt lat="47.14752" lon="-1.71249">
        <ele>77.47</ele>
        <time>2023-10-22T10:07:40Z</time>
      </trkpt>
      <trkpt lat="47.14757" lon="-1.71269">
        <ele>76.86</ele>
        <time>2023-10-22T10:07:42Z</time>
      </trkpt>
      <trkpt lat="47.14761" lon="-1.71289">
        <ele>76.63</ele>
        <time>2023-10-22T10:07:44Z</time>
      </trkpt>
      <trkpt lat="47.14764" lon="-1.71307">
        <ele>76.58</ele>
        <time>2023-10-22T10:07:46Z</time>
      </trkpt>
      <trkpt lat="47.14768" lon="-1.71328">
        <ele>75.89</ele>
        <time>2023-10-22T10:07:48Z</time>
      </trkpt>
      <trkpt lat="47.14771" lon="-1.7135">
        <ele>75.63</ele>
        <time>2023-10-22T10:07:50Z</time>
      </trkpt>
      <trkpt lat="47.14774" lon="-1.71371">
        <ele>76.4</ele>
        <time>2023-10-22T10:07:52Z</time>
      </trkpt>
      <trkpt lat="47.14777" lon="-1.7139">
        <ele>76.4</ele>
        <time>2023-10-22T10:07:54Z</time>
      </trkpt>
      <trkpt lat="47.14779" lon="-1.71411">
        <ele>75.86</ele>
        <time>2023-10-22T10:07:56Z</time>
      </trkpt>
      <trkpt lat="47.14782" lon="-1.7143">
        <ele>75.92</ele>
        <time>2023-10-22T10:07:58Z</time>
      </trkpt>
      <trkpt lat="47.14784" lon="-1.7145">
        <ele>76.96</ele>
        <time>2023-10-22T10:08:00Z</time>
      </trkpt>
      <trkpt lat="47.14787" lon="-1.71472">
        <ele>76.43</ele>
        <time>2023-10-22T10:08:02Z</time>
      </trkpt>
      <trkpt lat="47.1479" lon="-1.71492">
        <ele>76.88</ele>
        <time>2023-10-22T10:08:04Z</time>
      </trkpt>
      <trkpt lat="47.14793" lon="-1.71512">
        <ele>76.63</ele>
        <time>2023-10-22T10:08:06Z</time>
      </trkpt>
      <trkpt lat="47.14794" lon="-1.71534">
        <ele>77.08</ele>
        <time>2023-10-22T10:08:08Z</time>
      </trkpt>
      <trkpt lat="47.14794" lon="-1.71555">
        <ele>77.38</ele>
        <time>2023-10-22T10:08:10Z</time>
      </trkpt>
      <trkpt lat="47.14792" lon="-1.71576">
        <ele>77.37</ele>
        <time>2023-10-22T10:08:12Z</time>
      </trkpt>
      <trkpt lat="47.14789" lon="-1.71596">
        <ele>77.45</ele>
        <time>2023-10-22T10:08:14Z</time>
      </trkpt>
      <trkpt lat="47.14786" lon="-1.71616">
        <ele>77.31</ele>
        <time>2023-10-22T10:08:16Z</time>
      </trkpt>
      <trkpt lat="47.14783" lon="-1.71636">
        <ele>77.82</ele>
        <time>2023-10-22T10:08:18Z</time>
      </trkpt>
      <trkpt lat="47.1478" lon="-1.71657">
        <ele>77.52</ele>
        <time>2023-10-22T10:08:20Z</time>
      </trkpt>
      <trkpt lat="47.14777" lon="-1.71676">
        <ele>77.61</ele>
        <time>2023-10-22T10:08:22Z</time>
      </trkpt>
      <trkpt lat="47.14773" lon="-1.71696">
        <ele>77.35</ele>
        <time>2023-10-22T10:08:24Z</time>
      </trkpt>
      <trkpt lat="47.1477" lon="-1.71718">
        <ele>77.18</ele>
        <time>2023-10-22T10:08:26Z</time>
      </trkpt>
      <trkpt lat="47.14767" lon="-1.71738">
        <ele>77.09</ele>
        <time>2023-10-22T10:08:28Z</time>
      </trkpt>
      <trkpt lat="47.14763" lon="-1.71757">
        <ele>76.96</ele>
        <time>2023-10-22T10:08:30Z</time>
      </trkpt>
      <trkpt lat="47.14758" lon="-1.71776">
        <ele>75.89</ele>
        <time>2023-10-22T10:08:32Z</time>
      </trkpt>
      <trkpt lat="47.14751" lon="-1.71792">
        <ele>76.46</ele>
        <time>2023-10-22T10:08:34Z</time>
      </trkpt>
      <trkpt lat="47.14741" lon="-1.71807">
        <ele>76.52</ele>
        <time>2023-10-22T10:08:36Z</time>
      </trkpt>
      <trkpt lat="47.14729" lon="-1.71818">
        <ele>76.66</ele>
        <time>2023-10-22T10:08:38Z</time>
      </trkpt>
      <trkpt lat="47.14716" lon="-1.71828">
        <ele>77.28</ele>
        <time>2023-10-22T10:08:40Z</time>
      </trkpt>
      <trkpt lat="47.14703" lon="-1.71835">
        <ele>77.38</ele>
        <time>2023-10-22T10:08:42Z</time>
      </trkpt>
      <trkpt lat="47.14689" lon="-1.71843">
        <ele>77.41</ele>
        <time>2023-10-22T10:08:44Z</time>
      </trkpt>
      <trkpt lat="47.14676" lon="-1.71848">
        <ele>77.85</ele>
        <time>2023-10-22T10:08:46Z</time>
      </trkpt>
      <trkpt lat="47.14663" lon="-1.71853">
        <ele>77.45</ele>
        <time>2023-10-22T10:08:48Z</time>
      </trkpt>
      <trkpt lat="47.14649" lon="-1.71858">
        <ele>77.05</ele>
        <time>2023-10-22T10:08:50Z</time>
      </trkpt>
      <trkpt lat="47.14634" lon="-1.7186">
        <ele>77.05</ele>
        <time>2023-10-22T10:08:52Z</time>
      </trkpt>
      <trkpt lat="47.14619" lon="-1.71859">
        <ele>77.55</ele>
        <time>2023-10-22T10:08:54Z</time>
      </trkpt>
      <trkpt lat="47.14604" lon="-1.71856">
        <ele>78.04</ele>
        <time>2023-10-22T10:08:56Z</time>
      </trkpt>
      <trkpt lat="47.1459" lon="-1.71851">
        <ele>77.49</ele>
        <time>2023-10-22T10:08:58Z</time>
      </trkpt>
      <trkpt lat="47.14576" lon="-1.71844">
        <ele>76.83</ele>
        <time>2023-10-22T10:09:00Z</time>
      </trkpt>
      <trkpt lat="47.14562" lon="-1.71839">
        <ele>76.49</ele>
        <time>2023-10-22T10:09:02Z</time>
      </trkpt>
      <trkpt lat="47.14548" lon="-1.71832">
        <ele>76.17</ele>
        <time>2023-10-22T10:09:04Z</time>
      </trkpt>
      <trkpt lat="47.14535" lon="-1.71826">
        <ele>74.88</ele>
        <time>2023-10-22T10:09:06Z</time>
      </trkpt>
      <trkpt lat="47.14521" lon="-1.71819">
        <ele>74.43</ele>
        <time>2023-10-22T10:09:08Z</time>
      </trkpt>
      <trkpt lat="47.14508" lon="-1.71811">
        <ele>74.09</ele>
        <time>2023-10-22T10:09:10Z</time>
      </trkpt>
      <trkpt lat="47.14494" lon="-1.71805">
        <ele>73.93</ele>
        <time>2023-10-22T10:09:12Z</time>
      </trkpt>
      <trkpt lat="47.1448" lon="-1.71797">
        <ele>73.57</ele>
        <time>2023-10-22T10:09:14Z</time>
      </trkpt>
      <trkpt lat="47.14466" lon="-1.71791">
        <ele>73.28</ele>
        <time>2023-10-22T10:09:16Z</time>
      </trkpt>
      <trkpt lat="47.14451" lon="-1.71785">
        <ele>72.64</ele>
        <time>2023-10-22T10:09:18Z</time>
      </trkpt>
      <trkpt lat="47.14438" lon="-1.71783">
        <ele>72.24</ele>
        <time>2023-10-22T10:09:20Z</time>
      </trkpt>
      <trkpt lat="47.14423" lon="-1.71781">
        <ele>69.8</ele>
        <time>2023-10-22T10:09:22Z</time>
      </trkpt>
      <trkpt lat="47.14408" lon="-1.71782">
        <ele>68.97</ele>
        <time>2023-10-22T10:09:24Z</time>
      </trkpt>
      <trkpt lat="47.14393" lon="-1.71784">
        <ele>67.68</ele>
        <time>2023-10-22T10:09:26Z</time>
      </trkpt>
      <trkpt lat="47.14377" lon="-1.71789">
        <ele>67.86</ele>
        <time>2023-10-22T10:09:28Z</time>
      </trkpt>
      <trkpt lat="47.14362" lon="-1.71793">
        <ele>67.18</ele>
        <time>2023-10-22T10:09:30Z</time>
      </trkpt>
      <trkpt lat="47.14346" lon="-1.71799">
        <ele>66.61</ele>
        <time>2023-10-22T10:09:32Z</time>
      </trkpt>
      <trkpt lat="47.14331" lon="-1.71803">
        <ele>66.35</ele>
        <time>2023-10-22T10:09:34Z</time>
      </trkpt>
      <trkpt lat="47.14316" lon="-1.71808">
        <ele>65.42</ele>
        <time>2023-10-22T10:09:36Z</time>
      </trkpt>
      <trkpt lat="47.14301" lon="-1.71813">
        <ele>65.18</ele>
        <time>2023-10-22T10:09:38Z</time>
      </trkpt>
      <trkpt lat="47.14286" lon="-1.71818">
        <ele>64.68</ele>
        <time>2023-10-22T10:09:40Z</time>
      </trkpt>
      <trkpt lat="47.14271" lon="-1.71822">
        <ele>64.77</ele>
        <time>2023-10-22T10:09:42Z</time>
      </trkpt>
      <trkpt lat="47.14256" lon="-1.71827">
        <ele>64.56</ele>
        <time>2023-10-22T10:09:44Z</time>
      </trkpt>
      <trkpt lat="47.14241" lon="-1.71832">
        <ele>64.93</ele>
        <time>2023-10-22T10:09:46Z</time>
      </trkpt>
      <trkpt lat="47.14227" lon="-1.71838">
        <ele>64.94</ele>
        <time>2023-10-22T10:09:48Z</time>
      </trkpt>
      <trkpt lat="47.14212" lon="-1.71843">
        <ele>64.56</ele>
        <time>2023-10-22T10:09:50Z</time>
      </trkpt>
      <trkpt lat="47.14198" lon="-1.71847">
        <ele>63.31</ele>
        <time>2023-10-22T10:09:52Z</time>
      </trkpt>
      <trkpt lat="47.14182" lon="-1.7185">
        <ele>62.23</ele>
        <time>2023-10-22T10:09:54Z</time>
      </trkpt>
      <trkpt lat="47.14167" lon="-1.71856">
        <ele>62.06</ele>
        <time>2023-10-22T10:09:56Z</time>
      </trkpt>
      <trkpt lat="47.14152" lon="-1.7186">
        <ele>61.37</ele>
        <time>2023-10-22T10:09:58Z</time>
      </trkpt>
      <trkpt lat="47.14135" lon="-1.71867">
        <ele>60.33</ele>
        <time>2023-10-22T10:10:00Z</time>
      </trkpt>
      <trkpt lat="47.14119" lon="-1.71872">
        <ele>60.75</ele>
        <time>2023-10-22T10:10:02Z</time>
      </trkpt>
      <trkpt lat="47.14109" lon="-1.71875">
        <ele>60.08</ele>
        <time>2023-10-22T10:10:03Z</time>
      </trkpt>
      <trkpt lat="47.14099" lon="-1.71877">
        <ele>57.89</ele>
        <time>2023-10-22T10:10:04Z</time>
      </trkpt>
      <trkpt lat="47.14083" lon="-1.71882">
        <ele>58.52</ele>
        <time>2023-10-22T10:10:06Z</time>
      </trkpt>
      <trkpt lat="47.14066" lon="-1.71888">
        <ele>58.59</ele>
        <time>2023-10-22T10:10:08Z</time>
      </trkpt>
      <trkpt lat="47.1405" lon="-1.71893">
        <ele>58.42</ele>
        <time>2023-10-22T10:10:10Z</time>
      </trkpt>
      <trkpt lat="47.14034" lon="-1.719">
        <ele>57.74</ele>
        <time>2023-10-22T10:10:12Z</time>
      </trkpt>
      <trkpt lat="47.14017" lon="-1.71904">
        <ele>57.12</ele>
        <time>2023-10-22T10:10:14Z</time>
      </trkpt>
      <trkpt lat="47.14001" lon="-1.71903">
        <ele>57.19</ele>
        <time>2023-10-22T10:10:16Z</time>
      </trkpt>
      <trkpt lat="47.13987" lon="-1.71899">
        <ele>56.86</ele>
        <time>2023-10-22T10:10:18Z</time>
      </trkpt>
      <trkpt lat="47.13975" lon="-1.71899">
        <ele>55.62</ele>
        <time>2023-10-22T10:10:20Z</time>
      </trkpt>
      <trkpt lat="47.13965" lon="-1.7191">
        <ele>55.08</ele>
        <time>2023-10-22T10:10:22Z</time>
      </trkpt>
      <trkpt lat="47.13966" lon="-1.7193">
        <ele>56.82</ele>
        <time>2023-10-22T10:10:24Z</time>
      </trkpt>
      <trkpt lat="47.13966" lon="-1.71952">
        <ele>57.61</ele>
        <time>2023-10-22T10:10:26Z</time>
      </trkpt>
      <trkpt lat="47.13958" lon="-1.71967">
        <ele>57.49</ele>
        <time>2023-10-22T10:10:28Z</time>
      </trkpt>
      <trkpt lat="47.13947" lon="-1.71978">
        <ele>58.52</ele>
        <time>2023-10-22T10:10:30Z</time>
      </trkpt>
      <trkpt lat="47.13934" lon="-1.71984">
        <ele>59.52</ele>
        <time>2023-10-22T10:10:32Z</time>
      </trkpt>
      <trkpt lat="47.13922" lon="-1.71991">
        <ele>59.92</ele>
        <time>2023-10-22T10:10:34Z</time>
      </trkpt>
      <trkpt lat="47.1391" lon="-1.71996">
        <ele>60.31</ele>
        <time>2023-10-22T10:10:36Z</time>
      </trkpt>
      <trkpt lat="47.13897" lon="-1.72003">
        <ele>60.07</ele>
        <time>2023-10-22T10:10:38Z</time>
      </trkpt>
      <trkpt lat="47.13885" lon="-1.72011">
        <ele>59.08</ele>
        <time>2023-10-22T10:10:40Z</time>
      </trkpt>
      <trkpt lat="47.13875" lon="-1.72022">
        <ele>58.84</ele>
        <time>2023-10-22T10:10:42Z</time>
      </trkpt>
      <trkpt lat="47.13865" lon="-1.72033">
        <ele>59.52</ele>
        <time>2023-10-22T10:10:44Z</time>
      </trkpt>
      <trkpt lat="47.13856" lon="-1.72046">
        <ele>60.12</ele>
        <time>2023-10-22T10:10:46Z</time>
      </trkpt>
      <trkpt lat="47.13848" lon="-1.72059">
        <ele>60.32</ele>
        <time>2023-10-22T10:10:48Z</time>
      </trkpt>
      <trkpt lat="47.13839" lon="-1.72072">
        <ele>61</ele>
        <time>2023-10-22T10:10:50Z</time>
      </trkpt>
      <trkpt lat="47.13831" lon="-1.72084">
        <ele>61.11</ele>
        <time>2023-10-22T10:10:52Z</time>
      </trkpt>
      <trkpt lat="47.13824" lon="-1.72097">
        <ele>62.03</ele>
        <time>2023-10-22T10:10:54Z</time>
      </trkpt>
      <trkpt lat="47.13817" lon="-1.7211">
        <ele>63.31</ele>
        <time>2023-10-22T10:10:56Z</time>
      </trkpt>
      <trkpt lat="47.13807" lon="-1.72119">
        <ele>63.85</ele>
        <time>2023-10-22T10:10:58Z</time>
      </trkpt>
      <trkpt lat="47.13799" lon="-1.72133">
        <ele>63.26</ele>
        <time>2023-10-22T10:11:00Z</time>
      </trkpt>
      <trkpt lat="47.13789" lon="-1.72146">
        <ele>62.3</ele>
        <time>2023-10-22T10:11:02Z</time>
      </trkpt>
      <trkpt lat="47.13782" lon="-1.7216">
        <ele>62.21</ele>
        <time>2023-10-22T10:11:04Z</time>
      </trkpt>
      <trkpt lat="47.13775" lon="-1.72175">
        <ele>62.89</ele>
        <time>2023-10-22T10:11:06Z</time>
      </trkpt>
      <trkpt lat="47.13768" lon="-1.72189">
        <ele>63.26</ele>
        <time>2023-10-22T10:11:08Z</time>
      </trkpt>
      <trkpt lat="47.13761" lon="-1.72202">
        <ele>64.21</ele>
        <time>2023-10-22T10:11:10Z</time>
      </trkpt>
      <trkpt lat="47.13753" lon="-1.72217">
        <ele>65.84</ele>
        <time>2023-10-22T10:11:12Z</time>
      </trkpt>
      <trkpt lat="47.13746" lon="-1.72231">
        <ele>67.58</ele>
        <time>2023-10-22T10:11:14Z</time>
      </trkpt>
      <trkpt lat="47.13741" lon="-1.72247">
        <ele>69.39</ele>
        <time>2023-10-22T10:11:16Z</time>
      </trkpt>
      <trkpt lat="47.13738" lon="-1.72265">
        <ele>70.07</ele>
        <time>2023-10-22T10:11:18Z</time>
      </trkpt>
      <trkpt lat="47.13736" lon="-1.72284">
        <ele>70.27</ele>
        <time>2023-10-22T10:11:20Z</time>
      </trkpt>
      <trkpt lat="47.13733" lon="-1.72302">
        <ele>70.6</ele>
        <time>2023-10-22T10:11:22Z</time>
      </trkpt>
      <trkpt lat="47.13731" lon="-1.7232">
        <ele>70.23</ele>
        <time>2023-10-22T10:11:24Z</time>
      </trkpt>
      <trkpt lat="47.1373" lon="-1.72337">
        <ele>71.28</ele>
        <time>2023-10-22T10:11:26Z</time>
      </trkpt>
      <trkpt lat="47.13726" lon="-1.72354">
        <ele>70.79</ele>
        <time>2023-10-22T10:11:28Z</time>
      </trkpt>
      <trkpt lat="47.13723" lon="-1.72371">
        <ele>70.45</ele>
        <time>2023-10-22T10:11:30Z</time>
      </trkpt>
      <trkpt lat="47.13718" lon="-1.72388">
        <ele>70.57</ele>
        <time>2023-10-22T10:11:32Z</time>
      </trkpt>
      <trkpt lat="47.13714" lon="-1.72404">
        <ele>70.48</ele>
        <time>2023-10-22T10:11:34Z</time>
      </trkpt>
      <trkpt lat="47.13709" lon="-1.72419">
        <ele>70.48</ele>
        <time>2023-10-22T10:11:36Z</time>
      </trkpt>
      <trkpt lat="47.13706" lon="-1.72436">
        <ele>69.97</ele>
        <time>2023-10-22T10:11:38Z</time>
      </trkpt>
      <trkpt lat="47.13702" lon="-1.72453">
        <ele>70.93</ele>
        <time>2023-10-22T10:11:40Z</time>
      </trkpt>
      <trkpt lat="47.13697" lon="-1.72468">
        <ele>71.29</ele>
        <time>2023-10-22T10:11:42Z</time>
      </trkpt>
      <trkpt lat="47.13692" lon="-1.72484">
        <ele>72.3</ele>
        <time>2023-10-22T10:11:44Z</time>
      </trkpt>
      <trkpt lat="47.13685" lon="-1.72512">
        <ele>72.35</ele>
        <time>2023-10-22T10:11:47Z</time>
      </trkpt>
      <trkpt lat="47.13682" lon="-1.72531">
        <ele>73.52</ele>
        <time>2023-10-22T10:11:49Z</time>
      </trkpt>
      <trkpt lat="47.1368" lon="-1.72551">
        <ele>74.28</ele>
        <time>2023-10-22T10:11:51Z</time>
      </trkpt>
      <trkpt lat="47.13679" lon="-1.7257">
        <ele>74.75</ele>
        <time>2023-10-22T10:11:53Z</time>
      </trkpt>
      <trkpt lat="47.13679" lon="-1.72589">
        <ele>75.5</ele>
        <time>2023-10-22T10:11:55Z</time>
      </trkpt>
      <trkpt lat="47.13678" lon="-1.72607">
        <ele>75.03</ele>
        <time>2023-10-22T10:11:57Z</time>
      </trkpt>
      <trkpt lat="47.13676" lon="-1.72625">
        <ele>75.17</ele>
        <time>2023-10-22T10:11:59Z</time>
      </trkpt>
      <trkpt lat="47.13673" lon="-1.72643">
        <ele>75.71</ele>
        <time>2023-10-22T10:12:01Z</time>
      </trkpt>
      <trkpt lat="47.13671" lon="-1.72661">
        <ele>75.59</ele>
        <time>2023-10-22T10:12:03Z</time>
      </trkpt>
      <trkpt lat="47.13667" lon="-1.7268">
        <ele>75.63</ele>
        <time>2023-10-22T10:12:05Z</time>
      </trkpt>
      <trkpt lat="47.13664" lon="-1.72698">
        <ele>75.93</ele>
        <time>2023-10-22T10:12:07Z</time>
      </trkpt>
      <trkpt lat="47.13664" lon="-1.72716">
        <ele>75.36</ele>
        <time>2023-10-22T10:12:09Z</time>
      </trkpt>
      <trkpt lat="47.13662" lon="-1.72733">
        <ele>75.18</ele>
        <time>2023-10-22T10:12:11Z</time>
      </trkpt>
      <trkpt lat="47.13661" lon="-1.72751">
        <ele>74.96</ele>
        <time>2023-10-22T10:12:13Z</time>
      </trkpt>
      <trkpt lat="47.1366" lon="-1.72769">
        <ele>74.87</ele>
        <time>2023-10-22T10:12:15Z</time>
      </trkpt>
      <trkpt lat="47.13659" lon="-1.7279">
        <ele>73.52</ele>
        <time>2023-10-22T10:12:17Z</time>
      </trkpt>
      <trkpt lat="47.13657" lon="-1.72806">
        <ele>74.82</ele>
        <time>2023-10-22T10:12:19Z</time>
      </trkpt>
      <trkpt lat="47.13656" lon="-1.72825">
        <ele>75.02</ele>
        <time>2023-10-22T10:12:21Z</time>
      </trkpt>
      <trkpt lat="47.13654" lon="-1.72845">
        <ele>75.21</ele>
        <time>2023-10-22T10:12:23Z</time>
      </trkpt>
      <trkpt lat="47.13651" lon="-1.72865">
        <ele>74.37</ele>
        <time>2023-10-22T10:12:25Z</time>
      </trkpt>
      <trkpt lat="47.13649" lon="-1.72887">
        <ele>73.67</ele>
        <time>2023-10-22T10:12:27Z</time>
      </trkpt>
      <trkpt lat="47.13646" lon="-1.7291">
        <ele>73.17</ele>
        <time>2023-10-22T10:12:29Z</time>
      </trkpt>
      <trkpt lat="47.13646" lon="-1.72923">
        <ele>72.18</ele>
        <time>2023-10-22T10:12:30Z</time>
      </trkpt>
      <trkpt lat="47.13644" lon="-1.7295">
        <ele>70.99</ele>
        <time>2023-10-22T10:12:32Z</time>
      </trkpt>
      <trkpt lat="47.13642" lon="-1.72977">
        <ele>69.57</ele>
        <time>2023-10-22T10:12:34Z</time>
      </trkpt>
      <trkpt lat="47.13641" lon="-1.72991">
        <ele>69.65</ele>
        <time>2023-10-22T10:12:35Z</time>
      </trkpt>
      <trkpt lat="47.1364" lon="-1.73006">
        <ele>68.29</ele>
        <time>2023-10-22T10:12:36Z</time>
      </trkpt>
      <trkpt lat="47.13637" lon="-1.7302">
        <ele>67.54</ele>
        <time>2023-10-22T10:12:37Z</time>
      </trkpt>
      <trkpt lat="47.13632" lon="-1.73032">
        <ele>67.35</ele>
        <time>2023-10-22T10:12:38Z</time>
      </trkpt>
      <trkpt lat="47.13626" lon="-1.73043">
        <ele>67.35</ele>
        <time>2023-10-22T10:12:39Z</time>
      </trkpt>
      <trkpt lat="47.13619" lon="-1.73053">
        <ele>67.44</ele>
        <time>2023-10-22T10:12:40Z</time>
      </trkpt>
      <trkpt lat="47.13611" lon="-1.73061">
        <ele>66.66</ele>
        <time>2023-10-22T10:12:41Z</time>
      </trkpt>
      <trkpt lat="47.13604" lon="-1.73069">
        <ele>65.71</ele>
        <time>2023-10-22T10:12:42Z</time>
      </trkpt>
      <trkpt lat="47.13596" lon="-1.73076">
        <ele>65.25</ele>
        <time>2023-10-22T10:12:43Z</time>
      </trkpt>
      <trkpt lat="47.13588" lon="-1.73082">
        <ele>64.86</ele>
        <time>2023-10-22T10:12:44Z</time>
      </trkpt>
      <trkpt lat="47.13573" lon="-1.73095">
        <ele>64.28</ele>
        <time>2023-10-22T10:12:46Z</time>
      </trkpt>
      <trkpt lat="47.1356" lon="-1.73109">
        <ele>65.23</ele>
        <time>2023-10-22T10:12:48Z</time>
      </trkpt>
      <trkpt lat="47.13547" lon="-1.73121">
        <ele>65.22</ele>
        <time>2023-10-22T10:12:50Z</time>
      </trkpt>
      <trkpt lat="47.13534" lon="-1.73135">
        <ele>65.26</ele>
        <time>2023-10-22T10:12:52Z</time>
      </trkpt>
      <trkpt lat="47.13527" lon="-1.73143">
        <ele>63.96</ele>
        <time>2023-10-22T10:12:53Z</time>
      </trkpt>
      <trkpt lat="47.13517" lon="-1.73161">
        <ele>63.27</ele>
        <time>2023-10-22T10:12:55Z</time>
      </trkpt>
      <trkpt lat="47.13511" lon="-1.73182">
        <ele>62.82</ele>
        <time>2023-10-22T10:12:57Z</time>
      </trkpt>
      <trkpt lat="47.13509" lon="-1.73207">
        <ele>62.64</ele>
        <time>2023-10-22T10:12:59Z</time>
      </trkpt>
      <trkpt lat="47.13506" lon="-1.73232">
        <ele>62.17</ele>
        <time>2023-10-22T10:13:01Z</time>
      </trkpt>
      <trkpt lat="47.13504" lon="-1.73258">
        <ele>61.83</ele>
        <time>2023-10-22T10:13:03Z</time>
      </trkpt>
      <trkpt lat="47.13502" lon="-1.73282">
        <ele>61.19</ele>
        <time>2023-10-22T10:13:05Z</time>
      </trkpt>
      <trkpt lat="47.13505" lon="-1.73308">
        <ele>61.09</ele>
        <time>2023-10-22T10:13:07Z</time>
      </trkpt>
      <trkpt lat="47.13509" lon="-1.7333">
        <ele>61.61</ele>
        <time>2023-10-22T10:13:09Z</time>
      </trkpt>
      <trkpt lat="47.13516" lon="-1.73352">
        <ele>61.27</ele>
        <time>2023-10-22T10:13:11Z</time>
      </trkpt>
      <trkpt lat="47.13522" lon="-1.73371">
        <ele>61.31</ele>
        <time>2023-10-22T10:13:13Z</time>
      </trkpt>
      <trkpt lat="47.13529" lon="-1.73387">
        <ele>61.57</ele>
        <time>2023-10-22T10:13:15Z</time>
      </trkpt>
      <trkpt lat="47.13535" lon="-1.73406">
        <ele>61.09</ele>
        <time>2023-10-22T10:13:17Z</time>
      </trkpt>
      <trkpt lat="47.1354" lon="-1.73424">
        <ele>61.89</ele>
        <time>2023-10-22T10:13:19Z</time>
      </trkpt>
      <trkpt lat="47.13546" lon="-1.73443">
        <ele>62.03</ele>
        <time>2023-10-22T10:13:21Z</time>
      </trkpt>
      <trkpt lat="47.13551" lon="-1.73461">
        <ele>62.59</ele>
        <time>2023-10-22T10:13:23Z</time>
      </trkpt>
      <trkpt lat="47.13556" lon="-1.73477">
        <ele>62.59</ele>
        <time>2023-10-22T10:13:25Z</time>
      </trkpt>
      <trkpt lat="47.13562" lon="-1.73495">
        <ele>62.57</ele>
        <time>2023-10-22T10:13:27Z</time>
      </trkpt>
      <trkpt lat="47.13567" lon="-1.73513">
        <ele>62.39</ele>
        <time>2023-10-22T10:13:29Z</time>
      </trkpt>
      <trkpt lat="47.13573" lon="-1.73533">
        <ele>60.75</ele>
        <time>2023-10-22T10:13:31Z</time>
      </trkpt>
      <trkpt lat="47.13577" lon="-1.7355">
        <ele>61.65</ele>
        <time>2023-10-22T10:13:33Z</time>
      </trkpt>
      <trkpt lat="47.13583" lon="-1.73567">
        <ele>62.97</ele>
        <time>2023-10-22T10:13:35Z</time>
      </trkpt>
      <trkpt lat="47.13588" lon="-1.73583">
        <ele>63.19</ele>
        <time>2023-10-22T10:13:37Z</time>
      </trkpt>
      <trkpt lat="47.13594" lon="-1.736">
        <ele>62.98</ele>
        <time>2023-10-22T10:13:39Z</time>
      </trkpt>
      <trkpt lat="47.13601" lon="-1.73617">
        <ele>63.54</ele>
        <time>2023-10-22T10:13:41Z</time>
      </trkpt>
      <trkpt lat="47.13606" lon="-1.73633">
        <ele>64.71</ele>
        <time>2023-10-22T10:13:43Z</time>
      </trkpt>
      <trkpt lat="47.13612" lon="-1.73651">
        <ele>63.83</ele>
        <time>2023-10-22T10:13:45Z</time>
      </trkpt>
      <trkpt lat="47.13619" lon="-1.73669">
        <ele>63.01</ele>
        <time>2023-10-22T10:13:47Z</time>
      </trkpt>
      <trkpt lat="47.13624" lon="-1.73686">
        <ele>61.28</ele>
        <time>2023-10-22T10:13:49Z</time>
      </trkpt>
      <trkpt lat="47.13628" lon="-1.73706">
        <ele>61.46</ele>
        <time>2023-10-22T10:13:51Z</time>
      </trkpt>
      <trkpt lat="47.13632" lon="-1.7373">
        <ele>61.53</ele>
        <time>2023-10-22T10:13:53Z</time>
      </trkpt>
      <trkpt lat="47.13634" lon="-1.73743">
        <ele>62.51</ele>
        <time>2023-10-22T10:13:54Z</time>
      </trkpt>
      <trkpt lat="47.13636" lon="-1.73766">
        <ele>63.39</ele>
        <time>2023-10-22T10:13:56Z</time>
      </trkpt>
      <trkpt lat="47.13637" lon="-1.7378">
        <ele>62.38</ele>
        <time>2023-10-22T10:13:57Z</time>
      </trkpt>
      <trkpt lat="47.13637" lon="-1.73805">
        <ele>63.15</ele>
        <time>2023-10-22T10:13:59Z</time>
      </trkpt>
      <trkpt lat="47.13638" lon="-1.73819">
        <ele>62.55</ele>
        <time>2023-10-22T10:14:00Z</time>
      </trkpt>
      <trkpt lat="47.1364" lon="-1.73833">
        <ele>61.73</ele>
        <time>2023-10-22T10:14:01Z</time>
      </trkpt>
      <trkpt lat="47.13643" lon="-1.73859">
        <ele>60.57</ele>
        <time>2023-10-22T10:14:03Z</time>
      </trkpt>
      <trkpt lat="47.13645" lon="-1.73884">
        <ele>60.73</ele>
        <time>2023-10-22T10:14:05Z</time>
      </trkpt>
      <trkpt lat="47.13646" lon="-1.73906">
        <ele>60.68</ele>
        <time>2023-10-22T10:14:07Z</time>
      </trkpt>
      <trkpt lat="47.13648" lon="-1.73926">
        <ele>61.31</ele>
        <time>2023-10-22T10:14:09Z</time>
      </trkpt>
      <trkpt lat="47.13649" lon="-1.73949">
        <ele>60.27</ele>
        <time>2023-10-22T10:14:11Z</time>
      </trkpt>
      <trkpt lat="47.13649" lon="-1.7397">
        <ele>61.23</ele>
        <time>2023-10-22T10:14:13Z</time>
      </trkpt>
      <trkpt lat="47.13648" lon="-1.73993">
        <ele>59.81</ele>
        <time>2023-10-22T10:14:15Z</time>
      </trkpt>
      <trkpt lat="47.13646" lon="-1.74018">
        <ele>59.95</ele>
        <time>2023-10-22T10:14:17Z</time>
      </trkpt>
      <trkpt lat="47.13643" lon="-1.74039">
        <ele>62.24</ele>
        <time>2023-10-22T10:14:19Z</time>
      </trkpt>
      <trkpt lat="47.13641" lon="-1.74063">
        <ele>62.39</ele>
        <time>2023-10-22T10:14:21Z</time>
      </trkpt>
      <trkpt lat="47.13641" lon="-1.74085">
        <ele>64.18</ele>
        <time>2023-10-22T10:14:23Z</time>
      </trkpt>
      <trkpt lat="47.13642" lon="-1.74108">
        <ele>64.75</ele>
        <time>2023-10-22T10:14:25Z</time>
      </trkpt>
      <trkpt lat="47.13644" lon="-1.7413">
        <ele>65.44</ele>
        <time>2023-10-22T10:14:27Z</time>
      </trkpt>
      <trkpt lat="47.13647" lon="-1.7415">
        <ele>66.68</ele>
        <time>2023-10-22T10:14:29Z</time>
      </trkpt>
      <trkpt lat="47.13651" lon="-1.7417">
        <ele>66.89</ele>
        <time>2023-10-22T10:14:31Z</time>
      </trkpt>
      <trkpt lat="47.13656" lon="-1.74191">
        <ele>66.93</ele>
        <time>2023-10-22T10:14:33Z</time>
      </trkpt>
      <trkpt lat="47.13661" lon="-1.74212">
        <ele>66.8</ele>
        <time>2023-10-22T10:14:35Z</time>
      </trkpt>
      <trkpt lat="47.13666" lon="-1.74233">
        <ele>66.66</ele>
        <time>2023-10-22T10:14:37Z</time>
      </trkpt>
      <trkpt lat="47.13671" lon="-1.74253">
        <ele>65.67</ele>
        <time>2023-10-22T10:14:39Z</time>
      </trkpt>
      <trkpt lat="47.13677" lon="-1.74274">
        <ele>64.66</ele>
        <time>2023-10-22T10:14:41Z</time>
      </trkpt>
      <trkpt lat="47.13684" lon="-1.74294">
        <ele>64.63</ele>
        <time>2023-10-22T10:14:43Z</time>
      </trkpt>
      <trkpt lat="47.13691" lon="-1.74316">
        <ele>64.17</ele>
        <time>2023-10-22T10:14:45Z</time>
      </trkpt>
      <trkpt lat="47.13694" lon="-1.74339">
        <ele>62.72</ele>
        <time>2023-10-22T10:14:47Z</time>
      </trkpt>
      <trkpt lat="47.13695" lon="-1.74364">
        <ele>62.33</ele>
        <time>2023-10-22T10:14:49Z</time>
      </trkpt>
      <trkpt lat="47.13695" lon="-1.74379">
        <ele>62.36</ele>
        <time>2023-10-22T10:14:50Z</time>
      </trkpt>
      <trkpt lat="47.13695" lon="-1.74392">
        <ele>61.92</ele>
        <time>2023-10-22T10:14:51Z</time>
      </trkpt>
      <trkpt lat="47.13696" lon="-1.74419">
        <ele>60.86</ele>
        <time>2023-10-22T10:14:53Z</time>
      </trkpt>
      <trkpt lat="47.13696" lon="-1.74432">
        <ele>60.39</ele>
        <time>2023-10-22T10:14:54Z</time>
      </trkpt>
      <trkpt lat="47.13695" lon="-1.74446">
        <ele>59.58</ele>
        <time>2023-10-22T10:14:55Z</time>
      </trkpt>
      <trkpt lat="47.13691" lon="-1.74459">
        <ele>58.36</ele>
        <time>2023-10-22T10:14:56Z</time>
      </trkpt>
      <trkpt lat="47.13685" lon="-1.74471">
        <ele>57.27</ele>
        <time>2023-10-22T10:14:57Z</time>
      </trkpt>
      <trkpt lat="47.13678" lon="-1.7448">
        <ele>56.86</ele>
        <time>2023-10-22T10:14:58Z</time>
      </trkpt>
      <trkpt lat="47.13671" lon="-1.74489">
        <ele>56.2</ele>
        <time>2023-10-22T10:14:59Z</time>
      </trkpt>
      <trkpt lat="47.13663" lon="-1.74498">
        <ele>55.74</ele>
        <time>2023-10-22T10:15:00Z</time>
      </trkpt>
      <trkpt lat="47.13648" lon="-1.74511">
        <ele>55.9</ele>
        <time>2023-10-22T10:15:02Z</time>
      </trkpt>
      <trkpt lat="47.13634" lon="-1.74522">
        <ele>56.59</ele>
        <time>2023-10-22T10:15:04Z</time>
      </trkpt>
      <trkpt lat="47.13621" lon="-1.74534">
        <ele>57.04</ele>
        <time>2023-10-22T10:15:06Z</time>
      </trkpt>
      <trkpt lat="47.13609" lon="-1.74548">
        <ele>57.4</ele>
        <time>2023-10-22T10:15:08Z</time>
      </trkpt>
      <trkpt lat="47.13601" lon="-1.74555">
        <ele>57.14</ele>
        <time>2023-10-22T10:15:09Z</time>
      </trkpt>
      <trkpt lat="47.13593" lon="-1.74561">
        <ele>57.12</ele>
        <time>2023-10-22T10:15:10Z</time>
      </trkpt>
      <trkpt lat="47.13582" lon="-1.74579">
        <ele>56.14</ele>
        <time>2023-10-22T10:15:12Z</time>
      </trkpt>
      <trkpt lat="47.13572" lon="-1.74585">
        <ele>56.38</ele>
        <time>2023-10-22T10:15:13Z</time>
      </trkpt>
      <trkpt lat="47.13558" lon="-1.74601">
        <ele>56.22</ele>
        <time>2023-10-22T10:15:15Z</time>
      </trkpt>
      <trkpt lat="47.13549" lon="-1.74607">
        <ele>55.58</ele>
        <time>2023-10-22T10:15:16Z</time>
      </trkpt>
      <trkpt lat="47.13535" lon="-1.7462">
        <ele>56.28</ele>
        <time>2023-10-22T10:15:18Z</time>
      </trkpt>
      <trkpt lat="47.13522" lon="-1.74634">
        <ele>56.8</ele>
        <time>2023-10-22T10:15:20Z</time>
      </trkpt>
      <trkpt lat="47.13509" lon="-1.74643">
        <ele>56.26</ele>
        <time>2023-10-22T10:15:22Z</time>
      </trkpt>
      <trkpt lat="47.13503" lon="-1.74661">
        <ele>56.06</ele>
        <time>2023-10-22T10:15:24Z</time>
      </trkpt>
      <trkpt lat="47.13495" lon="-1.74678">
        <ele>55.17</ele>
        <time>2023-10-22T10:15:26Z</time>
      </trkpt>
      <trkpt lat="47.13491" lon="-1.74693">
        <ele>55.05</ele>
        <time>2023-10-22T10:15:28Z</time>
      </trkpt>
      <trkpt lat="47.13485" lon="-1.74705">
        <ele>57.23</ele>
        <time>2023-10-22T10:15:30Z</time>
      </trkpt>
      <trkpt lat="47.13479" lon="-1.74719">
        <ele>57.99</ele>
        <time>2023-10-22T10:15:32Z</time>
      </trkpt>
      <trkpt lat="47.1347" lon="-1.7473">
        <ele>57.73</ele>
        <time>2023-10-22T10:15:34Z</time>
      </trkpt>
      <trkpt lat="47.13461" lon="-1.7474">
        <ele>58.41</ele>
        <time>2023-10-22T10:15:36Z</time>
      </trkpt>
      <trkpt lat="47.1345" lon="-1.74751">
        <ele>57.95</ele>
        <time>2023-10-22T10:15:38Z</time>
      </trkpt>
      <trkpt lat="47.1344" lon="-1.74759">
        <ele>58.86</ele>
        <time>2023-10-22T10:15:40Z</time>
      </trkpt>
      <trkpt lat="47.13427" lon="-1.74766">
        <ele>57.48</ele>
        <time>2023-10-22T10:15:42Z</time>
      </trkpt>
      <trkpt lat="47.13418" lon="-1.74774">
        <ele>58.17</ele>
        <time>2023-10-22T10:15:44Z</time>
      </trkpt>
      <trkpt lat="47.13406" lon="-1.74784">
        <ele>59.38</ele>
        <time>2023-10-22T10:15:46Z</time>
      </trkpt>
      <trkpt lat="47.13398" lon="-1.74795">
        <ele>60.2</ele>
        <time>2023-10-22T10:15:48Z</time>
      </trkpt>
      <trkpt lat="47.13389" lon="-1.74805">
        <ele>60.64</ele>
        <time>2023-10-22T10:15:50Z</time>
      </trkpt>
      <trkpt lat="47.13384" lon="-1.74821">
        <ele>61.1</ele>
        <time>2023-10-22T10:15:52Z</time>
      </trkpt>
      <trkpt lat="47.13378" lon="-1.74834">
        <ele>62.92</ele>
        <time>2023-10-22T10:15:54Z</time>
      </trkpt>
      <trkpt lat="47.13373" lon="-1.74851">
        <ele>64.67</ele>
        <time>2023-10-22T10:15:56Z</time>
      </trkpt>
      <trkpt lat="47.1337" lon="-1.74867">
        <ele>63.87</ele>
        <time>2023-10-22T10:15:58Z</time>
      </trkpt>
      <trkpt lat="47.13366" lon="-1.74885">
        <ele>63.65</ele>
        <time>2023-10-22T10:16:00Z</time>
      </trkpt>
      <trkpt lat="47.13361" lon="-1.749">
        <ele>63.82</ele>
        <time>2023-10-22T10:16:02Z</time>
      </trkpt>
      <trkpt lat="47.13355" lon="-1.74916">
        <ele>64.65</ele>
        <time>2023-10-22T10:16:04Z</time>
      </trkpt>
      <trkpt lat="47.1335" lon="-1.74934">
        <ele>63.13</ele>
        <time>2023-10-22T10:16:06Z</time>
      </trkpt>
      <trkpt lat="47.13343" lon="-1.74949">
        <ele>62.53</ele>
        <time>2023-10-22T10:16:08Z</time>
      </trkpt>
      <trkpt lat="47.13336" lon="-1.74962">
        <ele>62.92</ele>
        <time>2023-10-22T10:16:10Z</time>
      </trkpt>
      <trkpt lat="47.1333" lon="-1.74979">
        <ele>61.66</ele>
        <time>2023-10-22T10:16:12Z</time>
      </trkpt>
      <trkpt lat="47.13322" lon="-1.74993">
        <ele>62.89</ele>
        <time>2023-10-22T10:16:14Z</time>
      </trkpt>
      <trkpt lat="47.13313" lon="-1.75003">
        <ele>63.9</ele>
        <time>2023-10-22T10:16:16Z</time>
      </trkpt>
      <trkpt lat="47.13304" lon="-1.75012">
        <ele>64.85</ele>
        <time>2023-10-22T10:16:18Z</time>
      </trkpt>
      <trkpt lat="47.13294" lon="-1.7502">
        <ele>66.05</ele>
        <time>2023-10-22T10:16:20Z</time>
      </trkpt>
      <trkpt lat="47.13285" lon="-1.75028">
        <ele>66.85</ele>
        <time>2023-10-22T10:16:22Z</time>
      </trkpt>
      <trkpt lat="47.13275" lon="-1.75037">
        <ele>66.94</ele>
        <time>2023-10-22T10:16:24Z</time>
      </trkpt>
      <trkpt lat="47.13265" lon="-1.75044">
        <ele>67.25</ele>
        <time>2023-10-22T10:16:26Z</time>
      </trkpt>
      <trkpt lat="47.13254" lon="-1.7505">
        <ele>67.96</ele>
        <time>2023-10-22T10:16:28Z</time>
      </trkpt>
      <trkpt lat="47.13243" lon="-1.75059">
        <ele>68.65</ele>
        <time>2023-10-22T10:16:30Z</time>
      </trkpt>
      <trkpt lat="47.13233" lon="-1.75069">
        <ele>68.86</ele>
        <time>2023-10-22T10:16:32Z</time>
      </trkpt>
      <trkpt lat="47.13223" lon="-1.75078">
        <ele>68.78</ele>
        <time>2023-10-22T10:16:34Z</time>
      </trkpt>
      <trkpt lat="47.13215" lon="-1.75089">
        <ele>69.42</ele>
        <time>2023-10-22T10:16:36Z</time>
      </trkpt>
      <trkpt lat="47.13207" lon="-1.75101">
        <ele>69.57</ele>
        <time>2023-10-22T10:16:38Z</time>
      </trkpt>
      <trkpt lat="47.132" lon="-1.75112">
        <ele>70.31</ele>
        <time>2023-10-22T10:16:40Z</time>
      </trkpt>
      <trkpt lat="47.13193" lon="-1.75126">
        <ele>70.82</ele>
        <time>2023-10-22T10:16:42Z</time>
      </trkpt>
      <trkpt lat="47.13186" lon="-1.75137">
        <ele>71.68</ele>
        <time>2023-10-22T10:16:44Z</time>
      </trkpt>
      <trkpt lat="47.13179" lon="-1.7515">
        <ele>72.43</ele>
        <time>2023-10-22T10:16:46Z</time>
      </trkpt>
      <trkpt lat="47.13173" lon="-1.75165">
        <ele>72.78</ele>
        <time>2023-10-22T10:16:48Z</time>
      </trkpt>
      <trkpt lat="47.13167" lon="-1.7518">
        <ele>73.34</ele>
        <time>2023-10-22T10:16:50Z</time>
      </trkpt>
      <trkpt lat="47.13161" lon="-1.75194">
        <ele>74.17</ele>
        <time>2023-10-22T10:16:52Z</time>
      </trkpt>
      <trkpt lat="47.13157" lon="-1.75212">
        <ele>73.97</ele>
        <time>2023-10-22T10:16:54Z</time>
      </trkpt>
      <trkpt lat="47.13153" lon="-1.7523">
        <ele>74.48</ele>
        <time>2023-10-22T10:16:56Z</time>
      </trkpt>
      <trkpt lat="47.13151" lon="-1.75249">
        <ele>73.18</ele>
        <time>2023-10-22T10:16:58Z</time>
      </trkpt>
      <trkpt lat="47.1315" lon="-1.75269">
        <ele>70.94</ele>
        <time>2023-10-22T10:17:00Z</time>
      </trkpt>
      <trkpt lat="47.13149" lon="-1.75283">
        <ele>72.21</ele>
        <time>2023-10-22T10:17:02Z</time>
      </trkpt>
      <trkpt lat="47.13146" lon="-1.75301">
        <ele>71.31</ele>
        <time>2023-10-22T10:17:04Z</time>
      </trkpt>
      <trkpt lat="47.13141" lon="-1.75318">
        <ele>71.9</ele>
        <time>2023-10-22T10:17:06Z</time>
      </trkpt>
      <trkpt lat="47.13137" lon="-1.75338">
        <ele>71.33</ele>
        <time>2023-10-22T10:17:08Z</time>
      </trkpt>
      <trkpt lat="47.13131" lon="-1.75354">
        <ele>72.14</ele>
        <time>2023-10-22T10:17:10Z</time>
      </trkpt>
      <trkpt lat="47.13128" lon="-1.75369">
        <ele>74.26</ele>
        <time>2023-10-22T10:17:12Z</time>
      </trkpt>
      <trkpt lat="47.13124" lon="-1.75385">
        <ele>74.86</ele>
        <time>2023-10-22T10:17:14Z</time>
      </trkpt>
      <trkpt lat="47.1312" lon="-1.75401">
        <ele>75.79</ele>
        <time>2023-10-22T10:17:16Z</time>
      </trkpt>
      <trkpt lat="47.13116" lon="-1.75416">
        <ele>75.72</ele>
        <time>2023-10-22T10:17:18Z</time>
      </trkpt>
      <trkpt lat="47.13114" lon="-1.75431">
        <ele>75.68</ele>
        <time>2023-10-22T10:17:20Z</time>
      </trkpt>
      <trkpt lat="47.13115" lon="-1.75448">
        <ele>76.25</ele>
        <time>2023-10-22T10:17:22Z</time>
      </trkpt>
      <trkpt lat="47.1311" lon="-1.75466">
        <ele>76.28</ele>
        <time>2023-10-22T10:17:24Z</time>
      </trkpt>
      <trkpt lat="47.13108" lon="-1.75482">
        <ele>76</ele>
        <time>2023-10-22T10:17:26Z</time>
      </trkpt>
      <trkpt lat="47.13107" lon="-1.75497">
        <ele>77.08</ele>
        <time>2023-10-22T10:17:28Z</time>
      </trkpt>
      <trkpt lat="47.13105" lon="-1.75512">
        <ele>78.02</ele>
        <time>2023-10-22T10:17:30Z</time>
      </trkpt>
      <trkpt lat="47.13102" lon="-1.75529">
        <ele>77.67</ele>
        <time>2023-10-22T10:17:32Z</time>
      </trkpt>
      <trkpt lat="47.13098" lon="-1.75546">
        <ele>77.43</ele>
        <time>2023-10-22T10:17:34Z</time>
      </trkpt>
      <trkpt lat="47.13096" lon="-1.75562">
        <ele>77.26</ele>
        <time>2023-10-22T10:17:36Z</time>
      </trkpt>
      <trkpt lat="47.13092" lon="-1.75581">
        <ele>76.95</ele>
        <time>2023-10-22T10:17:38Z</time>
      </trkpt>
      <trkpt lat="47.13089" lon="-1.75597">
        <ele>77.27</ele>
        <time>2023-10-22T10:17:40Z</time>
      </trkpt>
      <trkpt lat="47.13086" lon="-1.75614">
        <ele>76.57</ele>
        <time>2023-10-22T10:17:42Z</time>
      </trkpt>
      <trkpt lat="47.13083" lon="-1.75633">
        <ele>76.22</ele>
        <time>2023-10-22T10:17:44Z</time>
      </trkpt>
      <trkpt lat="47.13079" lon="-1.75654">
        <ele>75.38</ele>
        <time>2023-10-22T10:17:46Z</time>
      </trkpt>
      <trkpt lat="47.13076" lon="-1.75673">
        <ele>75.57</ele>
        <time>2023-10-22T10:17:48Z</time>
      </trkpt>
      <trkpt lat="47.13072" lon="-1.75693">
        <ele>74.91</ele>
        <time>2023-10-22T10:17:50Z</time>
      </trkpt>
      <trkpt lat="47.13068" lon="-1.75713">
        <ele>74.83</ele>
        <time>2023-10-22T10:17:52Z</time>
      </trkpt>
      <trkpt lat="47.13062" lon="-1.7573">
        <ele>74.72</ele>
        <time>2023-10-22T10:17:54Z</time>
      </trkpt>
      <trkpt lat="47.13053" lon="-1.75747">
        <ele>75.68</ele>
        <time>2023-10-22T10:17:56Z</time>
      </trkpt>
      <trkpt lat="47.13045" lon="-1.75762">
        <ele>76.5</ele>
        <time>2023-10-22T10:17:58Z</time>
      </trkpt>
      <trkpt lat="47.13035" lon="-1.75776">
        <ele>77.43</ele>
        <time>2023-10-22T10:18:00Z</time>
      </trkpt>
      <trkpt lat="47.13025" lon="-1.7579">
        <ele>77.89</ele>
        <time>2023-10-22T10:18:02Z</time>
      </trkpt>
      <trkpt lat="47.13017" lon="-1.75805">
        <ele>78.67</ele>
        <time>2023-10-22T10:18:04Z</time>
      </trkpt>
      <trkpt lat="47.13009" lon="-1.7582">
        <ele>79.26</ele>
        <time>2023-10-22T10:18:06Z</time>
      </trkpt>
      <trkpt lat="47.13006" lon="-1.75838">
        <ele>79.38</ele>
        <time>2023-10-22T10:18:08Z</time>
      </trkpt>
      <trkpt lat="47.13008" lon="-1.75856">
        <ele>80.41</ele>
        <time>2023-10-22T10:18:10Z</time>
      </trkpt>
      <trkpt lat="47.13008" lon="-1.75874">
        <ele>81.18</ele>
        <time>2023-10-22T10:18:12Z</time>
      </trkpt>
      <trkpt lat="47.13007" lon="-1.75894">
        <ele>81.24</ele>
        <time>2023-10-22T10:18:14Z</time>
      </trkpt>
      <trkpt lat="47.13002" lon="-1.75913">
        <ele>81.84</ele>
        <time>2023-10-22T10:18:16Z</time>
      </trkpt>
      <trkpt lat="47.12998" lon="-1.75934">
        <ele>81.99</ele>
        <time>2023-10-22T10:18:18Z</time>
      </trkpt>
      <trkpt lat="47.12993" lon="-1.75953">
        <ele>82.83</ele>
        <time>2023-10-22T10:18:20Z</time>
      </trkpt>
      <trkpt lat="47.12992" lon="-1.75967">
        <ele>82.22</ele>
        <time>2023-10-22T10:18:21Z</time>
      </trkpt>
      <trkpt lat="47.12989" lon="-1.7599">
        <ele>82.36</ele>
        <time>2023-10-22T10:18:23Z</time>
      </trkpt>
      <trkpt lat="47.12985" lon="-1.76012">
        <ele>82.97</ele>
        <time>2023-10-22T10:18:25Z</time>
      </trkpt>
      <trkpt lat="47.12984" lon="-1.76035">
        <ele>83.16</ele>
        <time>2023-10-22T10:18:27Z</time>
      </trkpt>
      <trkpt lat="47.12983" lon="-1.76059">
        <ele>82.77</ele>
        <time>2023-10-22T10:18:29Z</time>
      </trkpt>
      <trkpt lat="47.12983" lon="-1.76082">
        <ele>83.47</ele>
        <time>2023-10-22T10:18:31Z</time>
      </trkpt>
      <trkpt lat="47.12984" lon="-1.76105">
        <ele>83.07</ele>
        <time>2023-10-22T10:18:33Z</time>
      </trkpt>
      <trkpt lat="47.12987" lon="-1.76128">
        <ele>82.72</ele>
        <time>2023-10-22T10:18:35Z</time>
      </trkpt>
      <trkpt lat="47.12993" lon="-1.7615">
        <ele>82.21</ele>
        <time>2023-10-22T10:18:37Z</time>
      </trkpt>
      <trkpt lat="47.12999" lon="-1.76172">
        <ele>82.11</ele>
        <time>2023-10-22T10:18:39Z</time>
      </trkpt>
      <trkpt lat="47.13005" lon="-1.76194">
        <ele>82.54</ele>
        <time>2023-10-22T10:18:41Z</time>
      </trkpt>
      <trkpt lat="47.13011" lon="-1.76219">
        <ele>82.76</ele>
        <time>2023-10-22T10:18:43Z</time>
      </trkpt>
      <trkpt lat="47.13017" lon="-1.76242">
        <ele>83.17</ele>
        <time>2023-10-22T10:18:45Z</time>
      </trkpt>
      <trkpt lat="47.13023" lon="-1.76264">
        <ele>82.8</ele>
        <time>2023-10-22T10:18:47Z</time>
      </trkpt>
      <trkpt lat="47.13028" lon="-1.76288">
        <ele>82.92</ele>
        <time>2023-10-22T10:18:49Z</time>
      </trkpt>
      <trkpt lat="47.13033" lon="-1.76312">
        <ele>82.48</ele>
        <time>2023-10-22T10:18:51Z</time>
      </trkpt>
      <trkpt lat="47.13037" lon="-1.76335">
        <ele>82.72</ele>
        <time>2023-10-22T10:18:53Z</time>
      </trkpt>
      <trkpt lat="47.13042" lon="-1.76358">
        <ele>83.03</ele>
        <time>2023-10-22T10:18:55Z</time>
      </trkpt>
      <trkpt lat="47.13046" lon="-1.76381">
        <ele>82.41</ele>
        <time>2023-10-22T10:18:57Z</time>
      </trkpt>
      <trkpt lat="47.13049" lon="-1.76405">
        <ele>82.84</ele>
        <time>2023-10-22T10:18:59Z</time>
      </trkpt>
      <trkpt lat="47.13052" lon="-1.76429">
        <ele>82.76</ele>
        <time>2023-10-22T10:19:01Z</time>
      </trkpt>
      <trkpt lat="47.13053" lon="-1.76454">
        <ele>81.51</ele>
        <time>2023-10-22T10:19:03Z</time>
      </trkpt>
      <trkpt lat="47.13055" lon="-1.76479">
        <ele>80.93</ele>
        <time>2023-10-22T10:19:05Z</time>
      </trkpt>
      <trkpt lat="47.13056" lon="-1.76502">
        <ele>80.9</ele>
        <time>2023-10-22T10:19:07Z</time>
      </trkpt>
      <trkpt lat="47.13057" lon="-1.76527">
        <ele>81.14</ele>
        <time>2023-10-22T10:19:09Z</time>
      </trkpt>
      <trkpt lat="47.13059" lon="-1.76551">
        <ele>81.25</ele>
        <time>2023-10-22T10:19:11Z</time>
      </trkpt>
      <trkpt lat="47.1306" lon="-1.76574">
        <ele>81.48</ele>
        <time>2023-10-22T10:19:13Z</time>
      </trkpt>
      <trkpt lat="47.13062" lon="-1.76599">
        <ele>81.53</ele>
        <time>2023-10-22T10:19:15Z</time>
      </trkpt>
      <trkpt lat="47.13064" lon="-1.7662">
        <ele>81.86</ele>
        <time>2023-10-22T10:19:17Z</time>
      </trkpt>
      <trkpt lat="47.13067" lon="-1.76646">
        <ele>81.49</ele>
        <time>2023-10-22T10:19:19Z</time>
      </trkpt>
      <trkpt lat="47.13069" lon="-1.76669">
        <ele>81.18</ele>
        <time>2023-10-22T10:19:21Z</time>
      </trkpt>
      <trkpt lat="47.1307" lon="-1.76691">
        <ele>81.3</ele>
        <time>2023-10-22T10:19:23Z</time>
      </trkpt>
      <trkpt lat="47.13068" lon="-1.76712">
        <ele>82.25</ele>
        <time>2023-10-22T10:19:25Z</time>
      </trkpt>
      <trkpt lat="47.13065" lon="-1.76736">
        <ele>81.45</ele>
        <time>2023-10-22T10:19:27Z</time>
      </trkpt>
      <trkpt lat="47.13062" lon="-1.76756">
        <ele>83.3</ele>
        <time>2023-10-22T10:19:29Z</time>
      </trkpt>
      <trkpt lat="47.13058" lon="-1.76779">
        <ele>83.19</ele>
        <time>2023-10-22T10:19:31Z</time>
      </trkpt>
      <trkpt lat="47.13055" lon="-1.76802">
        <ele>83.38</ele>
        <time>2023-10-22T10:19:33Z</time>
      </trkpt>
      <trkpt lat="47.13053" lon="-1.76827">
        <ele>83.73</ele>
        <time>2023-10-22T10:19:35Z</time>
      </trkpt>
      <trkpt lat="47.13051" lon="-1.76851">
        <ele>83.86</ele>
        <time>2023-10-22T10:19:37Z</time>
      </trkpt>
      <trkpt lat="47.13048" lon="-1.76874">
        <ele>84.02</ele>
        <time>2023-10-22T10:19:39Z</time>
      </trkpt>
      <trkpt lat="47.13046" lon="-1.76897">
        <ele>84.34</ele>
        <time>2023-10-22T10:19:41Z</time>
      </trkpt>
      <trkpt lat="47.13044" lon="-1.76922">
        <ele>83.33</ele>
        <time>2023-10-22T10:19:43Z</time>
      </trkpt>
      <trkpt lat="47.13042" lon="-1.76942">
        <ele>81.89</ele>
        <time>2023-10-22T10:19:45Z</time>
      </trkpt>
      <trkpt lat="47.13041" lon="-1.76966">
        <ele>81.47</ele>
        <time>2023-10-22T10:19:47Z</time>
      </trkpt>
      <trkpt lat="47.13039" lon="-1.76989">
        <ele>82.29</ele>
        <time>2023-10-22T10:19:49Z</time>
      </trkpt>
      <trkpt lat="47.13038" lon="-1.77012">
        <ele>82.57</ele>
        <time>2023-10-22T10:19:51Z</time>
      </trkpt>
      <trkpt lat="47.13037" lon="-1.77033">
        <ele>83.5</ele>
        <time>2023-10-22T10:19:53Z</time>
      </trkpt>
      <trkpt lat="47.13035" lon="-1.77056">
        <ele>84.43</ele>
        <time>2023-10-22T10:19:55Z</time>
      </trkpt>
      <trkpt lat="47.13034" lon="-1.7708">
        <ele>84.76</ele>
        <time>2023-10-22T10:19:57Z</time>
      </trkpt>
      <trkpt lat="47.13032" lon="-1.77106">
        <ele>84.64</ele>
        <time>2023-10-22T10:19:59Z</time>
      </trkpt>
      <trkpt lat="47.13029" lon="-1.77129">
        <ele>85.02</ele>
        <time>2023-10-22T10:20:01Z</time>
      </trkpt>
      <trkpt lat="47.13026" lon="-1.77151">
        <ele>85.11</ele>
        <time>2023-10-22T10:20:03Z</time>
      </trkpt>
      <trkpt lat="47.13022" lon="-1.77172">
        <ele>85.23</ele>
        <time>2023-10-22T10:20:05Z</time>
      </trkpt>
      <trkpt lat="47.13018" lon="-1.77195">
        <ele>85.23</ele>
        <time>2023-10-22T10:20:07Z</time>
      </trkpt>
      <trkpt lat="47.13012" lon="-1.77214">
        <ele>85.95</ele>
        <time>2023-10-22T10:20:09Z</time>
      </trkpt>
      <trkpt lat="47.13006" lon="-1.77233">
        <ele>86.16</ele>
        <time>2023-10-22T10:20:11Z</time>
      </trkpt>
      <trkpt lat="47.13" lon="-1.77251">
        <ele>86.52</ele>
        <time>2023-10-22T10:20:13Z</time>
      </trkpt>
      <trkpt lat="47.12994" lon="-1.77268">
        <ele>87.8</ele>
        <time>2023-10-22T10:20:15Z</time>
      </trkpt>
      <trkpt lat="47.12988" lon="-1.77289">
        <ele>87.37</ele>
        <time>2023-10-22T10:20:17Z</time>
      </trkpt>
      <trkpt lat="47.12981" lon="-1.77308">
        <ele>87.86</ele>
        <time>2023-10-22T10:20:19Z</time>
      </trkpt>
      <trkpt lat="47.12974" lon="-1.77325">
        <ele>88.22</ele>
        <time>2023-10-22T10:20:21Z</time>
      </trkpt>
      <trkpt lat="47.12966" lon="-1.77345">
        <ele>88.51</ele>
        <time>2023-10-22T10:20:23Z</time>
      </trkpt>
      <trkpt lat="47.12959" lon="-1.77362">
        <ele>88.68</ele>
        <time>2023-10-22T10:20:25Z</time>
      </trkpt>
      <trkpt lat="47.12951" lon="-1.77379">
        <ele>88.74</ele>
        <time>2023-10-22T10:20:27Z</time>
      </trkpt>
      <trkpt lat="47.12944" lon="-1.77398">
        <ele>88.96</ele>
        <time>2023-10-22T10:20:29Z</time>
      </trkpt>
      <trkpt lat="47.12937" lon="-1.77415">
        <ele>89.7</ele>
        <time>2023-10-22T10:20:31Z</time>
      </trkpt>
      <trkpt lat="47.12931" lon="-1.77436">
        <ele>88.96</ele>
        <time>2023-10-22T10:20:33Z</time>
      </trkpt>
      <trkpt lat="47.12924" lon="-1.77455">
        <ele>88.56</ele>
        <time>2023-10-22T10:20:35Z</time>
      </trkpt>
      <trkpt lat="47.12918" lon="-1.77477">
        <ele>86.83</ele>
        <time>2023-10-22T10:20:37Z</time>
      </trkpt>
      <trkpt lat="47.12912" lon="-1.77498">
        <ele>86.96</ele>
        <time>2023-10-22T10:20:39Z</time>
      </trkpt>
      <trkpt lat="47.12906" lon="-1.77518">
        <ele>86.37</ele>
        <time>2023-10-22T10:20:41Z</time>
      </trkpt>
      <trkpt lat="47.12901" lon="-1.77537">
        <ele>86.75</ele>
        <time>2023-10-22T10:20:43Z</time>
      </trkpt>
      <trkpt lat="47.12896" lon="-1.77557">
        <ele>86.84</ele>
        <time>2023-10-22T10:20:45Z</time>
      </trkpt>
      <trkpt lat="47.12892" lon="-1.77575">
        <ele>86.16</ele>
        <time>2023-10-22T10:20:47Z</time>
      </trkpt>
      <trkpt lat="47.12886" lon="-1.77591">
        <ele>89.72</ele>
        <time>2023-10-22T10:20:49Z</time>
      </trkpt>
      <trkpt lat="47.12882" lon="-1.77609">
        <ele>89.87</ele>
        <time>2023-10-22T10:20:51Z</time>
      </trkpt>
      <trkpt lat="47.12877" lon="-1.77626">
        <ele>90.68</ele>
        <time>2023-10-22T10:20:53Z</time>
      </trkpt>
      <trkpt lat="47.12871" lon="-1.77646">
        <ele>91.45</ele>
        <time>2023-10-22T10:20:55Z</time>
      </trkpt>
      <trkpt lat="47.12866" lon="-1.77665">
        <ele>88.22</ele>
        <time>2023-10-22T10:20:57Z</time>
      </trkpt>
      <trkpt lat="47.12863" lon="-1.77686">
        <ele>89.18</ele>
        <time>2023-10-22T10:20:59Z</time>
      </trkpt>
      <trkpt lat="47.12859" lon="-1.77702">
        <ele>90.55</ele>
        <time>2023-10-22T10:21:01Z</time>
      </trkpt>
      <trkpt lat="47.12856" lon="-1.77723">
        <ele>89.81</ele>
        <time>2023-10-22T10:21:03Z</time>
      </trkpt>
      <trkpt lat="47.12849" lon="-1.77745">
        <ele>89.73</ele>
        <time>2023-10-22T10:21:05Z</time>
      </trkpt>
      <trkpt lat="47.12844" lon="-1.77771">
        <ele>88.1</ele>
        <time>2023-10-22T10:21:07Z</time>
      </trkpt>
      <trkpt lat="47.12836" lon="-1.77791">
        <ele>87</ele>
        <time>2023-10-22T10:21:09Z</time>
      </trkpt>
      <trkpt lat="47.12828" lon="-1.7781">
        <ele>86.26</ele>
        <time>2023-10-22T10:21:11Z</time>
      </trkpt>
      <trkpt lat="47.1282" lon="-1.77828">
        <ele>87.34</ele>
        <time>2023-10-22T10:21:13Z</time>
      </trkpt>
      <trkpt lat="47.12813" lon="-1.77847">
        <ele>86.75</ele>
        <time>2023-10-22T10:21:15Z</time>
      </trkpt>
      <trkpt lat="47.12807" lon="-1.77865">
        <ele>87.39</ele>
        <time>2023-10-22T10:21:17Z</time>
      </trkpt>
      <trkpt lat="47.12801" lon="-1.77885">
        <ele>87.57</ele>
        <time>2023-10-22T10:21:19Z</time>
      </trkpt>
      <trkpt lat="47.12795" lon="-1.77904">
        <ele>87.34</ele>
        <time>2023-10-22T10:21:21Z</time>
      </trkpt>
      <trkpt lat="47.12789" lon="-1.77922">
        <ele>87.45</ele>
        <time>2023-10-22T10:21:23Z</time>
      </trkpt>
      <trkpt lat="47.12784" lon="-1.77942">
        <ele>86.08</ele>
        <time>2023-10-22T10:21:25Z</time>
      </trkpt>
      <trkpt lat="47.12778" lon="-1.77959">
        <ele>87.68</ele>
        <time>2023-10-22T10:21:27Z</time>
      </trkpt>
      <trkpt lat="47.12772" lon="-1.7798">
        <ele>86.74</ele>
        <time>2023-10-22T10:21:29Z</time>
      </trkpt>
      <trkpt lat="47.12766" lon="-1.77999">
        <ele>86.65</ele>
        <time>2023-10-22T10:21:31Z</time>
      </trkpt>
      <trkpt lat="47.1276" lon="-1.78021">
        <ele>86.15</ele>
        <time>2023-10-22T10:21:33Z</time>
      </trkpt>
      <trkpt lat="47.12754" lon="-1.7804">
        <ele>86.34</ele>
        <time>2023-10-22T10:21:35Z</time>
      </trkpt>
      <trkpt lat="47.12746" lon="-1.78058">
        <ele>86.7</ele>
        <time>2023-10-22T10:21:37Z</time>
      </trkpt>
      <trkpt lat="47.12737" lon="-1.78073">
        <ele>87.23</ele>
        <time>2023-10-22T10:21:39Z</time>
      </trkpt>
      <trkpt lat="47.12727" lon="-1.78088">
        <ele>87.87</ele>
        <time>2023-10-22T10:21:41Z</time>
      </trkpt>
      <trkpt lat="47.12717" lon="-1.78104">
        <ele>88.28</ele>
        <time>2023-10-22T10:21:43Z</time>
      </trkpt>
      <trkpt lat="47.12708" lon="-1.78119">
        <ele>88.82</ele>
        <time>2023-10-22T10:21:45Z</time>
      </trkpt>
      <trkpt lat="47.12697" lon="-1.78133">
        <ele>88.79</ele>
        <time>2023-10-22T10:21:47Z</time>
      </trkpt>
      <trkpt lat="47.12686" lon="-1.78146">
        <ele>88.79</ele>
        <time>2023-10-22T10:21:49Z</time>
      </trkpt>
      <trkpt lat="47.12675" lon="-1.78159">
        <ele>89.5</ele>
        <time>2023-10-22T10:21:51Z</time>
      </trkpt>
      <trkpt lat="47.12664" lon="-1.78174">
        <ele>89.33</ele>
        <time>2023-10-22T10:21:53Z</time>
      </trkpt>
      <trkpt lat="47.12653" lon="-1.78189">
        <ele>89.99</ele>
        <time>2023-10-22T10:21:55Z</time>
      </trkpt>
      <trkpt lat="47.12643" lon="-1.78204">
        <ele>89.36</ele>
        <time>2023-10-22T10:21:57Z</time>
      </trkpt>
      <trkpt lat="47.12634" lon="-1.7822">
        <ele>89.31</ele>
        <time>2023-10-22T10:21:59Z</time>
      </trkpt>
      <trkpt lat="47.12626" lon="-1.78237">
        <ele>88.94</ele>
        <time>2023-10-22T10:22:01Z</time>
      </trkpt>
      <trkpt lat="47.1262" lon="-1.78257">
        <ele>88.95</ele>
        <time>2023-10-22T10:22:03Z</time>
      </trkpt>
      <trkpt lat="47.12616" lon="-1.78278">
        <ele>89.01</ele>
        <time>2023-10-22T10:22:05Z</time>
      </trkpt>
      <trkpt lat="47.12612" lon="-1.78298">
        <ele>89.16</ele>
        <time>2023-10-22T10:22:07Z</time>
      </trkpt>
      <trkpt lat="47.12607" lon="-1.78322">
        <ele>88.07</ele>
        <time>2023-10-22T10:22:09Z</time>
      </trkpt>
      <trkpt lat="47.12602" lon="-1.78344">
        <ele>86.17</ele>
        <time>2023-10-22T10:22:11Z</time>
      </trkpt>
      <trkpt lat="47.12597" lon="-1.78365">
        <ele>86.01</ele>
        <time>2023-10-22T10:22:13Z</time>
      </trkpt>
      <trkpt lat="47.12592" lon="-1.78384">
        <ele>85.53</ele>
        <time>2023-10-22T10:22:15Z</time>
      </trkpt>
      <trkpt lat="47.12587" lon="-1.78403">
        <ele>86</ele>
        <time>2023-10-22T10:22:17Z</time>
      </trkpt>
      <trkpt lat="47.12582" lon="-1.78424">
        <ele>86.05</ele>
        <time>2023-10-22T10:22:19Z</time>
      </trkpt>
      <trkpt lat="47.12578" lon="-1.78446">
        <ele>85.55</ele>
        <time>2023-10-22T10:22:21Z</time>
      </trkpt>
      <trkpt lat="47.12573" lon="-1.78468">
        <ele>85.25</ele>
        <time>2023-10-22T10:22:23Z</time>
      </trkpt>
      <trkpt lat="47.12568" lon="-1.7849">
        <ele>84.44</ele>
        <time>2023-10-22T10:22:25Z</time>
      </trkpt>
      <trkpt lat="47.12563" lon="-1.7851">
        <ele>83.85</ele>
        <time>2023-10-22T10:22:27Z</time>
      </trkpt>
      <trkpt lat="47.12557" lon="-1.78531">
        <ele>83.72</ele>
        <time>2023-10-22T10:22:29Z</time>
      </trkpt>
      <trkpt lat="47.12552" lon="-1.78553">
        <ele>83.71</ele>
        <time>2023-10-22T10:22:31Z</time>
      </trkpt>
      <trkpt lat="47.12546" lon="-1.78574">
        <ele>83.56</ele>
        <time>2023-10-22T10:22:33Z</time>
      </trkpt>
      <trkpt lat="47.1254" lon="-1.78594">
        <ele>84.12</ele>
        <time>2023-10-22T10:22:35Z</time>
      </trkpt>
      <trkpt lat="47.12535" lon="-1.78614">
        <ele>84.57</ele>
        <time>2023-10-22T10:22:37Z</time>
      </trkpt>
      <trkpt lat="47.12529" lon="-1.78637">
        <ele>83.61</ele>
        <time>2023-10-22T10:22:39Z</time>
      </trkpt>
      <trkpt lat="47.12522" lon="-1.78656">
        <ele>83.88</ele>
        <time>2023-10-22T10:22:41Z</time>
      </trkpt>
      <trkpt lat="47.12515" lon="-1.78678">
        <ele>82.37</ele>
        <time>2023-10-22T10:22:43Z</time>
      </trkpt>
      <trkpt lat="47.12507" lon="-1.78695">
        <ele>82.65</ele>
        <time>2023-10-22T10:22:45Z</time>
      </trkpt>
      <trkpt lat="47.12501" lon="-1.78714">
        <ele>83.15</ele>
        <time>2023-10-22T10:22:47Z</time>
      </trkpt>
      <trkpt lat="47.12496" lon="-1.78735">
        <ele>82.3</ele>
        <time>2023-10-22T10:22:49Z</time>
      </trkpt>
      <trkpt lat="47.12491" lon="-1.78756">
        <ele>82.74</ele>
        <time>2023-10-22T10:22:51Z</time>
      </trkpt>
      <trkpt lat="47.12486" lon="-1.78777">
        <ele>81.48</ele>
        <time>2023-10-22T10:22:53Z</time>
      </trkpt>
      <trkpt lat="47.12482" lon="-1.78794">
        <ele>83.57</ele>
        <time>2023-10-22T10:22:55Z</time>
      </trkpt>
      <trkpt lat="47.12477" lon="-1.78818">
        <ele>82.47</ele>
        <time>2023-10-22T10:22:57Z</time>
      </trkpt>
      <trkpt lat="47.12473" lon="-1.78837">
        <ele>82.94</ele>
        <time>2023-10-22T10:22:59Z</time>
      </trkpt>
      <trkpt lat="47.1247" lon="-1.78859">
        <ele>82.64</ele>
        <time>2023-10-22T10:23:01Z</time>
      </trkpt>
      <trkpt lat="47.12468" lon="-1.78883">
        <ele>82.76</ele>
        <time>2023-10-22T10:23:03Z</time>
      </trkpt>
      <trkpt lat="47.12467" lon="-1.78903">
        <ele>81.58</ele>
        <time>2023-10-22T10:23:05Z</time>
      </trkpt>
      <trkpt lat="47.12463" lon="-1.78925">
        <ele>81.82</ele>
        <time>2023-10-22T10:23:07Z</time>
      </trkpt>
      <trkpt lat="47.12459" lon="-1.78946">
        <ele>81.14</ele>
        <time>2023-10-22T10:23:09Z</time>
      </trkpt>
      <trkpt lat="47.12455" lon="-1.78965">
        <ele>81.77</ele>
        <time>2023-10-22T10:23:11Z</time>
      </trkpt>
      <trkpt lat="47.1245" lon="-1.78986">
        <ele>81.86</ele>
        <time>2023-10-22T10:23:13Z</time>
      </trkpt>
      <trkpt lat="47.12445" lon="-1.79006">
        <ele>80.91</ele>
        <time>2023-10-22T10:23:15Z</time>
      </trkpt>
      <trkpt lat="47.12441" lon="-1.79026">
        <ele>80.17</ele>
        <time>2023-10-22T10:23:17Z</time>
      </trkpt>
      <trkpt lat="47.12435" lon="-1.79046">
        <ele>81.56</ele>
        <time>2023-10-22T10:23:19Z</time>
      </trkpt>
      <trkpt lat="47.12431" lon="-1.79069">
        <ele>80.35</ele>
        <time>2023-10-22T10:23:21Z</time>
      </trkpt>
      <trkpt lat="47.12426" lon="-1.79088">
        <ele>80.78</ele>
        <time>2023-10-22T10:23:23Z</time>
      </trkpt>
      <trkpt lat="47.12421" lon="-1.79107">
        <ele>80.85</ele>
        <time>2023-10-22T10:23:25Z</time>
      </trkpt>
      <trkpt lat="47.12418" lon="-1.79128">
        <ele>80.86</ele>
        <time>2023-10-22T10:23:27Z</time>
      </trkpt>
      <trkpt lat="47.12416" lon="-1.79147">
        <ele>81.61</ele>
        <time>2023-10-22T10:23:29Z</time>
      </trkpt>
      <trkpt lat="47.12417" lon="-1.79168">
        <ele>81.42</ele>
        <time>2023-10-22T10:23:31Z</time>
      </trkpt>
      <trkpt lat="47.12419" lon="-1.79189">
        <ele>81.47</ele>
        <time>2023-10-22T10:23:33Z</time>
      </trkpt>
      <trkpt lat="47.1242" lon="-1.7921">
        <ele>81.5</ele>
        <time>2023-10-22T10:23:35Z</time>
      </trkpt>
      <trkpt lat="47.12422" lon="-1.79232">
        <ele>81.6</ele>
        <time>2023-10-22T10:23:37Z</time>
      </trkpt>
      <trkpt lat="47.12422" lon="-1.79255">
        <ele>81.54</ele>
        <time>2023-10-22T10:23:39Z</time>
      </trkpt>
      <trkpt lat="47.12419" lon="-1.79277">
        <ele>80.88</ele>
        <time>2023-10-22T10:23:41Z</time>
      </trkpt>
      <trkpt lat="47.12412" lon="-1.79295">
        <ele>81.09</ele>
        <time>2023-10-22T10:23:43Z</time>
      </trkpt>
      <trkpt lat="47.12405" lon="-1.79314">
        <ele>80.97</ele>
        <time>2023-10-22T10:23:45Z</time>
      </trkpt>
      <trkpt lat="47.12397" lon="-1.7933">
        <ele>80.88</ele>
        <time>2023-10-22T10:23:47Z</time>
      </trkpt>
      <trkpt lat="47.12389" lon="-1.79347">
        <ele>81.8</ele>
        <time>2023-10-22T10:23:49Z</time>
      </trkpt>
      <trkpt lat="47.1238" lon="-1.79363">
        <ele>81.84</ele>
        <time>2023-10-22T10:23:51Z</time>
      </trkpt>
      <trkpt lat="47.12373" lon="-1.7938">
        <ele>81.97</ele>
        <time>2023-10-22T10:23:53Z</time>
      </trkpt>
      <trkpt lat="47.12366" lon="-1.79398">
        <ele>82.47</ele>
        <time>2023-10-22T10:23:55Z</time>
      </trkpt>
      <trkpt lat="47.1236" lon="-1.79416">
        <ele>83.7</ele>
        <time>2023-10-22T10:23:57Z</time>
      </trkpt>
      <trkpt lat="47.12356" lon="-1.79435">
        <ele>84.24</ele>
        <time>2023-10-22T10:23:59Z</time>
      </trkpt>
      <trkpt lat="47.1235" lon="-1.79456">
        <ele>82.8</ele>
        <time>2023-10-22T10:24:01Z</time>
      </trkpt>
      <trkpt lat="47.12347" lon="-1.79479">
        <ele>81.8</ele>
        <time>2023-10-22T10:24:03Z</time>
      </trkpt>
      <trkpt lat="47.12343" lon="-1.795">
        <ele>81.65</ele>
        <time>2023-10-22T10:24:05Z</time>
      </trkpt>
      <trkpt lat="47.12339" lon="-1.7952">
        <ele>81</ele>
        <time>2023-10-22T10:24:07Z</time>
      </trkpt>
      <trkpt lat="47.12336" lon="-1.79538">
        <ele>82.66</ele>
        <time>2023-10-22T10:24:09Z</time>
      </trkpt>
      <trkpt lat="47.12333" lon="-1.79559">
        <ele>82.44</ele>
        <time>2023-10-22T10:24:11Z</time>
      </trkpt>
      <trkpt lat="47.12328" lon="-1.79578">
        <ele>82.15</ele>
        <time>2023-10-22T10:24:13Z</time>
      </trkpt>
      <trkpt lat="47.12317" lon="-1.79591">
        <ele>82.8</ele>
        <time>2023-10-22T10:24:15Z</time>
      </trkpt>
      <trkpt lat="47.12304" lon="-1.79597">
        <ele>82.55</ele>
        <time>2023-10-22T10:24:17Z</time>
      </trkpt>
      <trkpt lat="47.12291" lon="-1.79598">
        <ele>82.57</ele>
        <time>2023-10-22T10:24:19Z</time>
      </trkpt>
      <trkpt lat="47.12277" lon="-1.79597">
        <ele>82.51</ele>
        <time>2023-10-22T10:24:21Z</time>
      </trkpt>
      <trkpt lat="47.12263" lon="-1.79596">
        <ele>82.76</ele>
        <time>2023-10-22T10:24:23Z</time>
      </trkpt>
      <trkpt lat="47.12249" lon="-1.79595">
        <ele>82.95</ele>
        <time>2023-10-22T10:24:25Z</time>
      </trkpt>
      <trkpt lat="47.12235" lon="-1.79594">
        <ele>82.87</ele>
        <time>2023-10-22T10:24:27Z</time>
      </trkpt>
      <trkpt lat="47.12222" lon="-1.79594">
        <ele>82.57</ele>
        <time>2023-10-22T10:24:29Z</time>
      </trkpt>
      <trkpt lat="47.12209" lon="-1.79594">
        <ele>82.81</ele>
        <time>2023-10-22T10:24:31Z</time>
      </trkpt>
      <trkpt lat="47.12196" lon="-1.79594">
        <ele>82.69</ele>
        <time>2023-10-22T10:24:33Z</time>
      </trkpt>
      <trkpt lat="47.12182" lon="-1.79594">
        <ele>82.09</ele>
        <time>2023-10-22T10:24:35Z</time>
      </trkpt>
      <trkpt lat="47.12169" lon="-1.79594">
        <ele>81.95</ele>
        <time>2023-10-22T10:24:37Z</time>
      </trkpt>
      <trkpt lat="47.12155" lon="-1.79594">
        <ele>81.57</ele>
        <time>2023-10-22T10:24:39Z</time>
      </trkpt>
      <trkpt lat="47.12141" lon="-1.79594">
        <ele>81.44</ele>
        <time>2023-10-22T10:24:41Z</time>
      </trkpt>
      <trkpt lat="47.12127" lon="-1.79595">
        <ele>80.96</ele>
        <time>2023-10-22T10:24:43Z</time>
      </trkpt>
      <trkpt lat="47.12113" lon="-1.79596">
        <ele>80.16</ele>
        <time>2023-10-22T10:24:45Z</time>
      </trkpt>
      <trkpt lat="47.12099" lon="-1.79598">
        <ele>79.17</ele>
        <time>2023-10-22T10:24:47Z</time>
      </trkpt>
      <trkpt lat="47.12086" lon="-1.79606">
        <ele>77.94</ele>
        <time>2023-10-22T10:24:49Z</time>
      </trkpt>
      <trkpt lat="47.12074" lon="-1.79617">
        <ele>77.37</ele>
        <time>2023-10-22T10:24:51Z</time>
      </trkpt>
      <trkpt lat="47.12062" lon="-1.7963">
        <ele>77.89</ele>
        <time>2023-10-22T10:24:53Z</time>
      </trkpt>
      <trkpt lat="47.12051" lon="-1.79643">
        <ele>77.85</ele>
        <time>2023-10-22T10:24:55Z</time>
      </trkpt>
      <trkpt lat="47.12039" lon="-1.79655">
        <ele>78.31</ele>
        <time>2023-10-22T10:24:57Z</time>
      </trkpt>
      <trkpt lat="47.12027" lon="-1.79667">
        <ele>77.84</ele>
        <time>2023-10-22T10:24:59Z</time>
      </trkpt>
      <trkpt lat="47.12015" lon="-1.79678">
        <ele>77.1</ele>
        <time>2023-10-22T10:25:01Z</time>
      </trkpt>
      <trkpt lat="47.12003" lon="-1.79691">
        <ele>77.05</ele>
        <time>2023-10-22T10:25:03Z</time>
      </trkpt>
      <trkpt lat="47.11992" lon="-1.79703">
        <ele>76.63</ele>
        <time>2023-10-22T10:25:05Z</time>
      </trkpt>
      <trkpt lat="47.11979" lon="-1.79716">
        <ele>76.32</ele>
        <time>2023-10-22T10:25:07Z</time>
      </trkpt>
      <trkpt lat="47.11968" lon="-1.79729">
        <ele>76.29</ele>
        <time>2023-10-22T10:25:09Z</time>
      </trkpt>
      <trkpt lat="47.11956" lon="-1.79742">
        <ele>77.19</ele>
        <time>2023-10-22T10:25:11Z</time>
      </trkpt>
      <trkpt lat="47.11946" lon="-1.79757">
        <ele>77.03</ele>
        <time>2023-10-22T10:25:13Z</time>
      </trkpt>
      <trkpt lat="47.11935" lon="-1.7977">
        <ele>78.3</ele>
        <time>2023-10-22T10:25:15Z</time>
      </trkpt>
      <trkpt lat="47.11924" lon="-1.79785">
        <ele>78.48</ele>
        <time>2023-10-22T10:25:17Z</time>
      </trkpt>
      <trkpt lat="47.11913" lon="-1.79799">
        <ele>78.29</ele>
        <time>2023-10-22T10:25:19Z</time>
      </trkpt>
      <trkpt lat="47.11903" lon="-1.79813">
        <ele>78.28</ele>
        <time>2023-10-22T10:25:21Z</time>
      </trkpt>
      <trkpt lat="47.11892" lon="-1.79826">
        <ele>78.01</ele>
        <time>2023-10-22T10:25:23Z</time>
      </trkpt>
      <trkpt lat="47.1188" lon="-1.79839">
        <ele>77.91</ele>
        <time>2023-10-22T10:25:25Z</time>
      </trkpt>
      <trkpt lat="47.11868" lon="-1.79853">
        <ele>77.36</ele>
        <time>2023-10-22T10:25:27Z</time>
      </trkpt>
      <trkpt lat="47.11856" lon="-1.79866">
        <ele>76.85</ele>
        <time>2023-10-22T10:25:29Z</time>
      </trkpt>
      <trkpt lat="47.11846" lon="-1.79879">
        <ele>77.19</ele>
        <time>2023-10-22T10:25:31Z</time>
      </trkpt>
      <trkpt lat="47.11835" lon="-1.79892">
        <ele>77.05</ele>
        <time>2023-10-22T10:25:33Z</time>
      </trkpt>
      <trkpt lat="47.11822" lon="-1.79903">
        <ele>75.65</ele>
        <time>2023-10-22T10:25:35Z</time>
      </trkpt>
      <trkpt lat="47.11812" lon="-1.79915">
        <ele>75.37</ele>
        <time>2023-10-22T10:25:37Z</time>
      </trkpt>
      <trkpt lat="47.11801" lon="-1.79926">
        <ele>75.49</ele>
        <time>2023-10-22T10:25:39Z</time>
      </trkpt>
      <trkpt lat="47.1179" lon="-1.79936">
        <ele>74.77</ele>
        <time>2023-10-22T10:25:41Z</time>
      </trkpt>
      <trkpt lat="47.11779" lon="-1.79947">
        <ele>75.07</ele>
        <time>2023-10-22T10:25:43Z</time>
      </trkpt>
      <trkpt lat="47.11772" lon="-1.79956">
        <ele>75.57</ele>
        <time>2023-10-22T10:25:45Z</time>
      </trkpt>
      <trkpt lat="47.11765" lon="-1.79968">
        <ele>75.05</ele>
        <time>2023-10-22T10:25:49Z</time>
      </trkpt>
      <trkpt lat="47.11757" lon="-1.79976">
        <ele>76.1</ele>
        <time>2023-10-22T10:25:54Z</time>
      </trkpt>
      <trkpt lat="47.11747" lon="-1.79977">
        <ele>76.75</ele>
        <time>2023-10-22T10:25:56Z</time>
      </trkpt>
      <trkpt lat="47.11735" lon="-1.79976">
        <ele>76.54</ele>
        <time>2023-10-22T10:25:58Z</time>
      </trkpt>
      <trkpt lat="47.11725" lon="-1.79975">
        <ele>77</ele>
        <time>2023-10-22T10:26:00Z</time>
      </trkpt>
      <trkpt lat="47.11715" lon="-1.79973">
        <ele>76.86</ele>
        <time>2023-10-22T10:26:02Z</time>
      </trkpt>
      <trkpt lat="47.11705" lon="-1.79974">
        <ele>77.16</ele>
        <time>2023-10-22T10:26:05Z</time>
      </trkpt>
      <trkpt lat="47.11695" lon="-1.7997">
        <ele>73.47</ele>
        <time>2023-10-22T10:26:19Z</time>
      </trkpt>
      <trkpt lat="47.11684" lon="-1.79968">
        <ele>75.98</ele>
        <time>2023-10-22T10:27:29Z</time>
      </trkpt>
      <trkpt lat="47.11674" lon="-1.79966">
        <ele>76.1</ele>
        <time>2023-10-22T10:27:31Z</time>
      </trkpt>
      <trkpt lat="47.11663" lon="-1.79967">
        <ele>77.71</ele>
        <time>2023-10-22T10:27:33Z</time>
      </trkpt>
      <trkpt lat="47.11651" lon="-1.79963">
        <ele>77.92</ele>
        <time>2023-10-22T10:27:35Z</time>
      </trkpt>
      <trkpt lat="47.11637" lon="-1.79962">
        <ele>76.1</ele>
        <time>2023-10-22T10:27:37Z</time>
      </trkpt>
      <trkpt lat="47.11624" lon="-1.79959">
        <ele>76.61</ele>
        <time>2023-10-22T10:27:39Z</time>
      </trkpt>
      <trkpt lat="47.11609" lon="-1.79956">
        <ele>75.71</ele>
        <time>2023-10-22T10:27:41Z</time>
      </trkpt>
      <trkpt lat="47.11596" lon="-1.79954">
        <ele>76.77</ele>
        <time>2023-10-22T10:27:43Z</time>
      </trkpt>
      <trkpt lat="47.11582" lon="-1.79954">
        <ele>76.62</ele>
        <time>2023-10-22T10:27:45Z</time>
      </trkpt>
      <trkpt lat="47.11568" lon="-1.79955">
        <ele>75.83</ele>
        <time>2023-10-22T10:27:47Z</time>
      </trkpt>
      <trkpt lat="47.11554" lon="-1.79958">
        <ele>75.29</ele>
        <time>2023-10-22T10:27:49Z</time>
      </trkpt>
      <trkpt lat="47.11541" lon="-1.79966">
        <ele>75.32</ele>
        <time>2023-10-22T10:27:51Z</time>
      </trkpt>
      <trkpt lat="47.11527" lon="-1.79978">
        <ele>75.54</ele>
        <time>2023-10-22T10:27:53Z</time>
      </trkpt>
      <trkpt lat="47.11514" lon="-1.79991">
        <ele>75.07</ele>
        <time>2023-10-22T10:27:55Z</time>
      </trkpt>
      <trkpt lat="47.11502" lon="-1.80007">
        <ele>74.42</ele>
        <time>2023-10-22T10:27:57Z</time>
      </trkpt>
      <trkpt lat="47.11491" lon="-1.80023">
        <ele>75.14</ele>
        <time>2023-10-22T10:27:59Z</time>
      </trkpt>
      <trkpt lat="47.11479" lon="-1.80039">
        <ele>75.61</ele>
        <time>2023-10-22T10:28:01Z</time>
      </trkpt>
      <trkpt lat="47.11467" lon="-1.80054">
        <ele>75.76</ele>
        <time>2023-10-22T10:28:03Z</time>
      </trkpt>
      <trkpt lat="47.11456" lon="-1.80069">
        <ele>75.4</ele>
        <time>2023-10-22T10:28:05Z</time>
      </trkpt>
      <trkpt lat="47.11443" lon="-1.80084">
        <ele>75.05</ele>
        <time>2023-10-22T10:28:07Z</time>
      </trkpt>
      <trkpt lat="47.11432" lon="-1.80099">
        <ele>75.24</ele>
        <time>2023-10-22T10:28:09Z</time>
      </trkpt>
      <trkpt lat="47.11421" lon="-1.80113">
        <ele>75.15</ele>
        <time>2023-10-22T10:28:11Z</time>
      </trkpt>
      <trkpt lat="47.11409" lon="-1.80129">
        <ele>74.51</ele>
        <time>2023-10-22T10:28:13Z</time>
      </trkpt>
      <trkpt lat="47.11398" lon="-1.80146">
        <ele>74.6</ele>
        <time>2023-10-22T10:28:15Z</time>
      </trkpt>
      <trkpt lat="47.11385" lon="-1.8016">
        <ele>74.2</ele>
        <time>2023-10-22T10:28:17Z</time>
      </trkpt>
      <trkpt lat="47.11374" lon="-1.80177">
        <ele>73.98</ele>
        <time>2023-10-22T10:28:19Z</time>
      </trkpt>
      <trkpt lat="47.11362" lon="-1.80191">
        <ele>74.04</ele>
        <time>2023-10-22T10:28:21Z</time>
      </trkpt>
      <trkpt lat="47.11352" lon="-1.80207">
        <ele>74.29</ele>
        <time>2023-10-22T10:28:23Z</time>
      </trkpt>
      <trkpt lat="47.11341" lon="-1.80223">
        <ele>73.93</ele>
        <time>2023-10-22T10:28:25Z</time>
      </trkpt>
      <trkpt lat="47.11331" lon="-1.80239">
        <ele>73.9</ele>
        <time>2023-10-22T10:28:27Z</time>
      </trkpt>
      <trkpt lat="47.11321" lon="-1.80256">
        <ele>73.32</ele>
        <time>2023-10-22T10:28:29Z</time>
      </trkpt>
      <trkpt lat="47.1131" lon="-1.80273">
        <ele>73.75</ele>
        <time>2023-10-22T10:28:31Z</time>
      </trkpt>
      <trkpt lat="47.11298" lon="-1.80288">
        <ele>73.73</ele>
        <time>2023-10-22T10:28:33Z</time>
      </trkpt>
      <trkpt lat="47.11285" lon="-1.80304">
        <ele>73.98</ele>
        <time>2023-10-22T10:28:35Z</time>
      </trkpt>
      <trkpt lat="47.11274" lon="-1.8032">
        <ele>73.94</ele>
        <time>2023-10-22T10:28:37Z</time>
      </trkpt>
      <trkpt lat="47.11263" lon="-1.80336">
        <ele>73.45</ele>
        <time>2023-10-22T10:28:39Z</time>
      </trkpt>
      <trkpt lat="47.11252" lon="-1.80351">
        <ele>73.79</ele>
        <time>2023-10-22T10:28:41Z</time>
      </trkpt>
      <trkpt lat="47.1124" lon="-1.80365">
        <ele>73.56</ele>
        <time>2023-10-22T10:28:43Z</time>
      </trkpt>
      <trkpt lat="47.11228" lon="-1.80379">
        <ele>73.11</ele>
        <time>2023-10-22T10:28:45Z</time>
      </trkpt>
      <trkpt lat="47.11217" lon="-1.80393">
        <ele>73.07</ele>
        <time>2023-10-22T10:28:47Z</time>
      </trkpt>
      <trkpt lat="47.11206" lon="-1.80405">
        <ele>73.3</ele>
        <time>2023-10-22T10:28:49Z</time>
      </trkpt>
      <trkpt lat="47.11193" lon="-1.80418">
        <ele>73.05</ele>
        <time>2023-10-22T10:28:51Z</time>
      </trkpt>
      <trkpt lat="47.11182" lon="-1.80428">
        <ele>72.56</ele>
        <time>2023-10-22T10:28:53Z</time>
      </trkpt>
      <trkpt lat="47.11168" lon="-1.80437">
        <ele>72.7</ele>
        <time>2023-10-22T10:28:55Z</time>
      </trkpt>
      <trkpt lat="47.11156" lon="-1.80446">
        <ele>73.19</ele>
        <time>2023-10-22T10:28:57Z</time>
      </trkpt>
      <trkpt lat="47.11143" lon="-1.80454">
        <ele>73.97</ele>
        <time>2023-10-22T10:28:59Z</time>
      </trkpt>
      <trkpt lat="47.1113" lon="-1.80463">
        <ele>73.81</ele>
        <time>2023-10-22T10:29:01Z</time>
      </trkpt>
      <trkpt lat="47.11117" lon="-1.80472">
        <ele>73.74</ele>
        <time>2023-10-22T10:29:03Z</time>
      </trkpt>
      <trkpt lat="47.11104" lon="-1.8048">
        <ele>73.96</ele>
        <time>2023-10-22T10:29:05Z</time>
      </trkpt>
      <trkpt lat="47.11091" lon="-1.80488">
        <ele>73.93</ele>
        <time>2023-10-22T10:29:07Z</time>
      </trkpt>
      <trkpt lat="47.11079" lon="-1.80496">
        <ele>74.97</ele>
        <time>2023-10-22T10:29:09Z</time>
      </trkpt>
      <trkpt lat="47.11066" lon="-1.80504">
        <ele>74.92</ele>
        <time>2023-10-22T10:29:11Z</time>
      </trkpt>
      <trkpt lat="47.11054" lon="-1.80513">
        <ele>75.23</ele>
        <time>2023-10-22T10:29:13Z</time>
      </trkpt>
      <trkpt lat="47.11041" lon="-1.80521">
        <ele>74.65</ele>
        <time>2023-10-22T10:29:15Z</time>
      </trkpt>
      <trkpt lat="47.11027" lon="-1.80529">
        <ele>74.32</ele>
        <time>2023-10-22T10:29:17Z</time>
      </trkpt>
      <trkpt lat="47.11014" lon="-1.80538">
        <ele>74.28</ele>
        <time>2023-10-22T10:29:19Z</time>
      </trkpt>
      <trkpt lat="47.11002" lon="-1.80547">
        <ele>74.49</ele>
        <time>2023-10-22T10:29:21Z</time>
      </trkpt>
      <trkpt lat="47.1099" lon="-1.80556">
        <ele>74.37</ele>
        <time>2023-10-22T10:29:23Z</time>
      </trkpt>
      <trkpt lat="47.10971" lon="-1.80569">
        <ele>73.96</ele>
        <time>2023-10-22T10:29:26Z</time>
      </trkpt>
      <trkpt lat="47.10957" lon="-1.80579">
        <ele>73.37</ele>
        <time>2023-10-22T10:29:28Z</time>
      </trkpt>
      <trkpt lat="47.10938" lon="-1.80591">
        <ele>73.39</ele>
        <time>2023-10-22T10:29:31Z</time>
      </trkpt>
      <trkpt lat="47.10925" lon="-1.80599">
        <ele>73.76</ele>
        <time>2023-10-22T10:29:33Z</time>
      </trkpt>
      <trkpt lat="47.10906" lon="-1.80611">
        <ele>73.97</ele>
        <time>2023-10-22T10:29:36Z</time>
      </trkpt>
      <trkpt lat="47.10894" lon="-1.80619">
        <ele>74.33</ele>
        <time>2023-10-22T10:29:38Z</time>
      </trkpt>
      <trkpt lat="47.10882" lon="-1.80628">
        <ele>74.2</ele>
        <time>2023-10-22T10:29:40Z</time>
      </trkpt>
      <trkpt lat="47.10861" lon="-1.80637">
        <ele>74.61</ele>
        <time>2023-10-22T10:29:43Z</time>
      </trkpt>
      <trkpt lat="47.10848" lon="-1.80642">
        <ele>75.01</ele>
        <time>2023-10-22T10:29:45Z</time>
      </trkpt>
      <trkpt lat="47.10833" lon="-1.80648">
        <ele>74.7</ele>
        <time>2023-10-22T10:29:47Z</time>
      </trkpt>
      <trkpt lat="47.10816" lon="-1.80653">
        <ele>72.82</ele>
        <time>2023-10-22T10:29:49Z</time>
      </trkpt>
      <trkpt lat="47.10799" lon="-1.80658">
        <ele>72.21</ele>
        <time>2023-10-22T10:29:51Z</time>
      </trkpt>
      <trkpt lat="47.10784" lon="-1.80665">
        <ele>70.96</ele>
        <time>2023-10-22T10:29:53Z</time>
      </trkpt>
      <trkpt lat="47.10769" lon="-1.8067">
        <ele>70.9</ele>
        <time>2023-10-22T10:29:55Z</time>
      </trkpt>
      <trkpt lat="47.10754" lon="-1.80676">
        <ele>70.48</ele>
        <time>2023-10-22T10:29:57Z</time>
      </trkpt>
      <trkpt lat="47.1074" lon="-1.80681">
        <ele>70.22</ele>
        <time>2023-10-22T10:29:59Z</time>
      </trkpt>
      <trkpt lat="47.10724" lon="-1.80682">
        <ele>70.85</ele>
        <time>2023-10-22T10:30:01Z</time>
      </trkpt>
      <trkpt lat="47.1071" lon="-1.80683">
        <ele>70.92</ele>
        <time>2023-10-22T10:30:03Z</time>
      </trkpt>
      <trkpt lat="47.10694" lon="-1.80685">
        <ele>70.94</ele>
        <time>2023-10-22T10:30:05Z</time>
      </trkpt>
      <trkpt lat="47.10677" lon="-1.80686">
        <ele>70.27</ele>
        <time>2023-10-22T10:30:07Z</time>
      </trkpt>
      <trkpt lat="47.10662" lon="-1.80686">
        <ele>71.04</ele>
        <time>2023-10-22T10:30:09Z</time>
      </trkpt>
      <trkpt lat="47.10648" lon="-1.80689">
        <ele>70.47</ele>
        <time>2023-10-22T10:30:11Z</time>
      </trkpt>
      <trkpt lat="47.10636" lon="-1.80692">
        <ele>71.88</ele>
        <time>2023-10-22T10:30:13Z</time>
      </trkpt>
      <trkpt lat="47.10626" lon="-1.80693">
        <ele>70.45</ele>
        <time>2023-10-22T10:30:14Z</time>
      </trkpt>
      <trkpt lat="47.1061" lon="-1.80697">
        <ele>69.68</ele>
        <time>2023-10-22T10:30:16Z</time>
      </trkpt>
      <trkpt lat="47.10599" lon="-1.80703">
        <ele>70.72</ele>
        <time>2023-10-22T10:30:18Z</time>
      </trkpt>
      <trkpt lat="47.10586" lon="-1.80711">
        <ele>70.48</ele>
        <time>2023-10-22T10:30:20Z</time>
      </trkpt>
      <trkpt lat="47.10574" lon="-1.80722">
        <ele>69.63</ele>
        <time>2023-10-22T10:30:22Z</time>
      </trkpt>
      <trkpt lat="47.10562" lon="-1.80736">
        <ele>69.57</ele>
        <time>2023-10-22T10:30:24Z</time>
      </trkpt>
      <trkpt lat="47.10551" lon="-1.8075">
        <ele>69.22</ele>
        <time>2023-10-22T10:30:26Z</time>
      </trkpt>
      <trkpt lat="47.1054" lon="-1.80764">
        <ele>68.86</ele>
        <time>2023-10-22T10:30:28Z</time>
      </trkpt>
      <trkpt lat="47.10528" lon="-1.80777">
        <ele>68.61</ele>
        <time>2023-10-22T10:30:30Z</time>
      </trkpt>
      <trkpt lat="47.10518" lon="-1.80794">
        <ele>67.66</ele>
        <time>2023-10-22T10:30:32Z</time>
      </trkpt>
      <trkpt lat="47.10505" lon="-1.80808">
        <ele>67.51</ele>
        <time>2023-10-22T10:30:34Z</time>
      </trkpt>
      <trkpt lat="47.10491" lon="-1.80817">
        <ele>67.25</ele>
        <time>2023-10-22T10:30:36Z</time>
      </trkpt>
      <trkpt lat="47.10479" lon="-1.8083">
        <ele>66.97</ele>
        <time>2023-10-22T10:30:38Z</time>
      </trkpt>
      <trkpt lat="47.10468" lon="-1.80847">
        <ele>67.09</ele>
        <time>2023-10-22T10:30:40Z</time>
      </trkpt>
      <trkpt lat="47.10458" lon="-1.80864">
        <ele>67.5</ele>
        <time>2023-10-22T10:30:42Z</time>
      </trkpt>
      <trkpt lat="47.10447" lon="-1.8088">
        <ele>67.71</ele>
        <time>2023-10-22T10:30:44Z</time>
      </trkpt>
      <trkpt lat="47.10437" lon="-1.80897">
        <ele>68.1</ele>
        <time>2023-10-22T10:30:46Z</time>
      </trkpt>
      <trkpt lat="47.10428" lon="-1.80913">
        <ele>68.62</ele>
        <time>2023-10-22T10:30:48Z</time>
      </trkpt>
      <trkpt lat="47.10418" lon="-1.80928">
        <ele>69.14</ele>
        <time>2023-10-22T10:30:50Z</time>
      </trkpt>
      <trkpt lat="47.1041" lon="-1.80944">
        <ele>69.33</ele>
        <time>2023-10-22T10:30:52Z</time>
      </trkpt>
      <trkpt lat="47.104" lon="-1.80959">
        <ele>69.43</ele>
        <time>2023-10-22T10:30:54Z</time>
      </trkpt>
      <trkpt lat="47.10391" lon="-1.80974">
        <ele>69.46</ele>
        <time>2023-10-22T10:30:56Z</time>
      </trkpt>
      <trkpt lat="47.10383" lon="-1.80985">
        <ele>69.74</ele>
        <time>2023-10-22T10:30:58Z</time>
      </trkpt>
      <trkpt lat="47.10376" lon="-1.80995">
        <ele>70.4</ele>
        <time>2023-10-22T10:31:00Z</time>
      </trkpt>
      <trkpt lat="47.10371" lon="-1.81012">
        <ele>71.32</ele>
        <time>2023-10-22T10:31:03Z</time>
      </trkpt>
      <trkpt lat="47.10365" lon="-1.8103">
        <ele>72.76</ele>
        <time>2023-10-22T10:31:06Z</time>
      </trkpt>
      <trkpt lat="47.10359" lon="-1.81043">
        <ele>73.35</ele>
        <time>2023-10-22T10:31:09Z</time>
      </trkpt>
      <trkpt lat="47.10351" lon="-1.81037">
        <ele>72.73</ele>
        <time>2023-10-22T10:31:11Z</time>
      </trkpt>
      <trkpt lat="47.10345" lon="-1.81026">
        <ele>73.06</ele>
        <time>2023-10-22T10:31:13Z</time>
      </trkpt>
      <trkpt lat="47.10338" lon="-1.81012">
        <ele>72.9</ele>
        <time>2023-10-22T10:31:16Z</time>
      </trkpt>
      <trkpt lat="47.10328" lon="-1.81008">
        <ele>72.35</ele>
        <time>2023-10-22T10:31:19Z</time>
      </trkpt>
      <trkpt lat="47.10318" lon="-1.81008">
        <ele>71.7</ele>
        <time>2023-10-22T10:31:22Z</time>
      </trkpt>
      <trkpt lat="47.10308" lon="-1.81007">
        <ele>71.95</ele>
        <time>2023-10-22T10:31:25Z</time>
      </trkpt>
      <trkpt lat="47.10293" lon="-1.81005">
        <ele>71.1</ele>
        <time>2023-10-22T10:31:28Z</time>
      </trkpt>
      <trkpt lat="47.10281" lon="-1.81006">
        <ele>69.78</ele>
        <time>2023-10-22T10:31:30Z</time>
      </trkpt>
      <trkpt lat="47.10268" lon="-1.81006">
        <ele>69.02</ele>
        <time>2023-10-22T10:31:32Z</time>
      </trkpt>
      <trkpt lat="47.10255" lon="-1.81006">
        <ele>68.42</ele>
        <time>2023-10-22T10:31:34Z</time>
      </trkpt>
      <trkpt lat="47.10241" lon="-1.81007">
        <ele>66.69</ele>
        <time>2023-10-22T10:31:36Z</time>
      </trkpt>
      <trkpt lat="47.10226" lon="-1.81008">
        <ele>66.98</ele>
        <time>2023-10-22T10:31:38Z</time>
      </trkpt>
      <trkpt lat="47.10213" lon="-1.81004">
        <ele>66.7</ele>
        <time>2023-10-22T10:31:40Z</time>
      </trkpt>
      <trkpt lat="47.102" lon="-1.80999">
        <ele>67.56</ele>
        <time>2023-10-22T10:31:42Z</time>
      </trkpt>
      <trkpt lat="47.10187" lon="-1.80993">
        <ele>68.35</ele>
        <time>2023-10-22T10:31:44Z</time>
      </trkpt>
      <trkpt lat="47.10173" lon="-1.80987">
        <ele>67.87</ele>
        <time>2023-10-22T10:31:46Z</time>
      </trkpt>
      <trkpt lat="47.1016" lon="-1.8098">
        <ele>67.83</ele>
        <time>2023-10-22T10:31:48Z</time>
      </trkpt>
      <trkpt lat="47.10148" lon="-1.80973">
        <ele>67.45</ele>
        <time>2023-10-22T10:31:50Z</time>
      </trkpt>
      <trkpt lat="47.10137" lon="-1.8097">
        <ele>66.72</ele>
        <time>2023-10-22T10:31:52Z</time>
      </trkpt>
      <trkpt lat="47.10124" lon="-1.80969">
        <ele>66.62</ele>
        <time>2023-10-22T10:31:54Z</time>
      </trkpt>
      <trkpt lat="47.10111" lon="-1.80969">
        <ele>64.87</ele>
        <time>2023-10-22T10:31:56Z</time>
      </trkpt>
      <trkpt lat="47.10097" lon="-1.8097">
        <ele>66.2</ele>
        <time>2023-10-22T10:31:58Z</time>
      </trkpt>
      <trkpt lat="47.10085" lon="-1.80971">
        <ele>65.53</ele>
        <time>2023-10-22T10:32:00Z</time>
      </trkpt>
      <trkpt lat="47.10072" lon="-1.80971">
        <ele>66.11</ele>
        <time>2023-10-22T10:32:02Z</time>
      </trkpt>
      <trkpt lat="47.10059" lon="-1.80971">
        <ele>66.64</ele>
        <time>2023-10-22T10:32:04Z</time>
      </trkpt>
      <trkpt lat="47.10046" lon="-1.80973">
        <ele>66.28</ele>
        <time>2023-10-22T10:32:06Z</time>
      </trkpt>
      <trkpt lat="47.10034" lon="-1.80974">
        <ele>66.55</ele>
        <time>2023-10-22T10:32:08Z</time>
      </trkpt>
      <trkpt lat="47.10021" lon="-1.80977">
        <ele>66.54</ele>
        <time>2023-10-22T10:32:10Z</time>
      </trkpt>
      <trkpt lat="47.10009" lon="-1.80978">
        <ele>66.91</ele>
        <time>2023-10-22T10:32:12Z</time>
      </trkpt>
      <trkpt lat="47.09996" lon="-1.80977">
        <ele>66.52</ele>
        <time>2023-10-22T10:32:14Z</time>
      </trkpt>
      <trkpt lat="47.09983" lon="-1.80978">
        <ele>66.93</ele>
        <time>2023-10-22T10:32:16Z</time>
      </trkpt>
      <trkpt lat="47.0997" lon="-1.80977">
        <ele>67.22</ele>
        <time>2023-10-22T10:32:18Z</time>
      </trkpt>
      <trkpt lat="47.09958" lon="-1.80977">
        <ele>68.07</ele>
        <time>2023-10-22T10:32:20Z</time>
      </trkpt>
      <trkpt lat="47.09944" lon="-1.80979">
        <ele>68.85</ele>
        <time>2023-10-22T10:32:22Z</time>
      </trkpt>
      <trkpt lat="47.09932" lon="-1.80982">
        <ele>69.45</ele>
        <time>2023-10-22T10:32:24Z</time>
      </trkpt>
      <trkpt lat="47.0992" lon="-1.80982">
        <ele>69.63</ele>
        <time>2023-10-22T10:32:26Z</time>
      </trkpt>
      <trkpt lat="47.09908" lon="-1.80983">
        <ele>69.42</ele>
        <time>2023-10-22T10:32:28Z</time>
      </trkpt>
      <trkpt lat="47.09895" lon="-1.80984">
        <ele>69.03</ele>
        <time>2023-10-22T10:32:30Z</time>
      </trkpt>
      <trkpt lat="47.09883" lon="-1.80984">
        <ele>68.85</ele>
        <time>2023-10-22T10:32:32Z</time>
      </trkpt>
      <trkpt lat="47.0987" lon="-1.80986">
        <ele>69.1</ele>
        <time>2023-10-22T10:32:34Z</time>
      </trkpt>
      <trkpt lat="47.09858" lon="-1.80987">
        <ele>69.02</ele>
        <time>2023-10-22T10:32:36Z</time>
      </trkpt>
      <trkpt lat="47.09846" lon="-1.80987">
        <ele>68.71</ele>
        <time>2023-10-22T10:32:38Z</time>
      </trkpt>
      <trkpt lat="47.09834" lon="-1.80987">
        <ele>68.18</ele>
        <time>2023-10-22T10:32:40Z</time>
      </trkpt>
      <trkpt lat="47.09823" lon="-1.80988">
        <ele>67.84</ele>
        <time>2023-10-22T10:32:42Z</time>
      </trkpt>
      <trkpt lat="47.09813" lon="-1.80989">
        <ele>68.34</ele>
        <time>2023-10-22T10:32:44Z</time>
      </trkpt>
      <trkpt lat="47.09801" lon="-1.80989">
        <ele>67.9</ele>
        <time>2023-10-22T10:32:46Z</time>
      </trkpt>
      <trkpt lat="47.09789" lon="-1.80989">
        <ele>67.63</ele>
        <time>2023-10-22T10:32:48Z</time>
      </trkpt>
      <trkpt lat="47.09776" lon="-1.80988">
        <ele>67.44</ele>
        <time>2023-10-22T10:32:50Z</time>
      </trkpt>
      <trkpt lat="47.09764" lon="-1.80985">
        <ele>67.61</ele>
        <time>2023-10-22T10:32:52Z</time>
      </trkpt>
      <trkpt lat="47.09752" lon="-1.80982">
        <ele>66.97</ele>
        <time>2023-10-22T10:32:54Z</time>
      </trkpt>
      <trkpt lat="47.09739" lon="-1.80979">
        <ele>67.04</ele>
        <time>2023-10-22T10:32:56Z</time>
      </trkpt>
      <trkpt lat="47.09725" lon="-1.80976">
        <ele>66.69</ele>
        <time>2023-10-22T10:32:58Z</time>
      </trkpt>
      <trkpt lat="47.0971" lon="-1.80974">
        <ele>66.87</ele>
        <time>2023-10-22T10:33:00Z</time>
      </trkpt>
      <trkpt lat="47.09697" lon="-1.80971">
        <ele>65.71</ele>
        <time>2023-10-22T10:33:02Z</time>
      </trkpt>
      <trkpt lat="47.09684" lon="-1.80969">
        <ele>65.94</ele>
        <time>2023-10-22T10:33:04Z</time>
      </trkpt>
      <trkpt lat="47.09671" lon="-1.80966">
        <ele>65.45</ele>
        <time>2023-10-22T10:33:06Z</time>
      </trkpt>
      <trkpt lat="47.09658" lon="-1.80963">
        <ele>65.82</ele>
        <time>2023-10-22T10:33:08Z</time>
      </trkpt>
      <trkpt lat="47.09643" lon="-1.80959">
        <ele>65.21</ele>
        <time>2023-10-22T10:33:10Z</time>
      </trkpt>
      <trkpt lat="47.0963" lon="-1.80957">
        <ele>65.85</ele>
        <time>2023-10-22T10:33:12Z</time>
      </trkpt>
      <trkpt lat="47.09617" lon="-1.80952">
        <ele>64.93</ele>
        <time>2023-10-22T10:33:14Z</time>
      </trkpt>
      <trkpt lat="47.09604" lon="-1.8095">
        <ele>64.35</ele>
        <time>2023-10-22T10:33:16Z</time>
      </trkpt>
      <trkpt lat="47.09592" lon="-1.80947">
        <ele>64.68</ele>
        <time>2023-10-22T10:33:18Z</time>
      </trkpt>
      <trkpt lat="47.09578" lon="-1.80944">
        <ele>64.14</ele>
        <time>2023-10-22T10:33:20Z</time>
      </trkpt>
      <trkpt lat="47.09565" lon="-1.80941">
        <ele>63.99</ele>
        <time>2023-10-22T10:33:22Z</time>
      </trkpt>
      <trkpt lat="47.09552" lon="-1.80938">
        <ele>64.12</ele>
        <time>2023-10-22T10:33:24Z</time>
      </trkpt>
      <trkpt lat="47.09539" lon="-1.80935">
        <ele>63.66</ele>
        <time>2023-10-22T10:33:26Z</time>
      </trkpt>
      <trkpt lat="47.09526" lon="-1.8093">
        <ele>63.26</ele>
        <time>2023-10-22T10:33:28Z</time>
      </trkpt>
      <trkpt lat="47.09513" lon="-1.80927">
        <ele>63.69</ele>
        <time>2023-10-22T10:33:30Z</time>
      </trkpt>
      <trkpt lat="47.09501" lon="-1.80925">
        <ele>63.7</ele>
        <time>2023-10-22T10:33:32Z</time>
      </trkpt>
      <trkpt lat="47.09486" lon="-1.80926">
        <ele>63.9</ele>
        <time>2023-10-22T10:33:34Z</time>
      </trkpt>
      <trkpt lat="47.09473" lon="-1.8093">
        <ele>62.99</ele>
        <time>2023-10-22T10:33:36Z</time>
      </trkpt>
      <trkpt lat="47.09461" lon="-1.80937">
        <ele>62.96</ele>
        <time>2023-10-22T10:33:38Z</time>
      </trkpt>
      <trkpt lat="47.09449" lon="-1.80944">
        <ele>63.41</ele>
        <time>2023-10-22T10:33:40Z</time>
      </trkpt>
      <trkpt lat="47.09437" lon="-1.80951">
        <ele>62.73</ele>
        <time>2023-10-22T10:33:42Z</time>
      </trkpt>
      <trkpt lat="47.09424" lon="-1.80958">
        <ele>62.05</ele>
        <time>2023-10-22T10:33:44Z</time>
      </trkpt>
      <trkpt lat="47.09413" lon="-1.80965">
        <ele>62.29</ele>
        <time>2023-10-22T10:33:46Z</time>
      </trkpt>
      <trkpt lat="47.09404" lon="-1.80972">
        <ele>63.77</ele>
        <time>2023-10-22T10:33:48Z</time>
      </trkpt>
      <trkpt lat="47.09389" lon="-1.80979">
        <ele>62.44</ele>
        <time>2023-10-22T10:33:50Z</time>
      </trkpt>
      <trkpt lat="47.09375" lon="-1.80987">
        <ele>62.34</ele>
        <time>2023-10-22T10:33:52Z</time>
      </trkpt>
      <trkpt lat="47.0936" lon="-1.80995">
        <ele>61.84</ele>
        <time>2023-10-22T10:33:54Z</time>
      </trkpt>
      <trkpt lat="47.09346" lon="-1.81004">
        <ele>61.05</ele>
        <time>2023-10-22T10:33:56Z</time>
      </trkpt>
      <trkpt lat="47.09332" lon="-1.81011">
        <ele>60.51</ele>
        <time>2023-10-22T10:33:58Z</time>
      </trkpt>
      <trkpt lat="47.09319" lon="-1.8102">
        <ele>60.7</ele>
        <time>2023-10-22T10:34:00Z</time>
      </trkpt>
      <trkpt lat="47.09307" lon="-1.81028">
        <ele>61.35</ele>
        <time>2023-10-22T10:34:02Z</time>
      </trkpt>
      <trkpt lat="47.09294" lon="-1.81037">
        <ele>60.74</ele>
        <time>2023-10-22T10:34:04Z</time>
      </trkpt>
      <trkpt lat="47.09281" lon="-1.81044">
        <ele>60.28</ele>
        <time>2023-10-22T10:34:06Z</time>
      </trkpt>
      <trkpt lat="47.09267" lon="-1.81052">
        <ele>59.17</ele>
        <time>2023-10-22T10:34:08Z</time>
      </trkpt>
      <trkpt lat="47.09255" lon="-1.81061">
        <ele>59.42</ele>
        <time>2023-10-22T10:34:10Z</time>
      </trkpt>
      <trkpt lat="47.09243" lon="-1.81071">
        <ele>60.05</ele>
        <time>2023-10-22T10:34:12Z</time>
      </trkpt>
      <trkpt lat="47.09235" lon="-1.81081">
        <ele>60.6</ele>
        <time>2023-10-22T10:34:14Z</time>
      </trkpt>
      <trkpt lat="47.09228" lon="-1.81089">
        <ele>60.59</ele>
        <time>2023-10-22T10:34:16Z</time>
      </trkpt>
      <trkpt lat="47.09217" lon="-1.81089">
        <ele>61.24</ele>
        <time>2023-10-22T10:34:19Z</time>
      </trkpt>
      <trkpt lat="47.09208" lon="-1.81082">
        <ele>61.47</ele>
        <time>2023-10-22T10:34:21Z</time>
      </trkpt>
      <trkpt lat="47.09198" lon="-1.81072">
        <ele>62.15</ele>
        <time>2023-10-22T10:34:23Z</time>
      </trkpt>
      <trkpt lat="47.09187" lon="-1.81063">
        <ele>62.48</ele>
        <time>2023-10-22T10:34:25Z</time>
      </trkpt>
      <trkpt lat="47.09178" lon="-1.81055">
        <ele>63.51</ele>
        <time>2023-10-22T10:34:27Z</time>
      </trkpt>
      <trkpt lat="47.09167" lon="-1.81059">
        <ele>63.67</ele>
        <time>2023-10-22T10:34:29Z</time>
      </trkpt>
      <trkpt lat="47.09159" lon="-1.81071">
        <ele>63.69</ele>
        <time>2023-10-22T10:34:31Z</time>
      </trkpt>
      <trkpt lat="47.09149" lon="-1.81085">
        <ele>63.81</ele>
        <time>2023-10-22T10:34:33Z</time>
      </trkpt>
      <trkpt lat="47.09139" lon="-1.81101">
        <ele>63.12</ele>
        <time>2023-10-22T10:34:35Z</time>
      </trkpt>
      <trkpt lat="47.09125" lon="-1.81108">
        <ele>63.28</ele>
        <time>2023-10-22T10:34:37Z</time>
      </trkpt>
      <trkpt lat="47.09112" lon="-1.81113">
        <ele>63.42</ele>
        <time>2023-10-22T10:34:39Z</time>
      </trkpt>
      <trkpt lat="47.09099" lon="-1.81114">
        <ele>61.59</ele>
        <time>2023-10-22T10:34:41Z</time>
      </trkpt>
      <trkpt lat="47.09084" lon="-1.81118">
        <ele>62.2</ele>
        <time>2023-10-22T10:34:43Z</time>
      </trkpt>
      <trkpt lat="47.09072" lon="-1.81126">
        <ele>62.46</ele>
        <time>2023-10-22T10:34:45Z</time>
      </trkpt>
      <trkpt lat="47.0906" lon="-1.81138">
        <ele>62.6</ele>
        <time>2023-10-22T10:34:47Z</time>
      </trkpt>
      <trkpt lat="47.09051" lon="-1.81153">
        <ele>63.14</ele>
        <time>2023-10-22T10:34:49Z</time>
      </trkpt>
      <trkpt lat="47.09045" lon="-1.81168">
        <ele>63.86</ele>
        <time>2023-10-22T10:34:51Z</time>
      </trkpt>
      <trkpt lat="47.0904" lon="-1.81186">
        <ele>64.51</ele>
        <time>2023-10-22T10:34:53Z</time>
      </trkpt>
      <trkpt lat="47.09035" lon="-1.81202">
        <ele>64.72</ele>
        <time>2023-10-22T10:34:55Z</time>
      </trkpt>
      <trkpt lat="47.0903" lon="-1.81219">
        <ele>64.25</ele>
        <time>2023-10-22T10:34:57Z</time>
      </trkpt>
      <trkpt lat="47.09025" lon="-1.81238">
        <ele>63.47</ele>
        <time>2023-10-22T10:34:59Z</time>
      </trkpt>
      <trkpt lat="47.09017" lon="-1.8125">
        <ele>64.53</ele>
        <time>2023-10-22T10:35:01Z</time>
      </trkpt>
      <trkpt lat="47.0901" lon="-1.81264">
        <ele>64.66</ele>
        <time>2023-10-22T10:35:03Z</time>
      </trkpt>
      <trkpt lat="47.09001" lon="-1.81277">
        <ele>64.68</ele>
        <time>2023-10-22T10:35:05Z</time>
      </trkpt>
      <trkpt lat="47.08991" lon="-1.81289">
        <ele>65.57</ele>
        <time>2023-10-22T10:35:07Z</time>
      </trkpt>
      <trkpt lat="47.08983" lon="-1.81301">
        <ele>65.95</ele>
        <time>2023-10-22T10:35:09Z</time>
      </trkpt>
      <trkpt lat="47.08973" lon="-1.81312">
        <ele>66.48</ele>
        <time>2023-10-22T10:35:11Z</time>
      </trkpt>
      <trkpt lat="47.08964" lon="-1.81326">
        <ele>67.62</ele>
        <time>2023-10-22T10:35:13Z</time>
      </trkpt>
      <trkpt lat="47.08955" lon="-1.81338">
        <ele>68.05</ele>
        <time>2023-10-22T10:35:15Z</time>
      </trkpt>
      <trkpt lat="47.08946" lon="-1.81351">
        <ele>67.54</ele>
        <time>2023-10-22T10:35:17Z</time>
      </trkpt>
      <trkpt lat="47.08936" lon="-1.81362">
        <ele>67.36</ele>
        <time>2023-10-22T10:35:19Z</time>
      </trkpt>
      <trkpt lat="47.08925" lon="-1.81373">
        <ele>67.18</ele>
        <time>2023-10-22T10:35:21Z</time>
      </trkpt>
      <trkpt lat="47.08915" lon="-1.81382">
        <ele>68.35</ele>
        <time>2023-10-22T10:35:23Z</time>
      </trkpt>
      <trkpt lat="47.08905" lon="-1.81396">
        <ele>67.5</ele>
        <time>2023-10-22T10:35:25Z</time>
      </trkpt>
      <trkpt lat="47.08893" lon="-1.81408">
        <ele>66.28</ele>
        <time>2023-10-22T10:35:27Z</time>
      </trkpt>
      <trkpt lat="47.08883" lon="-1.81421">
        <ele>66.08</ele>
        <time>2023-10-22T10:35:29Z</time>
      </trkpt>
      <trkpt lat="47.08873" lon="-1.81433">
        <ele>66.59</ele>
        <time>2023-10-22T10:35:31Z</time>
      </trkpt>
      <trkpt lat="47.08863" lon="-1.81445">
        <ele>67.36</ele>
        <time>2023-10-22T10:35:33Z</time>
      </trkpt>
      <trkpt lat="47.08853" lon="-1.81456">
        <ele>67.84</ele>
        <time>2023-10-22T10:35:35Z</time>
      </trkpt>
      <trkpt lat="47.08841" lon="-1.81466">
        <ele>67.26</ele>
        <time>2023-10-22T10:35:37Z</time>
      </trkpt>
      <trkpt lat="47.08829" lon="-1.81474">
        <ele>67.38</ele>
        <time>2023-10-22T10:35:39Z</time>
      </trkpt>
      <trkpt lat="47.08819" lon="-1.81483">
        <ele>67.03</ele>
        <time>2023-10-22T10:35:41Z</time>
      </trkpt>
      <trkpt lat="47.0881" lon="-1.81491">
        <ele>68.19</ele>
        <time>2023-10-22T10:35:43Z</time>
      </trkpt>
      <trkpt lat="47.088" lon="-1.81501">
        <ele>68.16</ele>
        <time>2023-10-22T10:35:45Z</time>
      </trkpt>
      <trkpt lat="47.08791" lon="-1.81509">
        <ele>68.97</ele>
        <time>2023-10-22T10:35:47Z</time>
      </trkpt>
      <trkpt lat="47.08782" lon="-1.81516">
        <ele>70.41</ele>
        <time>2023-10-22T10:35:49Z</time>
      </trkpt>
      <trkpt lat="47.08775" lon="-1.81526">
        <ele>70.39</ele>
        <time>2023-10-22T10:35:51Z</time>
      </trkpt>
      <trkpt lat="47.08765" lon="-1.81532">
        <ele>71.04</ele>
        <time>2023-10-22T10:35:53Z</time>
      </trkpt>
      <trkpt lat="47.08756" lon="-1.81539">
        <ele>71.6</ele>
        <time>2023-10-22T10:35:55Z</time>
      </trkpt>
      <trkpt lat="47.08745" lon="-1.81547">
        <ele>72.02</ele>
        <time>2023-10-22T10:35:57Z</time>
      </trkpt>
      <trkpt lat="47.08737" lon="-1.81558">
        <ele>73.02</ele>
        <time>2023-10-22T10:35:59Z</time>
      </trkpt>
      <trkpt lat="47.0873" lon="-1.81571">
        <ele>73.73</ele>
        <time>2023-10-22T10:36:01Z</time>
      </trkpt>
      <trkpt lat="47.08723" lon="-1.81585">
        <ele>73.98</ele>
        <time>2023-10-22T10:36:03Z</time>
      </trkpt>
      <trkpt lat="47.08718" lon="-1.81599">
        <ele>73.92</ele>
        <time>2023-10-22T10:36:05Z</time>
      </trkpt>
      <trkpt lat="47.08714" lon="-1.81614">
        <ele>73.55</ele>
        <time>2023-10-22T10:36:07Z</time>
      </trkpt>
      <trkpt lat="47.0871" lon="-1.81628">
        <ele>73.79</ele>
        <time>2023-10-22T10:36:09Z</time>
      </trkpt>
      <trkpt lat="47.08702" lon="-1.81643">
        <ele>72.75</ele>
        <time>2023-10-22T10:36:11Z</time>
      </trkpt>
      <trkpt lat="47.08697" lon="-1.81657">
        <ele>71.77</ele>
        <time>2023-10-22T10:36:13Z</time>
      </trkpt>
      <trkpt lat="47.0869" lon="-1.81671">
        <ele>71.09</ele>
        <time>2023-10-22T10:36:15Z</time>
      </trkpt>
      <trkpt lat="47.0868" lon="-1.81681">
        <ele>71.87</ele>
        <time>2023-10-22T10:36:17Z</time>
      </trkpt>
      <trkpt lat="47.08668" lon="-1.81689">
        <ele>71.65</ele>
        <time>2023-10-22T10:36:19Z</time>
      </trkpt>
      <trkpt lat="47.08658" lon="-1.81694">
        <ele>71.82</ele>
        <time>2023-10-22T10:36:21Z</time>
      </trkpt>
      <trkpt lat="47.08647" lon="-1.81696">
        <ele>72.23</ele>
        <time>2023-10-22T10:36:23Z</time>
      </trkpt>
      <trkpt lat="47.08637" lon="-1.81694">
        <ele>73.19</ele>
        <time>2023-10-22T10:36:25Z</time>
      </trkpt>
      <trkpt lat="47.08627" lon="-1.81692">
        <ele>74.7</ele>
        <time>2023-10-22T10:36:27Z</time>
      </trkpt>
      <trkpt lat="47.08615" lon="-1.81689">
        <ele>74.9</ele>
        <time>2023-10-22T10:36:29Z</time>
      </trkpt>
      <trkpt lat="47.08604" lon="-1.81686">
        <ele>75.53</ele>
        <time>2023-10-22T10:36:31Z</time>
      </trkpt>
      <trkpt lat="47.08593" lon="-1.81683">
        <ele>76.54</ele>
        <time>2023-10-22T10:36:33Z</time>
      </trkpt>
      <trkpt lat="47.08581" lon="-1.81679">
        <ele>76.89</ele>
        <time>2023-10-22T10:36:35Z</time>
      </trkpt>
      <trkpt lat="47.08571" lon="-1.81677">
        <ele>78.21</ele>
        <time>2023-10-22T10:36:37Z</time>
      </trkpt>
      <trkpt lat="47.0856" lon="-1.81675">
        <ele>78.39</ele>
        <time>2023-10-22T10:36:39Z</time>
      </trkpt>
      <trkpt lat="47.08548" lon="-1.81671">
        <ele>77.4</ele>
        <time>2023-10-22T10:36:41Z</time>
      </trkpt>
      <trkpt lat="47.08536" lon="-1.8167">
        <ele>77.48</ele>
        <time>2023-10-22T10:36:43Z</time>
      </trkpt>
      <trkpt lat="47.08525" lon="-1.81667">
        <ele>76.34</ele>
        <time>2023-10-22T10:36:45Z</time>
      </trkpt>
      <trkpt lat="47.08514" lon="-1.81665">
        <ele>77.51</ele>
        <time>2023-10-22T10:36:47Z</time>
      </trkpt>
      <trkpt lat="47.085" lon="-1.81662">
        <ele>76.18</ele>
        <time>2023-10-22T10:36:49Z</time>
      </trkpt>
      <trkpt lat="47.08489" lon="-1.8166">
        <ele>75.73</ele>
        <time>2023-10-22T10:36:51Z</time>
      </trkpt>
      <trkpt lat="47.08476" lon="-1.81657">
        <ele>75.13</ele>
        <time>2023-10-22T10:36:53Z</time>
      </trkpt>
      <trkpt lat="47.08463" lon="-1.81654">
        <ele>75.1</ele>
        <time>2023-10-22T10:36:55Z</time>
      </trkpt>
      <trkpt lat="47.08452" lon="-1.81652">
        <ele>76.18</ele>
        <time>2023-10-22T10:36:57Z</time>
      </trkpt>
      <trkpt lat="47.08439" lon="-1.8165">
        <ele>76.4</ele>
        <time>2023-10-22T10:36:59Z</time>
      </trkpt>
      <trkpt lat="47.08427" lon="-1.8165">
        <ele>77.44</ele>
        <time>2023-10-22T10:37:01Z</time>
      </trkpt>
      <trkpt lat="47.08413" lon="-1.81647">
        <ele>77.67</ele>
        <time>2023-10-22T10:37:03Z</time>
      </trkpt>
      <trkpt lat="47.084" lon="-1.81645">
        <ele>77.26</ele>
        <time>2023-10-22T10:37:05Z</time>
      </trkpt>
      <trkpt lat="47.08388" lon="-1.81644">
        <ele>77.58</ele>
        <time>2023-10-22T10:37:07Z</time>
      </trkpt>
      <trkpt lat="47.08375" lon="-1.81643">
        <ele>77.2</ele>
        <time>2023-10-22T10:37:09Z</time>
      </trkpt>
      <trkpt lat="47.08363" lon="-1.81642">
        <ele>78.01</ele>
        <time>2023-10-22T10:37:11Z</time>
      </trkpt>
      <trkpt lat="47.0835" lon="-1.8164">
        <ele>78.33</ele>
        <time>2023-10-22T10:37:13Z</time>
      </trkpt>
      <trkpt lat="47.08338" lon="-1.81638">
        <ele>77.95</ele>
        <time>2023-10-22T10:37:15Z</time>
      </trkpt>
      <trkpt lat="47.08325" lon="-1.81637">
        <ele>78.23</ele>
        <time>2023-10-22T10:37:17Z</time>
      </trkpt>
      <trkpt lat="47.08313" lon="-1.81635">
        <ele>78.11</ele>
        <time>2023-10-22T10:37:19Z</time>
      </trkpt>
      <trkpt lat="47.08302" lon="-1.81633">
        <ele>78.17</ele>
        <time>2023-10-22T10:37:21Z</time>
      </trkpt>
      <trkpt lat="47.08291" lon="-1.81633">
        <ele>78.39</ele>
        <time>2023-10-22T10:37:23Z</time>
      </trkpt>
      <trkpt lat="47.08279" lon="-1.81634">
        <ele>78.15</ele>
        <time>2023-10-22T10:37:25Z</time>
      </trkpt>
      <trkpt lat="47.08268" lon="-1.81634">
        <ele>77.51</ele>
        <time>2023-10-22T10:37:27Z</time>
      </trkpt>
      <trkpt lat="47.08255" lon="-1.81634">
        <ele>77.26</ele>
        <time>2023-10-22T10:37:29Z</time>
      </trkpt>
      <trkpt lat="47.0824" lon="-1.81634">
        <ele>76.28</ele>
        <time>2023-10-22T10:37:31Z</time>
      </trkpt>
      <trkpt lat="47.08227" lon="-1.81634">
        <ele>76.28</ele>
        <time>2023-10-22T10:37:33Z</time>
      </trkpt>
      <trkpt lat="47.08214" lon="-1.81634">
        <ele>76.55</ele>
        <time>2023-10-22T10:37:35Z</time>
      </trkpt>
      <trkpt lat="47.08202" lon="-1.81632">
        <ele>76.57</ele>
        <time>2023-10-22T10:37:37Z</time>
      </trkpt>
      <trkpt lat="47.08188" lon="-1.81631">
        <ele>77.03</ele>
        <time>2023-10-22T10:37:39Z</time>
      </trkpt>
      <trkpt lat="47.08174" lon="-1.81631">
        <ele>76.84</ele>
        <time>2023-10-22T10:37:41Z</time>
      </trkpt>
      <trkpt lat="47.0816" lon="-1.8163">
        <ele>76.36</ele>
        <time>2023-10-22T10:37:43Z</time>
      </trkpt>
      <trkpt lat="47.08146" lon="-1.81629">
        <ele>76.6</ele>
        <time>2023-10-22T10:37:45Z</time>
      </trkpt>
      <trkpt lat="47.08132" lon="-1.81627">
        <ele>76.57</ele>
        <time>2023-10-22T10:37:47Z</time>
      </trkpt>
      <trkpt lat="47.08117" lon="-1.81625">
        <ele>76.84</ele>
        <time>2023-10-22T10:37:49Z</time>
      </trkpt>
      <trkpt lat="47.08103" lon="-1.81621">
        <ele>76.38</ele>
        <time>2023-10-22T10:37:51Z</time>
      </trkpt>
      <trkpt lat="47.08089" lon="-1.81616">
        <ele>76.86</ele>
        <time>2023-10-22T10:37:53Z</time>
      </trkpt>
      <trkpt lat="47.08078" lon="-1.81611">
        <ele>78.07</ele>
        <time>2023-10-22T10:37:55Z</time>
      </trkpt>
      <trkpt lat="47.08063" lon="-1.81604">
        <ele>76.88</ele>
        <time>2023-10-22T10:37:57Z</time>
      </trkpt>
      <trkpt lat="47.08049" lon="-1.81597">
        <ele>76.69</ele>
        <time>2023-10-22T10:37:59Z</time>
      </trkpt>
      <trkpt lat="47.08036" lon="-1.81589">
        <ele>76.22</ele>
        <time>2023-10-22T10:38:01Z</time>
      </trkpt>
      <trkpt lat="47.08021" lon="-1.81581">
        <ele>75.51</ele>
        <time>2023-10-22T10:38:03Z</time>
      </trkpt>
      <trkpt lat="47.08009" lon="-1.81575">
        <ele>76.27</ele>
        <time>2023-10-22T10:38:05Z</time>
      </trkpt>
      <trkpt lat="47.07994" lon="-1.81568">
        <ele>76.34</ele>
        <time>2023-10-22T10:38:07Z</time>
      </trkpt>
      <trkpt lat="47.07979" lon="-1.81563">
        <ele>75.95</ele>
        <time>2023-10-22T10:38:09Z</time>
      </trkpt>
      <trkpt lat="47.07965" lon="-1.8156">
        <ele>76.81</ele>
        <time>2023-10-22T10:38:11Z</time>
      </trkpt>
      <trkpt lat="47.07952" lon="-1.81559">
        <ele>77.88</ele>
        <time>2023-10-22T10:38:13Z</time>
      </trkpt>
      <trkpt lat="47.07937" lon="-1.81559">
        <ele>77.24</ele>
        <time>2023-10-22T10:38:15Z</time>
      </trkpt>
      <trkpt lat="47.07923" lon="-1.8156">
        <ele>77.45</ele>
        <time>2023-10-22T10:38:17Z</time>
      </trkpt>
      <trkpt lat="47.07908" lon="-1.81561">
        <ele>76.79</ele>
        <time>2023-10-22T10:38:19Z</time>
      </trkpt>
      <trkpt lat="47.07895" lon="-1.81563">
        <ele>77.08</ele>
        <time>2023-10-22T10:38:21Z</time>
      </trkpt>
      <trkpt lat="47.07881" lon="-1.81563">
        <ele>77.3</ele>
        <time>2023-10-22T10:38:23Z</time>
      </trkpt>
      <trkpt lat="47.07867" lon="-1.81563">
        <ele>77.31</ele>
        <time>2023-10-22T10:38:25Z</time>
      </trkpt>
      <trkpt lat="47.07854" lon="-1.81562">
        <ele>77.32</ele>
        <time>2023-10-22T10:38:27Z</time>
      </trkpt>
      <trkpt lat="47.0784" lon="-1.8156">
        <ele>76.93</ele>
        <time>2023-10-22T10:38:29Z</time>
      </trkpt>
      <trkpt lat="47.07827" lon="-1.81558">
        <ele>76.46</ele>
        <time>2023-10-22T10:38:31Z</time>
      </trkpt>
      <trkpt lat="47.07814" lon="-1.81555">
        <ele>75.52</ele>
        <time>2023-10-22T10:38:33Z</time>
      </trkpt>
      <trkpt lat="47.078" lon="-1.81552">
        <ele>74.09</ele>
        <time>2023-10-22T10:38:35Z</time>
      </trkpt>
      <trkpt lat="47.0778" lon="-1.8155">
        <ele>73.56</ele>
        <time>2023-10-22T10:38:38Z</time>
      </trkpt>
      <trkpt lat="47.07767" lon="-1.81547">
        <ele>73.2</ele>
        <time>2023-10-22T10:38:40Z</time>
      </trkpt>
      <trkpt lat="47.07754" lon="-1.81547">
        <ele>74</ele>
        <time>2023-10-22T10:38:42Z</time>
      </trkpt>
      <trkpt lat="47.07741" lon="-1.81547">
        <ele>73.8</ele>
        <time>2023-10-22T10:38:44Z</time>
      </trkpt>
      <trkpt lat="47.07728" lon="-1.81546">
        <ele>73.22</ele>
        <time>2023-10-22T10:38:46Z</time>
      </trkpt>
      <trkpt lat="47.07715" lon="-1.81546">
        <ele>73.93</ele>
        <time>2023-10-22T10:38:48Z</time>
      </trkpt>
      <trkpt lat="47.07702" lon="-1.81545">
        <ele>74.1</ele>
        <time>2023-10-22T10:38:50Z</time>
      </trkpt>
      <trkpt lat="47.0769" lon="-1.81545">
        <ele>73.69</ele>
        <time>2023-10-22T10:38:52Z</time>
      </trkpt>
      <trkpt lat="47.07677" lon="-1.81544">
        <ele>73.43</ele>
        <time>2023-10-22T10:38:54Z</time>
      </trkpt>
      <trkpt lat="47.07664" lon="-1.81542">
        <ele>73.21</ele>
        <time>2023-10-22T10:38:56Z</time>
      </trkpt>
      <trkpt lat="47.07651" lon="-1.8154">
        <ele>72.96</ele>
        <time>2023-10-22T10:38:58Z</time>
      </trkpt>
      <trkpt lat="47.07639" lon="-1.81535">
        <ele>73.4</ele>
        <time>2023-10-22T10:39:00Z</time>
      </trkpt>
      <trkpt lat="47.07627" lon="-1.81529">
        <ele>73.48</ele>
        <time>2023-10-22T10:39:02Z</time>
      </trkpt>
      <trkpt lat="47.07615" lon="-1.8152">
        <ele>73.4</ele>
        <time>2023-10-22T10:39:04Z</time>
      </trkpt>
      <trkpt lat="47.07605" lon="-1.8151">
        <ele>72.94</ele>
        <time>2023-10-22T10:39:06Z</time>
      </trkpt>
      <trkpt lat="47.07595" lon="-1.815">
        <ele>72.83</ele>
        <time>2023-10-22T10:39:08Z</time>
      </trkpt>
      <trkpt lat="47.07586" lon="-1.81491">
        <ele>74.1</ele>
        <time>2023-10-22T10:39:10Z</time>
      </trkpt>
      <trkpt lat="47.07574" lon="-1.81479">
        <ele>72.64</ele>
        <time>2023-10-22T10:39:12Z</time>
      </trkpt>
      <trkpt lat="47.07563" lon="-1.81467">
        <ele>73.65</ele>
        <time>2023-10-22T10:39:14Z</time>
      </trkpt>
      <trkpt lat="47.07553" lon="-1.81454">
        <ele>73.68</ele>
        <time>2023-10-22T10:39:16Z</time>
      </trkpt>
      <trkpt lat="47.07542" lon="-1.81446">
        <ele>74.01</ele>
        <time>2023-10-22T10:39:18Z</time>
      </trkpt>
      <trkpt lat="47.07528" lon="-1.81444">
        <ele>71.68</ele>
        <time>2023-10-22T10:39:20Z</time>
      </trkpt>
      <trkpt lat="47.07513" lon="-1.81445">
        <ele>69.65</ele>
        <time>2023-10-22T10:39:22Z</time>
      </trkpt>
      <trkpt lat="47.07502" lon="-1.81452">
        <ele>71.68</ele>
        <time>2023-10-22T10:39:24Z</time>
      </trkpt>
      <trkpt lat="47.07491" lon="-1.81461">
        <ele>71.9</ele>
        <time>2023-10-22T10:39:26Z</time>
      </trkpt>
      <trkpt lat="47.07478" lon="-1.81467">
        <ele>72.18</ele>
        <time>2023-10-22T10:39:28Z</time>
      </trkpt>
      <trkpt lat="47.07465" lon="-1.81474">
        <ele>70.92</ele>
        <time>2023-10-22T10:39:30Z</time>
      </trkpt>
      <trkpt lat="47.07455" lon="-1.81478">
        <ele>73.62</ele>
        <time>2023-10-22T10:39:32Z</time>
      </trkpt>
      <trkpt lat="47.07441" lon="-1.81483">
        <ele>74.02</ele>
        <time>2023-10-22T10:39:34Z</time>
      </trkpt>
      <trkpt lat="47.07428" lon="-1.81484">
        <ele>73.92</ele>
        <time>2023-10-22T10:39:36Z</time>
      </trkpt>
      <trkpt lat="47.07418" lon="-1.81485">
        <ele>73.31</ele>
        <time>2023-10-22T10:39:37Z</time>
      </trkpt>
      <trkpt lat="47.07409" lon="-1.81483">
        <ele>74.34</ele>
        <time>2023-10-22T10:39:40Z</time>
      </trkpt>
      <trkpt lat="47.07397" lon="-1.81483">
        <ele>74.59</ele>
        <time>2023-10-22T10:39:42Z</time>
      </trkpt>
      <trkpt lat="47.07382" lon="-1.81482">
        <ele>75.38</ele>
        <time>2023-10-22T10:39:44Z</time>
      </trkpt>
      <trkpt lat="47.07367" lon="-1.81481">
        <ele>74.75</ele>
        <time>2023-10-22T10:39:46Z</time>
      </trkpt>
      <trkpt lat="47.07356" lon="-1.81477">
        <ele>78.33</ele>
        <time>2023-10-22T10:39:48Z</time>
      </trkpt>
      <trkpt lat="47.07343" lon="-1.81472">
        <ele>78.36</ele>
        <time>2023-10-22T10:39:50Z</time>
      </trkpt>
      <trkpt lat="47.07328" lon="-1.81466">
        <ele>78.06</ele>
        <time>2023-10-22T10:39:52Z</time>
      </trkpt>
      <trkpt lat="47.07314" lon="-1.81459">
        <ele>76.78</ele>
        <time>2023-10-22T10:39:54Z</time>
      </trkpt>
      <trkpt lat="47.07302" lon="-1.81451">
        <ele>77.87</ele>
        <time>2023-10-22T10:39:56Z</time>
      </trkpt>
      <trkpt lat="47.07292" lon="-1.81443">
        <ele>78.74</ele>
        <time>2023-10-22T10:39:58Z</time>
      </trkpt>
      <trkpt lat="47.0728" lon="-1.81432">
        <ele>78.72</ele>
        <time>2023-10-22T10:40:00Z</time>
      </trkpt>
      <trkpt lat="47.0727" lon="-1.81421">
        <ele>79.49</ele>
        <time>2023-10-22T10:40:02Z</time>
      </trkpt>
      <trkpt lat="47.07261" lon="-1.81411">
        <ele>80.28</ele>
        <time>2023-10-22T10:40:04Z</time>
      </trkpt>
      <trkpt lat="47.07251" lon="-1.81403">
        <ele>80.96</ele>
        <time>2023-10-22T10:40:06Z</time>
      </trkpt>
      <trkpt lat="47.07242" lon="-1.81391">
        <ele>80.45</ele>
        <time>2023-10-22T10:40:08Z</time>
      </trkpt>
      <trkpt lat="47.07231" lon="-1.81381">
        <ele>80.45</ele>
        <time>2023-10-22T10:40:10Z</time>
      </trkpt>
      <trkpt lat="47.07223" lon="-1.81372">
        <ele>81.25</ele>
        <time>2023-10-22T10:40:12Z</time>
      </trkpt>
      <trkpt lat="47.0721" lon="-1.81361">
        <ele>80.08</ele>
        <time>2023-10-22T10:40:14Z</time>
      </trkpt>
      <trkpt lat="47.07197" lon="-1.81353">
        <ele>78.58</ele>
        <time>2023-10-22T10:40:16Z</time>
      </trkpt>
      <trkpt lat="47.07185" lon="-1.81346">
        <ele>78.76</ele>
        <time>2023-10-22T10:40:18Z</time>
      </trkpt>
      <trkpt lat="47.07172" lon="-1.81346">
        <ele>78.03</ele>
        <time>2023-10-22T10:40:20Z</time>
      </trkpt>
      <trkpt lat="47.07161" lon="-1.81355">
        <ele>78.01</ele>
        <time>2023-10-22T10:40:22Z</time>
      </trkpt>
      <trkpt lat="47.07149" lon="-1.81366">
        <ele>77.75</ele>
        <time>2023-10-22T10:40:24Z</time>
      </trkpt>
      <trkpt lat="47.07141" lon="-1.81375">
        <ele>79.44</ele>
        <time>2023-10-22T10:40:26Z</time>
      </trkpt>
      <trkpt lat="47.07132" lon="-1.81385">
        <ele>79.7</ele>
        <time>2023-10-22T10:40:28Z</time>
      </trkpt>
      <trkpt lat="47.07124" lon="-1.81398">
        <ele>80.3</ele>
        <time>2023-10-22T10:40:30Z</time>
      </trkpt>
      <trkpt lat="47.0711" lon="-1.81411">
        <ele>80.7</ele>
        <time>2023-10-22T10:40:32Z</time>
      </trkpt>
      <trkpt lat="47.07101" lon="-1.81424">
        <ele>80.73</ele>
        <time>2023-10-22T10:40:34Z</time>
      </trkpt>
      <trkpt lat="47.07094" lon="-1.81437">
        <ele>81.32</ele>
        <time>2023-10-22T10:40:36Z</time>
      </trkpt>
      <trkpt lat="47.07086" lon="-1.8145">
        <ele>81.11</ele>
        <time>2023-10-22T10:40:38Z</time>
      </trkpt>
      <trkpt lat="47.07077" lon="-1.81461">
        <ele>81.13</ele>
        <time>2023-10-22T10:40:40Z</time>
      </trkpt>
      <trkpt lat="47.07069" lon="-1.81473">
        <ele>82.02</ele>
        <time>2023-10-22T10:40:42Z</time>
      </trkpt>
      <trkpt lat="47.0706" lon="-1.81488">
        <ele>81.57</ele>
        <time>2023-10-22T10:40:44Z</time>
      </trkpt>
      <trkpt lat="47.07056" lon="-1.81502">
        <ele>80.89</ele>
        <time>2023-10-22T10:40:46Z</time>
      </trkpt>
      <trkpt lat="47.07051" lon="-1.81518">
        <ele>81.35</ele>
        <time>2023-10-22T10:40:48Z</time>
      </trkpt>
      <trkpt lat="47.07044" lon="-1.8153">
        <ele>82.44</ele>
        <time>2023-10-22T10:40:50Z</time>
      </trkpt>
      <trkpt lat="47.07036" lon="-1.81543">
        <ele>81.77</ele>
        <time>2023-10-22T10:40:52Z</time>
      </trkpt>
      <trkpt lat="47.0703" lon="-1.81559">
        <ele>82.41</ele>
        <time>2023-10-22T10:40:54Z</time>
      </trkpt>
      <trkpt lat="47.07025" lon="-1.81576">
        <ele>82.31</ele>
        <time>2023-10-22T10:40:56Z</time>
      </trkpt>
      <trkpt lat="47.0702" lon="-1.81591">
        <ele>81.83</ele>
        <time>2023-10-22T10:40:58Z</time>
      </trkpt>
      <trkpt lat="47.07015" lon="-1.81607">
        <ele>82.93</ele>
        <time>2023-10-22T10:41:00Z</time>
      </trkpt>
      <trkpt lat="47.0701" lon="-1.81624">
        <ele>82.42</ele>
        <time>2023-10-22T10:41:02Z</time>
      </trkpt>
      <trkpt lat="47.07006" lon="-1.8164">
        <ele>83.07</ele>
        <time>2023-10-22T10:41:04Z</time>
      </trkpt>
      <trkpt lat="47.07001" lon="-1.81656">
        <ele>82.36</ele>
        <time>2023-10-22T10:41:06Z</time>
      </trkpt>
      <trkpt lat="47.06997" lon="-1.81674">
        <ele>82.65</ele>
        <time>2023-10-22T10:41:08Z</time>
      </trkpt>
      <trkpt lat="47.06991" lon="-1.81691">
        <ele>82.91</ele>
        <time>2023-10-22T10:41:10Z</time>
      </trkpt>
      <trkpt lat="47.06984" lon="-1.81708">
        <ele>83.22</ele>
        <time>2023-10-22T10:41:12Z</time>
      </trkpt>
      <trkpt lat="47.06978" lon="-1.81723">
        <ele>83.5</ele>
        <time>2023-10-22T10:41:14Z</time>
      </trkpt>
      <trkpt lat="47.06972" lon="-1.81738">
        <ele>83.1</ele>
        <time>2023-10-22T10:41:16Z</time>
      </trkpt>
      <trkpt lat="47.06965" lon="-1.81754">
        <ele>82.57</ele>
        <time>2023-10-22T10:41:18Z</time>
      </trkpt>
      <trkpt lat="47.06959" lon="-1.81767">
        <ele>82.73</ele>
        <time>2023-10-22T10:41:20Z</time>
      </trkpt>
      <trkpt lat="47.06954" lon="-1.81781">
        <ele>84.09</ele>
        <time>2023-10-22T10:41:22Z</time>
      </trkpt>
      <trkpt lat="47.06948" lon="-1.81798">
        <ele>85.43</ele>
        <time>2023-10-22T10:41:24Z</time>
      </trkpt>
      <trkpt lat="47.06942" lon="-1.81812">
        <ele>85.19</ele>
        <time>2023-10-22T10:41:26Z</time>
      </trkpt>
      <trkpt lat="47.06936" lon="-1.81828">
        <ele>85.01</ele>
        <time>2023-10-22T10:41:28Z</time>
      </trkpt>
      <trkpt lat="47.0693" lon="-1.81842">
        <ele>85.92</ele>
        <time>2023-10-22T10:41:30Z</time>
      </trkpt>
      <trkpt lat="47.06923" lon="-1.81858">
        <ele>85.06</ele>
        <time>2023-10-22T10:41:32Z</time>
      </trkpt>
      <trkpt lat="47.06917" lon="-1.81872">
        <ele>84.58</ele>
        <time>2023-10-22T10:41:34Z</time>
      </trkpt>
      <trkpt lat="47.06911" lon="-1.81888">
        <ele>85.41</ele>
        <time>2023-10-22T10:41:36Z</time>
      </trkpt>
      <trkpt lat="47.06905" lon="-1.81901">
        <ele>86.18</ele>
        <time>2023-10-22T10:41:38Z</time>
      </trkpt>
      <trkpt lat="47.06899" lon="-1.81914">
        <ele>87.46</ele>
        <time>2023-10-22T10:41:40Z</time>
      </trkpt>
      <trkpt lat="47.06893" lon="-1.81931">
        <ele>87.01</ele>
        <time>2023-10-22T10:41:42Z</time>
      </trkpt>
      <trkpt lat="47.0689" lon="-1.81947">
        <ele>86.28</ele>
        <time>2023-10-22T10:41:44Z</time>
      </trkpt>
      <trkpt lat="47.0689" lon="-1.81965">
        <ele>86.42</ele>
        <time>2023-10-22T10:41:46Z</time>
      </trkpt>
      <trkpt lat="47.06892" lon="-1.81983">
        <ele>86.66</ele>
        <time>2023-10-22T10:41:48Z</time>
      </trkpt>
      <trkpt lat="47.06893" lon="-1.82001">
        <ele>86.86</ele>
        <time>2023-10-22T10:41:50Z</time>
      </trkpt>
      <trkpt lat="47.06895" lon="-1.82017">
        <ele>86.84</ele>
        <time>2023-10-22T10:41:52Z</time>
      </trkpt>
      <trkpt lat="47.06896" lon="-1.82032">
        <ele>87.19</ele>
        <time>2023-10-22T10:41:54Z</time>
      </trkpt>
      <trkpt lat="47.06896" lon="-1.8205">
        <ele>86.77</ele>
        <time>2023-10-22T10:41:56Z</time>
      </trkpt>
      <trkpt lat="47.06898" lon="-1.82067">
        <ele>86.26</ele>
        <time>2023-10-22T10:41:58Z</time>
      </trkpt>
      <trkpt lat="47.069" lon="-1.82089">
        <ele>85.78</ele>
        <time>2023-10-22T10:42:01Z</time>
      </trkpt>
      <trkpt lat="47.06902" lon="-1.82106">
        <ele>86.07</ele>
        <time>2023-10-22T10:42:03Z</time>
      </trkpt>
      <trkpt lat="47.06901" lon="-1.82123">
        <ele>87.05</ele>
        <time>2023-10-22T10:42:05Z</time>
      </trkpt>
      <trkpt lat="47.06902" lon="-1.82141">
        <ele>86.96</ele>
        <time>2023-10-22T10:42:07Z</time>
      </trkpt>
      <trkpt lat="47.06901" lon="-1.82158">
        <ele>87.74</ele>
        <time>2023-10-22T10:42:09Z</time>
      </trkpt>
      <trkpt lat="47.06903" lon="-1.82179">
        <ele>87.42</ele>
        <time>2023-10-22T10:42:11Z</time>
      </trkpt>
      <trkpt lat="47.06902" lon="-1.82196">
        <ele>87.44</ele>
        <time>2023-10-22T10:42:13Z</time>
      </trkpt>
      <trkpt lat="47.06902" lon="-1.82215">
        <ele>89.89</ele>
        <time>2023-10-22T10:42:15Z</time>
      </trkpt>
      <trkpt lat="47.06902" lon="-1.82231">
        <ele>88.21</ele>
        <time>2023-10-22T10:42:17Z</time>
      </trkpt>
      <trkpt lat="47.06902" lon="-1.82253">
        <ele>89.08</ele>
        <time>2023-10-22T10:42:19Z</time>
      </trkpt>
      <trkpt lat="47.06902" lon="-1.8227">
        <ele>90.15</ele>
        <time>2023-10-22T10:42:21Z</time>
      </trkpt>
      <trkpt lat="47.06901" lon="-1.8229">
        <ele>89.47</ele>
        <time>2023-10-22T10:42:23Z</time>
      </trkpt>
      <trkpt lat="47.069" lon="-1.82313">
        <ele>86.74</ele>
        <time>2023-10-22T10:42:25Z</time>
      </trkpt>
      <trkpt lat="47.06898" lon="-1.82328">
        <ele>88.21</ele>
        <time>2023-10-22T10:42:27Z</time>
      </trkpt>
      <trkpt lat="47.06895" lon="-1.82345">
        <ele>89.13</ele>
        <time>2023-10-22T10:42:29Z</time>
      </trkpt>
      <trkpt lat="47.06892" lon="-1.82362">
        <ele>89.65</ele>
        <time>2023-10-22T10:42:31Z</time>
      </trkpt>
      <trkpt lat="47.0689" lon="-1.82379">
        <ele>89.93</ele>
        <time>2023-10-22T10:42:33Z</time>
      </trkpt>
      <trkpt lat="47.06889" lon="-1.82396">
        <ele>89.98</ele>
        <time>2023-10-22T10:42:35Z</time>
      </trkpt>
      <trkpt lat="47.06886" lon="-1.82417">
        <ele>89.24</ele>
        <time>2023-10-22T10:42:37Z</time>
      </trkpt>
      <trkpt lat="47.06883" lon="-1.82435">
        <ele>89.51</ele>
        <time>2023-10-22T10:42:39Z</time>
      </trkpt>
      <trkpt lat="47.06881" lon="-1.82453">
        <ele>90.57</ele>
        <time>2023-10-22T10:42:41Z</time>
      </trkpt>
      <trkpt lat="47.06881" lon="-1.82472">
        <ele>90.43</ele>
        <time>2023-10-22T10:42:43Z</time>
      </trkpt>
      <trkpt lat="47.0688" lon="-1.82487">
        <ele>89.63</ele>
        <time>2023-10-22T10:42:45Z</time>
      </trkpt>
      <trkpt lat="47.0688" lon="-1.82505">
        <ele>89.56</ele>
        <time>2023-10-22T10:42:47Z</time>
      </trkpt>
      <trkpt lat="47.06882" lon="-1.82523">
        <ele>89.52</ele>
        <time>2023-10-22T10:42:49Z</time>
      </trkpt>
      <trkpt lat="47.06885" lon="-1.82543">
        <ele>89.17</ele>
        <time>2023-10-22T10:42:51Z</time>
      </trkpt>
      <trkpt lat="47.06886" lon="-1.82562">
        <ele>90.4</ele>
        <time>2023-10-22T10:42:53Z</time>
      </trkpt>
      <trkpt lat="47.06888" lon="-1.8258">
        <ele>91.31</ele>
        <time>2023-10-22T10:42:55Z</time>
      </trkpt>
      <trkpt lat="47.0689" lon="-1.82598">
        <ele>91.82</ele>
        <time>2023-10-22T10:42:57Z</time>
      </trkpt>
      <trkpt lat="47.06891" lon="-1.82616">
        <ele>92.53</ele>
        <time>2023-10-22T10:42:59Z</time>
      </trkpt>
      <trkpt lat="47.06891" lon="-1.82634">
        <ele>93.04</ele>
        <time>2023-10-22T10:43:01Z</time>
      </trkpt>
      <trkpt lat="47.06892" lon="-1.82652">
        <ele>92.79</ele>
        <time>2023-10-22T10:43:03Z</time>
      </trkpt>
      <trkpt lat="47.06893" lon="-1.8267">
        <ele>92.59</ele>
        <time>2023-10-22T10:43:05Z</time>
      </trkpt>
      <trkpt lat="47.06894" lon="-1.82692">
        <ele>92.91</ele>
        <time>2023-10-22T10:43:07Z</time>
      </trkpt>
      <trkpt lat="47.06894" lon="-1.82713">
        <ele>91.65</ele>
        <time>2023-10-22T10:43:09Z</time>
      </trkpt>
      <trkpt lat="47.06895" lon="-1.82727">
        <ele>90.96</ele>
        <time>2023-10-22T10:43:10Z</time>
      </trkpt>
      <trkpt lat="47.06895" lon="-1.82744">
        <ele>90.72</ele>
        <time>2023-10-22T10:43:12Z</time>
      </trkpt>
      <trkpt lat="47.06895" lon="-1.82763">
        <ele>89.58</ele>
        <time>2023-10-22T10:43:14Z</time>
      </trkpt>
      <trkpt lat="47.06896" lon="-1.82781">
        <ele>90.39</ele>
        <time>2023-10-22T10:43:16Z</time>
      </trkpt>
      <trkpt lat="47.06897" lon="-1.82801">
        <ele>90.43</ele>
        <time>2023-10-22T10:43:18Z</time>
      </trkpt>
      <trkpt lat="47.06899" lon="-1.82818">
        <ele>90.1</ele>
        <time>2023-10-22T10:43:20Z</time>
      </trkpt>
      <trkpt lat="47.069" lon="-1.82838">
        <ele>89.68</ele>
        <time>2023-10-22T10:43:22Z</time>
      </trkpt>
      <trkpt lat="47.06901" lon="-1.82858">
        <ele>89.78</ele>
        <time>2023-10-22T10:43:24Z</time>
      </trkpt>
      <trkpt lat="47.06903" lon="-1.82879">
        <ele>87.94</ele>
        <time>2023-10-22T10:43:26Z</time>
      </trkpt>
      <trkpt lat="47.06904" lon="-1.82899">
        <ele>86.83</ele>
        <time>2023-10-22T10:43:28Z</time>
      </trkpt>
      <trkpt lat="47.06904" lon="-1.8292">
        <ele>86.69</ele>
        <time>2023-10-22T10:43:30Z</time>
      </trkpt>
      <trkpt lat="47.06904" lon="-1.82938">
        <ele>87.55</ele>
        <time>2023-10-22T10:43:32Z</time>
      </trkpt>
      <trkpt lat="47.06907" lon="-1.8296">
        <ele>87.28</ele>
        <time>2023-10-22T10:43:34Z</time>
      </trkpt>
      <trkpt lat="47.06908" lon="-1.82978">
        <ele>87.52</ele>
        <time>2023-10-22T10:43:36Z</time>
      </trkpt>
      <trkpt lat="47.0691" lon="-1.82999">
        <ele>87.66</ele>
        <time>2023-10-22T10:43:38Z</time>
      </trkpt>
      <trkpt lat="47.06912" lon="-1.83016">
        <ele>87.07</ele>
        <time>2023-10-22T10:43:40Z</time>
      </trkpt>
      <trkpt lat="47.06917" lon="-1.83032">
        <ele>87.61</ele>
        <time>2023-10-22T10:43:42Z</time>
      </trkpt>
      <trkpt lat="47.06917" lon="-1.83046">
        <ele>89.26</ele>
        <time>2023-10-22T10:43:45Z</time>
      </trkpt>
      <trkpt lat="47.06907" lon="-1.83047">
        <ele>90.61</ele>
        <time>2023-10-22T10:43:47Z</time>
      </trkpt>
      <trkpt lat="47.06896" lon="-1.83043">
        <ele>91.42</ele>
        <time>2023-10-22T10:43:49Z</time>
      </trkpt>
      <trkpt lat="47.06883" lon="-1.83041">
        <ele>91.47</ele>
        <time>2023-10-22T10:43:51Z</time>
      </trkpt>
      <trkpt lat="47.06871" lon="-1.83039">
        <ele>91.37</ele>
        <time>2023-10-22T10:43:53Z</time>
      </trkpt>
      <trkpt lat="47.06858" lon="-1.83036">
        <ele>91.31</ele>
        <time>2023-10-22T10:43:55Z</time>
      </trkpt>
      <trkpt lat="47.06845" lon="-1.83035">
        <ele>90.98</ele>
        <time>2023-10-22T10:43:57Z</time>
      </trkpt>
      <trkpt lat="47.06832" lon="-1.83035">
        <ele>91.47</ele>
        <time>2023-10-22T10:43:59Z</time>
      </trkpt>
      <trkpt lat="47.06819" lon="-1.83036">
        <ele>90.57</ele>
        <time>2023-10-22T10:44:01Z</time>
      </trkpt>
      <trkpt lat="47.06806" lon="-1.83037">
        <ele>91.08</ele>
        <time>2023-10-22T10:44:03Z</time>
      </trkpt>
      <trkpt lat="47.06793" lon="-1.83039">
        <ele>91.16</ele>
        <time>2023-10-22T10:44:05Z</time>
      </trkpt>
      <trkpt lat="47.06779" lon="-1.8304">
        <ele>90.97</ele>
        <time>2023-10-22T10:44:07Z</time>
      </trkpt>
      <trkpt lat="47.06766" lon="-1.83043">
        <ele>90.58</ele>
        <time>2023-10-22T10:44:09Z</time>
      </trkpt>
      <trkpt lat="47.06753" lon="-1.83044">
        <ele>90.34</ele>
        <time>2023-10-22T10:44:11Z</time>
      </trkpt>
      <trkpt lat="47.06738" lon="-1.83047">
        <ele>89.19</ele>
        <time>2023-10-22T10:44:13Z</time>
      </trkpt>
      <trkpt lat="47.06724" lon="-1.83048">
        <ele>88.41</ele>
        <time>2023-10-22T10:44:15Z</time>
      </trkpt>
      <trkpt lat="47.0671" lon="-1.83051">
        <ele>87.87</ele>
        <time>2023-10-22T10:44:17Z</time>
      </trkpt>
      <trkpt lat="47.06697" lon="-1.83054">
        <ele>88.2</ele>
        <time>2023-10-22T10:44:19Z</time>
      </trkpt>
      <trkpt lat="47.06683" lon="-1.83057">
        <ele>88.38</ele>
        <time>2023-10-22T10:44:21Z</time>
      </trkpt>
      <trkpt lat="47.0667" lon="-1.83061">
        <ele>88.16</ele>
        <time>2023-10-22T10:44:23Z</time>
      </trkpt>
      <trkpt lat="47.06656" lon="-1.83063">
        <ele>87.94</ele>
        <time>2023-10-22T10:44:25Z</time>
      </trkpt>
      <trkpt lat="47.06642" lon="-1.83067">
        <ele>87.05</ele>
        <time>2023-10-22T10:44:27Z</time>
      </trkpt>
      <trkpt lat="47.06628" lon="-1.8307">
        <ele>87.04</ele>
        <time>2023-10-22T10:44:29Z</time>
      </trkpt>
      <trkpt lat="47.06616" lon="-1.83073">
        <ele>87.3</ele>
        <time>2023-10-22T10:44:31Z</time>
      </trkpt>
      <trkpt lat="47.06604" lon="-1.83076">
        <ele>87.73</ele>
        <time>2023-10-22T10:44:33Z</time>
      </trkpt>
      <trkpt lat="47.06592" lon="-1.83079">
        <ele>89.18</ele>
        <time>2023-10-22T10:44:35Z</time>
      </trkpt>
      <trkpt lat="47.06579" lon="-1.83083">
        <ele>89.14</ele>
        <time>2023-10-22T10:44:37Z</time>
      </trkpt>
      <trkpt lat="47.06567" lon="-1.83087">
        <ele>89.56</ele>
        <time>2023-10-22T10:44:39Z</time>
      </trkpt>
      <trkpt lat="47.06555" lon="-1.83091">
        <ele>89.95</ele>
        <time>2023-10-22T10:44:41Z</time>
      </trkpt>
      <trkpt lat="47.06543" lon="-1.83096">
        <ele>90.49</ele>
        <time>2023-10-22T10:44:43Z</time>
      </trkpt>
      <trkpt lat="47.06531" lon="-1.831">
        <ele>90.6</ele>
        <time>2023-10-22T10:44:45Z</time>
      </trkpt>
      <trkpt lat="47.06519" lon="-1.83105">
        <ele>90.55</ele>
        <time>2023-10-22T10:44:47Z</time>
      </trkpt>
      <trkpt lat="47.06506" lon="-1.83112">
        <ele>89.85</ele>
        <time>2023-10-22T10:44:49Z</time>
      </trkpt>
      <trkpt lat="47.06493" lon="-1.83117">
        <ele>90.07</ele>
        <time>2023-10-22T10:44:51Z</time>
      </trkpt>
      <trkpt lat="47.06482" lon="-1.83122">
        <ele>91.19</ele>
        <time>2023-10-22T10:44:53Z</time>
      </trkpt>
      <trkpt lat="47.0647" lon="-1.83128">
        <ele>91.35</ele>
        <time>2023-10-22T10:44:55Z</time>
      </trkpt>
      <trkpt lat="47.06457" lon="-1.83132">
        <ele>91.39</ele>
        <time>2023-10-22T10:44:57Z</time>
      </trkpt>
      <trkpt lat="47.06446" lon="-1.83138">
        <ele>92.06</ele>
        <time>2023-10-22T10:44:59Z</time>
      </trkpt>
      <trkpt lat="47.06432" lon="-1.83143">
        <ele>91.45</ele>
        <time>2023-10-22T10:45:01Z</time>
      </trkpt>
      <trkpt lat="47.0642" lon="-1.83148">
        <ele>91.07</ele>
        <time>2023-10-22T10:45:03Z</time>
      </trkpt>
      <trkpt lat="47.06408" lon="-1.83153">
        <ele>91.48</ele>
        <time>2023-10-22T10:45:05Z</time>
      </trkpt>
      <trkpt lat="47.06396" lon="-1.83158">
        <ele>91.76</ele>
        <time>2023-10-22T10:45:07Z</time>
      </trkpt>
      <trkpt lat="47.06384" lon="-1.83164">
        <ele>90.93</ele>
        <time>2023-10-22T10:45:09Z</time>
      </trkpt>
      <trkpt lat="47.06373" lon="-1.83168">
        <ele>90.97</ele>
        <time>2023-10-22T10:45:11Z</time>
      </trkpt>
      <trkpt lat="47.06361" lon="-1.83174">
        <ele>91.23</ele>
        <time>2023-10-22T10:45:13Z</time>
      </trkpt>
      <trkpt lat="47.06349" lon="-1.8318">
        <ele>90.8</ele>
        <time>2023-10-22T10:45:15Z</time>
      </trkpt>
      <trkpt lat="47.06337" lon="-1.83185">
        <ele>90.89</ele>
        <time>2023-10-22T10:45:17Z</time>
      </trkpt>
      <trkpt lat="47.06325" lon="-1.8319">
        <ele>91.03</ele>
        <time>2023-10-22T10:45:19Z</time>
      </trkpt>
      <trkpt lat="47.06313" lon="-1.83193">
        <ele>91.59</ele>
        <time>2023-10-22T10:45:21Z</time>
      </trkpt>
      <trkpt lat="47.06301" lon="-1.83197">
        <ele>90.64</ele>
        <time>2023-10-22T10:45:23Z</time>
      </trkpt>
      <trkpt lat="47.06289" lon="-1.832">
        <ele>91.65</ele>
        <time>2023-10-22T10:45:25Z</time>
      </trkpt>
      <trkpt lat="47.06279" lon="-1.83203">
        <ele>92.79</ele>
        <time>2023-10-22T10:45:27Z</time>
      </trkpt>
      <trkpt lat="47.06266" lon="-1.83205">
        <ele>92.46</ele>
        <time>2023-10-22T10:45:29Z</time>
      </trkpt>
      <trkpt lat="47.06252" lon="-1.83207">
        <ele>91.52</ele>
        <time>2023-10-22T10:45:31Z</time>
      </trkpt>
      <trkpt lat="47.0624" lon="-1.83207">
        <ele>92.21</ele>
        <time>2023-10-22T10:45:33Z</time>
      </trkpt>
      <trkpt lat="47.06226" lon="-1.83208">
        <ele>91.3</ele>
        <time>2023-10-22T10:45:35Z</time>
      </trkpt>
      <trkpt lat="47.06214" lon="-1.83209">
        <ele>90.5</ele>
        <time>2023-10-22T10:45:37Z</time>
      </trkpt>
      <trkpt lat="47.062" lon="-1.83209">
        <ele>90.54</ele>
        <time>2023-10-22T10:45:39Z</time>
      </trkpt>
      <trkpt lat="47.06188" lon="-1.83209">
        <ele>90.76</ele>
        <time>2023-10-22T10:45:41Z</time>
      </trkpt>
      <trkpt lat="47.06175" lon="-1.8321">
        <ele>90.37</ele>
        <time>2023-10-22T10:45:43Z</time>
      </trkpt>
      <trkpt lat="47.06163" lon="-1.83211">
        <ele>89.69</ele>
        <time>2023-10-22T10:45:45Z</time>
      </trkpt>
      <trkpt lat="47.0615" lon="-1.83212">
        <ele>89.71</ele>
        <time>2023-10-22T10:45:47Z</time>
      </trkpt>
      <trkpt lat="47.06137" lon="-1.83212">
        <ele>90.4</ele>
        <time>2023-10-22T10:45:49Z</time>
      </trkpt>
      <trkpt lat="47.06125" lon="-1.83212">
        <ele>90.89</ele>
        <time>2023-10-22T10:45:51Z</time>
      </trkpt>
      <trkpt lat="47.06112" lon="-1.83211">
        <ele>90.95</ele>
        <time>2023-10-22T10:45:53Z</time>
      </trkpt>
      <trkpt lat="47.06099" lon="-1.83212">
        <ele>91.12</ele>
        <time>2023-10-22T10:45:55Z</time>
      </trkpt>
      <trkpt lat="47.06086" lon="-1.83212">
        <ele>91.58</ele>
        <time>2023-10-22T10:45:57Z</time>
      </trkpt>
      <trkpt lat="47.06073" lon="-1.83213">
        <ele>91.52</ele>
        <time>2023-10-22T10:45:59Z</time>
      </trkpt>
      <trkpt lat="47.0606" lon="-1.83214">
        <ele>90.94</ele>
        <time>2023-10-22T10:46:01Z</time>
      </trkpt>
      <trkpt lat="47.06047" lon="-1.83215">
        <ele>90.74</ele>
        <time>2023-10-22T10:46:03Z</time>
      </trkpt>
      <trkpt lat="47.06032" lon="-1.83215">
        <ele>90.98</ele>
        <time>2023-10-22T10:46:05Z</time>
      </trkpt>
      <trkpt lat="47.0602" lon="-1.83217">
        <ele>91.66</ele>
        <time>2023-10-22T10:46:07Z</time>
      </trkpt>
      <trkpt lat="47.06006" lon="-1.83217">
        <ele>91.65</ele>
        <time>2023-10-22T10:46:09Z</time>
      </trkpt>
      <trkpt lat="47.05993" lon="-1.83218">
        <ele>91.67</ele>
        <time>2023-10-22T10:46:11Z</time>
      </trkpt>
      <trkpt lat="47.0598" lon="-1.83222">
        <ele>91.38</ele>
        <time>2023-10-22T10:46:13Z</time>
      </trkpt>
      <trkpt lat="47.05969" lon="-1.83231">
        <ele>91.26</ele>
        <time>2023-10-22T10:46:15Z</time>
      </trkpt>
      <trkpt lat="47.05958" lon="-1.83244">
        <ele>91.76</ele>
        <time>2023-10-22T10:46:17Z</time>
      </trkpt>
      <trkpt lat="47.0595" lon="-1.83259">
        <ele>92.27</ele>
        <time>2023-10-22T10:46:19Z</time>
      </trkpt>
      <trkpt lat="47.05939" lon="-1.83273">
        <ele>91.79</ele>
        <time>2023-10-22T10:46:21Z</time>
      </trkpt>
      <trkpt lat="47.05931" lon="-1.83287">
        <ele>92.05</ele>
        <time>2023-10-22T10:46:23Z</time>
      </trkpt>
      <trkpt lat="47.05921" lon="-1.833">
        <ele>92.06</ele>
        <time>2023-10-22T10:46:25Z</time>
      </trkpt>
      <trkpt lat="47.05912" lon="-1.83314">
        <ele>92.59</ele>
        <time>2023-10-22T10:46:27Z</time>
      </trkpt>
      <trkpt lat="47.05903" lon="-1.83327">
        <ele>93.12</ele>
        <time>2023-10-22T10:46:29Z</time>
      </trkpt>
      <trkpt lat="47.05893" lon="-1.83341">
        <ele>92.95</ele>
        <time>2023-10-22T10:46:31Z</time>
      </trkpt>
      <trkpt lat="47.05883" lon="-1.83354">
        <ele>93.23</ele>
        <time>2023-10-22T10:46:33Z</time>
      </trkpt>
      <trkpt lat="47.05874" lon="-1.83367">
        <ele>92.93</ele>
        <time>2023-10-22T10:46:35Z</time>
      </trkpt>
      <trkpt lat="47.05866" lon="-1.8338">
        <ele>93.83</ele>
        <time>2023-10-22T10:46:37Z</time>
      </trkpt>
      <trkpt lat="47.05857" lon="-1.83394">
        <ele>94.02</ele>
        <time>2023-10-22T10:46:39Z</time>
      </trkpt>
      <trkpt lat="47.05849" lon="-1.8341">
        <ele>93.93</ele>
        <time>2023-10-22T10:46:41Z</time>
      </trkpt>
      <trkpt lat="47.05841" lon="-1.83423">
        <ele>93.81</ele>
        <time>2023-10-22T10:46:43Z</time>
      </trkpt>
      <trkpt lat="47.05832" lon="-1.83438">
        <ele>93.57</ele>
        <time>2023-10-22T10:46:45Z</time>
      </trkpt>
      <trkpt lat="47.05823" lon="-1.8345">
        <ele>92.9</ele>
        <time>2023-10-22T10:46:47Z</time>
      </trkpt>
      <trkpt lat="47.05815" lon="-1.83463">
        <ele>93.18</ele>
        <time>2023-10-22T10:46:49Z</time>
      </trkpt>
      <trkpt lat="47.05806" lon="-1.83475">
        <ele>93.23</ele>
        <time>2023-10-22T10:46:51Z</time>
      </trkpt>
      <trkpt lat="47.05796" lon="-1.83488">
        <ele>93.57</ele>
        <time>2023-10-22T10:46:53Z</time>
      </trkpt>
      <trkpt lat="47.05786" lon="-1.835">
        <ele>92.82</ele>
        <time>2023-10-22T10:46:55Z</time>
      </trkpt>
      <trkpt lat="47.05774" lon="-1.83513">
        <ele>91.92</ele>
        <time>2023-10-22T10:46:57Z</time>
      </trkpt>
      <trkpt lat="47.05763" lon="-1.83525">
        <ele>91.43</ele>
        <time>2023-10-22T10:46:59Z</time>
      </trkpt>
      <trkpt lat="47.05752" lon="-1.83537">
        <ele>90.39</ele>
        <time>2023-10-22T10:47:01Z</time>
      </trkpt>
      <trkpt lat="47.05742" lon="-1.8355">
        <ele>89.82</ele>
        <time>2023-10-22T10:47:03Z</time>
      </trkpt>
      <trkpt lat="47.05731" lon="-1.83562">
        <ele>89.58</ele>
        <time>2023-10-22T10:47:05Z</time>
      </trkpt>
      <trkpt lat="47.05725" lon="-1.83572">
        <ele>92.13</ele>
        <time>2023-10-22T10:47:07Z</time>
      </trkpt>
      <trkpt lat="47.05718" lon="-1.83588">
        <ele>93.3</ele>
        <time>2023-10-22T10:47:09Z</time>
      </trkpt>
      <trkpt lat="47.0571" lon="-1.83602">
        <ele>93.46</ele>
        <time>2023-10-22T10:47:11Z</time>
      </trkpt>
      <trkpt lat="47.05701" lon="-1.83618">
        <ele>94.47</ele>
        <time>2023-10-22T10:47:13Z</time>
      </trkpt>
      <trkpt lat="47.05691" lon="-1.83632">
        <ele>93.28</ele>
        <time>2023-10-22T10:47:15Z</time>
      </trkpt>
      <trkpt lat="47.05683" lon="-1.83648">
        <ele>92.68</ele>
        <time>2023-10-22T10:47:17Z</time>
      </trkpt>
      <trkpt lat="47.05676" lon="-1.83665">
        <ele>92.45</ele>
        <time>2023-10-22T10:47:19Z</time>
      </trkpt>
      <trkpt lat="47.05667" lon="-1.83679">
        <ele>92.35</ele>
        <time>2023-10-22T10:47:21Z</time>
      </trkpt>
      <trkpt lat="47.05657" lon="-1.83692">
        <ele>92.54</ele>
        <time>2023-10-22T10:47:23Z</time>
      </trkpt>
      <trkpt lat="47.05649" lon="-1.83709">
        <ele>91.42</ele>
        <time>2023-10-22T10:47:25Z</time>
      </trkpt>
      <trkpt lat="47.0564" lon="-1.83722">
        <ele>91.83</ele>
        <time>2023-10-22T10:47:27Z</time>
      </trkpt>
      <trkpt lat="47.05628" lon="-1.83745">
        <ele>93.03</ele>
        <time>2023-10-22T10:47:30Z</time>
      </trkpt>
      <trkpt lat="47.05617" lon="-1.83767">
        <ele>93.62</ele>
        <time>2023-10-22T10:47:33Z</time>
      </trkpt>
      <trkpt lat="47.05608" lon="-1.83783">
        <ele>93.23</ele>
        <time>2023-10-22T10:47:35Z</time>
      </trkpt>
      <trkpt lat="47.056" lon="-1.83799">
        <ele>94.16</ele>
        <time>2023-10-22T10:47:37Z</time>
      </trkpt>
      <trkpt lat="47.0559" lon="-1.83814">
        <ele>93.05</ele>
        <time>2023-10-22T10:47:39Z</time>
      </trkpt>
      <trkpt lat="47.05582" lon="-1.8383">
        <ele>93.09</ele>
        <time>2023-10-22T10:47:41Z</time>
      </trkpt>
      <trkpt lat="47.05574" lon="-1.83844">
        <ele>94.19</ele>
        <time>2023-10-22T10:47:43Z</time>
      </trkpt>
      <trkpt lat="47.05566" lon="-1.83857">
        <ele>94.24</ele>
        <time>2023-10-22T10:47:45Z</time>
      </trkpt>
      <trkpt lat="47.05557" lon="-1.83873">
        <ele>93.91</ele>
        <time>2023-10-22T10:47:47Z</time>
      </trkpt>
      <trkpt lat="47.05548" lon="-1.83889">
        <ele>94.16</ele>
        <time>2023-10-22T10:47:49Z</time>
      </trkpt>
      <trkpt lat="47.0554" lon="-1.83905">
        <ele>94.72</ele>
        <time>2023-10-22T10:47:51Z</time>
      </trkpt>
      <trkpt lat="47.05532" lon="-1.8392">
        <ele>94.49</ele>
        <time>2023-10-22T10:47:53Z</time>
      </trkpt>
      <trkpt lat="47.05523" lon="-1.83935">
        <ele>93.93</ele>
        <time>2023-10-22T10:47:55Z</time>
      </trkpt>
      <trkpt lat="47.05515" lon="-1.83949">
        <ele>94.03</ele>
        <time>2023-10-22T10:47:57Z</time>
      </trkpt>
      <trkpt lat="47.05506" lon="-1.83965">
        <ele>93.89</ele>
        <time>2023-10-22T10:47:59Z</time>
      </trkpt>
      <trkpt lat="47.05498" lon="-1.83979">
        <ele>94.38</ele>
        <time>2023-10-22T10:48:01Z</time>
      </trkpt>
      <trkpt lat="47.0549" lon="-1.83993">
        <ele>94</ele>
        <time>2023-10-22T10:48:03Z</time>
      </trkpt>
      <trkpt lat="47.05482" lon="-1.84008">
        <ele>94.23</ele>
        <time>2023-10-22T10:48:05Z</time>
      </trkpt>
      <trkpt lat="47.05473" lon="-1.84025">
        <ele>93.34</ele>
        <time>2023-10-22T10:48:07Z</time>
      </trkpt>
      <trkpt lat="47.05466" lon="-1.84041">
        <ele>93.66</ele>
        <time>2023-10-22T10:48:09Z</time>
      </trkpt>
      <trkpt lat="47.05459" lon="-1.84058">
        <ele>94.28</ele>
        <time>2023-10-22T10:48:11Z</time>
      </trkpt>
      <trkpt lat="47.05451" lon="-1.84074">
        <ele>93.95</ele>
        <time>2023-10-22T10:48:13Z</time>
      </trkpt>
      <trkpt lat="47.05443" lon="-1.8409">
        <ele>93.54</ele>
        <time>2023-10-22T10:48:15Z</time>
      </trkpt>
      <trkpt lat="47.05436" lon="-1.84105">
        <ele>93.16</ele>
        <time>2023-10-22T10:48:17Z</time>
      </trkpt>
      <trkpt lat="47.05428" lon="-1.84121">
        <ele>93.73</ele>
        <time>2023-10-22T10:48:19Z</time>
      </trkpt>
      <trkpt lat="47.0542" lon="-1.84137">
        <ele>93.35</ele>
        <time>2023-10-22T10:48:21Z</time>
      </trkpt>
      <trkpt lat="47.05412" lon="-1.84152">
        <ele>93.06</ele>
        <time>2023-10-22T10:48:23Z</time>
      </trkpt>
      <trkpt lat="47.05404" lon="-1.84167">
        <ele>94.18</ele>
        <time>2023-10-22T10:48:25Z</time>
      </trkpt>
      <trkpt lat="47.05396" lon="-1.84182">
        <ele>95.36</ele>
        <time>2023-10-22T10:48:27Z</time>
      </trkpt>
      <trkpt lat="47.05388" lon="-1.84197">
        <ele>95.48</ele>
        <time>2023-10-22T10:48:29Z</time>
      </trkpt>
      <trkpt lat="47.05379" lon="-1.84213">
        <ele>94.51</ele>
        <time>2023-10-22T10:48:31Z</time>
      </trkpt>
      <trkpt lat="47.05371" lon="-1.84229">
        <ele>94.26</ele>
        <time>2023-10-22T10:48:33Z</time>
      </trkpt>
      <trkpt lat="47.05364" lon="-1.84245">
        <ele>94.63</ele>
        <time>2023-10-22T10:48:35Z</time>
      </trkpt>
      <trkpt lat="47.05356" lon="-1.8426">
        <ele>94.92</ele>
        <time>2023-10-22T10:48:37Z</time>
      </trkpt>
      <trkpt lat="47.05348" lon="-1.84276">
        <ele>94.5</ele>
        <time>2023-10-22T10:48:39Z</time>
      </trkpt>
      <trkpt lat="47.0534" lon="-1.84292">
        <ele>94.21</ele>
        <time>2023-10-22T10:48:41Z</time>
      </trkpt>
      <trkpt lat="47.05333" lon="-1.84308">
        <ele>94.26</ele>
        <time>2023-10-22T10:48:43Z</time>
      </trkpt>
      <trkpt lat="47.05324" lon="-1.84323">
        <ele>94.96</ele>
        <time>2023-10-22T10:48:45Z</time>
      </trkpt>
      <trkpt lat="47.05318" lon="-1.84338">
        <ele>94.25</ele>
        <time>2023-10-22T10:48:47Z</time>
      </trkpt>
      <trkpt lat="47.05311" lon="-1.84353">
        <ele>94.47</ele>
        <time>2023-10-22T10:48:49Z</time>
      </trkpt>
      <trkpt lat="47.05302" lon="-1.84369">
        <ele>94.34</ele>
        <time>2023-10-22T10:48:51Z</time>
      </trkpt>
      <trkpt lat="47.05296" lon="-1.84384">
        <ele>94.3</ele>
        <time>2023-10-22T10:48:53Z</time>
      </trkpt>
      <trkpt lat="47.05288" lon="-1.844">
        <ele>94.55</ele>
        <time>2023-10-22T10:48:55Z</time>
      </trkpt>
      <trkpt lat="47.0528" lon="-1.84415">
        <ele>94.2</ele>
        <time>2023-10-22T10:48:57Z</time>
      </trkpt>
      <trkpt lat="47.05272" lon="-1.8443">
        <ele>94.44</ele>
        <time>2023-10-22T10:48:59Z</time>
      </trkpt>
      <trkpt lat="47.05265" lon="-1.84445">
        <ele>95.51</ele>
        <time>2023-10-22T10:49:01Z</time>
      </trkpt>
      <trkpt lat="47.05258" lon="-1.84459">
        <ele>96.06</ele>
        <time>2023-10-22T10:49:03Z</time>
      </trkpt>
      <trkpt lat="47.0525" lon="-1.84472">
        <ele>96.26</ele>
        <time>2023-10-22T10:49:05Z</time>
      </trkpt>
      <trkpt lat="47.05244" lon="-1.84488">
        <ele>97.05</ele>
        <time>2023-10-22T10:49:07Z</time>
      </trkpt>
      <trkpt lat="47.05237" lon="-1.84502">
        <ele>97.38</ele>
        <time>2023-10-22T10:49:09Z</time>
      </trkpt>
      <trkpt lat="47.05229" lon="-1.84516">
        <ele>96.8</ele>
        <time>2023-10-22T10:49:11Z</time>
      </trkpt>
      <trkpt lat="47.05222" lon="-1.84528">
        <ele>96.92</ele>
        <time>2023-10-22T10:49:13Z</time>
      </trkpt>
      <trkpt lat="47.05216" lon="-1.84541">
        <ele>96.04</ele>
        <time>2023-10-22T10:49:15Z</time>
      </trkpt>
      <trkpt lat="47.05207" lon="-1.84544">
        <ele>96.4</ele>
        <time>2023-10-22T10:49:17Z</time>
      </trkpt>
      <trkpt lat="47.05197" lon="-1.84538">
        <ele>96.15</ele>
        <time>2023-10-22T10:49:19Z</time>
      </trkpt>
      <trkpt lat="47.05188" lon="-1.84529">
        <ele>95.98</ele>
        <time>2023-10-22T10:49:21Z</time>
      </trkpt>
      <trkpt lat="47.05178" lon="-1.84515">
        <ele>95.78</ele>
        <time>2023-10-22T10:49:23Z</time>
      </trkpt>
      <trkpt lat="47.05168" lon="-1.84496">
        <ele>97.33</ele>
        <time>2023-10-22T10:49:25Z</time>
      </trkpt>
      <trkpt lat="47.05159" lon="-1.84483">
        <ele>95.85</ele>
        <time>2023-10-22T10:49:27Z</time>
      </trkpt>
      <trkpt lat="47.05149" lon="-1.84471">
        <ele>96.13</ele>
        <time>2023-10-22T10:49:29Z</time>
      </trkpt>
      <trkpt lat="47.0514" lon="-1.84455">
        <ele>95.75</ele>
        <time>2023-10-22T10:49:31Z</time>
      </trkpt>
      <trkpt lat="47.05131" lon="-1.84442">
        <ele>96.58</ele>
        <time>2023-10-22T10:49:33Z</time>
      </trkpt>
      <trkpt lat="47.05122" lon="-1.84428">
        <ele>97.27</ele>
        <time>2023-10-22T10:49:35Z</time>
      </trkpt>
      <trkpt lat="47.05111" lon="-1.84414">
        <ele>97</ele>
        <time>2023-10-22T10:49:37Z</time>
      </trkpt>
      <trkpt lat="47.05101" lon="-1.844">
        <ele>96.57</ele>
        <time>2023-10-22T10:49:39Z</time>
      </trkpt>
      <trkpt lat="47.05091" lon="-1.84386">
        <ele>96.7</ele>
        <time>2023-10-22T10:49:41Z</time>
      </trkpt>
      <trkpt lat="47.0508" lon="-1.84374">
        <ele>97.35</ele>
        <time>2023-10-22T10:49:43Z</time>
      </trkpt>
      <trkpt lat="47.05068" lon="-1.84362">
        <ele>96.94</ele>
        <time>2023-10-22T10:49:45Z</time>
      </trkpt>
      <trkpt lat="47.05056" lon="-1.8435">
        <ele>96.83</ele>
        <time>2023-10-22T10:49:47Z</time>
      </trkpt>
      <trkpt lat="47.05046" lon="-1.84338">
        <ele>97.38</ele>
        <time>2023-10-22T10:49:49Z</time>
      </trkpt>
      <trkpt lat="47.05036" lon="-1.84328">
        <ele>99.59</ele>
        <time>2023-10-22T10:49:51Z</time>
      </trkpt>
      <trkpt lat="47.05026" lon="-1.84319">
        <ele>101.16</ele>
        <time>2023-10-22T10:49:53Z</time>
      </trkpt>
      <trkpt lat="47.05013" lon="-1.84309">
        <ele>100.06</ele>
        <time>2023-10-22T10:49:55Z</time>
      </trkpt>
      <trkpt lat="47.05001" lon="-1.843">
        <ele>99.57</ele>
        <time>2023-10-22T10:49:57Z</time>
      </trkpt>
      <trkpt lat="47.04989" lon="-1.84291">
        <ele>98.92</ele>
        <time>2023-10-22T10:49:59Z</time>
      </trkpt>
      <trkpt lat="47.04978" lon="-1.8428">
        <ele>99.7</ele>
        <time>2023-10-22T10:50:01Z</time>
      </trkpt>
      <trkpt lat="47.04967" lon="-1.84271">
        <ele>100.11</ele>
        <time>2023-10-22T10:50:03Z</time>
      </trkpt>
      <trkpt lat="47.04957" lon="-1.8426">
        <ele>100.81</ele>
        <time>2023-10-22T10:50:05Z</time>
      </trkpt>
      <trkpt lat="47.04946" lon="-1.84249">
        <ele>100.52</ele>
        <time>2023-10-22T10:50:07Z</time>
      </trkpt>
      <trkpt lat="47.04935" lon="-1.84238">
        <ele>100.24</ele>
        <time>2023-10-22T10:50:09Z</time>
      </trkpt>
      <trkpt lat="47.04924" lon="-1.84228">
        <ele>100.35</ele>
        <time>2023-10-22T10:50:11Z</time>
      </trkpt>
      <trkpt lat="47.04913" lon="-1.84218">
        <ele>99.32</ele>
        <time>2023-10-22T10:50:13Z</time>
      </trkpt>
      <trkpt lat="47.04903" lon="-1.84206">
        <ele>100.36</ele>
        <time>2023-10-22T10:50:15Z</time>
      </trkpt>
      <trkpt lat="47.04892" lon="-1.84195">
        <ele>100.34</ele>
        <time>2023-10-22T10:50:17Z</time>
      </trkpt>
      <trkpt lat="47.0488" lon="-1.84184">
        <ele>99.03</ele>
        <time>2023-10-22T10:50:19Z</time>
      </trkpt>
      <trkpt lat="47.0487" lon="-1.84171">
        <ele>98.99</ele>
        <time>2023-10-22T10:50:21Z</time>
      </trkpt>
      <trkpt lat="47.04859" lon="-1.84161">
        <ele>98.07</ele>
        <time>2023-10-22T10:50:23Z</time>
      </trkpt>
      <trkpt lat="47.04848" lon="-1.84148">
        <ele>98.61</ele>
        <time>2023-10-22T10:50:25Z</time>
      </trkpt>
      <trkpt lat="47.04837" lon="-1.84137">
        <ele>97.45</ele>
        <time>2023-10-22T10:50:27Z</time>
      </trkpt>
      <trkpt lat="47.04829" lon="-1.84125">
        <ele>97.47</ele>
        <time>2023-10-22T10:50:29Z</time>
      </trkpt>
      <trkpt lat="47.0482" lon="-1.84116">
        <ele>96.89</ele>
        <time>2023-10-22T10:50:30Z</time>
      </trkpt>
      <trkpt lat="47.04807" lon="-1.84102">
        <ele>94.53</ele>
        <time>2023-10-22T10:50:32Z</time>
      </trkpt>
      <trkpt lat="47.04798" lon="-1.8409">
        <ele>94.36</ele>
        <time>2023-10-22T10:50:34Z</time>
      </trkpt>
      <trkpt lat="47.0479" lon="-1.84081">
        <ele>93.21</ele>
        <time>2023-10-22T10:50:35Z</time>
      </trkpt>
      <trkpt lat="47.04779" lon="-1.84068">
        <ele>93.36</ele>
        <time>2023-10-22T10:50:37Z</time>
      </trkpt>
      <trkpt lat="47.04768" lon="-1.84053">
        <ele>92.62</ele>
        <time>2023-10-22T10:50:39Z</time>
      </trkpt>
      <trkpt lat="47.04758" lon="-1.8404">
        <ele>93.15</ele>
        <time>2023-10-22T10:50:41Z</time>
      </trkpt>
      <trkpt lat="47.04746" lon="-1.84025">
        <ele>91.07</ele>
        <time>2023-10-22T10:50:43Z</time>
      </trkpt>
      <trkpt lat="47.04735" lon="-1.84011">
        <ele>90.34</ele>
        <time>2023-10-22T10:50:45Z</time>
      </trkpt>
      <trkpt lat="47.04724" lon="-1.83997">
        <ele>90.02</ele>
        <time>2023-10-22T10:50:47Z</time>
      </trkpt>
      <trkpt lat="47.04715" lon="-1.83982">
        <ele>92.74</ele>
        <time>2023-10-22T10:50:49Z</time>
      </trkpt>
      <trkpt lat="47.04704" lon="-1.83969">
        <ele>91.91</ele>
        <time>2023-10-22T10:50:51Z</time>
      </trkpt>
      <trkpt lat="47.04693" lon="-1.83956">
        <ele>91.43</ele>
        <time>2023-10-22T10:50:53Z</time>
      </trkpt>
      <trkpt lat="47.04683" lon="-1.83942">
        <ele>92.16</ele>
        <time>2023-10-22T10:50:55Z</time>
      </trkpt>
      <trkpt lat="47.04671" lon="-1.83931">
        <ele>90.37</ele>
        <time>2023-10-22T10:50:57Z</time>
      </trkpt>
      <trkpt lat="47.04659" lon="-1.83918">
        <ele>89.8</ele>
        <time>2023-10-22T10:50:59Z</time>
      </trkpt>
      <trkpt lat="47.04649" lon="-1.83905">
        <ele>89.08</ele>
        <time>2023-10-22T10:51:01Z</time>
      </trkpt>
      <trkpt lat="47.04639" lon="-1.8389">
        <ele>90.18</ele>
        <time>2023-10-22T10:51:03Z</time>
      </trkpt>
      <trkpt lat="47.04628" lon="-1.83873">
        <ele>89.4</ele>
        <time>2023-10-22T10:51:05Z</time>
      </trkpt>
      <trkpt lat="47.04619" lon="-1.83857">
        <ele>89.74</ele>
        <time>2023-10-22T10:51:07Z</time>
      </trkpt>
      <trkpt lat="47.04608" lon="-1.83845">
        <ele>89.9</ele>
        <time>2023-10-22T10:51:09Z</time>
      </trkpt>
      <trkpt lat="47.04596" lon="-1.83834">
        <ele>89.66</ele>
        <time>2023-10-22T10:51:11Z</time>
      </trkpt>
      <trkpt lat="47.04584" lon="-1.83823">
        <ele>89.64</ele>
        <time>2023-10-22T10:51:13Z</time>
      </trkpt>
      <trkpt lat="47.04571" lon="-1.83817">
        <ele>91.15</ele>
        <time>2023-10-22T10:51:15Z</time>
      </trkpt>
      <trkpt lat="47.04557" lon="-1.83808">
        <ele>91.85</ele>
        <time>2023-10-22T10:51:17Z</time>
      </trkpt>
      <trkpt lat="47.04544" lon="-1.83798">
        <ele>91.86</ele>
        <time>2023-10-22T10:51:19Z</time>
      </trkpt>
      <trkpt lat="47.04532" lon="-1.83789">
        <ele>91.64</ele>
        <time>2023-10-22T10:51:21Z</time>
      </trkpt>
      <trkpt lat="47.04519" lon="-1.83779">
        <ele>92.32</ele>
        <time>2023-10-22T10:51:23Z</time>
      </trkpt>
      <trkpt lat="47.04507" lon="-1.83768">
        <ele>92.34</ele>
        <time>2023-10-22T10:51:25Z</time>
      </trkpt>
      <trkpt lat="47.04493" lon="-1.83759">
        <ele>90.64</ele>
        <time>2023-10-22T10:51:27Z</time>
      </trkpt>
      <trkpt lat="47.0448" lon="-1.8375">
        <ele>89.74</ele>
        <time>2023-10-22T10:51:29Z</time>
      </trkpt>
      <trkpt lat="47.04468" lon="-1.8374">
        <ele>89.6</ele>
        <time>2023-10-22T10:51:31Z</time>
      </trkpt>
      <trkpt lat="47.04456" lon="-1.83728">
        <ele>89.63</ele>
        <time>2023-10-22T10:51:33Z</time>
      </trkpt>
      <trkpt lat="47.04444" lon="-1.83719">
        <ele>90.71</ele>
        <time>2023-10-22T10:51:35Z</time>
      </trkpt>
      <trkpt lat="47.04432" lon="-1.83708">
        <ele>91</ele>
        <time>2023-10-22T10:51:37Z</time>
      </trkpt>
      <trkpt lat="47.0442" lon="-1.83698">
        <ele>91.7</ele>
        <time>2023-10-22T10:51:39Z</time>
      </trkpt>
      <trkpt lat="47.04406" lon="-1.8369">
        <ele>91.61</ele>
        <time>2023-10-22T10:51:41Z</time>
      </trkpt>
      <trkpt lat="47.04394" lon="-1.83682">
        <ele>91.37</ele>
        <time>2023-10-22T10:51:43Z</time>
      </trkpt>
      <trkpt lat="47.0438" lon="-1.83674">
        <ele>92.71</ele>
        <time>2023-10-22T10:51:45Z</time>
      </trkpt>
      <trkpt lat="47.04365" lon="-1.8367">
        <ele>91.35</ele>
        <time>2023-10-22T10:51:47Z</time>
      </trkpt>
      <trkpt lat="47.04349" lon="-1.83665">
        <ele>89.88</ele>
        <time>2023-10-22T10:51:49Z</time>
      </trkpt>
      <trkpt lat="47.04335" lon="-1.83661">
        <ele>89.83</ele>
        <time>2023-10-22T10:51:51Z</time>
      </trkpt>
      <trkpt lat="47.04322" lon="-1.83656">
        <ele>89.54</ele>
        <time>2023-10-22T10:51:53Z</time>
      </trkpt>
      <trkpt lat="47.04306" lon="-1.83653">
        <ele>90.15</ele>
        <time>2023-10-22T10:51:55Z</time>
      </trkpt>
      <trkpt lat="47.04292" lon="-1.83649">
        <ele>91.73</ele>
        <time>2023-10-22T10:51:57Z</time>
      </trkpt>
      <trkpt lat="47.04283" lon="-1.83647">
        <ele>90.21</ele>
        <time>2023-10-22T10:51:58Z</time>
      </trkpt>
      <trkpt lat="47.04267" lon="-1.83644">
        <ele>89.44</ele>
        <time>2023-10-22T10:52:00Z</time>
      </trkpt>
      <trkpt lat="47.04252" lon="-1.83641">
        <ele>89.47</ele>
        <time>2023-10-22T10:52:02Z</time>
      </trkpt>
      <trkpt lat="47.04238" lon="-1.83636">
        <ele>88.2</ele>
        <time>2023-10-22T10:52:04Z</time>
      </trkpt>
      <trkpt lat="47.04225" lon="-1.83629">
        <ele>88.64</ele>
        <time>2023-10-22T10:52:06Z</time>
      </trkpt>
      <trkpt lat="47.04212" lon="-1.83619">
        <ele>88.2</ele>
        <time>2023-10-22T10:52:08Z</time>
      </trkpt>
      <trkpt lat="47.04197" lon="-1.83617">
        <ele>87.88</ele>
        <time>2023-10-22T10:52:10Z</time>
      </trkpt>
      <trkpt lat="47.04183" lon="-1.83617">
        <ele>87.69</ele>
        <time>2023-10-22T10:52:12Z</time>
      </trkpt>
      <trkpt lat="47.04169" lon="-1.83612">
        <ele>87.58</ele>
        <time>2023-10-22T10:52:14Z</time>
      </trkpt>
      <trkpt lat="47.04156" lon="-1.83605">
        <ele>87.5</ele>
        <time>2023-10-22T10:52:16Z</time>
      </trkpt>
      <trkpt lat="47.04143" lon="-1.83598">
        <ele>87.91</ele>
        <time>2023-10-22T10:52:18Z</time>
      </trkpt>
      <trkpt lat="47.0413" lon="-1.83591">
        <ele>88.36</ele>
        <time>2023-10-22T10:52:20Z</time>
      </trkpt>
      <trkpt lat="47.04117" lon="-1.83585">
        <ele>88.05</ele>
        <time>2023-10-22T10:52:22Z</time>
      </trkpt>
      <trkpt lat="47.04102" lon="-1.83581">
        <ele>88.75</ele>
        <time>2023-10-22T10:52:24Z</time>
      </trkpt>
      <trkpt lat="47.04088" lon="-1.83576">
        <ele>88.08</ele>
        <time>2023-10-22T10:52:26Z</time>
      </trkpt>
      <trkpt lat="47.04074" lon="-1.83572">
        <ele>87.86</ele>
        <time>2023-10-22T10:52:28Z</time>
      </trkpt>
      <trkpt lat="47.04059" lon="-1.8357">
        <ele>87.81</ele>
        <time>2023-10-22T10:52:30Z</time>
      </trkpt>
      <trkpt lat="47.04045" lon="-1.83568">
        <ele>88.98</ele>
        <time>2023-10-22T10:52:32Z</time>
      </trkpt>
      <trkpt lat="47.04031" lon="-1.83565">
        <ele>89.84</ele>
        <time>2023-10-22T10:52:34Z</time>
      </trkpt>
      <trkpt lat="47.04018" lon="-1.83564">
        <ele>90.5</ele>
        <time>2023-10-22T10:52:36Z</time>
      </trkpt>
      <trkpt lat="47.04004" lon="-1.83561">
        <ele>91.41</ele>
        <time>2023-10-22T10:52:38Z</time>
      </trkpt>
      <trkpt lat="47.0399" lon="-1.8356">
        <ele>91.21</ele>
        <time>2023-10-22T10:52:40Z</time>
      </trkpt>
      <trkpt lat="47.03977" lon="-1.83558">
        <ele>92.14</ele>
        <time>2023-10-22T10:52:42Z</time>
      </trkpt>
      <trkpt lat="47.03963" lon="-1.83557">
        <ele>93.26</ele>
        <time>2023-10-22T10:52:44Z</time>
      </trkpt>
      <trkpt lat="47.03947" lon="-1.83555">
        <ele>93.35</ele>
        <time>2023-10-22T10:52:46Z</time>
      </trkpt>
      <trkpt lat="47.03933" lon="-1.83554">
        <ele>93.03</ele>
        <time>2023-10-22T10:52:48Z</time>
      </trkpt>
      <trkpt lat="47.03918" lon="-1.83552">
        <ele>93.34</ele>
        <time>2023-10-22T10:52:50Z</time>
      </trkpt>
      <trkpt lat="47.03902" lon="-1.83549">
        <ele>92.24</ele>
        <time>2023-10-22T10:52:52Z</time>
      </trkpt>
      <trkpt lat="47.03887" lon="-1.83548">
        <ele>91.4</ele>
        <time>2023-10-22T10:52:54Z</time>
      </trkpt>
      <trkpt lat="47.03871" lon="-1.83547">
        <ele>90.27</ele>
        <time>2023-10-22T10:52:56Z</time>
      </trkpt>
      <trkpt lat="47.03857" lon="-1.83545">
        <ele>89.77</ele>
        <time>2023-10-22T10:52:58Z</time>
      </trkpt>
      <trkpt lat="47.03842" lon="-1.83543">
        <ele>90.06</ele>
        <time>2023-10-22T10:53:00Z</time>
      </trkpt>
      <trkpt lat="47.03828" lon="-1.83541">
        <ele>90.24</ele>
        <time>2023-10-22T10:53:02Z</time>
      </trkpt>
      <trkpt lat="47.03814" lon="-1.83539">
        <ele>90.69</ele>
        <time>2023-10-22T10:53:04Z</time>
      </trkpt>
      <trkpt lat="47.03799" lon="-1.83538">
        <ele>91.49</ele>
        <time>2023-10-22T10:53:06Z</time>
      </trkpt>
      <trkpt lat="47.03784" lon="-1.83537">
        <ele>91.79</ele>
        <time>2023-10-22T10:53:08Z</time>
      </trkpt>
      <trkpt lat="47.03769" lon="-1.83537">
        <ele>91.47</ele>
        <time>2023-10-22T10:53:10Z</time>
      </trkpt>
      <trkpt lat="47.03755" lon="-1.83537">
        <ele>90.64</ele>
        <time>2023-10-22T10:53:12Z</time>
      </trkpt>
      <trkpt lat="47.03741" lon="-1.83537">
        <ele>91.45</ele>
        <time>2023-10-22T10:53:14Z</time>
      </trkpt>
      <trkpt lat="47.03727" lon="-1.83537">
        <ele>91.25</ele>
        <time>2023-10-22T10:53:16Z</time>
      </trkpt>
      <trkpt lat="47.03713" lon="-1.83537">
        <ele>90.71</ele>
        <time>2023-10-22T10:53:18Z</time>
      </trkpt>
      <trkpt lat="47.03699" lon="-1.83537">
        <ele>90.86</ele>
        <time>2023-10-22T10:53:20Z</time>
      </trkpt>
      <trkpt lat="47.03685" lon="-1.83536">
        <ele>91.41</ele>
        <time>2023-10-22T10:53:22Z</time>
      </trkpt>
      <trkpt lat="47.03672" lon="-1.83536">
        <ele>91</ele>
        <time>2023-10-22T10:53:24Z</time>
      </trkpt>
      <trkpt lat="47.03659" lon="-1.83536">
        <ele>91.99</ele>
        <time>2023-10-22T10:53:26Z</time>
      </trkpt>
      <trkpt lat="47.03644" lon="-1.83537">
        <ele>91.76</ele>
        <time>2023-10-22T10:53:28Z</time>
      </trkpt>
      <trkpt lat="47.0363" lon="-1.83537">
        <ele>91.57</ele>
        <time>2023-10-22T10:53:30Z</time>
      </trkpt>
      <trkpt lat="47.03616" lon="-1.83538">
        <ele>91.75</ele>
        <time>2023-10-22T10:53:32Z</time>
      </trkpt>
      <trkpt lat="47.03602" lon="-1.83538">
        <ele>91.41</ele>
        <time>2023-10-22T10:53:34Z</time>
      </trkpt>
      <trkpt lat="47.03588" lon="-1.8354">
        <ele>90.96</ele>
        <time>2023-10-22T10:53:36Z</time>
      </trkpt>
      <trkpt lat="47.03574" lon="-1.8354">
        <ele>90.75</ele>
        <time>2023-10-22T10:53:38Z</time>
      </trkpt>
      <trkpt lat="47.03559" lon="-1.8354">
        <ele>89.97</ele>
        <time>2023-10-22T10:53:40Z</time>
      </trkpt>
      <trkpt lat="47.03543" lon="-1.83539">
        <ele>89.85</ele>
        <time>2023-10-22T10:53:42Z</time>
      </trkpt>
      <trkpt lat="47.03528" lon="-1.8354">
        <ele>89.3</ele>
        <time>2023-10-22T10:53:44Z</time>
      </trkpt>
      <trkpt lat="47.03513" lon="-1.83538">
        <ele>89.48</ele>
        <time>2023-10-22T10:53:46Z</time>
      </trkpt>
      <trkpt lat="47.03497" lon="-1.83537">
        <ele>89.5</ele>
        <time>2023-10-22T10:53:48Z</time>
      </trkpt>
      <trkpt lat="47.03482" lon="-1.83533">
        <ele>89.5</ele>
        <time>2023-10-22T10:53:50Z</time>
      </trkpt>
      <trkpt lat="47.03466" lon="-1.83531">
        <ele>89.16</ele>
        <time>2023-10-22T10:53:52Z</time>
      </trkpt>
      <trkpt lat="47.03451" lon="-1.83526">
        <ele>89.31</ele>
        <time>2023-10-22T10:53:54Z</time>
      </trkpt>
      <trkpt lat="47.03435" lon="-1.83521">
        <ele>88.72</ele>
        <time>2023-10-22T10:53:56Z</time>
      </trkpt>
      <trkpt lat="47.03419" lon="-1.83517">
        <ele>87.51</ele>
        <time>2023-10-22T10:53:58Z</time>
      </trkpt>
      <trkpt lat="47.03404" lon="-1.83513">
        <ele>86.47</ele>
        <time>2023-10-22T10:54:00Z</time>
      </trkpt>
      <trkpt lat="47.0339" lon="-1.83509">
        <ele>85.59</ele>
        <time>2023-10-22T10:54:02Z</time>
      </trkpt>
      <trkpt lat="47.03375" lon="-1.83505">
        <ele>86.01</ele>
        <time>2023-10-22T10:54:04Z</time>
      </trkpt>
      <trkpt lat="47.03361" lon="-1.83501">
        <ele>85.74</ele>
        <time>2023-10-22T10:54:06Z</time>
      </trkpt>
      <trkpt lat="47.03346" lon="-1.83497">
        <ele>85.07</ele>
        <time>2023-10-22T10:54:08Z</time>
      </trkpt>
      <trkpt lat="47.03331" lon="-1.83492">
        <ele>84.67</ele>
        <time>2023-10-22T10:54:10Z</time>
      </trkpt>
      <trkpt lat="47.03317" lon="-1.83489">
        <ele>84</ele>
        <time>2023-10-22T10:54:12Z</time>
      </trkpt>
      <trkpt lat="47.03303" lon="-1.83484">
        <ele>83.83</ele>
        <time>2023-10-22T10:54:14Z</time>
      </trkpt>
      <trkpt lat="47.0329" lon="-1.83481">
        <ele>84.01</ele>
        <time>2023-10-22T10:54:16Z</time>
      </trkpt>
      <trkpt lat="47.03276" lon="-1.83478">
        <ele>84.26</ele>
        <time>2023-10-22T10:54:18Z</time>
      </trkpt>
      <trkpt lat="47.03263" lon="-1.83474">
        <ele>85.04</ele>
        <time>2023-10-22T10:54:20Z</time>
      </trkpt>
      <trkpt lat="47.03248" lon="-1.83471">
        <ele>84.65</ele>
        <time>2023-10-22T10:54:22Z</time>
      </trkpt>
      <trkpt lat="47.03234" lon="-1.83467">
        <ele>84.58</ele>
        <time>2023-10-22T10:54:24Z</time>
      </trkpt>
      <trkpt lat="47.03221" lon="-1.83462">
        <ele>84.98</ele>
        <time>2023-10-22T10:54:26Z</time>
      </trkpt>
      <trkpt lat="47.03207" lon="-1.83459">
        <ele>84.7</ele>
        <time>2023-10-22T10:54:28Z</time>
      </trkpt>
      <trkpt lat="47.03196" lon="-1.83455">
        <ele>84.95</ele>
        <time>2023-10-22T10:54:30Z</time>
      </trkpt>
      <trkpt lat="47.03184" lon="-1.83451">
        <ele>85.46</ele>
        <time>2023-10-22T10:54:32Z</time>
      </trkpt>
      <trkpt lat="47.03173" lon="-1.83452">
        <ele>85.38</ele>
        <time>2023-10-22T10:54:34Z</time>
      </trkpt>
      <trkpt lat="47.03165" lon="-1.83464">
        <ele>85.22</ele>
        <time>2023-10-22T10:54:36Z</time>
      </trkpt>
      <trkpt lat="47.0316" lon="-1.83479">
        <ele>86.32</ele>
        <time>2023-10-22T10:54:38Z</time>
      </trkpt>
      <trkpt lat="47.0315" lon="-1.83487">
        <ele>86.64</ele>
        <time>2023-10-22T10:54:40Z</time>
      </trkpt>
      <trkpt lat="47.03136" lon="-1.8349">
        <ele>88.02</ele>
        <time>2023-10-22T10:54:42Z</time>
      </trkpt>
      <trkpt lat="47.03123" lon="-1.8349">
        <ele>88.12</ele>
        <time>2023-10-22T10:54:44Z</time>
      </trkpt>
      <trkpt lat="47.0311" lon="-1.83493">
        <ele>87.22</ele>
        <time>2023-10-22T10:54:46Z</time>
      </trkpt>
      <trkpt lat="47.03095" lon="-1.83494">
        <ele>86.37</ele>
        <time>2023-10-22T10:54:48Z</time>
      </trkpt>
      <trkpt lat="47.03081" lon="-1.83497">
        <ele>85.86</ele>
        <time>2023-10-22T10:54:50Z</time>
      </trkpt>
      <trkpt lat="47.03067" lon="-1.83498">
        <ele>85.47</ele>
        <time>2023-10-22T10:54:52Z</time>
      </trkpt>
      <trkpt lat="47.03053" lon="-1.835">
        <ele>84.65</ele>
        <time>2023-10-22T10:54:54Z</time>
      </trkpt>
      <trkpt lat="47.03039" lon="-1.83501">
        <ele>84.7</ele>
        <time>2023-10-22T10:54:56Z</time>
      </trkpt>
      <trkpt lat="47.03025" lon="-1.83503">
        <ele>84.4</ele>
        <time>2023-10-22T10:54:58Z</time>
      </trkpt>
      <trkpt lat="47.03009" lon="-1.83504">
        <ele>83.46</ele>
        <time>2023-10-22T10:55:00Z</time>
      </trkpt>
      <trkpt lat="47.02994" lon="-1.83506">
        <ele>82.34</ele>
        <time>2023-10-22T10:55:02Z</time>
      </trkpt>
      <trkpt lat="47.0298" lon="-1.83508">
        <ele>82.32</ele>
        <time>2023-10-22T10:55:04Z</time>
      </trkpt>
      <trkpt lat="47.02964" lon="-1.8351">
        <ele>81.83</ele>
        <time>2023-10-22T10:55:06Z</time>
      </trkpt>
      <trkpt lat="47.0295" lon="-1.83512">
        <ele>81.78</ele>
        <time>2023-10-22T10:55:08Z</time>
      </trkpt>
      <trkpt lat="47.02934" lon="-1.83515">
        <ele>81.86</ele>
        <time>2023-10-22T10:55:10Z</time>
      </trkpt>
      <trkpt lat="47.02919" lon="-1.83518">
        <ele>82.3</ele>
        <time>2023-10-22T10:55:12Z</time>
      </trkpt>
      <trkpt lat="47.02905" lon="-1.83521">
        <ele>82.32</ele>
        <time>2023-10-22T10:55:14Z</time>
      </trkpt>
      <trkpt lat="47.0289" lon="-1.83525">
        <ele>82.57</ele>
        <time>2023-10-22T10:55:16Z</time>
      </trkpt>
      <trkpt lat="47.02876" lon="-1.83528">
        <ele>83.31</ele>
        <time>2023-10-22T10:55:18Z</time>
      </trkpt>
      <trkpt lat="47.02862" lon="-1.83532">
        <ele>83.67</ele>
        <time>2023-10-22T10:55:20Z</time>
      </trkpt>
      <trkpt lat="47.0285" lon="-1.83539">
        <ele>83.99</ele>
        <time>2023-10-22T10:55:22Z</time>
      </trkpt>
      <trkpt lat="47.02837" lon="-1.83546">
        <ele>83.53</ele>
        <time>2023-10-22T10:55:24Z</time>
      </trkpt>
      <trkpt lat="47.02825" lon="-1.83555">
        <ele>84.56</ele>
        <time>2023-10-22T10:55:26Z</time>
      </trkpt>
      <trkpt lat="47.02813" lon="-1.83565">
        <ele>85.17</ele>
        <time>2023-10-22T10:55:28Z</time>
      </trkpt>
      <trkpt lat="47.02803" lon="-1.83577">
        <ele>85.58</ele>
        <time>2023-10-22T10:55:30Z</time>
      </trkpt>
      <trkpt lat="47.02791" lon="-1.83588">
        <ele>86.03</ele>
        <time>2023-10-22T10:55:32Z</time>
      </trkpt>
      <trkpt lat="47.02779" lon="-1.83598">
        <ele>86.27</ele>
        <time>2023-10-22T10:55:34Z</time>
      </trkpt>
      <trkpt lat="47.02767" lon="-1.83607">
        <ele>86.77</ele>
        <time>2023-10-22T10:55:36Z</time>
      </trkpt>
      <trkpt lat="47.02754" lon="-1.83613">
        <ele>86.75</ele>
        <time>2023-10-22T10:55:38Z</time>
      </trkpt>
      <trkpt lat="47.0274" lon="-1.83616">
        <ele>86.95</ele>
        <time>2023-10-22T10:55:40Z</time>
      </trkpt>
      <trkpt lat="47.02725" lon="-1.83617">
        <ele>86.74</ele>
        <time>2023-10-22T10:55:42Z</time>
      </trkpt>
      <trkpt lat="47.02711" lon="-1.83619">
        <ele>87.11</ele>
        <time>2023-10-22T10:55:44Z</time>
      </trkpt>
      <trkpt lat="47.02697" lon="-1.83619">
        <ele>87.53</ele>
        <time>2023-10-22T10:55:46Z</time>
      </trkpt>
      <trkpt lat="47.02682" lon="-1.83619">
        <ele>87.79</ele>
        <time>2023-10-22T10:55:48Z</time>
      </trkpt>
      <trkpt lat="47.02668" lon="-1.8362">
        <ele>87.45</ele>
        <time>2023-10-22T10:55:50Z</time>
      </trkpt>
      <trkpt lat="47.02653" lon="-1.8362">
        <ele>87.18</ele>
        <time>2023-10-22T10:55:52Z</time>
      </trkpt>
      <trkpt lat="47.02637" lon="-1.83621">
        <ele>85.19</ele>
        <time>2023-10-22T10:55:54Z</time>
      </trkpt>
      <trkpt lat="47.02621" lon="-1.83623">
        <ele>84</ele>
        <time>2023-10-22T10:55:56Z</time>
      </trkpt>
      <trkpt lat="47.02599" lon="-1.83624">
        <ele>83.68</ele>
        <time>2023-10-22T10:55:59Z</time>
      </trkpt>
      <trkpt lat="47.02585" lon="-1.83625">
        <ele>83.96</ele>
        <time>2023-10-22T10:56:01Z</time>
      </trkpt>
      <trkpt lat="47.0257" lon="-1.83626">
        <ele>82.76</ele>
        <time>2023-10-22T10:56:03Z</time>
      </trkpt>
      <trkpt lat="47.02556" lon="-1.83626">
        <ele>81.95</ele>
        <time>2023-10-22T10:56:05Z</time>
      </trkpt>
      <trkpt lat="47.02535" lon="-1.8363">
        <ele>80.33</ele>
        <time>2023-10-22T10:56:08Z</time>
      </trkpt>
      <trkpt lat="47.02522" lon="-1.83633">
        <ele>79.65</ele>
        <time>2023-10-22T10:56:10Z</time>
      </trkpt>
      <trkpt lat="47.02509" lon="-1.83636">
        <ele>80.01</ele>
        <time>2023-10-22T10:56:12Z</time>
      </trkpt>
      <trkpt lat="47.02489" lon="-1.8364">
        <ele>80.1</ele>
        <time>2023-10-22T10:56:15Z</time>
      </trkpt>
      <trkpt lat="47.02476" lon="-1.83644">
        <ele>80.89</ele>
        <time>2023-10-22T10:56:17Z</time>
      </trkpt>
      <trkpt lat="47.02462" lon="-1.83647">
        <ele>79.95</ele>
        <time>2023-10-22T10:56:19Z</time>
      </trkpt>
      <trkpt lat="47.02448" lon="-1.83649">
        <ele>80.45</ele>
        <time>2023-10-22T10:56:21Z</time>
      </trkpt>
      <trkpt lat="47.02435" lon="-1.83653">
        <ele>80.53</ele>
        <time>2023-10-22T10:56:23Z</time>
      </trkpt>
      <trkpt lat="47.02419" lon="-1.83654">
        <ele>80.06</ele>
        <time>2023-10-22T10:56:25Z</time>
      </trkpt>
      <trkpt lat="47.02405" lon="-1.83656">
        <ele>79.14</ele>
        <time>2023-10-22T10:56:27Z</time>
      </trkpt>
      <trkpt lat="47.02392" lon="-1.83659">
        <ele>79.65</ele>
        <time>2023-10-22T10:56:29Z</time>
      </trkpt>
      <trkpt lat="47.02378" lon="-1.83659">
        <ele>79.43</ele>
        <time>2023-10-22T10:56:31Z</time>
      </trkpt>
      <trkpt lat="47.02364" lon="-1.83657">
        <ele>78.48</ele>
        <time>2023-10-22T10:56:33Z</time>
      </trkpt>
      <trkpt lat="47.0235" lon="-1.83656">
        <ele>78.24</ele>
        <time>2023-10-22T10:56:35Z</time>
      </trkpt>
      <trkpt lat="47.02336" lon="-1.83655">
        <ele>78.41</ele>
        <time>2023-10-22T10:56:37Z</time>
      </trkpt>
      <trkpt lat="47.02321" lon="-1.83654">
        <ele>78.75</ele>
        <time>2023-10-22T10:56:39Z</time>
      </trkpt>
      <trkpt lat="47.02306" lon="-1.83651">
        <ele>77.91</ele>
        <time>2023-10-22T10:56:41Z</time>
      </trkpt>
      <trkpt lat="47.02292" lon="-1.83652">
        <ele>78.16</ele>
        <time>2023-10-22T10:56:43Z</time>
      </trkpt>
      <trkpt lat="47.02279" lon="-1.83651">
        <ele>77.72</ele>
        <time>2023-10-22T10:56:45Z</time>
      </trkpt>
      <trkpt lat="47.02264" lon="-1.8365">
        <ele>77.23</ele>
        <time>2023-10-22T10:56:47Z</time>
      </trkpt>
      <trkpt lat="47.0225" lon="-1.83648">
        <ele>76.82</ele>
        <time>2023-10-22T10:56:49Z</time>
      </trkpt>
      <trkpt lat="47.02236" lon="-1.83648">
        <ele>77.31</ele>
        <time>2023-10-22T10:56:51Z</time>
      </trkpt>
      <trkpt lat="47.02221" lon="-1.83647">
        <ele>77.27</ele>
        <time>2023-10-22T10:56:53Z</time>
      </trkpt>
      <trkpt lat="47.02208" lon="-1.83645">
        <ele>78.05</ele>
        <time>2023-10-22T10:56:55Z</time>
      </trkpt>
      <trkpt lat="47.02194" lon="-1.83642">
        <ele>78.81</ele>
        <time>2023-10-22T10:56:57Z</time>
      </trkpt>
      <trkpt lat="47.0218" lon="-1.83637">
        <ele>78.27</ele>
        <time>2023-10-22T10:56:59Z</time>
      </trkpt>
      <trkpt lat="47.02165" lon="-1.83627">
        <ele>77.5</ele>
        <time>2023-10-22T10:57:01Z</time>
      </trkpt>
      <trkpt lat="47.02151" lon="-1.83619">
        <ele>76.9</ele>
        <time>2023-10-22T10:57:03Z</time>
      </trkpt>
      <trkpt lat="47.02137" lon="-1.83611">
        <ele>76.33</ele>
        <time>2023-10-22T10:57:05Z</time>
      </trkpt>
      <trkpt lat="47.02123" lon="-1.83603">
        <ele>75.36</ele>
        <time>2023-10-22T10:57:07Z</time>
      </trkpt>
      <trkpt lat="47.0211" lon="-1.83594">
        <ele>74.67</ele>
        <time>2023-10-22T10:57:09Z</time>
      </trkpt>
      <trkpt lat="47.02096" lon="-1.83587">
        <ele>74.67</ele>
        <time>2023-10-22T10:57:11Z</time>
      </trkpt>
      <trkpt lat="47.02083" lon="-1.83578">
        <ele>75.22</ele>
        <time>2023-10-22T10:57:13Z</time>
      </trkpt>
      <trkpt lat="47.02069" lon="-1.8357">
        <ele>75.47</ele>
        <time>2023-10-22T10:57:15Z</time>
      </trkpt>
      <trkpt lat="47.02055" lon="-1.83563">
        <ele>75.11</ele>
        <time>2023-10-22T10:57:17Z</time>
      </trkpt>
      <trkpt lat="47.02042" lon="-1.83556">
        <ele>75.12</ele>
        <time>2023-10-22T10:57:19Z</time>
      </trkpt>
      <trkpt lat="47.02029" lon="-1.83546">
        <ele>74.42</ele>
        <time>2023-10-22T10:57:21Z</time>
      </trkpt>
      <trkpt lat="47.02016" lon="-1.83538">
        <ele>74.57</ele>
        <time>2023-10-22T10:57:23Z</time>
      </trkpt>
      <trkpt lat="47.02004" lon="-1.8353">
        <ele>73.86</ele>
        <time>2023-10-22T10:57:25Z</time>
      </trkpt>
      <trkpt lat="47.01991" lon="-1.83523">
        <ele>74.47</ele>
        <time>2023-10-22T10:57:27Z</time>
      </trkpt>
      <trkpt lat="47.01978" lon="-1.83515">
        <ele>73.73</ele>
        <time>2023-10-22T10:57:29Z</time>
      </trkpt>
      <trkpt lat="47.01964" lon="-1.83507">
        <ele>73.37</ele>
        <time>2023-10-22T10:57:31Z</time>
      </trkpt>
      <trkpt lat="47.01949" lon="-1.83501">
        <ele>72.32</ele>
        <time>2023-10-22T10:57:33Z</time>
      </trkpt>
      <trkpt lat="47.01934" lon="-1.83498">
        <ele>72.41</ele>
        <time>2023-10-22T10:57:35Z</time>
      </trkpt>
      <trkpt lat="47.0192" lon="-1.83498">
        <ele>72.35</ele>
        <time>2023-10-22T10:57:37Z</time>
      </trkpt>
      <trkpt lat="47.01903" lon="-1.83501">
        <ele>72.37</ele>
        <time>2023-10-22T10:57:39Z</time>
      </trkpt>
      <trkpt lat="47.01887" lon="-1.83506">
        <ele>71.56</ele>
        <time>2023-10-22T10:57:41Z</time>
      </trkpt>
      <trkpt lat="47.01871" lon="-1.83509">
        <ele>71.35</ele>
        <time>2023-10-22T10:57:43Z</time>
      </trkpt>
      <trkpt lat="47.01855" lon="-1.83513">
        <ele>70.51</ele>
        <time>2023-10-22T10:57:45Z</time>
      </trkpt>
      <trkpt lat="47.01846" lon="-1.83515">
        <ele>69.54</ele>
        <time>2023-10-22T10:57:46Z</time>
      </trkpt>
      <trkpt lat="47.0183" lon="-1.83519">
        <ele>68.31</ele>
        <time>2023-10-22T10:57:48Z</time>
      </trkpt>
      <trkpt lat="47.01814" lon="-1.83522">
        <ele>66.99</ele>
        <time>2023-10-22T10:57:50Z</time>
      </trkpt>
      <trkpt lat="47.01798" lon="-1.83526">
        <ele>67.87</ele>
        <time>2023-10-22T10:57:52Z</time>
      </trkpt>
      <trkpt lat="47.01782" lon="-1.83531">
        <ele>67.16</ele>
        <time>2023-10-22T10:57:54Z</time>
      </trkpt>
      <trkpt lat="47.01766" lon="-1.83537">
        <ele>66.84</ele>
        <time>2023-10-22T10:57:56Z</time>
      </trkpt>
      <trkpt lat="47.01752" lon="-1.83546">
        <ele>67.06</ele>
        <time>2023-10-22T10:57:58Z</time>
      </trkpt>
      <trkpt lat="47.0174" lon="-1.83559">
        <ele>67.36</ele>
        <time>2023-10-22T10:58:00Z</time>
      </trkpt>
      <trkpt lat="47.0173" lon="-1.83575">
        <ele>67.42</ele>
        <time>2023-10-22T10:58:02Z</time>
      </trkpt>
      <trkpt lat="47.01723" lon="-1.83591">
        <ele>67.67</ele>
        <time>2023-10-22T10:58:04Z</time>
      </trkpt>
      <trkpt lat="47.01714" lon="-1.83608">
        <ele>68.26</ele>
        <time>2023-10-22T10:58:06Z</time>
      </trkpt>
      <trkpt lat="47.01705" lon="-1.83624">
        <ele>67.88</ele>
        <time>2023-10-22T10:58:08Z</time>
      </trkpt>
      <trkpt lat="47.01696" lon="-1.83641">
        <ele>67.15</ele>
        <time>2023-10-22T10:58:10Z</time>
      </trkpt>
      <trkpt lat="47.01687" lon="-1.83658">
        <ele>67.63</ele>
        <time>2023-10-22T10:58:12Z</time>
      </trkpt>
      <trkpt lat="47.01677" lon="-1.83673">
        <ele>67.47</ele>
        <time>2023-10-22T10:58:14Z</time>
      </trkpt>
      <trkpt lat="47.01666" lon="-1.83687">
        <ele>68.3</ele>
        <time>2023-10-22T10:58:16Z</time>
      </trkpt>
      <trkpt lat="47.01656" lon="-1.83701">
        <ele>68.56</ele>
        <time>2023-10-22T10:58:18Z</time>
      </trkpt>
      <trkpt lat="47.01644" lon="-1.83713">
        <ele>68.49</ele>
        <time>2023-10-22T10:58:20Z</time>
      </trkpt>
      <trkpt lat="47.01633" lon="-1.83726">
        <ele>67.77</ele>
        <time>2023-10-22T10:58:22Z</time>
      </trkpt>
      <trkpt lat="47.01622" lon="-1.83738">
        <ele>67.55</ele>
        <time>2023-10-22T10:58:24Z</time>
      </trkpt>
      <trkpt lat="47.0161" lon="-1.83752">
        <ele>67</ele>
        <time>2023-10-22T10:58:26Z</time>
      </trkpt>
      <trkpt lat="47.01599" lon="-1.83764">
        <ele>67.37</ele>
        <time>2023-10-22T10:58:28Z</time>
      </trkpt>
      <trkpt lat="47.01588" lon="-1.83778">
        <ele>67.29</ele>
        <time>2023-10-22T10:58:30Z</time>
      </trkpt>
      <trkpt lat="47.01579" lon="-1.83792">
        <ele>68.02</ele>
        <time>2023-10-22T10:58:32Z</time>
      </trkpt>
      <trkpt lat="47.01566" lon="-1.83806">
        <ele>67.51</ele>
        <time>2023-10-22T10:58:34Z</time>
      </trkpt>
      <trkpt lat="47.01554" lon="-1.83819">
        <ele>66.67</ele>
        <time>2023-10-22T10:58:36Z</time>
      </trkpt>
      <trkpt lat="47.01543" lon="-1.83833">
        <ele>66.58</ele>
        <time>2023-10-22T10:58:38Z</time>
      </trkpt>
      <trkpt lat="47.01532" lon="-1.83847">
        <ele>65.33</ele>
        <time>2023-10-22T10:58:40Z</time>
      </trkpt>
      <trkpt lat="47.01521" lon="-1.83863">
        <ele>65.01</ele>
        <time>2023-10-22T10:58:42Z</time>
      </trkpt>
      <trkpt lat="47.01509" lon="-1.83879">
        <ele>63.48</ele>
        <time>2023-10-22T10:58:44Z</time>
      </trkpt>
      <trkpt lat="47.015" lon="-1.83894">
        <ele>62.55</ele>
        <time>2023-10-22T10:58:46Z</time>
      </trkpt>
      <trkpt lat="47.0149" lon="-1.83909">
        <ele>63.2</ele>
        <time>2023-10-22T10:58:48Z</time>
      </trkpt>
      <trkpt lat="47.01481" lon="-1.83924">
        <ele>65.01</ele>
        <time>2023-10-22T10:58:50Z</time>
      </trkpt>
      <trkpt lat="47.01471" lon="-1.83939">
        <ele>64.37</ele>
        <time>2023-10-22T10:58:52Z</time>
      </trkpt>
      <trkpt lat="47.01461" lon="-1.83955">
        <ele>64.25</ele>
        <time>2023-10-22T10:58:54Z</time>
      </trkpt>
      <trkpt lat="47.0145" lon="-1.83971">
        <ele>63.84</ele>
        <time>2023-10-22T10:58:56Z</time>
      </trkpt>
      <trkpt lat="47.01439" lon="-1.83988">
        <ele>62.58</ele>
        <time>2023-10-22T10:58:58Z</time>
      </trkpt>
      <trkpt lat="47.01429" lon="-1.84004">
        <ele>60.82</ele>
        <time>2023-10-22T10:59:00Z</time>
      </trkpt>
      <trkpt lat="47.01418" lon="-1.8402">
        <ele>61.18</ele>
        <time>2023-10-22T10:59:02Z</time>
      </trkpt>
      <trkpt lat="47.01406" lon="-1.84036">
        <ele>62.02</ele>
        <time>2023-10-22T10:59:04Z</time>
      </trkpt>
      <trkpt lat="47.01396" lon="-1.84052">
        <ele>62.97</ele>
        <time>2023-10-22T10:59:06Z</time>
      </trkpt>
      <trkpt lat="47.01385" lon="-1.84068">
        <ele>62.02</ele>
        <time>2023-10-22T10:59:08Z</time>
      </trkpt>
      <trkpt lat="47.01374" lon="-1.84083">
        <ele>62.61</ele>
        <time>2023-10-22T10:59:10Z</time>
      </trkpt>
      <trkpt lat="47.01362" lon="-1.84097">
        <ele>63.05</ele>
        <time>2023-10-22T10:59:12Z</time>
      </trkpt>
      <trkpt lat="47.01351" lon="-1.8411">
        <ele>64.1</ele>
        <time>2023-10-22T10:59:14Z</time>
      </trkpt>
      <trkpt lat="47.0134" lon="-1.84123">
        <ele>64.84</ele>
        <time>2023-10-22T10:59:16Z</time>
      </trkpt>
      <trkpt lat="47.01329" lon="-1.84136">
        <ele>64.22</ele>
        <time>2023-10-22T10:59:18Z</time>
      </trkpt>
      <trkpt lat="47.01316" lon="-1.84148">
        <ele>63.91</ele>
        <time>2023-10-22T10:59:20Z</time>
      </trkpt>
      <trkpt lat="47.01305" lon="-1.84161">
        <ele>63.6</ele>
        <time>2023-10-22T10:59:22Z</time>
      </trkpt>
      <trkpt lat="47.01294" lon="-1.84174">
        <ele>62.98</ele>
        <time>2023-10-22T10:59:24Z</time>
      </trkpt>
      <trkpt lat="47.01284" lon="-1.84187">
        <ele>63.76</ele>
        <time>2023-10-22T10:59:26Z</time>
      </trkpt>
      <trkpt lat="47.01273" lon="-1.84199">
        <ele>64.34</ele>
        <time>2023-10-22T10:59:28Z</time>
      </trkpt>
      <trkpt lat="47.01262" lon="-1.84211">
        <ele>63.86</ele>
        <time>2023-10-22T10:59:30Z</time>
      </trkpt>
      <trkpt lat="47.01252" lon="-1.84222">
        <ele>64.52</ele>
        <time>2023-10-22T10:59:32Z</time>
      </trkpt>
      <trkpt lat="47.01237" lon="-1.84235">
        <ele>63</ele>
        <time>2023-10-22T10:59:34Z</time>
      </trkpt>
      <trkpt lat="47.01225" lon="-1.84248">
        <ele>62.66</ele>
        <time>2023-10-22T10:59:36Z</time>
      </trkpt>
      <trkpt lat="47.01214" lon="-1.84261">
        <ele>63.32</ele>
        <time>2023-10-22T10:59:38Z</time>
      </trkpt>
      <trkpt lat="47.01202" lon="-1.84275">
        <ele>62.5</ele>
        <time>2023-10-22T10:59:40Z</time>
      </trkpt>
      <trkpt lat="47.01191" lon="-1.84291">
        <ele>62.04</ele>
        <time>2023-10-22T10:59:42Z</time>
      </trkpt>
      <trkpt lat="47.01182" lon="-1.84308">
        <ele>61.56</ele>
        <time>2023-10-22T10:59:44Z</time>
      </trkpt>
      <trkpt lat="47.01175" lon="-1.84327">
        <ele>60.71</ele>
        <time>2023-10-22T10:59:46Z</time>
      </trkpt>
      <trkpt lat="47.0117" lon="-1.84347">
        <ele>60.77</ele>
        <time>2023-10-22T10:59:48Z</time>
      </trkpt>
      <trkpt lat="47.01166" lon="-1.84366">
        <ele>61.7</ele>
        <time>2023-10-22T10:59:50Z</time>
      </trkpt>
      <trkpt lat="47.01161" lon="-1.84384">
        <ele>61.89</ele>
        <time>2023-10-22T10:59:52Z</time>
      </trkpt>
      <trkpt lat="47.01155" lon="-1.84403">
        <ele>62.34</ele>
        <time>2023-10-22T10:59:54Z</time>
      </trkpt>
      <trkpt lat="47.01153" lon="-1.84422">
        <ele>62.97</ele>
        <time>2023-10-22T10:59:56Z</time>
      </trkpt>
      <trkpt lat="47.01148" lon="-1.8444">
        <ele>63.32</ele>
        <time>2023-10-22T10:59:58Z</time>
      </trkpt>
      <trkpt lat="47.01143" lon="-1.8446">
        <ele>63.73</ele>
        <time>2023-10-22T11:00:00Z</time>
      </trkpt>
      <trkpt lat="47.01139" lon="-1.84481">
        <ele>63.85</ele>
        <time>2023-10-22T11:00:02Z</time>
      </trkpt>
      <trkpt lat="47.01135" lon="-1.84503">
        <ele>63.22</ele>
        <time>2023-10-22T11:00:04Z</time>
      </trkpt>
      <trkpt lat="47.01129" lon="-1.84521">
        <ele>63.75</ele>
        <time>2023-10-22T11:00:06Z</time>
      </trkpt>
      <trkpt lat="47.01122" lon="-1.84537">
        <ele>64.44</ele>
        <time>2023-10-22T11:00:08Z</time>
      </trkpt>
      <trkpt lat="47.01113" lon="-1.84552">
        <ele>64.8</ele>
        <time>2023-10-22T11:00:10Z</time>
      </trkpt>
      <trkpt lat="47.01103" lon="-1.84566">
        <ele>64.47</ele>
        <time>2023-10-22T11:00:12Z</time>
      </trkpt>
      <trkpt lat="47.01092" lon="-1.8458">
        <ele>65</ele>
        <time>2023-10-22T11:00:14Z</time>
      </trkpt>
      <trkpt lat="47.01081" lon="-1.84593">
        <ele>64.33</ele>
        <time>2023-10-22T11:00:16Z</time>
      </trkpt>
      <trkpt lat="47.01069" lon="-1.84606">
        <ele>63.63</ele>
        <time>2023-10-22T11:00:18Z</time>
      </trkpt>
      <trkpt lat="47.01058" lon="-1.84617">
        <ele>63.13</ele>
        <time>2023-10-22T11:00:20Z</time>
      </trkpt>
      <trkpt lat="47.01047" lon="-1.8463">
        <ele>63.67</ele>
        <time>2023-10-22T11:00:22Z</time>
      </trkpt>
      <trkpt lat="47.01036" lon="-1.84642">
        <ele>63.34</ele>
        <time>2023-10-22T11:00:24Z</time>
      </trkpt>
      <trkpt lat="47.01024" lon="-1.84652">
        <ele>63.96</ele>
        <time>2023-10-22T11:00:26Z</time>
      </trkpt>
      <trkpt lat="47.01012" lon="-1.84662">
        <ele>63.98</ele>
        <time>2023-10-22T11:00:28Z</time>
      </trkpt>
      <trkpt lat="47.00999" lon="-1.84672">
        <ele>63.63</ele>
        <time>2023-10-22T11:00:30Z</time>
      </trkpt>
      <trkpt lat="47.00984" lon="-1.84679">
        <ele>62.95</ele>
        <time>2023-10-22T11:00:32Z</time>
      </trkpt>
      <trkpt lat="47.00972" lon="-1.84685">
        <ele>64.67</ele>
        <time>2023-10-22T11:00:34Z</time>
      </trkpt>
      <trkpt lat="47.00959" lon="-1.84692">
        <ele>64</ele>
        <time>2023-10-22T11:00:36Z</time>
      </trkpt>
      <trkpt lat="47.00946" lon="-1.84699">
        <ele>63.25</ele>
        <time>2023-10-22T11:00:38Z</time>
      </trkpt>
      <trkpt lat="47.00933" lon="-1.84706">
        <ele>63.13</ele>
        <time>2023-10-22T11:00:40Z</time>
      </trkpt>
      <trkpt lat="47.00922" lon="-1.84712">
        <ele>62.65</ele>
        <time>2023-10-22T11:00:42Z</time>
      </trkpt>
      <trkpt lat="47.00912" lon="-1.84717">
        <ele>62.05</ele>
        <time>2023-10-22T11:00:44Z</time>
      </trkpt>
      <trkpt lat="47.00901" lon="-1.84723">
        <ele>61.41</ele>
        <time>2023-10-22T11:00:46Z</time>
      </trkpt>
      <trkpt lat="47.00892" lon="-1.8473">
        <ele>61.11</ele>
        <time>2023-10-22T11:00:48Z</time>
      </trkpt>
      <trkpt lat="47.00884" lon="-1.84739">
        <ele>61.97</ele>
        <time>2023-10-22T11:00:51Z</time>
      </trkpt>
      <trkpt lat="47.00876" lon="-1.84748">
        <ele>61.82</ele>
        <time>2023-10-22T11:00:53Z</time>
      </trkpt>
      <trkpt lat="47.00866" lon="-1.84756">
        <ele>61.12</ele>
        <time>2023-10-22T11:00:55Z</time>
      </trkpt>
      <trkpt lat="47.00855" lon="-1.84763">
        <ele>61.41</ele>
        <time>2023-10-22T11:00:57Z</time>
      </trkpt>
      <trkpt lat="47.00844" lon="-1.84772">
        <ele>61.93</ele>
        <time>2023-10-22T11:00:59Z</time>
      </trkpt>
      <trkpt lat="47.00833" lon="-1.8478">
        <ele>62.62</ele>
        <time>2023-10-22T11:01:01Z</time>
      </trkpt>
      <trkpt lat="47.00821" lon="-1.84787">
        <ele>62.31</ele>
        <time>2023-10-22T11:01:03Z</time>
      </trkpt>
      <trkpt lat="47.00809" lon="-1.84793">
        <ele>62.45</ele>
        <time>2023-10-22T11:01:05Z</time>
      </trkpt>
      <trkpt lat="47.00795" lon="-1.84802">
        <ele>61.04</ele>
        <time>2023-10-22T11:01:07Z</time>
      </trkpt>
      <trkpt lat="47.00782" lon="-1.84809">
        <ele>60.95</ele>
        <time>2023-10-22T11:01:09Z</time>
      </trkpt>
      <trkpt lat="47.00769" lon="-1.84815">
        <ele>60.33</ele>
        <time>2023-10-22T11:01:11Z</time>
      </trkpt>
      <trkpt lat="47.00756" lon="-1.84821">
        <ele>60.29</ele>
        <time>2023-10-22T11:01:13Z</time>
      </trkpt>
      <trkpt lat="47.00744" lon="-1.84827">
        <ele>60.77</ele>
        <time>2023-10-22T11:01:15Z</time>
      </trkpt>
      <trkpt lat="47.00731" lon="-1.84834">
        <ele>61.23</ele>
        <time>2023-10-22T11:01:17Z</time>
      </trkpt>
      <trkpt lat="47.00718" lon="-1.84841">
        <ele>60.22</ele>
        <time>2023-10-22T11:01:19Z</time>
      </trkpt>
      <trkpt lat="47.00706" lon="-1.84848">
        <ele>60.16</ele>
        <time>2023-10-22T11:01:21Z</time>
      </trkpt>
      <trkpt lat="47.00694" lon="-1.84854">
        <ele>60.74</ele>
        <time>2023-10-22T11:01:23Z</time>
      </trkpt>
      <trkpt lat="47.0068" lon="-1.84861">
        <ele>59.76</ele>
        <time>2023-10-22T11:01:25Z</time>
      </trkpt>
      <trkpt lat="47.00667" lon="-1.84868">
        <ele>61.12</ele>
        <time>2023-10-22T11:01:27Z</time>
      </trkpt>
      <trkpt lat="47.00654" lon="-1.84874">
        <ele>60.71</ele>
        <time>2023-10-22T11:01:29Z</time>
      </trkpt>
      <trkpt lat="47.00641" lon="-1.84882">
        <ele>61.33</ele>
        <time>2023-10-22T11:01:31Z</time>
      </trkpt>
      <trkpt lat="47.00629" lon="-1.8489">
        <ele>61.13</ele>
        <time>2023-10-22T11:01:33Z</time>
      </trkpt>
      <trkpt lat="47.00617" lon="-1.84899">
        <ele>60.75</ele>
        <time>2023-10-22T11:01:35Z</time>
      </trkpt>
      <trkpt lat="47.00605" lon="-1.84908">
        <ele>60.57</ele>
        <time>2023-10-22T11:01:37Z</time>
      </trkpt>
      <trkpt lat="47.00594" lon="-1.8492">
        <ele>60.61</ele>
        <time>2023-10-22T11:01:39Z</time>
      </trkpt>
      <trkpt lat="47.00585" lon="-1.84932">
        <ele>60.17</ele>
        <time>2023-10-22T11:01:41Z</time>
      </trkpt>
      <trkpt lat="47.00576" lon="-1.84945">
        <ele>60.11</ele>
        <time>2023-10-22T11:01:43Z</time>
      </trkpt>
      <trkpt lat="47.00565" lon="-1.84958">
        <ele>59.44</ele>
        <time>2023-10-22T11:01:45Z</time>
      </trkpt>
      <trkpt lat="47.00556" lon="-1.8497">
        <ele>60.63</ele>
        <time>2023-10-22T11:01:47Z</time>
      </trkpt>
      <trkpt lat="47.00547" lon="-1.84984">
        <ele>60.67</ele>
        <time>2023-10-22T11:01:49Z</time>
      </trkpt>
      <trkpt lat="47.00537" lon="-1.84997">
        <ele>60.73</ele>
        <time>2023-10-22T11:01:51Z</time>
      </trkpt>
      <trkpt lat="47.00526" lon="-1.8501">
        <ele>60.17</ele>
        <time>2023-10-22T11:01:53Z</time>
      </trkpt>
      <trkpt lat="47.00516" lon="-1.85022">
        <ele>60.06</ele>
        <time>2023-10-22T11:01:55Z</time>
      </trkpt>
      <trkpt lat="47.00506" lon="-1.85034">
        <ele>60.56</ele>
        <time>2023-10-22T11:01:57Z</time>
      </trkpt>
      <trkpt lat="47.00495" lon="-1.85047">
        <ele>59.79</ele>
        <time>2023-10-22T11:01:59Z</time>
      </trkpt>
      <trkpt lat="47.00484" lon="-1.85059">
        <ele>59.4</ele>
        <time>2023-10-22T11:02:01Z</time>
      </trkpt>
      <trkpt lat="47.00473" lon="-1.85069">
        <ele>60.26</ele>
        <time>2023-10-22T11:02:03Z</time>
      </trkpt>
      <trkpt lat="47.00459" lon="-1.85079">
        <ele>58.31</ele>
        <time>2023-10-22T11:02:05Z</time>
      </trkpt>
      <trkpt lat="47.00449" lon="-1.8509">
        <ele>58.97</ele>
        <time>2023-10-22T11:02:07Z</time>
      </trkpt>
      <trkpt lat="47.00438" lon="-1.85098">
        <ele>59.84</ele>
        <time>2023-10-22T11:02:09Z</time>
      </trkpt>
      <trkpt lat="47.00426" lon="-1.85107">
        <ele>59.29</ele>
        <time>2023-10-22T11:02:11Z</time>
      </trkpt>
      <trkpt lat="47.00415" lon="-1.85116">
        <ele>59.45</ele>
        <time>2023-10-22T11:02:13Z</time>
      </trkpt>
      <trkpt lat="47.00403" lon="-1.85125">
        <ele>59.01</ele>
        <time>2023-10-22T11:02:15Z</time>
      </trkpt>
      <trkpt lat="47.00393" lon="-1.85135">
        <ele>59.1</ele>
        <time>2023-10-22T11:02:17Z</time>
      </trkpt>
      <trkpt lat="47.00382" lon="-1.85144">
        <ele>59.14</ele>
        <time>2023-10-22T11:02:19Z</time>
      </trkpt>
      <trkpt lat="47.00371" lon="-1.85155">
        <ele>59.29</ele>
        <time>2023-10-22T11:02:21Z</time>
      </trkpt>
      <trkpt lat="47.00359" lon="-1.85163">
        <ele>59.09</ele>
        <time>2023-10-22T11:02:23Z</time>
      </trkpt>
      <trkpt lat="47.00348" lon="-1.85172">
        <ele>59.25</ele>
        <time>2023-10-22T11:02:25Z</time>
      </trkpt>
      <trkpt lat="47.00337" lon="-1.85182">
        <ele>58.65</ele>
        <time>2023-10-22T11:02:27Z</time>
      </trkpt>
      <trkpt lat="47.00326" lon="-1.85191">
        <ele>58.83</ele>
        <time>2023-10-22T11:02:29Z</time>
      </trkpt>
      <trkpt lat="47.00315" lon="-1.85201">
        <ele>58.78</ele>
        <time>2023-10-22T11:02:31Z</time>
      </trkpt>
      <trkpt lat="47.00304" lon="-1.85212">
        <ele>59.48</ele>
        <time>2023-10-22T11:02:33Z</time>
      </trkpt>
      <trkpt lat="47.00293" lon="-1.8522">
        <ele>59.65</ele>
        <time>2023-10-22T11:02:35Z</time>
      </trkpt>
      <trkpt lat="47.00282" lon="-1.85229">
        <ele>60.11</ele>
        <time>2023-10-22T11:02:37Z</time>
      </trkpt>
      <trkpt lat="47.0027" lon="-1.85238">
        <ele>59.26</ele>
        <time>2023-10-22T11:02:39Z</time>
      </trkpt>
      <trkpt lat="47.00259" lon="-1.85248">
        <ele>59.35</ele>
        <time>2023-10-22T11:02:41Z</time>
      </trkpt>
      <trkpt lat="47.00248" lon="-1.85258">
        <ele>59.46</ele>
        <time>2023-10-22T11:02:43Z</time>
      </trkpt>
      <trkpt lat="47.00237" lon="-1.85269">
        <ele>59.84</ele>
        <time>2023-10-22T11:02:45Z</time>
      </trkpt>
      <trkpt lat="47.00227" lon="-1.8528">
        <ele>59.32</ele>
        <time>2023-10-22T11:02:47Z</time>
      </trkpt>
      <trkpt lat="47.00217" lon="-1.85292">
        <ele>59.14</ele>
        <time>2023-10-22T11:02:49Z</time>
      </trkpt>
      <trkpt lat="47.00209" lon="-1.85308">
        <ele>59.47</ele>
        <time>2023-10-22T11:02:51Z</time>
      </trkpt>
      <trkpt lat="47.00201" lon="-1.85323">
        <ele>59.45</ele>
        <time>2023-10-22T11:02:53Z</time>
      </trkpt>
      <trkpt lat="47.00193" lon="-1.85338">
        <ele>58.92</ele>
        <time>2023-10-22T11:02:55Z</time>
      </trkpt>
      <trkpt lat="47.00186" lon="-1.85353">
        <ele>59.14</ele>
        <time>2023-10-22T11:02:57Z</time>
      </trkpt>
      <trkpt lat="47.00179" lon="-1.85368">
        <ele>59.35</ele>
        <time>2023-10-22T11:02:59Z</time>
      </trkpt>
      <trkpt lat="47.00171" lon="-1.85384">
        <ele>59.9</ele>
        <time>2023-10-22T11:03:01Z</time>
      </trkpt>
      <trkpt lat="47.00163" lon="-1.85397">
        <ele>59.22</ele>
        <time>2023-10-22T11:03:03Z</time>
      </trkpt>
      <trkpt lat="47.00155" lon="-1.85412">
        <ele>58.77</ele>
        <time>2023-10-22T11:03:05Z</time>
      </trkpt>
      <trkpt lat="47.00146" lon="-1.85426">
        <ele>59.53</ele>
        <time>2023-10-22T11:03:07Z</time>
      </trkpt>
      <trkpt lat="47.00135" lon="-1.85438">
        <ele>59.25</ele>
        <time>2023-10-22T11:03:09Z</time>
      </trkpt>
      <trkpt lat="47.00123" lon="-1.85447">
        <ele>59.46</ele>
        <time>2023-10-22T11:03:11Z</time>
      </trkpt>
      <trkpt lat="47.0011" lon="-1.8545">
        <ele>59.71</ele>
        <time>2023-10-22T11:03:13Z</time>
      </trkpt>
      <trkpt lat="47.00097" lon="-1.85448">
        <ele>57.49</ele>
        <time>2023-10-22T11:03:15Z</time>
      </trkpt>
      <trkpt lat="47.00086" lon="-1.85437">
        <ele>57.19</ele>
        <time>2023-10-22T11:03:17Z</time>
      </trkpt>
      <trkpt lat="47.00076" lon="-1.85425">
        <ele>56.56</ele>
        <time>2023-10-22T11:03:19Z</time>
      </trkpt>
      <trkpt lat="47.00067" lon="-1.85412">
        <ele>56.3</ele>
        <time>2023-10-22T11:03:21Z</time>
      </trkpt>
      <trkpt lat="47.00057" lon="-1.85399">
        <ele>56.02</ele>
        <time>2023-10-22T11:03:23Z</time>
      </trkpt>
      <trkpt lat="47.00047" lon="-1.85385">
        <ele>55.59</ele>
        <time>2023-10-22T11:03:25Z</time>
      </trkpt>
      <trkpt lat="47.00034" lon="-1.85376">
        <ele>55.49</ele>
        <time>2023-10-22T11:03:27Z</time>
      </trkpt>
      <trkpt lat="47.00021" lon="-1.85371">
        <ele>55.84</ele>
        <time>2023-10-22T11:03:29Z</time>
      </trkpt>
      <trkpt lat="47.00008" lon="-1.8537">
        <ele>55.9</ele>
        <time>2023-10-22T11:03:31Z</time>
      </trkpt>
      <trkpt lat="46.99994" lon="-1.85367">
        <ele>55.12</ele>
        <time>2023-10-22T11:03:33Z</time>
      </trkpt>
      <trkpt lat="46.99983" lon="-1.8536">
        <ele>55</ele>
        <time>2023-10-22T11:03:35Z</time>
      </trkpt>
      <trkpt lat="46.99975" lon="-1.85343">
        <ele>55.8</ele>
        <time>2023-10-22T11:03:37Z</time>
      </trkpt>
      <trkpt lat="46.99968" lon="-1.85328">
        <ele>55.68</ele>
        <time>2023-10-22T11:03:39Z</time>
      </trkpt>
      <trkpt lat="46.99959" lon="-1.85312">
        <ele>55.16</ele>
        <time>2023-10-22T11:03:41Z</time>
      </trkpt>
      <trkpt lat="46.99951" lon="-1.85294">
        <ele>56.36</ele>
        <time>2023-10-22T11:03:43Z</time>
      </trkpt>
      <trkpt lat="46.99943" lon="-1.8528">
        <ele>56.97</ele>
        <time>2023-10-22T11:03:45Z</time>
      </trkpt>
      <trkpt lat="46.99934" lon="-1.85263">
        <ele>55.98</ele>
        <time>2023-10-22T11:03:47Z</time>
      </trkpt>
      <trkpt lat="46.99927" lon="-1.85245">
        <ele>55.94</ele>
        <time>2023-10-22T11:03:49Z</time>
      </trkpt>
      <trkpt lat="46.99921" lon="-1.85227">
        <ele>55.12</ele>
        <time>2023-10-22T11:03:51Z</time>
      </trkpt>
      <trkpt lat="46.99916" lon="-1.85207">
        <ele>54.63</ele>
        <time>2023-10-22T11:03:53Z</time>
      </trkpt>
      <trkpt lat="46.99913" lon="-1.85186">
        <ele>54.82</ele>
        <time>2023-10-22T11:03:55Z</time>
      </trkpt>
      <trkpt lat="46.9991" lon="-1.85168">
        <ele>55.27</ele>
        <time>2023-10-22T11:03:57Z</time>
      </trkpt>
      <trkpt lat="46.99908" lon="-1.8515">
        <ele>54.46</ele>
        <time>2023-10-22T11:03:59Z</time>
      </trkpt>
      <trkpt lat="46.99906" lon="-1.85132">
        <ele>54.72</ele>
        <time>2023-10-22T11:04:01Z</time>
      </trkpt>
      <trkpt lat="46.99903" lon="-1.85114">
        <ele>54.63</ele>
        <time>2023-10-22T11:04:03Z</time>
      </trkpt>
      <trkpt lat="46.99901" lon="-1.85095">
        <ele>55.12</ele>
        <time>2023-10-22T11:04:05Z</time>
      </trkpt>
      <trkpt lat="46.99899" lon="-1.85077">
        <ele>54.18</ele>
        <time>2023-10-22T11:04:07Z</time>
      </trkpt>
      <trkpt lat="46.99898" lon="-1.85057">
        <ele>54.54</ele>
        <time>2023-10-22T11:04:09Z</time>
      </trkpt>
      <trkpt lat="46.99898" lon="-1.85038">
        <ele>55.01</ele>
        <time>2023-10-22T11:04:11Z</time>
      </trkpt>
      <trkpt lat="46.99896" lon="-1.85019">
        <ele>53.76</ele>
        <time>2023-10-22T11:04:13Z</time>
      </trkpt>
      <trkpt lat="46.99895" lon="-1.85">
        <ele>55.42</ele>
        <time>2023-10-22T11:04:15Z</time>
      </trkpt>
      <trkpt lat="46.99896" lon="-1.84982">
        <ele>55.06</ele>
        <time>2023-10-22T11:04:17Z</time>
      </trkpt>
      <trkpt lat="46.99895" lon="-1.84963">
        <ele>56.63</ele>
        <time>2023-10-22T11:04:19Z</time>
      </trkpt>
      <trkpt lat="46.99894" lon="-1.84946">
        <ele>56.53</ele>
        <time>2023-10-22T11:04:21Z</time>
      </trkpt>
      <trkpt lat="46.99894" lon="-1.84926">
        <ele>57.84</ele>
        <time>2023-10-22T11:04:23Z</time>
      </trkpt>
      <trkpt lat="46.99893" lon="-1.84908">
        <ele>57.2</ele>
        <time>2023-10-22T11:04:25Z</time>
      </trkpt>
      <trkpt lat="46.99892" lon="-1.8489">
        <ele>56.55</ele>
        <time>2023-10-22T11:04:27Z</time>
      </trkpt>
      <trkpt lat="46.9989" lon="-1.8487">
        <ele>56.28</ele>
        <time>2023-10-22T11:04:29Z</time>
      </trkpt>
      <trkpt lat="46.99888" lon="-1.84852">
        <ele>57.42</ele>
        <time>2023-10-22T11:04:31Z</time>
      </trkpt>
      <trkpt lat="46.99884" lon="-1.84834">
        <ele>57.06</ele>
        <time>2023-10-22T11:04:33Z</time>
      </trkpt>
      <trkpt lat="46.9988" lon="-1.84815">
        <ele>57.62</ele>
        <time>2023-10-22T11:04:35Z</time>
      </trkpt>
      <trkpt lat="46.99875" lon="-1.84796">
        <ele>58.06</ele>
        <time>2023-10-22T11:04:37Z</time>
      </trkpt>
      <trkpt lat="46.9987" lon="-1.84779">
        <ele>57.41</ele>
        <time>2023-10-22T11:04:39Z</time>
      </trkpt>
      <trkpt lat="46.99864" lon="-1.84761">
        <ele>58.26</ele>
        <time>2023-10-22T11:04:41Z</time>
      </trkpt>
      <trkpt lat="46.99857" lon="-1.84745">
        <ele>58.04</ele>
        <time>2023-10-22T11:04:43Z</time>
      </trkpt>
      <trkpt lat="46.99851" lon="-1.84728">
        <ele>58.77</ele>
        <time>2023-10-22T11:04:45Z</time>
      </trkpt>
      <trkpt lat="46.99841" lon="-1.84703">
        <ele>59.28</ele>
        <time>2023-10-22T11:04:48Z</time>
      </trkpt>
      <trkpt lat="46.99831" lon="-1.84677">
        <ele>58.99</ele>
        <time>2023-10-22T11:04:51Z</time>
      </trkpt>
      <trkpt lat="46.99825" lon="-1.8466">
        <ele>59.82</ele>
        <time>2023-10-22T11:04:53Z</time>
      </trkpt>
      <trkpt lat="46.99819" lon="-1.84642">
        <ele>59.85</ele>
        <time>2023-10-22T11:04:55Z</time>
      </trkpt>
      <trkpt lat="46.99814" lon="-1.84625">
        <ele>59.46</ele>
        <time>2023-10-22T11:04:57Z</time>
      </trkpt>
      <trkpt lat="46.99808" lon="-1.84596">
        <ele>60.16</ele>
        <time>2023-10-22T11:05:00Z</time>
      </trkpt>
      <trkpt lat="46.99804" lon="-1.8458">
        <ele>60.41</ele>
        <time>2023-10-22T11:05:02Z</time>
      </trkpt>
      <trkpt lat="46.998" lon="-1.84562">
        <ele>60.07</ele>
        <time>2023-10-22T11:05:04Z</time>
      </trkpt>
      <trkpt lat="46.99795" lon="-1.84544">
        <ele>59.66</ele>
        <time>2023-10-22T11:05:06Z</time>
      </trkpt>
      <trkpt lat="46.99792" lon="-1.84525">
        <ele>59.42</ele>
        <time>2023-10-22T11:05:08Z</time>
      </trkpt>
      <trkpt lat="46.99787" lon="-1.84495">
        <ele>58.28</ele>
        <time>2023-10-22T11:05:11Z</time>
      </trkpt>
      <trkpt lat="46.99784" lon="-1.84475">
        <ele>59.24</ele>
        <time>2023-10-22T11:05:13Z</time>
      </trkpt>
      <trkpt lat="46.9978" lon="-1.84456">
        <ele>58.94</ele>
        <time>2023-10-22T11:05:15Z</time>
      </trkpt>
      <trkpt lat="46.99777" lon="-1.84436">
        <ele>59.7</ele>
        <time>2023-10-22T11:05:17Z</time>
      </trkpt>
      <trkpt lat="46.99774" lon="-1.84415">
        <ele>59</ele>
        <time>2023-10-22T11:05:19Z</time>
      </trkpt>
      <trkpt lat="46.9977" lon="-1.84397">
        <ele>59.09</ele>
        <time>2023-10-22T11:05:21Z</time>
      </trkpt>
      <trkpt lat="46.99768" lon="-1.84378">
        <ele>60.51</ele>
        <time>2023-10-22T11:05:23Z</time>
      </trkpt>
      <trkpt lat="46.99764" lon="-1.8436">
        <ele>59.77</ele>
        <time>2023-10-22T11:05:25Z</time>
      </trkpt>
      <trkpt lat="46.99761" lon="-1.84341">
        <ele>60.51</ele>
        <time>2023-10-22T11:05:27Z</time>
      </trkpt>
      <trkpt lat="46.99758" lon="-1.84322">
        <ele>60.81</ele>
        <time>2023-10-22T11:05:29Z</time>
      </trkpt>
      <trkpt lat="46.99756" lon="-1.84302">
        <ele>60.86</ele>
        <time>2023-10-22T11:05:31Z</time>
      </trkpt>
      <trkpt lat="46.99754" lon="-1.84281">
        <ele>61.21</ele>
        <time>2023-10-22T11:05:33Z</time>
      </trkpt>
      <trkpt lat="46.99752" lon="-1.84262">
        <ele>61.76</ele>
        <time>2023-10-22T11:05:35Z</time>
      </trkpt>
      <trkpt lat="46.9975" lon="-1.84243">
        <ele>62.18</ele>
        <time>2023-10-22T11:05:37Z</time>
      </trkpt>
      <trkpt lat="46.99748" lon="-1.84224">
        <ele>62.12</ele>
        <time>2023-10-22T11:05:39Z</time>
      </trkpt>
      <trkpt lat="46.99745" lon="-1.84207">
        <ele>61.78</ele>
        <time>2023-10-22T11:05:41Z</time>
      </trkpt>
      <trkpt lat="46.99737" lon="-1.8419">
        <ele>61.89</ele>
        <time>2023-10-22T11:05:43Z</time>
      </trkpt>
      <trkpt lat="46.99726" lon="-1.84182">
        <ele>62.39</ele>
        <time>2023-10-22T11:05:45Z</time>
      </trkpt>
      <trkpt lat="46.99713" lon="-1.84175">
        <ele>61.87</ele>
        <time>2023-10-22T11:05:47Z</time>
      </trkpt>
      <trkpt lat="46.99702" lon="-1.84169">
        <ele>61.89</ele>
        <time>2023-10-22T11:05:49Z</time>
      </trkpt>
      <trkpt lat="46.9969" lon="-1.8416">
        <ele>62.12</ele>
        <time>2023-10-22T11:05:51Z</time>
      </trkpt>
      <trkpt lat="46.99679" lon="-1.84151">
        <ele>63.18</ele>
        <time>2023-10-22T11:05:53Z</time>
      </trkpt>
      <trkpt lat="46.99668" lon="-1.8414">
        <ele>61.99</ele>
        <time>2023-10-22T11:05:55Z</time>
      </trkpt>
      <trkpt lat="46.99658" lon="-1.84127">
        <ele>62.41</ele>
        <time>2023-10-22T11:05:57Z</time>
      </trkpt>
      <trkpt lat="46.99649" lon="-1.84113">
        <ele>62.29</ele>
        <time>2023-10-22T11:05:59Z</time>
      </trkpt>
      <trkpt lat="46.99641" lon="-1.84098">
        <ele>62.31</ele>
        <time>2023-10-22T11:06:01Z</time>
      </trkpt>
      <trkpt lat="46.99633" lon="-1.84083">
        <ele>61.85</ele>
        <time>2023-10-22T11:06:03Z</time>
      </trkpt>
      <trkpt lat="46.99627" lon="-1.84067">
        <ele>62.02</ele>
        <time>2023-10-22T11:06:05Z</time>
      </trkpt>
      <trkpt lat="46.99622" lon="-1.8405">
        <ele>61.36</ele>
        <time>2023-10-22T11:06:07Z</time>
      </trkpt>
      <trkpt lat="46.99618" lon="-1.84032">
        <ele>61.14</ele>
        <time>2023-10-22T11:06:09Z</time>
      </trkpt>
      <trkpt lat="46.99614" lon="-1.84013">
        <ele>60.67</ele>
        <time>2023-10-22T11:06:11Z</time>
      </trkpt>
      <trkpt lat="46.99611" lon="-1.83993">
        <ele>60.52</ele>
        <time>2023-10-22T11:06:13Z</time>
      </trkpt>
      <trkpt lat="46.99608" lon="-1.83973">
        <ele>60.27</ele>
        <time>2023-10-22T11:06:15Z</time>
      </trkpt>
      <trkpt lat="46.99604" lon="-1.83955">
        <ele>60.31</ele>
        <time>2023-10-22T11:06:17Z</time>
      </trkpt>
      <trkpt lat="46.99596" lon="-1.83937">
        <ele>60.2</ele>
        <time>2023-10-22T11:06:19Z</time>
      </trkpt>
      <trkpt lat="46.99585" lon="-1.83924">
        <ele>60.15</ele>
        <time>2023-10-22T11:06:21Z</time>
      </trkpt>
      <trkpt lat="46.99574" lon="-1.83916">
        <ele>60.81</ele>
        <time>2023-10-22T11:06:23Z</time>
      </trkpt>
      <trkpt lat="46.9956" lon="-1.83909">
        <ele>60.16</ele>
        <time>2023-10-22T11:06:25Z</time>
      </trkpt>
      <trkpt lat="46.99547" lon="-1.83902">
        <ele>59.82</ele>
        <time>2023-10-22T11:06:27Z</time>
      </trkpt>
      <trkpt lat="46.99536" lon="-1.83895">
        <ele>60.73</ele>
        <time>2023-10-22T11:06:29Z</time>
      </trkpt>
      <trkpt lat="46.99524" lon="-1.83888">
        <ele>61.2</ele>
        <time>2023-10-22T11:06:31Z</time>
      </trkpt>
      <trkpt lat="46.99513" lon="-1.83881">
        <ele>60.45</ele>
        <time>2023-10-22T11:06:33Z</time>
      </trkpt>
      <trkpt lat="46.995" lon="-1.83874">
        <ele>59.95</ele>
        <time>2023-10-22T11:06:35Z</time>
      </trkpt>
      <trkpt lat="46.99489" lon="-1.83865">
        <ele>59.49</ele>
        <time>2023-10-22T11:06:37Z</time>
      </trkpt>
      <trkpt lat="46.99479" lon="-1.83853">
        <ele>59.35</ele>
        <time>2023-10-22T11:06:39Z</time>
      </trkpt>
      <trkpt lat="46.99471" lon="-1.83837">
        <ele>59.24</ele>
        <time>2023-10-22T11:06:41Z</time>
      </trkpt>
      <trkpt lat="46.99465" lon="-1.83822">
        <ele>59.36</ele>
        <time>2023-10-22T11:06:43Z</time>
      </trkpt>
      <trkpt lat="46.99458" lon="-1.83806">
        <ele>59.25</ele>
        <time>2023-10-22T11:06:45Z</time>
      </trkpt>
      <trkpt lat="46.9945" lon="-1.8379">
        <ele>59.47</ele>
        <time>2023-10-22T11:06:47Z</time>
      </trkpt>
      <trkpt lat="46.99441" lon="-1.83778">
        <ele>59.96</ele>
        <time>2023-10-22T11:06:49Z</time>
      </trkpt>
      <trkpt lat="46.99429" lon="-1.83771">
        <ele>60.01</ele>
        <time>2023-10-22T11:06:51Z</time>
      </trkpt>
      <trkpt lat="46.99417" lon="-1.83764">
        <ele>60.65</ele>
        <time>2023-10-22T11:06:53Z</time>
      </trkpt>
      <trkpt lat="46.99405" lon="-1.83757">
        <ele>61.53</ele>
        <time>2023-10-22T11:06:55Z</time>
      </trkpt>
      <trkpt lat="46.99394" lon="-1.83749">
        <ele>61.84</ele>
        <time>2023-10-22T11:06:57Z</time>
      </trkpt>
      <trkpt lat="46.99382" lon="-1.83742">
        <ele>61.43</ele>
        <time>2023-10-22T11:06:59Z</time>
      </trkpt>
      <trkpt lat="46.99371" lon="-1.83735">
        <ele>62.05</ele>
        <time>2023-10-22T11:07:01Z</time>
      </trkpt>
      <trkpt lat="46.99359" lon="-1.83728">
        <ele>61.91</ele>
        <time>2023-10-22T11:07:03Z</time>
      </trkpt>
      <trkpt lat="46.99347" lon="-1.83722">
        <ele>61.99</ele>
        <time>2023-10-22T11:07:05Z</time>
      </trkpt>
      <trkpt lat="46.99335" lon="-1.83716">
        <ele>62.27</ele>
        <time>2023-10-22T11:07:07Z</time>
      </trkpt>
      <trkpt lat="46.99324" lon="-1.83706">
        <ele>62.13</ele>
        <time>2023-10-22T11:07:09Z</time>
      </trkpt>
      <trkpt lat="46.99312" lon="-1.83698">
        <ele>62.37</ele>
        <time>2023-10-22T11:07:11Z</time>
      </trkpt>
      <trkpt lat="46.99302" lon="-1.83689">
        <ele>62.75</ele>
        <time>2023-10-22T11:07:13Z</time>
      </trkpt>
      <trkpt lat="46.99291" lon="-1.8368">
        <ele>62.3</ele>
        <time>2023-10-22T11:07:15Z</time>
      </trkpt>
      <trkpt lat="46.99281" lon="-1.83669">
        <ele>62.61</ele>
        <time>2023-10-22T11:07:17Z</time>
      </trkpt>
      <trkpt lat="46.99271" lon="-1.83659">
        <ele>63.35</ele>
        <time>2023-10-22T11:07:19Z</time>
      </trkpt>
      <trkpt lat="46.99263" lon="-1.83647">
        <ele>63.16</ele>
        <time>2023-10-22T11:07:21Z</time>
      </trkpt>
      <trkpt lat="46.99254" lon="-1.83636">
        <ele>64.01</ele>
        <time>2023-10-22T11:07:23Z</time>
      </trkpt>
      <trkpt lat="46.99245" lon="-1.83624">
        <ele>63.52</ele>
        <time>2023-10-22T11:07:25Z</time>
      </trkpt>
      <trkpt lat="46.99236" lon="-1.83612">
        <ele>63.21</ele>
        <time>2023-10-22T11:07:27Z</time>
      </trkpt>
      <trkpt lat="46.99227" lon="-1.83601">
        <ele>62.75</ele>
        <time>2023-10-22T11:07:29Z</time>
      </trkpt>
      <trkpt lat="46.99217" lon="-1.83589">
        <ele>62.45</ele>
        <time>2023-10-22T11:07:31Z</time>
      </trkpt>
      <trkpt lat="46.99208" lon="-1.83577">
        <ele>62.11</ele>
        <time>2023-10-22T11:07:33Z</time>
      </trkpt>
      <trkpt lat="46.99198" lon="-1.83565">
        <ele>61.75</ele>
        <time>2023-10-22T11:07:35Z</time>
      </trkpt>
      <trkpt lat="46.9919" lon="-1.83554">
        <ele>61.73</ele>
        <time>2023-10-22T11:07:37Z</time>
      </trkpt>
      <trkpt lat="46.9918" lon="-1.83543">
        <ele>61.22</ele>
        <time>2023-10-22T11:07:39Z</time>
      </trkpt>
      <trkpt lat="46.99171" lon="-1.83531">
        <ele>60.87</ele>
        <time>2023-10-22T11:07:41Z</time>
      </trkpt>
      <trkpt lat="46.99161" lon="-1.83522">
        <ele>62.1</ele>
        <time>2023-10-22T11:07:43Z</time>
      </trkpt>
      <trkpt lat="46.9915" lon="-1.83515">
        <ele>61.16</ele>
        <time>2023-10-22T11:07:45Z</time>
      </trkpt>
      <trkpt lat="46.99146" lon="-1.835">
        <ele>60.51</ele>
        <time>2023-10-22T11:07:47Z</time>
      </trkpt>
      <trkpt lat="46.99154" lon="-1.83485">
        <ele>61.44</ele>
        <time>2023-10-22T11:07:49Z</time>
      </trkpt>
      <trkpt lat="46.9916" lon="-1.83465">
        <ele>61.38</ele>
        <time>2023-10-22T11:07:51Z</time>
      </trkpt>
      <trkpt lat="46.99165" lon="-1.83443">
        <ele>61.91</ele>
        <time>2023-10-22T11:07:53Z</time>
      </trkpt>
      <trkpt lat="46.99169" lon="-1.8342">
        <ele>61.43</ele>
        <time>2023-10-22T11:07:55Z</time>
      </trkpt>
      <trkpt lat="46.99174" lon="-1.83399">
        <ele>61.01</ele>
        <time>2023-10-22T11:07:57Z</time>
      </trkpt>
      <trkpt lat="46.99179" lon="-1.83378">
        <ele>61.54</ele>
        <time>2023-10-22T11:07:59Z</time>
      </trkpt>
      <trkpt lat="46.99184" lon="-1.83356">
        <ele>60.88</ele>
        <time>2023-10-22T11:08:01Z</time>
      </trkpt>
      <trkpt lat="46.99189" lon="-1.83334">
        <ele>60.92</ele>
        <time>2023-10-22T11:08:03Z</time>
      </trkpt>
      <trkpt lat="46.99193" lon="-1.83312">
        <ele>59.93</ele>
        <time>2023-10-22T11:08:05Z</time>
      </trkpt>
      <trkpt lat="46.99197" lon="-1.83291">
        <ele>60.01</ele>
        <time>2023-10-22T11:08:07Z</time>
      </trkpt>
      <trkpt lat="46.99202" lon="-1.83269">
        <ele>59.97</ele>
        <time>2023-10-22T11:08:09Z</time>
      </trkpt>
      <trkpt lat="46.99207" lon="-1.83246">
        <ele>59.9</ele>
        <time>2023-10-22T11:08:11Z</time>
      </trkpt>
      <trkpt lat="46.99212" lon="-1.83224">
        <ele>60.02</ele>
        <time>2023-10-22T11:08:13Z</time>
      </trkpt>
      <trkpt lat="46.99217" lon="-1.83201">
        <ele>60.12</ele>
        <time>2023-10-22T11:08:15Z</time>
      </trkpt>
      <trkpt lat="46.99222" lon="-1.8318">
        <ele>60.45</ele>
        <time>2023-10-22T11:08:17Z</time>
      </trkpt>
      <trkpt lat="46.99228" lon="-1.83158">
        <ele>60.3</ele>
        <time>2023-10-22T11:08:19Z</time>
      </trkpt>
      <trkpt lat="46.99233" lon="-1.83136">
        <ele>60.23</ele>
        <time>2023-10-22T11:08:21Z</time>
      </trkpt>
      <trkpt lat="46.99237" lon="-1.83113">
        <ele>59.66</ele>
        <time>2023-10-22T11:08:23Z</time>
      </trkpt>
      <trkpt lat="46.99242" lon="-1.8309">
        <ele>59.2</ele>
        <time>2023-10-22T11:08:25Z</time>
      </trkpt>
      <trkpt lat="46.99247" lon="-1.83067">
        <ele>60.31</ele>
        <time>2023-10-22T11:08:27Z</time>
      </trkpt>
      <trkpt lat="46.99252" lon="-1.83046">
        <ele>59.47</ele>
        <time>2023-10-22T11:08:29Z</time>
      </trkpt>
      <trkpt lat="46.99256" lon="-1.83025">
        <ele>59.62</ele>
        <time>2023-10-22T11:08:31Z</time>
      </trkpt>
      <trkpt lat="46.99262" lon="-1.83004">
        <ele>60.18</ele>
        <time>2023-10-22T11:08:33Z</time>
      </trkpt>
      <trkpt lat="46.99265" lon="-1.82982">
        <ele>59.91</ele>
        <time>2023-10-22T11:08:35Z</time>
      </trkpt>
      <trkpt lat="46.99271" lon="-1.82962">
        <ele>60.83</ele>
        <time>2023-10-22T11:08:37Z</time>
      </trkpt>
      <trkpt lat="46.99275" lon="-1.8294">
        <ele>59.35</ele>
        <time>2023-10-22T11:08:39Z</time>
      </trkpt>
      <trkpt lat="46.9928" lon="-1.82918">
        <ele>59.43</ele>
        <time>2023-10-22T11:08:41Z</time>
      </trkpt>
      <trkpt lat="46.99285" lon="-1.82896">
        <ele>61.08</ele>
        <time>2023-10-22T11:08:43Z</time>
      </trkpt>
      <trkpt lat="46.99289" lon="-1.82874">
        <ele>60.48</ele>
        <time>2023-10-22T11:08:45Z</time>
      </trkpt>
      <trkpt lat="46.99294" lon="-1.82852">
        <ele>60.28</ele>
        <time>2023-10-22T11:08:47Z</time>
      </trkpt>
      <trkpt lat="46.99299" lon="-1.82829">
        <ele>59.53</ele>
        <time>2023-10-22T11:08:49Z</time>
      </trkpt>
      <trkpt lat="46.99304" lon="-1.82808">
        <ele>58.9</ele>
        <time>2023-10-22T11:08:51Z</time>
      </trkpt>
      <trkpt lat="46.99309" lon="-1.82786">
        <ele>58.71</ele>
        <time>2023-10-22T11:08:53Z</time>
      </trkpt>
      <trkpt lat="46.99314" lon="-1.82765">
        <ele>58.79</ele>
        <time>2023-10-22T11:08:55Z</time>
      </trkpt>
      <trkpt lat="46.99319" lon="-1.82742">
        <ele>59.38</ele>
        <time>2023-10-22T11:08:57Z</time>
      </trkpt>
      <trkpt lat="46.99324" lon="-1.82721">
        <ele>59.7</ele>
        <time>2023-10-22T11:08:59Z</time>
      </trkpt>
      <trkpt lat="46.99329" lon="-1.827">
        <ele>59.45</ele>
        <time>2023-10-22T11:09:01Z</time>
      </trkpt>
      <trkpt lat="46.99333" lon="-1.8268">
        <ele>58.99</ele>
        <time>2023-10-22T11:09:03Z</time>
      </trkpt>
      <trkpt lat="46.99337" lon="-1.8266">
        <ele>58.15</ele>
        <time>2023-10-22T11:09:05Z</time>
      </trkpt>
      <trkpt lat="46.99342" lon="-1.8264">
        <ele>59.42</ele>
        <time>2023-10-22T11:09:07Z</time>
      </trkpt>
      <trkpt lat="46.99346" lon="-1.82621">
        <ele>58.52</ele>
        <time>2023-10-22T11:09:09Z</time>
      </trkpt>
      <trkpt lat="46.99355" lon="-1.82605">
        <ele>58.83</ele>
        <time>2023-10-22T11:09:11Z</time>
      </trkpt>
      <trkpt lat="46.99362" lon="-1.82589">
        <ele>59.68</ele>
        <time>2023-10-22T11:09:13Z</time>
      </trkpt>
      <trkpt lat="46.99366" lon="-1.8257">
        <ele>60.12</ele>
        <time>2023-10-22T11:09:15Z</time>
      </trkpt>
      <trkpt lat="46.99364" lon="-1.8255">
        <ele>59.63</ele>
        <time>2023-10-22T11:09:17Z</time>
      </trkpt>
      <trkpt lat="46.99359" lon="-1.82532">
        <ele>59.49</ele>
        <time>2023-10-22T11:09:19Z</time>
      </trkpt>
      <trkpt lat="46.99356" lon="-1.82513">
        <ele>60.08</ele>
        <time>2023-10-22T11:09:21Z</time>
      </trkpt>
      <trkpt lat="46.99352" lon="-1.82496">
        <ele>60.15</ele>
        <time>2023-10-22T11:09:23Z</time>
      </trkpt>
      <trkpt lat="46.99347" lon="-1.82479">
        <ele>60.6</ele>
        <time>2023-10-22T11:09:25Z</time>
      </trkpt>
      <trkpt lat="46.99343" lon="-1.8246">
        <ele>60.57</ele>
        <time>2023-10-22T11:09:27Z</time>
      </trkpt>
      <trkpt lat="46.99339" lon="-1.8244">
        <ele>60.66</ele>
        <time>2023-10-22T11:09:29Z</time>
      </trkpt>
      <trkpt lat="46.99335" lon="-1.82422">
        <ele>61.37</ele>
        <time>2023-10-22T11:09:31Z</time>
      </trkpt>
      <trkpt lat="46.99331" lon="-1.82402">
        <ele>61.36</ele>
        <time>2023-10-22T11:09:33Z</time>
      </trkpt>
      <trkpt lat="46.99329" lon="-1.82383">
        <ele>62.12</ele>
        <time>2023-10-22T11:09:35Z</time>
      </trkpt>
      <trkpt lat="46.99327" lon="-1.82364">
        <ele>61.04</ele>
        <time>2023-10-22T11:09:37Z</time>
      </trkpt>
      <trkpt lat="46.99324" lon="-1.82343">
        <ele>60.96</ele>
        <time>2023-10-22T11:09:39Z</time>
      </trkpt>
      <trkpt lat="46.99319" lon="-1.82323">
        <ele>58.98</ele>
        <time>2023-10-22T11:09:41Z</time>
      </trkpt>
      <trkpt lat="46.99316" lon="-1.82301">
        <ele>59.77</ele>
        <time>2023-10-22T11:09:43Z</time>
      </trkpt>
      <trkpt lat="46.99312" lon="-1.82281">
        <ele>60.53</ele>
        <time>2023-10-22T11:09:45Z</time>
      </trkpt>
      <trkpt lat="46.99308" lon="-1.82262">
        <ele>60.05</ele>
        <time>2023-10-22T11:09:47Z</time>
      </trkpt>
      <trkpt lat="46.99303" lon="-1.82247">
        <ele>61.32</ele>
        <time>2023-10-22T11:09:49Z</time>
      </trkpt>
      <trkpt lat="46.99298" lon="-1.82228">
        <ele>60.93</ele>
        <time>2023-10-22T11:09:51Z</time>
      </trkpt>
      <trkpt lat="46.99289" lon="-1.82216">
        <ele>61.88</ele>
        <time>2023-10-22T11:09:53Z</time>
      </trkpt>
      <trkpt lat="46.99277" lon="-1.82215">
        <ele>62.37</ele>
        <time>2023-10-22T11:09:55Z</time>
      </trkpt>
      <trkpt lat="46.99263" lon="-1.82217">
        <ele>62.33</ele>
        <time>2023-10-22T11:09:57Z</time>
      </trkpt>
      <trkpt lat="46.9925" lon="-1.82216">
        <ele>60.94</ele>
        <time>2023-10-22T11:09:59Z</time>
      </trkpt>
      <trkpt lat="46.99235" lon="-1.82215">
        <ele>60.42</ele>
        <time>2023-10-22T11:10:01Z</time>
      </trkpt>
      <trkpt lat="46.99221" lon="-1.82211">
        <ele>59.51</ele>
        <time>2023-10-22T11:10:03Z</time>
      </trkpt>
      <trkpt lat="46.99208" lon="-1.82208">
        <ele>60.08</ele>
        <time>2023-10-22T11:10:05Z</time>
      </trkpt>
      <trkpt lat="46.99196" lon="-1.82203">
        <ele>60.13</ele>
        <time>2023-10-22T11:10:07Z</time>
      </trkpt>
      <trkpt lat="46.99182" lon="-1.82198">
        <ele>61.93</ele>
        <time>2023-10-22T11:10:09Z</time>
      </trkpt>
      <trkpt lat="46.99169" lon="-1.82193">
        <ele>61.6</ele>
        <time>2023-10-22T11:10:11Z</time>
      </trkpt>
      <trkpt lat="46.99155" lon="-1.82187">
        <ele>62.13</ele>
        <time>2023-10-22T11:10:13Z</time>
      </trkpt>
      <trkpt lat="46.99138" lon="-1.82179">
        <ele>61.42</ele>
        <time>2023-10-22T11:10:15Z</time>
      </trkpt>
      <trkpt lat="46.99128" lon="-1.82178">
        <ele>64.97</ele>
        <time>2023-10-22T11:10:17Z</time>
      </trkpt>
      <trkpt lat="46.99118" lon="-1.82177">
        <ele>65.15</ele>
        <time>2023-10-22T11:10:18Z</time>
      </trkpt>
      <trkpt lat="46.99108" lon="-1.8218">
        <ele>65.62</ele>
        <time>2023-10-22T11:10:20Z</time>
      </trkpt>
      <trkpt lat="46.99097" lon="-1.82181">
        <ele>65.34</ele>
        <time>2023-10-22T11:10:22Z</time>
      </trkpt>
      <trkpt lat="46.99091" lon="-1.82172">
        <ele>62.97</ele>
        <time>2023-10-22T11:10:24Z</time>
      </trkpt>
      <trkpt lat="46.9909" lon="-1.82155">
        <ele>61.05</ele>
        <time>2023-10-22T11:10:26Z</time>
      </trkpt>
      <trkpt lat="46.99088" lon="-1.82137">
        <ele>60.02</ele>
        <time>2023-10-22T11:10:28Z</time>
      </trkpt>
      <trkpt lat="46.99086" lon="-1.82118">
        <ele>59.53</ele>
        <time>2023-10-22T11:10:30Z</time>
      </trkpt>
      <trkpt lat="46.99083" lon="-1.82097">
        <ele>58.81</ele>
        <time>2023-10-22T11:10:32Z</time>
      </trkpt>
      <trkpt lat="46.99081" lon="-1.82078">
        <ele>58.98</ele>
        <time>2023-10-22T11:10:34Z</time>
      </trkpt>
      <trkpt lat="46.99082" lon="-1.82057">
        <ele>59.2</ele>
        <time>2023-10-22T11:10:36Z</time>
      </trkpt>
      <trkpt lat="46.99083" lon="-1.82037">
        <ele>58.43</ele>
        <time>2023-10-22T11:10:38Z</time>
      </trkpt>
      <trkpt lat="46.99085" lon="-1.82015">
        <ele>58.43</ele>
        <time>2023-10-22T11:10:40Z</time>
      </trkpt>
      <trkpt lat="46.99086" lon="-1.81994">
        <ele>57.84</ele>
        <time>2023-10-22T11:10:42Z</time>
      </trkpt>
      <trkpt lat="46.99087" lon="-1.81972">
        <ele>57.74</ele>
        <time>2023-10-22T11:10:44Z</time>
      </trkpt>
      <trkpt lat="46.9909" lon="-1.81951">
        <ele>57.58</ele>
        <time>2023-10-22T11:10:46Z</time>
      </trkpt>
      <trkpt lat="46.99092" lon="-1.8193">
        <ele>57.18</ele>
        <time>2023-10-22T11:10:48Z</time>
      </trkpt>
      <trkpt lat="46.99093" lon="-1.81909">
        <ele>57.28</ele>
        <time>2023-10-22T11:10:50Z</time>
      </trkpt>
      <trkpt lat="46.99096" lon="-1.81887">
        <ele>57.76</ele>
        <time>2023-10-22T11:10:52Z</time>
      </trkpt>
      <trkpt lat="46.991" lon="-1.81866">
        <ele>57.53</ele>
        <time>2023-10-22T11:10:54Z</time>
      </trkpt>
      <trkpt lat="46.99104" lon="-1.81849">
        <ele>56.46</ele>
        <time>2023-10-22T11:10:56Z</time>
      </trkpt>
      <trkpt lat="46.9911" lon="-1.81829">
        <ele>57.42</ele>
        <time>2023-10-22T11:10:58Z</time>
      </trkpt>
      <trkpt lat="46.99116" lon="-1.81813">
        <ele>57.64</ele>
        <time>2023-10-22T11:11:00Z</time>
      </trkpt>
      <trkpt lat="46.99126" lon="-1.81802">
        <ele>58.22</ele>
        <time>2023-10-22T11:11:02Z</time>
      </trkpt>
      <trkpt lat="46.99136" lon="-1.81787">
        <ele>57.64</ele>
        <time>2023-10-22T11:11:04Z</time>
      </trkpt>
      <trkpt lat="46.99147" lon="-1.81772">
        <ele>57.36</ele>
        <time>2023-10-22T11:11:06Z</time>
      </trkpt>
      <trkpt lat="46.99157" lon="-1.81759">
        <ele>57.06</ele>
        <time>2023-10-22T11:11:08Z</time>
      </trkpt>
      <trkpt lat="46.99168" lon="-1.81746">
        <ele>56.9</ele>
        <time>2023-10-22T11:11:10Z</time>
      </trkpt>
      <trkpt lat="46.99179" lon="-1.81734">
        <ele>56.77</ele>
        <time>2023-10-22T11:11:12Z</time>
      </trkpt>
      <trkpt lat="46.99188" lon="-1.8172">
        <ele>55.79</ele>
        <time>2023-10-22T11:11:14Z</time>
      </trkpt>
      <trkpt lat="46.99188" lon="-1.81701">
        <ele>56.34</ele>
        <time>2023-10-22T11:11:16Z</time>
      </trkpt>
      <trkpt lat="46.99176" lon="-1.8169">
        <ele>56.21</ele>
        <time>2023-10-22T11:11:18Z</time>
      </trkpt>
      <trkpt lat="46.99165" lon="-1.8168">
        <ele>56.3</ele>
        <time>2023-10-22T11:11:20Z</time>
      </trkpt>
      <trkpt lat="46.99153" lon="-1.8167">
        <ele>56.67</ele>
        <time>2023-10-22T11:11:22Z</time>
      </trkpt>
      <trkpt lat="46.99143" lon="-1.81657">
        <ele>55.88</ele>
        <time>2023-10-22T11:11:24Z</time>
      </trkpt>
      <trkpt lat="46.99133" lon="-1.81646">
        <ele>56.58</ele>
        <time>2023-10-22T11:11:26Z</time>
      </trkpt>
      <trkpt lat="46.99122" lon="-1.81634">
        <ele>58.07</ele>
        <time>2023-10-22T11:11:28Z</time>
      </trkpt>
      <trkpt lat="46.99111" lon="-1.81623">
        <ele>57.98</ele>
        <time>2023-10-22T11:11:30Z</time>
      </trkpt>
      <trkpt lat="46.99103" lon="-1.81611">
        <ele>58.08</ele>
        <time>2023-10-22T11:11:32Z</time>
      </trkpt>
      <trkpt lat="46.99105" lon="-1.81595">
        <ele>58.2</ele>
        <time>2023-10-22T11:11:34Z</time>
      </trkpt>
      <trkpt lat="46.99117" lon="-1.81587">
        <ele>60</ele>
        <time>2023-10-22T11:11:36Z</time>
      </trkpt>
      <trkpt lat="46.9913" lon="-1.8159">
        <ele>61.21</ele>
        <time>2023-10-22T11:11:38Z</time>
      </trkpt>
      <trkpt lat="46.99145" lon="-1.81589">
        <ele>59.68</ele>
        <time>2023-10-22T11:11:40Z</time>
      </trkpt>
      <trkpt lat="46.99158" lon="-1.81592">
        <ele>59.57</ele>
        <time>2023-10-22T11:11:42Z</time>
      </trkpt>
      <trkpt lat="46.99172" lon="-1.81595">
        <ele>60.74</ele>
        <time>2023-10-22T11:11:44Z</time>
      </trkpt>
      <trkpt lat="46.99184" lon="-1.81599">
        <ele>60.12</ele>
        <time>2023-10-22T11:11:46Z</time>
      </trkpt>
      <trkpt lat="46.99197" lon="-1.816">
        <ele>60.05</ele>
        <time>2023-10-22T11:11:48Z</time>
      </trkpt>
      <trkpt lat="46.9921" lon="-1.81601">
        <ele>59.83</ele>
        <time>2023-10-22T11:11:50Z</time>
      </trkpt>
      <trkpt lat="46.99222" lon="-1.81604">
        <ele>60.61</ele>
        <time>2023-10-22T11:11:52Z</time>
      </trkpt>
      <trkpt lat="46.99235" lon="-1.81607">
        <ele>61.58</ele>
        <time>2023-10-22T11:11:54Z</time>
      </trkpt>
      <trkpt lat="46.99248" lon="-1.81599">
        <ele>61.42</ele>
        <time>2023-10-22T11:11:56Z</time>
      </trkpt>
      <trkpt lat="46.99253" lon="-1.81583">
        <ele>62.45</ele>
        <time>2023-10-22T11:11:58Z</time>
      </trkpt>
      <trkpt lat="46.99251" lon="-1.81564">
        <ele>62.05</ele>
        <time>2023-10-22T11:12:00Z</time>
      </trkpt>
      <trkpt lat="46.99248" lon="-1.81545">
        <ele>63.02</ele>
        <time>2023-10-22T11:12:02Z</time>
      </trkpt>
      <trkpt lat="46.99244" lon="-1.81531">
        <ele>62.02</ele>
        <time>2023-10-22T11:12:04Z</time>
      </trkpt>
      <trkpt lat="46.99242" lon="-1.81511">
        <ele>62.36</ele>
        <time>2023-10-22T11:12:06Z</time>
      </trkpt>
      <trkpt lat="46.99242" lon="-1.81491">
        <ele>65.09</ele>
        <time>2023-10-22T11:12:08Z</time>
      </trkpt>
      <trkpt lat="46.99239" lon="-1.8147">
        <ele>63.69</ele>
        <time>2023-10-22T11:12:10Z</time>
      </trkpt>
      <trkpt lat="46.99235" lon="-1.81451">
        <ele>63.04</ele>
        <time>2023-10-22T11:12:12Z</time>
      </trkpt>
      <trkpt lat="46.99235" lon="-1.81428">
        <ele>63.15</ele>
        <time>2023-10-22T11:12:14Z</time>
      </trkpt>
      <trkpt lat="46.99233" lon="-1.81408">
        <ele>64.55</ele>
        <time>2023-10-22T11:12:16Z</time>
      </trkpt>
      <trkpt lat="46.9923" lon="-1.81392">
        <ele>65.31</ele>
        <time>2023-10-22T11:12:18Z</time>
      </trkpt>
      <trkpt lat="46.99227" lon="-1.81369">
        <ele>63.68</ele>
        <time>2023-10-22T11:12:20Z</time>
      </trkpt>
      <trkpt lat="46.99221" lon="-1.81345">
        <ele>61.08</ele>
        <time>2023-10-22T11:12:22Z</time>
      </trkpt>
      <trkpt lat="46.99218" lon="-1.81324">
        <ele>60.12</ele>
        <time>2023-10-22T11:12:24Z</time>
      </trkpt>
      <trkpt lat="46.99215" lon="-1.81303">
        <ele>60.35</ele>
        <time>2023-10-22T11:12:26Z</time>
      </trkpt>
      <trkpt lat="46.99212" lon="-1.81283">
        <ele>59.91</ele>
        <time>2023-10-22T11:12:28Z</time>
      </trkpt>
      <trkpt lat="46.9921" lon="-1.81266">
        <ele>58.59</ele>
        <time>2023-10-22T11:12:29Z</time>
      </trkpt>
      <trkpt lat="46.99207" lon="-1.81248">
        <ele>59.43</ele>
        <time>2023-10-22T11:12:31Z</time>
      </trkpt>
      <trkpt lat="46.99205" lon="-1.81231">
        <ele>61.95</ele>
        <time>2023-10-22T11:12:33Z</time>
      </trkpt>
      <trkpt lat="46.99203" lon="-1.81211">
        <ele>60.86</ele>
        <time>2023-10-22T11:12:35Z</time>
      </trkpt>
      <trkpt lat="46.99202" lon="-1.81189">
        <ele>62.8</ele>
        <time>2023-10-22T11:12:37Z</time>
      </trkpt>
      <trkpt lat="46.99198" lon="-1.81165">
        <ele>62.13</ele>
        <time>2023-10-22T11:12:39Z</time>
      </trkpt>
      <trkpt lat="46.99194" lon="-1.81147">
        <ele>61.17</ele>
        <time>2023-10-22T11:12:41Z</time>
      </trkpt>
      <trkpt lat="46.9919" lon="-1.81126">
        <ele>59.49</ele>
        <time>2023-10-22T11:12:43Z</time>
      </trkpt>
      <trkpt lat="46.99187" lon="-1.81106">
        <ele>58.83</ele>
        <time>2023-10-22T11:12:45Z</time>
      </trkpt>
      <trkpt lat="46.99184" lon="-1.81086">
        <ele>58.9</ele>
        <time>2023-10-22T11:12:47Z</time>
      </trkpt>
      <trkpt lat="46.99182" lon="-1.81067">
        <ele>59.5</ele>
        <time>2023-10-22T11:12:49Z</time>
      </trkpt>
      <trkpt lat="46.99179" lon="-1.81042">
        <ele>57.65</ele>
        <time>2023-10-22T11:12:51Z</time>
      </trkpt>
      <trkpt lat="46.99176" lon="-1.81022">
        <ele>56.45</ele>
        <time>2023-10-22T11:12:53Z</time>
      </trkpt>
      <trkpt lat="46.99173" lon="-1.81">
        <ele>56.46</ele>
        <time>2023-10-22T11:12:55Z</time>
      </trkpt>
      <trkpt lat="46.9917" lon="-1.80982">
        <ele>56.45</ele>
        <time>2023-10-22T11:12:57Z</time>
      </trkpt>
      <trkpt lat="46.99167" lon="-1.80962">
        <ele>56.69</ele>
        <time>2023-10-22T11:12:59Z</time>
      </trkpt>
      <trkpt lat="46.99165" lon="-1.80944">
        <ele>56.63</ele>
        <time>2023-10-22T11:13:01Z</time>
      </trkpt>
      <trkpt lat="46.99164" lon="-1.80927">
        <ele>56.7</ele>
        <time>2023-10-22T11:13:03Z</time>
      </trkpt>
      <trkpt lat="46.99163" lon="-1.80909">
        <ele>55.93</ele>
        <time>2023-10-22T11:13:05Z</time>
      </trkpt>
      <trkpt lat="46.99168" lon="-1.80894">
        <ele>56.11</ele>
        <time>2023-10-22T11:13:07Z</time>
      </trkpt>
      <trkpt lat="46.99182" lon="-1.80885">
        <ele>57.07</ele>
        <time>2023-10-22T11:13:09Z</time>
      </trkpt>
      <trkpt lat="46.99194" lon="-1.80875">
        <ele>57.95</ele>
        <time>2023-10-22T11:13:11Z</time>
      </trkpt>
      <trkpt lat="46.99207" lon="-1.80866">
        <ele>58.3</ele>
        <time>2023-10-22T11:13:13Z</time>
      </trkpt>
      <trkpt lat="46.99222" lon="-1.80857">
        <ele>57.73</ele>
        <time>2023-10-22T11:13:15Z</time>
      </trkpt>
      <trkpt lat="46.99235" lon="-1.80848">
        <ele>57.79</ele>
        <time>2023-10-22T11:13:17Z</time>
      </trkpt>
      <trkpt lat="46.99249" lon="-1.80838">
        <ele>56.96</ele>
        <time>2023-10-22T11:13:19Z</time>
      </trkpt>
      <trkpt lat="46.99262" lon="-1.8083">
        <ele>57.83</ele>
        <time>2023-10-22T11:13:21Z</time>
      </trkpt>
      <trkpt lat="46.99275" lon="-1.80822">
        <ele>56.85</ele>
        <time>2023-10-22T11:13:23Z</time>
      </trkpt>
      <trkpt lat="46.99289" lon="-1.80813">
        <ele>57.96</ele>
        <time>2023-10-22T11:13:25Z</time>
      </trkpt>
      <trkpt lat="46.99303" lon="-1.80804">
        <ele>58.82</ele>
        <time>2023-10-22T11:13:27Z</time>
      </trkpt>
      <trkpt lat="46.99316" lon="-1.80796">
        <ele>59.09</ele>
        <time>2023-10-22T11:13:29Z</time>
      </trkpt>
      <trkpt lat="46.9933" lon="-1.80788">
        <ele>59.31</ele>
        <time>2023-10-22T11:13:31Z</time>
      </trkpt>
      <trkpt lat="46.99344" lon="-1.80779">
        <ele>59</ele>
        <time>2023-10-22T11:13:33Z</time>
      </trkpt>
      <trkpt lat="46.99357" lon="-1.80771">
        <ele>58.64</ele>
        <time>2023-10-22T11:13:35Z</time>
      </trkpt>
      <trkpt lat="46.99371" lon="-1.80762">
        <ele>58.36</ele>
        <time>2023-10-22T11:13:37Z</time>
      </trkpt>
      <trkpt lat="46.99384" lon="-1.80755">
        <ele>58.64</ele>
        <time>2023-10-22T11:13:39Z</time>
      </trkpt>
      <trkpt lat="46.99398" lon="-1.80747">
        <ele>58.4</ele>
        <time>2023-10-22T11:13:41Z</time>
      </trkpt>
      <trkpt lat="46.99418" lon="-1.80733">
        <ele>57.65</ele>
        <time>2023-10-22T11:13:44Z</time>
      </trkpt>
      <trkpt lat="46.99432" lon="-1.80725">
        <ele>57.84</ele>
        <time>2023-10-22T11:13:46Z</time>
      </trkpt>
      <trkpt lat="46.99445" lon="-1.80716">
        <ele>57.69</ele>
        <time>2023-10-22T11:13:48Z</time>
      </trkpt>
      <trkpt lat="46.99458" lon="-1.80707">
        <ele>57.12</ele>
        <time>2023-10-22T11:13:50Z</time>
      </trkpt>
      <trkpt lat="46.99469" lon="-1.807">
        <ele>57.41</ele>
        <time>2023-10-22T11:13:52Z</time>
      </trkpt>
      <trkpt lat="46.99476" lon="-1.80688">
        <ele>57.5</ele>
        <time>2023-10-22T11:13:55Z</time>
      </trkpt>
      <trkpt lat="46.99479" lon="-1.80671">
        <ele>58.41</ele>
        <time>2023-10-22T11:14:03Z</time>
      </trkpt>
      <trkpt lat="46.99486" lon="-1.80661">
        <ele>57.95</ele>
        <time>2023-10-22T11:14:05Z</time>
      </trkpt>
      <trkpt lat="46.99496" lon="-1.80657">
        <ele>58.22</ele>
        <time>2023-10-22T11:14:07Z</time>
      </trkpt>
      <trkpt lat="46.99508" lon="-1.80654">
        <ele>57.7</ele>
        <time>2023-10-22T11:14:09Z</time>
      </trkpt>
      <trkpt lat="46.99519" lon="-1.80646">
        <ele>57.42</ele>
        <time>2023-10-22T11:14:11Z</time>
      </trkpt>
      <trkpt lat="46.99528" lon="-1.80636">
        <ele>57.65</ele>
        <time>2023-10-22T11:14:13Z</time>
      </trkpt>
      <trkpt lat="46.99536" lon="-1.80627">
        <ele>57.6</ele>
        <time>2023-10-22T11:14:16Z</time>
      </trkpt>
      <trkpt lat="46.99544" lon="-1.80616">
        <ele>58.43</ele>
        <time>2023-10-22T11:16:12Z</time>
      </trkpt>
      <trkpt lat="46.99555" lon="-1.80603">
        <ele>56.93</ele>
        <time>2023-10-22T11:16:15Z</time>
      </trkpt>
      <trkpt lat="46.99568" lon="-1.80593">
        <ele>59.32</ele>
        <time>2023-10-22T11:16:17Z</time>
      </trkpt>
      <trkpt lat="46.99571" lon="-1.80587">
        <ele>59.44</ele>
        <time>2023-10-22T11:16:18Z</time>
      </trkpt>
      <trkpt lat="46.99578" lon="-1.80578">
        <ele>59.18</ele>
        <time>2023-10-22T11:16:20Z</time>
      </trkpt>
      <trkpt lat="46.99587" lon="-1.80567">
        <ele>58.38</ele>
        <time>2023-10-22T11:16:22Z</time>
      </trkpt>
      <trkpt lat="46.99595" lon="-1.80557">
        <ele>58.4</ele>
        <time>2023-10-22T11:16:24Z</time>
      </trkpt>
      <trkpt lat="46.99604" lon="-1.80546">
        <ele>59.4</ele>
        <time>2023-10-22T11:16:26Z</time>
      </trkpt>
      <trkpt lat="46.99612" lon="-1.80534">
        <ele>59.25</ele>
        <time>2023-10-22T11:16:28Z</time>
      </trkpt>
      <trkpt lat="46.99622" lon="-1.80521">
        <ele>58.71</ele>
        <time>2023-10-22T11:16:30Z</time>
      </trkpt>
      <trkpt lat="46.99632" lon="-1.80507">
        <ele>58.38</ele>
        <time>2023-10-22T11:16:32Z</time>
      </trkpt>
      <trkpt lat="46.99641" lon="-1.80496">
        <ele>59.01</ele>
        <time>2023-10-22T11:16:34Z</time>
      </trkpt>
      <trkpt lat="46.99652" lon="-1.80483">
        <ele>58.69</ele>
        <time>2023-10-22T11:16:36Z</time>
      </trkpt>
      <trkpt lat="46.99664" lon="-1.80466">
        <ele>58.49</ele>
        <time>2023-10-22T11:16:38Z</time>
      </trkpt>
      <trkpt lat="46.99676" lon="-1.80451">
        <ele>58.48</ele>
        <time>2023-10-22T11:16:40Z</time>
      </trkpt>
      <trkpt lat="46.99686" lon="-1.80439">
        <ele>58.53</ele>
        <time>2023-10-22T11:16:42Z</time>
      </trkpt>
      <trkpt lat="46.99697" lon="-1.80425">
        <ele>59.45</ele>
        <time>2023-10-22T11:16:44Z</time>
      </trkpt>
      <trkpt lat="46.99707" lon="-1.80412">
        <ele>59.56</ele>
        <time>2023-10-22T11:16:46Z</time>
      </trkpt>
      <trkpt lat="46.99717" lon="-1.80399">
        <ele>60.39</ele>
        <time>2023-10-22T11:16:48Z</time>
      </trkpt>
      <trkpt lat="46.99726" lon="-1.80385">
        <ele>60.3</ele>
        <time>2023-10-22T11:16:50Z</time>
      </trkpt>
      <trkpt lat="46.99737" lon="-1.80372">
        <ele>60.02</ele>
        <time>2023-10-22T11:16:52Z</time>
      </trkpt>
      <trkpt lat="46.99747" lon="-1.80359">
        <ele>60.54</ele>
        <time>2023-10-22T11:16:54Z</time>
      </trkpt>
      <trkpt lat="46.99758" lon="-1.80346">
        <ele>61.49</ele>
        <time>2023-10-22T11:16:56Z</time>
      </trkpt>
      <trkpt lat="46.99768" lon="-1.80334">
        <ele>60.8</ele>
        <time>2023-10-22T11:16:58Z</time>
      </trkpt>
      <trkpt lat="46.99778" lon="-1.80319">
        <ele>61.56</ele>
        <time>2023-10-22T11:17:00Z</time>
      </trkpt>
      <trkpt lat="46.9979" lon="-1.80306">
        <ele>62.15</ele>
        <time>2023-10-22T11:17:02Z</time>
      </trkpt>
      <trkpt lat="46.998" lon="-1.80293">
        <ele>62.7</ele>
        <time>2023-10-22T11:17:04Z</time>
      </trkpt>
      <trkpt lat="46.99811" lon="-1.80279">
        <ele>62.4</ele>
        <time>2023-10-22T11:17:06Z</time>
      </trkpt>
      <trkpt lat="46.99821" lon="-1.80267">
        <ele>63.78</ele>
        <time>2023-10-22T11:17:08Z</time>
      </trkpt>
      <trkpt lat="46.99831" lon="-1.80252">
        <ele>63.85</ele>
        <time>2023-10-22T11:17:10Z</time>
      </trkpt>
      <trkpt lat="46.9984" lon="-1.80238">
        <ele>63.7</ele>
        <time>2023-10-22T11:17:12Z</time>
      </trkpt>
      <trkpt lat="46.99849" lon="-1.80221">
        <ele>63.55</ele>
        <time>2023-10-22T11:17:14Z</time>
      </trkpt>
      <trkpt lat="46.99858" lon="-1.80205">
        <ele>63.46</ele>
        <time>2023-10-22T11:17:16Z</time>
      </trkpt>
      <trkpt lat="46.99867" lon="-1.80189">
        <ele>62.82</ele>
        <time>2023-10-22T11:17:18Z</time>
      </trkpt>
      <trkpt lat="46.99875" lon="-1.80172">
        <ele>62.78</ele>
        <time>2023-10-22T11:17:20Z</time>
      </trkpt>
      <trkpt lat="46.99884" lon="-1.80155">
        <ele>63.01</ele>
        <time>2023-10-22T11:17:22Z</time>
      </trkpt>
      <trkpt lat="46.99892" lon="-1.80138">
        <ele>63.43</ele>
        <time>2023-10-22T11:17:24Z</time>
      </trkpt>
      <trkpt lat="46.999" lon="-1.8012">
        <ele>62.62</ele>
        <time>2023-10-22T11:17:26Z</time>
      </trkpt>
      <trkpt lat="46.99907" lon="-1.80103">
        <ele>62.26</ele>
        <time>2023-10-22T11:17:28Z</time>
      </trkpt>
      <trkpt lat="46.99915" lon="-1.80085">
        <ele>63.07</ele>
        <time>2023-10-22T11:17:30Z</time>
      </trkpt>
      <trkpt lat="46.99923" lon="-1.80068">
        <ele>62.78</ele>
        <time>2023-10-22T11:17:32Z</time>
      </trkpt>
      <trkpt lat="46.99932" lon="-1.8005">
        <ele>62.64</ele>
        <time>2023-10-22T11:17:34Z</time>
      </trkpt>
      <trkpt lat="46.9994" lon="-1.80035">
        <ele>63.33</ele>
        <time>2023-10-22T11:17:36Z</time>
      </trkpt>
      <trkpt lat="46.9995" lon="-1.80019">
        <ele>62.9</ele>
        <time>2023-10-22T11:17:38Z</time>
      </trkpt>
      <trkpt lat="46.9996" lon="-1.80006">
        <ele>63.2</ele>
        <time>2023-10-22T11:17:40Z</time>
      </trkpt>
      <trkpt lat="46.99972" lon="-1.79994">
        <ele>63.02</ele>
        <time>2023-10-22T11:17:42Z</time>
      </trkpt>
      <trkpt lat="46.99984" lon="-1.79983">
        <ele>62.72</ele>
        <time>2023-10-22T11:17:44Z</time>
      </trkpt>
      <trkpt lat="46.99996" lon="-1.79972">
        <ele>61.3</ele>
        <time>2023-10-22T11:17:46Z</time>
      </trkpt>
      <trkpt lat="47.00009" lon="-1.79963">
        <ele>61.21</ele>
        <time>2023-10-22T11:17:48Z</time>
      </trkpt>
      <trkpt lat="47.00021" lon="-1.79953">
        <ele>61.2</ele>
        <time>2023-10-22T11:17:50Z</time>
      </trkpt>
      <trkpt lat="47.00035" lon="-1.79941">
        <ele>60.76</ele>
        <time>2023-10-22T11:17:52Z</time>
      </trkpt>
      <trkpt lat="47.00048" lon="-1.79932">
        <ele>60.68</ele>
        <time>2023-10-22T11:17:54Z</time>
      </trkpt>
      <trkpt lat="47.00061" lon="-1.79922">
        <ele>60.27</ele>
        <time>2023-10-22T11:17:56Z</time>
      </trkpt>
      <trkpt lat="47.00075" lon="-1.79912">
        <ele>60.15</ele>
        <time>2023-10-22T11:17:58Z</time>
      </trkpt>
      <trkpt lat="47.0009" lon="-1.79901">
        <ele>60.87</ele>
        <time>2023-10-22T11:18:00Z</time>
      </trkpt>
      <trkpt lat="47.00102" lon="-1.79887">
        <ele>59.82</ele>
        <time>2023-10-22T11:18:02Z</time>
      </trkpt>
      <trkpt lat="47.00113" lon="-1.79874">
        <ele>59.34</ele>
        <time>2023-10-22T11:18:04Z</time>
      </trkpt>
      <trkpt lat="47.00125" lon="-1.79858">
        <ele>58.76</ele>
        <time>2023-10-22T11:18:06Z</time>
      </trkpt>
      <trkpt lat="47.00134" lon="-1.7984">
        <ele>57.62</ele>
        <time>2023-10-22T11:18:08Z</time>
      </trkpt>
      <trkpt lat="47.00142" lon="-1.79823">
        <ele>58.15</ele>
        <time>2023-10-22T11:18:10Z</time>
      </trkpt>
      <trkpt lat="47.00148" lon="-1.79804">
        <ele>58.48</ele>
        <time>2023-10-22T11:18:12Z</time>
      </trkpt>
      <trkpt lat="47.00154" lon="-1.79786">
        <ele>57.92</ele>
        <time>2023-10-22T11:18:14Z</time>
      </trkpt>
      <trkpt lat="47.0016" lon="-1.79764">
        <ele>57.25</ele>
        <time>2023-10-22T11:18:16Z</time>
      </trkpt>
      <trkpt lat="47.00166" lon="-1.79745">
        <ele>57.36</ele>
        <time>2023-10-22T11:18:18Z</time>
      </trkpt>
      <trkpt lat="47.00172" lon="-1.79727">
        <ele>56.56</ele>
        <time>2023-10-22T11:18:20Z</time>
      </trkpt>
      <trkpt lat="47.00178" lon="-1.79709">
        <ele>56.33</ele>
        <time>2023-10-22T11:18:22Z</time>
      </trkpt>
      <trkpt lat="47.00184" lon="-1.79686">
        <ele>54.29</ele>
        <time>2023-10-22T11:18:24Z</time>
      </trkpt>
      <trkpt lat="47.0019" lon="-1.79668">
        <ele>53.79</ele>
        <time>2023-10-22T11:18:26Z</time>
      </trkpt>
      <trkpt lat="47.00194" lon="-1.79656">
        <ele>52.77</ele>
        <time>2023-10-22T11:18:27Z</time>
      </trkpt>
      <trkpt lat="47.00199" lon="-1.79637">
        <ele>54.69</ele>
        <time>2023-10-22T11:18:29Z</time>
      </trkpt>
      <trkpt lat="47.00206" lon="-1.79615">
        <ele>53.73</ele>
        <time>2023-10-22T11:18:31Z</time>
      </trkpt>
      <trkpt lat="47.00213" lon="-1.79596">
        <ele>53.23</ele>
        <time>2023-10-22T11:18:33Z</time>
      </trkpt>
      <trkpt lat="47.00219" lon="-1.79577">
        <ele>53.55</ele>
        <time>2023-10-22T11:18:35Z</time>
      </trkpt>
      <trkpt lat="47.00224" lon="-1.79557">
        <ele>54.5</ele>
        <time>2023-10-22T11:18:37Z</time>
      </trkpt>
      <trkpt lat="47.00229" lon="-1.7954">
        <ele>55.39</ele>
        <time>2023-10-22T11:18:39Z</time>
      </trkpt>
      <trkpt lat="47.00234" lon="-1.79521">
        <ele>56.08</ele>
        <time>2023-10-22T11:18:41Z</time>
      </trkpt>
      <trkpt lat="47.0024" lon="-1.79501">
        <ele>55.36</ele>
        <time>2023-10-22T11:18:43Z</time>
      </trkpt>
      <trkpt lat="47.00246" lon="-1.79482">
        <ele>55.82</ele>
        <time>2023-10-22T11:18:45Z</time>
      </trkpt>
      <trkpt lat="47.00251" lon="-1.79462">
        <ele>55.71</ele>
        <time>2023-10-22T11:18:47Z</time>
      </trkpt>
      <trkpt lat="47.00256" lon="-1.79442">
        <ele>56.42</ele>
        <time>2023-10-22T11:18:49Z</time>
      </trkpt>
      <trkpt lat="47.00262" lon="-1.79422">
        <ele>56.53</ele>
        <time>2023-10-22T11:18:51Z</time>
      </trkpt>
      <trkpt lat="47.00267" lon="-1.79403">
        <ele>56.98</ele>
        <time>2023-10-22T11:18:53Z</time>
      </trkpt>
      <trkpt lat="47.00273" lon="-1.79383">
        <ele>57.73</ele>
        <time>2023-10-22T11:18:55Z</time>
      </trkpt>
      <trkpt lat="47.00279" lon="-1.79363">
        <ele>57.92</ele>
        <time>2023-10-22T11:18:57Z</time>
      </trkpt>
      <trkpt lat="47.00284" lon="-1.79342">
        <ele>58.31</ele>
        <time>2023-10-22T11:18:59Z</time>
      </trkpt>
      <trkpt lat="47.00286" lon="-1.79322">
        <ele>58.03</ele>
        <time>2023-10-22T11:19:01Z</time>
      </trkpt>
      <trkpt lat="47.00289" lon="-1.79301">
        <ele>58.35</ele>
        <time>2023-10-22T11:19:03Z</time>
      </trkpt>
      <trkpt lat="47.00293" lon="-1.79279">
        <ele>59.01</ele>
        <time>2023-10-22T11:19:05Z</time>
      </trkpt>
      <trkpt lat="47.00296" lon="-1.79258">
        <ele>59.28</ele>
        <time>2023-10-22T11:19:07Z</time>
      </trkpt>
      <trkpt lat="47.00299" lon="-1.79238">
        <ele>59.31</ele>
        <time>2023-10-22T11:19:09Z</time>
      </trkpt>
      <trkpt lat="47.00302" lon="-1.79218">
        <ele>59.53</ele>
        <time>2023-10-22T11:19:11Z</time>
      </trkpt>
      <trkpt lat="47.00306" lon="-1.79199">
        <ele>59.26</ele>
        <time>2023-10-22T11:19:13Z</time>
      </trkpt>
      <trkpt lat="47.0031" lon="-1.7918">
        <ele>59.17</ele>
        <time>2023-10-22T11:19:15Z</time>
      </trkpt>
      <trkpt lat="47.00314" lon="-1.7916">
        <ele>59.25</ele>
        <time>2023-10-22T11:19:17Z</time>
      </trkpt>
      <trkpt lat="47.00319" lon="-1.79139">
        <ele>60.02</ele>
        <time>2023-10-22T11:19:19Z</time>
      </trkpt>
      <trkpt lat="47.00324" lon="-1.79119">
        <ele>59.7</ele>
        <time>2023-10-22T11:19:21Z</time>
      </trkpt>
      <trkpt lat="47.0033" lon="-1.79099">
        <ele>59.28</ele>
        <time>2023-10-22T11:19:23Z</time>
      </trkpt>
      <trkpt lat="47.00336" lon="-1.79078">
        <ele>58.81</ele>
        <time>2023-10-22T11:19:25Z</time>
      </trkpt>
      <trkpt lat="47.00341" lon="-1.79059">
        <ele>57.87</ele>
        <time>2023-10-22T11:19:27Z</time>
      </trkpt>
      <trkpt lat="47.00347" lon="-1.79038">
        <ele>57.6</ele>
        <time>2023-10-22T11:19:29Z</time>
      </trkpt>
      <trkpt lat="47.00352" lon="-1.79017">
        <ele>57.91</ele>
        <time>2023-10-22T11:19:31Z</time>
      </trkpt>
      <trkpt lat="47.00357" lon="-1.78997">
        <ele>58.19</ele>
        <time>2023-10-22T11:19:33Z</time>
      </trkpt>
      <trkpt lat="47.00362" lon="-1.78976">
        <ele>58.7</ele>
        <time>2023-10-22T11:19:35Z</time>
      </trkpt>
      <trkpt lat="47.00367" lon="-1.78957">
        <ele>59.34</ele>
        <time>2023-10-22T11:19:37Z</time>
      </trkpt>
      <trkpt lat="47.00371" lon="-1.78935">
        <ele>59.3</ele>
        <time>2023-10-22T11:19:39Z</time>
      </trkpt>
      <trkpt lat="47.00376" lon="-1.78915">
        <ele>60.58</ele>
        <time>2023-10-22T11:19:41Z</time>
      </trkpt>
      <trkpt lat="47.00381" lon="-1.78895">
        <ele>61.48</ele>
        <time>2023-10-22T11:19:43Z</time>
      </trkpt>
      <trkpt lat="47.00384" lon="-1.78874">
        <ele>61.25</ele>
        <time>2023-10-22T11:19:45Z</time>
      </trkpt>
      <trkpt lat="47.00389" lon="-1.78854">
        <ele>61.56</ele>
        <time>2023-10-22T11:19:47Z</time>
      </trkpt>
      <trkpt lat="47.00394" lon="-1.78835">
        <ele>61.18</ele>
        <time>2023-10-22T11:19:49Z</time>
      </trkpt>
      <trkpt lat="47.00397" lon="-1.78815">
        <ele>60.36</ele>
        <time>2023-10-22T11:19:51Z</time>
      </trkpt>
      <trkpt lat="47.004" lon="-1.78792">
        <ele>60.72</ele>
        <time>2023-10-22T11:19:53Z</time>
      </trkpt>
      <trkpt lat="47.00403" lon="-1.78771">
        <ele>59.57</ele>
        <time>2023-10-22T11:19:55Z</time>
      </trkpt>
      <trkpt lat="47.00407" lon="-1.78749">
        <ele>59.54</ele>
        <time>2023-10-22T11:19:57Z</time>
      </trkpt>
      <trkpt lat="47.0041" lon="-1.78728">
        <ele>59.49</ele>
        <time>2023-10-22T11:19:59Z</time>
      </trkpt>
      <trkpt lat="47.00412" lon="-1.78707">
        <ele>59.56</ele>
        <time>2023-10-22T11:20:01Z</time>
      </trkpt>
      <trkpt lat="47.00415" lon="-1.78685">
        <ele>59.13</ele>
        <time>2023-10-22T11:20:03Z</time>
      </trkpt>
      <trkpt lat="47.00417" lon="-1.78664">
        <ele>58.26</ele>
        <time>2023-10-22T11:20:05Z</time>
      </trkpt>
      <trkpt lat="47.00419" lon="-1.78644">
        <ele>57.52</ele>
        <time>2023-10-22T11:20:07Z</time>
      </trkpt>
      <trkpt lat="47.00422" lon="-1.7863">
        <ele>57.93</ele>
        <time>2023-10-22T11:20:08Z</time>
      </trkpt>
      <trkpt lat="47.00425" lon="-1.78608">
        <ele>57.83</ele>
        <time>2023-10-22T11:20:10Z</time>
      </trkpt>
      <trkpt lat="47.00428" lon="-1.78584">
        <ele>57.7</ele>
        <time>2023-10-22T11:20:12Z</time>
      </trkpt>
      <trkpt lat="47.0043" lon="-1.78565">
        <ele>56.44</ele>
        <time>2023-10-22T11:20:14Z</time>
      </trkpt>
      <trkpt lat="47.00434" lon="-1.78542">
        <ele>57.07</ele>
        <time>2023-10-22T11:20:16Z</time>
      </trkpt>
      <trkpt lat="47.00437" lon="-1.78522">
        <ele>56.08</ele>
        <time>2023-10-22T11:20:18Z</time>
      </trkpt>
      <trkpt lat="47.00439" lon="-1.78502">
        <ele>56.47</ele>
        <time>2023-10-22T11:20:20Z</time>
      </trkpt>
      <trkpt lat="47.00443" lon="-1.78481">
        <ele>56.87</ele>
        <time>2023-10-22T11:20:22Z</time>
      </trkpt>
      <trkpt lat="47.00446" lon="-1.7846">
        <ele>56.15</ele>
        <time>2023-10-22T11:20:24Z</time>
      </trkpt>
      <trkpt lat="47.0045" lon="-1.7844">
        <ele>55.42</ele>
        <time>2023-10-22T11:20:26Z</time>
      </trkpt>
      <trkpt lat="47.00456" lon="-1.78419">
        <ele>55.71</ele>
        <time>2023-10-22T11:20:28Z</time>
      </trkpt>
      <trkpt lat="47.0046" lon="-1.78398">
        <ele>55.92</ele>
        <time>2023-10-22T11:20:30Z</time>
      </trkpt>
      <trkpt lat="47.00467" lon="-1.78378">
        <ele>56.53</ele>
        <time>2023-10-22T11:20:32Z</time>
      </trkpt>
      <trkpt lat="47.00472" lon="-1.78358">
        <ele>56.71</ele>
        <time>2023-10-22T11:20:34Z</time>
      </trkpt>
      <trkpt lat="47.00477" lon="-1.78337">
        <ele>56.03</ele>
        <time>2023-10-22T11:20:36Z</time>
      </trkpt>
      <trkpt lat="47.00483" lon="-1.78317">
        <ele>56.74</ele>
        <time>2023-10-22T11:20:38Z</time>
      </trkpt>
      <trkpt lat="47.00487" lon="-1.78296">
        <ele>56.2</ele>
        <time>2023-10-22T11:20:40Z</time>
      </trkpt>
      <trkpt lat="47.00492" lon="-1.78276">
        <ele>56.44</ele>
        <time>2023-10-22T11:20:42Z</time>
      </trkpt>
      <trkpt lat="47.00496" lon="-1.78256">
        <ele>57.8</ele>
        <time>2023-10-22T11:20:44Z</time>
      </trkpt>
      <trkpt lat="47.00501" lon="-1.7824">
        <ele>58.49</ele>
        <time>2023-10-22T11:20:46Z</time>
      </trkpt>
      <trkpt lat="47.00506" lon="-1.7822">
        <ele>58.33</ele>
        <time>2023-10-22T11:20:48Z</time>
      </trkpt>
      <trkpt lat="47.00512" lon="-1.782">
        <ele>59.03</ele>
        <time>2023-10-22T11:20:50Z</time>
      </trkpt>
      <trkpt lat="47.00517" lon="-1.78178">
        <ele>58.39</ele>
        <time>2023-10-22T11:20:52Z</time>
      </trkpt>
      <trkpt lat="47.00522" lon="-1.78158">
        <ele>59.05</ele>
        <time>2023-10-22T11:20:54Z</time>
      </trkpt>
      <trkpt lat="47.00527" lon="-1.78137">
        <ele>59.04</ele>
        <time>2023-10-22T11:20:56Z</time>
      </trkpt>
      <trkpt lat="47.00532" lon="-1.78118">
        <ele>59.56</ele>
        <time>2023-10-22T11:20:58Z</time>
      </trkpt>
      <trkpt lat="47.00537" lon="-1.78097">
        <ele>59.32</ele>
        <time>2023-10-22T11:21:00Z</time>
      </trkpt>
      <trkpt lat="47.00541" lon="-1.78078">
        <ele>59.12</ele>
        <time>2023-10-22T11:21:02Z</time>
      </trkpt>
      <trkpt lat="47.00547" lon="-1.78058">
        <ele>59.16</ele>
        <time>2023-10-22T11:21:04Z</time>
      </trkpt>
      <trkpt lat="47.00552" lon="-1.78037">
        <ele>58.32</ele>
        <time>2023-10-22T11:21:06Z</time>
      </trkpt>
      <trkpt lat="47.00557" lon="-1.78018">
        <ele>57.93</ele>
        <time>2023-10-22T11:21:08Z</time>
      </trkpt>
      <trkpt lat="47.00562" lon="-1.77997">
        <ele>58.57</ele>
        <time>2023-10-22T11:21:10Z</time>
      </trkpt>
      <trkpt lat="47.00567" lon="-1.77975">
        <ele>59.26</ele>
        <time>2023-10-22T11:21:12Z</time>
      </trkpt>
      <trkpt lat="47.00572" lon="-1.77954">
        <ele>59.74</ele>
        <time>2023-10-22T11:21:14Z</time>
      </trkpt>
      <trkpt lat="47.00578" lon="-1.77935">
        <ele>61.15</ele>
        <time>2023-10-22T11:21:16Z</time>
      </trkpt>
      <trkpt lat="47.00582" lon="-1.77917">
        <ele>60.87</ele>
        <time>2023-10-22T11:21:18Z</time>
      </trkpt>
      <trkpt lat="47.00587" lon="-1.77899">
        <ele>61.25</ele>
        <time>2023-10-22T11:21:20Z</time>
      </trkpt>
      <trkpt lat="47.00593" lon="-1.77878">
        <ele>62.02</ele>
        <time>2023-10-22T11:21:22Z</time>
      </trkpt>
      <trkpt lat="47.00596" lon="-1.77858">
        <ele>62.07</ele>
        <time>2023-10-22T11:21:24Z</time>
      </trkpt>
      <trkpt lat="47.006" lon="-1.77846">
        <ele>61.62</ele>
        <time>2023-10-22T11:21:25Z</time>
      </trkpt>
      <trkpt lat="47.00604" lon="-1.77827">
        <ele>62.12</ele>
        <time>2023-10-22T11:21:27Z</time>
      </trkpt>
      <trkpt lat="47.00608" lon="-1.77809">
        <ele>61.82</ele>
        <time>2023-10-22T11:21:29Z</time>
      </trkpt>
      <trkpt lat="47.00613" lon="-1.77791">
        <ele>59.91</ele>
        <time>2023-10-22T11:21:31Z</time>
      </trkpt>
      <trkpt lat="47.00617" lon="-1.77773">
        <ele>59.22</ele>
        <time>2023-10-22T11:21:33Z</time>
      </trkpt>
      <trkpt lat="47.00623" lon="-1.77752">
        <ele>58.7</ele>
        <time>2023-10-22T11:21:35Z</time>
      </trkpt>
      <trkpt lat="47.00629" lon="-1.77731">
        <ele>60.23</ele>
        <time>2023-10-22T11:21:37Z</time>
      </trkpt>
      <trkpt lat="47.00634" lon="-1.77711">
        <ele>58.95</ele>
        <time>2023-10-22T11:21:39Z</time>
      </trkpt>
      <trkpt lat="47.00637" lon="-1.77692">
        <ele>57.87</ele>
        <time>2023-10-22T11:21:41Z</time>
      </trkpt>
      <trkpt lat="47.00642" lon="-1.77672">
        <ele>58.31</ele>
        <time>2023-10-22T11:21:43Z</time>
      </trkpt>
      <trkpt lat="47.00647" lon="-1.77653">
        <ele>59.81</ele>
        <time>2023-10-22T11:21:45Z</time>
      </trkpt>
      <trkpt lat="47.00652" lon="-1.77634">
        <ele>60.8</ele>
        <time>2023-10-22T11:21:47Z</time>
      </trkpt>
      <trkpt lat="47.00656" lon="-1.77613">
        <ele>60.23</ele>
        <time>2023-10-22T11:21:49Z</time>
      </trkpt>
      <trkpt lat="47.00661" lon="-1.77595">
        <ele>60.73</ele>
        <time>2023-10-22T11:21:51Z</time>
      </trkpt>
      <trkpt lat="47.00665" lon="-1.77577">
        <ele>61.59</ele>
        <time>2023-10-22T11:21:53Z</time>
      </trkpt>
      <trkpt lat="47.0067" lon="-1.77557">
        <ele>61.92</ele>
        <time>2023-10-22T11:21:55Z</time>
      </trkpt>
      <trkpt lat="47.00674" lon="-1.7754">
        <ele>60.91</ele>
        <time>2023-10-22T11:21:57Z</time>
      </trkpt>
      <trkpt lat="47.00679" lon="-1.77522">
        <ele>60.24</ele>
        <time>2023-10-22T11:21:59Z</time>
      </trkpt>
      <trkpt lat="47.00686" lon="-1.77504">
        <ele>60.07</ele>
        <time>2023-10-22T11:22:01Z</time>
      </trkpt>
      <trkpt lat="47.00693" lon="-1.77486">
        <ele>60.52</ele>
        <time>2023-10-22T11:22:03Z</time>
      </trkpt>
      <trkpt lat="47.00699" lon="-1.7747">
        <ele>60.89</ele>
        <time>2023-10-22T11:22:05Z</time>
      </trkpt>
      <trkpt lat="47.00705" lon="-1.77452">
        <ele>60.04</ele>
        <time>2023-10-22T11:22:07Z</time>
      </trkpt>
      <trkpt lat="47.00711" lon="-1.77437">
        <ele>61.44</ele>
        <time>2023-10-22T11:22:09Z</time>
      </trkpt>
      <trkpt lat="47.00716" lon="-1.77423">
        <ele>62.41</ele>
        <time>2023-10-22T11:22:11Z</time>
      </trkpt>
      <trkpt lat="47.00718" lon="-1.77409">
        <ele>63.42</ele>
        <time>2023-10-22T11:22:13Z</time>
      </trkpt>
      <trkpt lat="47.00721" lon="-1.77394">
        <ele>63.64</ele>
        <time>2023-10-22T11:22:15Z</time>
      </trkpt>
      <trkpt lat="47.00729" lon="-1.7738">
        <ele>64.2</ele>
        <time>2023-10-22T11:22:17Z</time>
      </trkpt>
      <trkpt lat="47.00737" lon="-1.77366">
        <ele>63.75</ele>
        <time>2023-10-22T11:22:19Z</time>
      </trkpt>
      <trkpt lat="47.00745" lon="-1.77351">
        <ele>63.81</ele>
        <time>2023-10-22T11:22:21Z</time>
      </trkpt>
      <trkpt lat="47.00753" lon="-1.77343">
        <ele>62.86</ele>
        <time>2023-10-22T11:22:22Z</time>
      </trkpt>
      <trkpt lat="47.00762" lon="-1.7733">
        <ele>63.45</ele>
        <time>2023-10-22T11:22:24Z</time>
      </trkpt>
      <trkpt lat="47.00775" lon="-1.77319">
        <ele>64.41</ele>
        <time>2023-10-22T11:22:26Z</time>
      </trkpt>
      <trkpt lat="47.00785" lon="-1.77312">
        <ele>64.2</ele>
        <time>2023-10-22T11:22:28Z</time>
      </trkpt>
      <trkpt lat="47.00797" lon="-1.77306">
        <ele>64.23</ele>
        <time>2023-10-22T11:22:30Z</time>
      </trkpt>
      <trkpt lat="47.00809" lon="-1.77297">
        <ele>65.21</ele>
        <time>2023-10-22T11:22:32Z</time>
      </trkpt>
      <trkpt lat="47.00821" lon="-1.77291">
        <ele>65.18</ele>
        <time>2023-10-22T11:22:34Z</time>
      </trkpt>
      <trkpt lat="47.00832" lon="-1.77287">
        <ele>66.65</ele>
        <time>2023-10-22T11:22:36Z</time>
      </trkpt>
      <trkpt lat="47.00847" lon="-1.77277">
        <ele>65.11</ele>
        <time>2023-10-22T11:22:38Z</time>
      </trkpt>
      <trkpt lat="47.00856" lon="-1.77271">
        <ele>67.83</ele>
        <time>2023-10-22T11:22:40Z</time>
      </trkpt>
      <trkpt lat="47.00866" lon="-1.77263">
        <ele>69.75</ele>
        <time>2023-10-22T11:22:42Z</time>
      </trkpt>
      <trkpt lat="47.00877" lon="-1.77254">
        <ele>68.25</ele>
        <time>2023-10-22T11:22:44Z</time>
      </trkpt>
      <trkpt lat="47.00885" lon="-1.77247">
        <ele>67.11</ele>
        <time>2023-10-22T11:22:45Z</time>
      </trkpt>
      <trkpt lat="47.00904" lon="-1.77228">
        <ele>66.76</ele>
        <time>2023-10-22T11:22:48Z</time>
      </trkpt>
      <trkpt lat="47.00914" lon="-1.77216">
        <ele>66.79</ele>
        <time>2023-10-22T11:22:50Z</time>
      </trkpt>
      <trkpt lat="47.00923" lon="-1.77206">
        <ele>67.84</ele>
        <time>2023-10-22T11:22:52Z</time>
      </trkpt>
      <trkpt lat="47.00939" lon="-1.7719">
        <ele>66.34</ele>
        <time>2023-10-22T11:22:55Z</time>
      </trkpt>
      <trkpt lat="47.00948" lon="-1.77179">
        <ele>65.69</ele>
        <time>2023-10-22T11:22:57Z</time>
      </trkpt>
      <trkpt lat="47.00956" lon="-1.77169">
        <ele>65.11</ele>
        <time>2023-10-22T11:22:59Z</time>
      </trkpt>
      <trkpt lat="47.0097" lon="-1.77155">
        <ele>65.73</ele>
        <time>2023-10-22T11:23:02Z</time>
      </trkpt>
      <trkpt lat="47.0098" lon="-1.77145">
        <ele>64.74</ele>
        <time>2023-10-22T11:23:04Z</time>
      </trkpt>
      <trkpt lat="47.00991" lon="-1.77133">
        <ele>64.65</ele>
        <time>2023-10-22T11:23:06Z</time>
      </trkpt>
      <trkpt lat="47.01002" lon="-1.77121">
        <ele>64.81</ele>
        <time>2023-10-22T11:23:08Z</time>
      </trkpt>
      <trkpt lat="47.01013" lon="-1.77109">
        <ele>64.59</ele>
        <time>2023-10-22T11:23:10Z</time>
      </trkpt>
      <trkpt lat="47.01023" lon="-1.77098">
        <ele>64.95</ele>
        <time>2023-10-22T11:23:12Z</time>
      </trkpt>
      <trkpt lat="47.01034" lon="-1.77085">
        <ele>65.2</ele>
        <time>2023-10-22T11:23:14Z</time>
      </trkpt>
      <trkpt lat="47.01045" lon="-1.77072">
        <ele>65.09</ele>
        <time>2023-10-22T11:23:16Z</time>
      </trkpt>
      <trkpt lat="47.01058" lon="-1.77059">
        <ele>65.59</ele>
        <time>2023-10-22T11:23:18Z</time>
      </trkpt>
      <trkpt lat="47.01068" lon="-1.77046">
        <ele>66.29</ele>
        <time>2023-10-22T11:23:20Z</time>
      </trkpt>
      <trkpt lat="47.01079" lon="-1.77035">
        <ele>65.9</ele>
        <time>2023-10-22T11:23:22Z</time>
      </trkpt>
      <trkpt lat="47.01088" lon="-1.77022">
        <ele>65.6</ele>
        <time>2023-10-22T11:23:24Z</time>
      </trkpt>
      <trkpt lat="47.01098" lon="-1.77012">
        <ele>66.9</ele>
        <time>2023-10-22T11:23:26Z</time>
      </trkpt>
      <trkpt lat="47.01108" lon="-1.77">
        <ele>67.11</ele>
        <time>2023-10-22T11:23:28Z</time>
      </trkpt>
      <trkpt lat="47.01118" lon="-1.76988">
        <ele>68.16</ele>
        <time>2023-10-22T11:23:30Z</time>
      </trkpt>
      <trkpt lat="47.01126" lon="-1.76979">
        <ele>67.71</ele>
        <time>2023-10-22T11:23:31Z</time>
      </trkpt>
      <trkpt lat="47.01136" lon="-1.76969">
        <ele>69.78</ele>
        <time>2023-10-22T11:23:33Z</time>
      </trkpt>
      <trkpt lat="47.01146" lon="-1.76958">
        <ele>70.76</ele>
        <time>2023-10-22T11:23:35Z</time>
      </trkpt>
      <trkpt lat="47.01156" lon="-1.76947">
        <ele>73.06</ele>
        <time>2023-10-22T11:23:37Z</time>
      </trkpt>
      <trkpt lat="47.01167" lon="-1.76934">
        <ele>71.89</ele>
        <time>2023-10-22T11:23:39Z</time>
      </trkpt>
      <trkpt lat="47.01177" lon="-1.76922">
        <ele>71.77</ele>
        <time>2023-10-22T11:23:41Z</time>
      </trkpt>
      <trkpt lat="47.01187" lon="-1.76911">
        <ele>71.5</ele>
        <time>2023-10-22T11:23:43Z</time>
      </trkpt>
      <trkpt lat="47.01198" lon="-1.76901">
        <ele>71.32</ele>
        <time>2023-10-22T11:23:45Z</time>
      </trkpt>
      <trkpt lat="47.01208" lon="-1.7689">
        <ele>72.06</ele>
        <time>2023-10-22T11:23:47Z</time>
      </trkpt>
      <trkpt lat="47.01219" lon="-1.76881">
        <ele>73.51</ele>
        <time>2023-10-22T11:23:49Z</time>
      </trkpt>
      <trkpt lat="47.0123" lon="-1.76871">
        <ele>74.26</ele>
        <time>2023-10-22T11:23:51Z</time>
      </trkpt>
      <trkpt lat="47.01241" lon="-1.76863">
        <ele>75.34</ele>
        <time>2023-10-22T11:23:53Z</time>
      </trkpt>
      <trkpt lat="47.01251" lon="-1.76855">
        <ele>76.46</ele>
        <time>2023-10-22T11:23:55Z</time>
      </trkpt>
      <trkpt lat="47.01264" lon="-1.76844">
        <ele>76.16</ele>
        <time>2023-10-22T11:23:57Z</time>
      </trkpt>
      <trkpt lat="47.01275" lon="-1.76832">
        <ele>77.2</ele>
        <time>2023-10-22T11:23:59Z</time>
      </trkpt>
      <trkpt lat="47.01285" lon="-1.7682">
        <ele>77.12</ele>
        <time>2023-10-22T11:24:01Z</time>
      </trkpt>
      <trkpt lat="47.01295" lon="-1.76807">
        <ele>78.16</ele>
        <time>2023-10-22T11:24:03Z</time>
      </trkpt>
      <trkpt lat="47.01304" lon="-1.76794">
        <ele>77.87</ele>
        <time>2023-10-22T11:24:05Z</time>
      </trkpt>
      <trkpt lat="47.01312" lon="-1.76781">
        <ele>78.09</ele>
        <time>2023-10-22T11:24:07Z</time>
      </trkpt>
      <trkpt lat="47.01321" lon="-1.76767">
        <ele>77.47</ele>
        <time>2023-10-22T11:24:09Z</time>
      </trkpt>
      <trkpt lat="47.0133" lon="-1.76753">
        <ele>77.45</ele>
        <time>2023-10-22T11:24:11Z</time>
      </trkpt>
      <trkpt lat="47.01338" lon="-1.76739">
        <ele>77.85</ele>
        <time>2023-10-22T11:24:13Z</time>
      </trkpt>
      <trkpt lat="47.01346" lon="-1.76724">
        <ele>78.72</ele>
        <time>2023-10-22T11:24:15Z</time>
      </trkpt>
      <trkpt lat="47.01354" lon="-1.76708">
        <ele>79.08</ele>
        <time>2023-10-22T11:24:17Z</time>
      </trkpt>
      <trkpt lat="47.0136" lon="-1.7669">
        <ele>78.61</ele>
        <time>2023-10-22T11:24:19Z</time>
      </trkpt>
      <trkpt lat="47.01365" lon="-1.7667">
        <ele>78.11</ele>
        <time>2023-10-22T11:24:21Z</time>
      </trkpt>
      <trkpt lat="47.01369" lon="-1.76651">
        <ele>78.96</ele>
        <time>2023-10-22T11:24:23Z</time>
      </trkpt>
      <trkpt lat="47.01373" lon="-1.76631">
        <ele>78.88</ele>
        <time>2023-10-22T11:24:25Z</time>
      </trkpt>
      <trkpt lat="47.01377" lon="-1.76611">
        <ele>78.73</ele>
        <time>2023-10-22T11:24:27Z</time>
      </trkpt>
      <trkpt lat="47.01381" lon="-1.76592">
        <ele>77.92</ele>
        <time>2023-10-22T11:24:29Z</time>
      </trkpt>
      <trkpt lat="47.01385" lon="-1.76571">
        <ele>77.97</ele>
        <time>2023-10-22T11:24:31Z</time>
      </trkpt>
      <trkpt lat="47.01389" lon="-1.76551">
        <ele>77.45</ele>
        <time>2023-10-22T11:24:33Z</time>
      </trkpt>
      <trkpt lat="47.01393" lon="-1.76533">
        <ele>76.98</ele>
        <time>2023-10-22T11:24:35Z</time>
      </trkpt>
      <trkpt lat="47.01398" lon="-1.76514">
        <ele>76.93</ele>
        <time>2023-10-22T11:24:37Z</time>
      </trkpt>
      <trkpt lat="47.01403" lon="-1.76496">
        <ele>76.68</ele>
        <time>2023-10-22T11:24:39Z</time>
      </trkpt>
      <trkpt lat="47.01409" lon="-1.76478">
        <ele>76.34</ele>
        <time>2023-10-22T11:24:41Z</time>
      </trkpt>
      <trkpt lat="47.01417" lon="-1.7646">
        <ele>75.44</ele>
        <time>2023-10-22T11:24:43Z</time>
      </trkpt>
      <trkpt lat="47.01425" lon="-1.76442">
        <ele>75.01</ele>
        <time>2023-10-22T11:24:45Z</time>
      </trkpt>
      <trkpt lat="47.01434" lon="-1.76423">
        <ele>74.78</ele>
        <time>2023-10-22T11:24:47Z</time>
      </trkpt>
      <trkpt lat="47.01443" lon="-1.76406">
        <ele>73.96</ele>
        <time>2023-10-22T11:24:49Z</time>
      </trkpt>
      <trkpt lat="47.01452" lon="-1.76388">
        <ele>72.45</ele>
        <time>2023-10-22T11:24:51Z</time>
      </trkpt>
      <trkpt lat="47.01461" lon="-1.76368">
        <ele>72.44</ele>
        <time>2023-10-22T11:24:53Z</time>
      </trkpt>
      <trkpt lat="47.01471" lon="-1.76351">
        <ele>71.59</ele>
        <time>2023-10-22T11:24:55Z</time>
      </trkpt>
      <trkpt lat="47.01479" lon="-1.76332">
        <ele>68.97</ele>
        <time>2023-10-22T11:24:57Z</time>
      </trkpt>
      <trkpt lat="47.01482" lon="-1.76309">
        <ele>68.42</ele>
        <time>2023-10-22T11:24:59Z</time>
      </trkpt>
      <trkpt lat="47.01478" lon="-1.76288">
        <ele>69.91</ele>
        <time>2023-10-22T11:25:01Z</time>
      </trkpt>
      <trkpt lat="47.0147" lon="-1.76269">
        <ele>69.87</ele>
        <time>2023-10-22T11:25:03Z</time>
      </trkpt>
      <trkpt lat="47.01463" lon="-1.76247">
        <ele>70.27</ele>
        <time>2023-10-22T11:25:05Z</time>
      </trkpt>
      <trkpt lat="47.01455" lon="-1.76225">
        <ele>70.52</ele>
        <time>2023-10-22T11:25:07Z</time>
      </trkpt>
      <trkpt lat="47.01448" lon="-1.76206">
        <ele>71.38</ele>
        <time>2023-10-22T11:25:09Z</time>
      </trkpt>
      <trkpt lat="47.0144" lon="-1.76189">
        <ele>71.32</ele>
        <time>2023-10-22T11:25:11Z</time>
      </trkpt>
      <trkpt lat="47.01431" lon="-1.76172">
        <ele>71.54</ele>
        <time>2023-10-22T11:25:13Z</time>
      </trkpt>
      <trkpt lat="47.01422" lon="-1.76153">
        <ele>70.59</ele>
        <time>2023-10-22T11:25:15Z</time>
      </trkpt>
      <trkpt lat="47.0142" lon="-1.76139">
        <ele>72.13</ele>
        <time>2023-10-22T11:25:16Z</time>
      </trkpt>
      <trkpt lat="47.01412" lon="-1.76121">
        <ele>70.8</ele>
        <time>2023-10-22T11:25:18Z</time>
      </trkpt>
      <trkpt lat="47.01404" lon="-1.76104">
        <ele>71.18</ele>
        <time>2023-10-22T11:25:20Z</time>
      </trkpt>
      <trkpt lat="47.01398" lon="-1.76085">
        <ele>72.33</ele>
        <time>2023-10-22T11:25:22Z</time>
      </trkpt>
      <trkpt lat="47.01391" lon="-1.76067">
        <ele>74.13</ele>
        <time>2023-10-22T11:25:24Z</time>
      </trkpt>
      <trkpt lat="47.01384" lon="-1.76045">
        <ele>75.42</ele>
        <time>2023-10-22T11:25:26Z</time>
      </trkpt>
      <trkpt lat="47.01381" lon="-1.76031">
        <ele>76.88</ele>
        <time>2023-10-22T11:25:27Z</time>
      </trkpt>
      <trkpt lat="47.01374" lon="-1.76007">
        <ele>74.5</ele>
        <time>2023-10-22T11:25:29Z</time>
      </trkpt>
      <trkpt lat="47.01363" lon="-1.75991">
        <ele>71.65</ele>
        <time>2023-10-22T11:25:31Z</time>
      </trkpt>
      <trkpt lat="47.01359" lon="-1.75978">
        <ele>71.23</ele>
        <time>2023-10-22T11:25:32Z</time>
      </trkpt>
      <trkpt lat="47.01352" lon="-1.75961">
        <ele>71.25</ele>
        <time>2023-10-22T11:25:34Z</time>
      </trkpt>
      <trkpt lat="47.01344" lon="-1.75946">
        <ele>71.16</ele>
        <time>2023-10-22T11:25:36Z</time>
      </trkpt>
      <trkpt lat="47.01336" lon="-1.75929">
        <ele>71.7</ele>
        <time>2023-10-22T11:25:38Z</time>
      </trkpt>
      <trkpt lat="47.01328" lon="-1.75909">
        <ele>70.51</ele>
        <time>2023-10-22T11:25:40Z</time>
      </trkpt>
      <trkpt lat="47.01321" lon="-1.75889">
        <ele>71.69</ele>
        <time>2023-10-22T11:25:42Z</time>
      </trkpt>
      <trkpt lat="47.01312" lon="-1.75872">
        <ele>71.1</ele>
        <time>2023-10-22T11:25:44Z</time>
      </trkpt>
      <trkpt lat="47.01305" lon="-1.75854">
        <ele>70.35</ele>
        <time>2023-10-22T11:25:46Z</time>
      </trkpt>
      <trkpt lat="47.01297" lon="-1.75835">
        <ele>71.34</ele>
        <time>2023-10-22T11:25:48Z</time>
      </trkpt>
      <trkpt lat="47.01287" lon="-1.75812">
        <ele>68.85</ele>
        <time>2023-10-22T11:25:50Z</time>
      </trkpt>
      <trkpt lat="47.01278" lon="-1.75794">
        <ele>68.98</ele>
        <time>2023-10-22T11:25:52Z</time>
      </trkpt>
      <trkpt lat="47.01275" lon="-1.75781">
        <ele>67.43</ele>
        <time>2023-10-22T11:25:53Z</time>
      </trkpt>
      <trkpt lat="47.01269" lon="-1.75762">
        <ele>68.05</ele>
        <time>2023-10-22T11:25:55Z</time>
      </trkpt>
      <trkpt lat="47.01263" lon="-1.75741">
        <ele>68.16</ele>
        <time>2023-10-22T11:25:57Z</time>
      </trkpt>
      <trkpt lat="47.01261" lon="-1.75728">
        <ele>67.92</ele>
        <time>2023-10-22T11:25:58Z</time>
      </trkpt>
      <trkpt lat="47.01253" lon="-1.75711">
        <ele>66.98</ele>
        <time>2023-10-22T11:26:00Z</time>
      </trkpt>
      <trkpt lat="47.01248" lon="-1.75694">
        <ele>67.18</ele>
        <time>2023-10-22T11:26:02Z</time>
      </trkpt>
      <trkpt lat="47.01238" lon="-1.75677">
        <ele>65.9</ele>
        <time>2023-10-22T11:26:04Z</time>
      </trkpt>
      <trkpt lat="47.01231" lon="-1.75661">
        <ele>67.65</ele>
        <time>2023-10-22T11:26:06Z</time>
      </trkpt>
      <trkpt lat="47.01224" lon="-1.75642">
        <ele>67.36</ele>
        <time>2023-10-22T11:26:08Z</time>
      </trkpt>
      <trkpt lat="47.01218" lon="-1.75625">
        <ele>67.06</ele>
        <time>2023-10-22T11:26:10Z</time>
      </trkpt>
      <trkpt lat="47.01211" lon="-1.75609">
        <ele>66.85</ele>
        <time>2023-10-22T11:26:12Z</time>
      </trkpt>
      <trkpt lat="47.01208" lon="-1.75595">
        <ele>70.71</ele>
        <time>2023-10-22T11:26:15Z</time>
      </trkpt>
      <trkpt lat="47.01203" lon="-1.75577">
        <ele>71.18</ele>
        <time>2023-10-22T11:26:18Z</time>
      </trkpt>
      <trkpt lat="47.01199" lon="-1.75558">
        <ele>69.43</ele>
        <time>2023-10-22T11:26:20Z</time>
      </trkpt>
      <trkpt lat="47.0119" lon="-1.7554">
        <ele>67.63</ele>
        <time>2023-10-22T11:26:22Z</time>
      </trkpt>
      <trkpt lat="47.01185" lon="-1.75524">
        <ele>70.87</ele>
        <time>2023-10-22T11:26:24Z</time>
      </trkpt>
      <trkpt lat="47.01178" lon="-1.75507">
        <ele>71.47</ele>
        <time>2023-10-22T11:26:26Z</time>
      </trkpt>
      <trkpt lat="47.01169" lon="-1.75493">
        <ele>73.43</ele>
        <time>2023-10-22T11:26:28Z</time>
      </trkpt>
      <trkpt lat="47.01163" lon="-1.75478">
        <ele>76.82</ele>
        <time>2023-10-22T11:26:30Z</time>
      </trkpt>
      <trkpt lat="47.01153" lon="-1.75461">
        <ele>76.27</ele>
        <time>2023-10-22T11:26:32Z</time>
      </trkpt>
      <trkpt lat="47.01146" lon="-1.75445">
        <ele>77.05</ele>
        <time>2023-10-22T11:26:34Z</time>
      </trkpt>
      <trkpt lat="47.01141" lon="-1.75428">
        <ele>78.13</ele>
        <time>2023-10-22T11:26:36Z</time>
      </trkpt>
      <trkpt lat="47.01135" lon="-1.75412">
        <ele>78.41</ele>
        <time>2023-10-22T11:26:38Z</time>
      </trkpt>
      <trkpt lat="47.01128" lon="-1.75395">
        <ele>79.42</ele>
        <time>2023-10-22T11:26:40Z</time>
      </trkpt>
      <trkpt lat="47.01123" lon="-1.75376">
        <ele>82.01</ele>
        <time>2023-10-22T11:26:42Z</time>
      </trkpt>
      <trkpt lat="47.01114" lon="-1.75358">
        <ele>81.5</ele>
        <time>2023-10-22T11:26:44Z</time>
      </trkpt>
      <trkpt lat="47.01107" lon="-1.75343">
        <ele>80.06</ele>
        <time>2023-10-22T11:26:46Z</time>
      </trkpt>
      <trkpt lat="47.01097" lon="-1.75328">
        <ele>79.71</ele>
        <time>2023-10-22T11:26:49Z</time>
      </trkpt>
      <trkpt lat="47.01088" lon="-1.75307">
        <ele>77.2</ele>
        <time>2023-10-22T11:26:51Z</time>
      </trkpt>
      <trkpt lat="47.01084" lon="-1.75296">
        <ele>76.56</ele>
        <time>2023-10-22T11:26:52Z</time>
      </trkpt>
      <trkpt lat="47.01076" lon="-1.75277">
        <ele>74.34</ele>
        <time>2023-10-22T11:26:54Z</time>
      </trkpt>
      <trkpt lat="47.01068" lon="-1.75259">
        <ele>74.48</ele>
        <time>2023-10-22T11:26:56Z</time>
      </trkpt>
      <trkpt lat="47.01062" lon="-1.75241">
        <ele>75.91</ele>
        <time>2023-10-22T11:26:58Z</time>
      </trkpt>
      <trkpt lat="47.01056" lon="-1.75221">
        <ele>76.25</ele>
        <time>2023-10-22T11:27:00Z</time>
      </trkpt>
      <trkpt lat="47.01052" lon="-1.75202">
        <ele>75.68</ele>
        <time>2023-10-22T11:27:02Z</time>
      </trkpt>
      <trkpt lat="47.01051" lon="-1.75181">
        <ele>77.68</ele>
        <time>2023-10-22T11:27:04Z</time>
      </trkpt>
      <trkpt lat="47.01047" lon="-1.75161">
        <ele>75.12</ele>
        <time>2023-10-22T11:27:06Z</time>
      </trkpt>
      <trkpt lat="47.01045" lon="-1.75139">
        <ele>73.98</ele>
        <time>2023-10-22T11:27:08Z</time>
      </trkpt>
      <trkpt lat="47.01045" lon="-1.75119">
        <ele>75.92</ele>
        <time>2023-10-22T11:27:10Z</time>
      </trkpt>
      <trkpt lat="47.01045" lon="-1.75099">
        <ele>77.37</ele>
        <time>2023-10-22T11:27:12Z</time>
      </trkpt>
      <trkpt lat="47.01045" lon="-1.75078">
        <ele>76.86</ele>
        <time>2023-10-22T11:27:14Z</time>
      </trkpt>
      <trkpt lat="47.01044" lon="-1.75057">
        <ele>75.92</ele>
        <time>2023-10-22T11:27:16Z</time>
      </trkpt>
      <trkpt lat="47.01044" lon="-1.75036">
        <ele>75.37</ele>
        <time>2023-10-22T11:27:18Z</time>
      </trkpt>
      <trkpt lat="47.01043" lon="-1.75015">
        <ele>74.66</ele>
        <time>2023-10-22T11:27:20Z</time>
      </trkpt>
      <trkpt lat="47.01043" lon="-1.74995">
        <ele>76.05</ele>
        <time>2023-10-22T11:27:22Z</time>
      </trkpt>
      <trkpt lat="47.01043" lon="-1.74974">
        <ele>75.67</ele>
        <time>2023-10-22T11:27:24Z</time>
      </trkpt>
      <trkpt lat="47.01042" lon="-1.74953">
        <ele>75.26</ele>
        <time>2023-10-22T11:27:26Z</time>
      </trkpt>
      <trkpt lat="47.01043" lon="-1.74932">
        <ele>75.51</ele>
        <time>2023-10-22T11:27:28Z</time>
      </trkpt>
      <trkpt lat="47.01042" lon="-1.74913">
        <ele>75.2</ele>
        <time>2023-10-22T11:27:30Z</time>
      </trkpt>
      <trkpt lat="47.01042" lon="-1.74894">
        <ele>75.25</ele>
        <time>2023-10-22T11:27:32Z</time>
      </trkpt>
      <trkpt lat="47.01042" lon="-1.74874">
        <ele>75.23</ele>
        <time>2023-10-22T11:27:34Z</time>
      </trkpt>
      <trkpt lat="47.01042" lon="-1.74853">
        <ele>74.82</ele>
        <time>2023-10-22T11:27:36Z</time>
      </trkpt>
      <trkpt lat="47.01042" lon="-1.74833">
        <ele>74.95</ele>
        <time>2023-10-22T11:27:38Z</time>
      </trkpt>
      <trkpt lat="47.01041" lon="-1.74812">
        <ele>73.77</ele>
        <time>2023-10-22T11:27:40Z</time>
      </trkpt>
      <trkpt lat="47.01041" lon="-1.74791">
        <ele>73.87</ele>
        <time>2023-10-22T11:27:42Z</time>
      </trkpt>
      <trkpt lat="47.0104" lon="-1.74771">
        <ele>73.82</ele>
        <time>2023-10-22T11:27:44Z</time>
      </trkpt>
      <trkpt lat="47.01038" lon="-1.74753">
        <ele>73.31</ele>
        <time>2023-10-22T11:27:46Z</time>
      </trkpt>
      <trkpt lat="47.01038" lon="-1.74729">
        <ele>72.08</ele>
        <time>2023-10-22T11:27:48Z</time>
      </trkpt>
      <trkpt lat="47.01038" lon="-1.74708">
        <ele>73.11</ele>
        <time>2023-10-22T11:27:50Z</time>
      </trkpt>
      <trkpt lat="47.01038" lon="-1.74687">
        <ele>73.97</ele>
        <time>2023-10-22T11:27:52Z</time>
      </trkpt>
      <trkpt lat="47.01037" lon="-1.74665">
        <ele>73.58</ele>
        <time>2023-10-22T11:27:54Z</time>
      </trkpt>
      <trkpt lat="47.01036" lon="-1.74644">
        <ele>72.29</ele>
        <time>2023-10-22T11:27:56Z</time>
      </trkpt>
      <trkpt lat="47.01036" lon="-1.74625">
        <ele>71.84</ele>
        <time>2023-10-22T11:27:58Z</time>
      </trkpt>
      <trkpt lat="47.01036" lon="-1.74602">
        <ele>71.38</ele>
        <time>2023-10-22T11:28:00Z</time>
      </trkpt>
      <trkpt lat="47.01038" lon="-1.74581">
        <ele>74.18</ele>
        <time>2023-10-22T11:28:02Z</time>
      </trkpt>
      <trkpt lat="47.01039" lon="-1.74561">
        <ele>73.3</ele>
        <time>2023-10-22T11:28:04Z</time>
      </trkpt>
      <trkpt lat="47.01043" lon="-1.74539">
        <ele>72.85</ele>
        <time>2023-10-22T11:28:06Z</time>
      </trkpt>
      <trkpt lat="47.01048" lon="-1.74519">
        <ele>72.02</ele>
        <time>2023-10-22T11:28:08Z</time>
      </trkpt>
      <trkpt lat="47.01054" lon="-1.74501">
        <ele>71.06</ele>
        <time>2023-10-22T11:28:10Z</time>
      </trkpt>
      <trkpt lat="47.01062" lon="-1.74482">
        <ele>70.13</ele>
        <time>2023-10-22T11:28:12Z</time>
      </trkpt>
      <trkpt lat="47.01068" lon="-1.74462">
        <ele>68.62</ele>
        <time>2023-10-22T11:28:14Z</time>
      </trkpt>
      <trkpt lat="47.01075" lon="-1.74443">
        <ele>69.13</ele>
        <time>2023-10-22T11:28:16Z</time>
      </trkpt>
      <trkpt lat="47.0108" lon="-1.74421">
        <ele>69.09</ele>
        <time>2023-10-22T11:28:18Z</time>
      </trkpt>
      <trkpt lat="47.01085" lon="-1.74403">
        <ele>70.99</ele>
        <time>2023-10-22T11:28:20Z</time>
      </trkpt>
      <trkpt lat="47.0109" lon="-1.74383">
        <ele>69.93</ele>
        <time>2023-10-22T11:28:22Z</time>
      </trkpt>
      <trkpt lat="47.01094" lon="-1.74362">
        <ele>69.49</ele>
        <time>2023-10-22T11:28:24Z</time>
      </trkpt>
      <trkpt lat="47.01098" lon="-1.74343">
        <ele>69.38</ele>
        <time>2023-10-22T11:28:26Z</time>
      </trkpt>
      <trkpt lat="47.01103" lon="-1.74325">
        <ele>68.73</ele>
        <time>2023-10-22T11:28:28Z</time>
      </trkpt>
      <trkpt lat="47.01109" lon="-1.74305">
        <ele>69.19</ele>
        <time>2023-10-22T11:28:30Z</time>
      </trkpt>
      <trkpt lat="47.01114" lon="-1.74287">
        <ele>70.02</ele>
        <time>2023-10-22T11:28:32Z</time>
      </trkpt>
      <trkpt lat="47.01119" lon="-1.74267">
        <ele>69.27</ele>
        <time>2023-10-22T11:28:34Z</time>
      </trkpt>
      <trkpt lat="47.01124" lon="-1.7425">
        <ele>70.06</ele>
        <time>2023-10-22T11:28:36Z</time>
      </trkpt>
      <trkpt lat="47.01129" lon="-1.74232">
        <ele>69.89</ele>
        <time>2023-10-22T11:28:38Z</time>
      </trkpt>
      <trkpt lat="47.01133" lon="-1.74215">
        <ele>69.99</ele>
        <time>2023-10-22T11:28:40Z</time>
      </trkpt>
      <trkpt lat="47.01138" lon="-1.74193">
        <ele>70.5</ele>
        <time>2023-10-22T11:28:42Z</time>
      </trkpt>
      <trkpt lat="47.01143" lon="-1.74173">
        <ele>70.33</ele>
        <time>2023-10-22T11:28:44Z</time>
      </trkpt>
      <trkpt lat="47.01147" lon="-1.74155">
        <ele>70.06</ele>
        <time>2023-10-22T11:28:46Z</time>
      </trkpt>
      <trkpt lat="47.01153" lon="-1.74134">
        <ele>70.79</ele>
        <time>2023-10-22T11:28:48Z</time>
      </trkpt>
      <trkpt lat="47.01159" lon="-1.74115">
        <ele>72.43</ele>
        <time>2023-10-22T11:28:50Z</time>
      </trkpt>
      <trkpt lat="47.01163" lon="-1.74097">
        <ele>72.59</ele>
        <time>2023-10-22T11:28:52Z</time>
      </trkpt>
      <trkpt lat="47.01166" lon="-1.74079">
        <ele>73.27</ele>
        <time>2023-10-22T11:28:54Z</time>
      </trkpt>
      <trkpt lat="47.01169" lon="-1.7406">
        <ele>72.63</ele>
        <time>2023-10-22T11:28:56Z</time>
      </trkpt>
      <trkpt lat="47.01176" lon="-1.74045">
        <ele>72.81</ele>
        <time>2023-10-22T11:28:58Z</time>
      </trkpt>
      <trkpt lat="47.01182" lon="-1.74028">
        <ele>73.42</ele>
        <time>2023-10-22T11:29:00Z</time>
      </trkpt>
      <trkpt lat="47.01185" lon="-1.74014">
        <ele>72.08</ele>
        <time>2023-10-22T11:29:02Z</time>
      </trkpt>
      <trkpt lat="47.01188" lon="-1.74">
        <ele>71.51</ele>
        <time>2023-10-22T11:29:04Z</time>
      </trkpt>
      <trkpt lat="47.01191" lon="-1.73983">
        <ele>70.49</ele>
        <time>2023-10-22T11:29:06Z</time>
      </trkpt>
      <trkpt lat="47.01196" lon="-1.73962">
        <ele>71.21</ele>
        <time>2023-10-22T11:29:08Z</time>
      </trkpt>
      <trkpt lat="47.012" lon="-1.73941">
        <ele>71.94</ele>
        <time>2023-10-22T11:29:10Z</time>
      </trkpt>
      <trkpt lat="47.01203" lon="-1.73922">
        <ele>72.75</ele>
        <time>2023-10-22T11:29:12Z</time>
      </trkpt>
      <trkpt lat="47.01206" lon="-1.73903">
        <ele>73.88</ele>
        <time>2023-10-22T11:29:14Z</time>
      </trkpt>
      <trkpt lat="47.01207" lon="-1.73884">
        <ele>74.93</ele>
        <time>2023-10-22T11:29:16Z</time>
      </trkpt>
      <trkpt lat="47.01207" lon="-1.73864">
        <ele>76.09</ele>
        <time>2023-10-22T11:29:18Z</time>
      </trkpt>
      <trkpt lat="47.01208" lon="-1.73844">
        <ele>75.54</ele>
        <time>2023-10-22T11:29:20Z</time>
      </trkpt>
      <trkpt lat="47.01209" lon="-1.73822">
        <ele>74.66</ele>
        <time>2023-10-22T11:29:22Z</time>
      </trkpt>
      <trkpt lat="47.0121" lon="-1.73804">
        <ele>74.47</ele>
        <time>2023-10-22T11:29:24Z</time>
      </trkpt>
      <trkpt lat="47.01211" lon="-1.73783">
        <ele>74.21</ele>
        <time>2023-10-22T11:29:26Z</time>
      </trkpt>
      <trkpt lat="47.01212" lon="-1.73764">
        <ele>73.52</ele>
        <time>2023-10-22T11:29:28Z</time>
      </trkpt>
      <trkpt lat="47.01213" lon="-1.73743">
        <ele>73.32</ele>
        <time>2023-10-22T11:29:30Z</time>
      </trkpt>
      <trkpt lat="47.01214" lon="-1.73722">
        <ele>73.26</ele>
        <time>2023-10-22T11:29:32Z</time>
      </trkpt>
      <trkpt lat="47.01215" lon="-1.73701">
        <ele>73.65</ele>
        <time>2023-10-22T11:29:34Z</time>
      </trkpt>
      <trkpt lat="47.01216" lon="-1.73682">
        <ele>74.38</ele>
        <time>2023-10-22T11:29:36Z</time>
      </trkpt>
      <trkpt lat="47.01217" lon="-1.73663">
        <ele>76.15</ele>
        <time>2023-10-22T11:29:38Z</time>
      </trkpt>
      <trkpt lat="47.01217" lon="-1.73642">
        <ele>75.8</ele>
        <time>2023-10-22T11:29:40Z</time>
      </trkpt>
      <trkpt lat="47.01218" lon="-1.73624">
        <ele>75</ele>
        <time>2023-10-22T11:29:42Z</time>
      </trkpt>
      <trkpt lat="47.01219" lon="-1.73602">
        <ele>74.96</ele>
        <time>2023-10-22T11:29:44Z</time>
      </trkpt>
      <trkpt lat="47.01221" lon="-1.73584">
        <ele>75.05</ele>
        <time>2023-10-22T11:29:46Z</time>
      </trkpt>
      <trkpt lat="47.01222" lon="-1.73566">
        <ele>74.9</ele>
        <time>2023-10-22T11:29:48Z</time>
      </trkpt>
      <trkpt lat="47.01222" lon="-1.73546">
        <ele>75.63</ele>
        <time>2023-10-22T11:29:50Z</time>
      </trkpt>
      <trkpt lat="47.01223" lon="-1.73529">
        <ele>74.26</ele>
        <time>2023-10-22T11:29:52Z</time>
      </trkpt>
      <trkpt lat="47.01223" lon="-1.73512">
        <ele>75.03</ele>
        <time>2023-10-22T11:29:54Z</time>
      </trkpt>
      <trkpt lat="47.01224" lon="-1.73497">
        <ele>75.78</ele>
        <time>2023-10-22T11:29:56Z</time>
      </trkpt>
      <trkpt lat="47.01218" lon="-1.73483">
        <ele>75.3</ele>
        <time>2023-10-22T11:29:59Z</time>
      </trkpt>
      <trkpt lat="47.01209" lon="-1.73478">
        <ele>76.25</ele>
        <time>2023-10-22T11:30:01Z</time>
      </trkpt>
      <trkpt lat="47.01199" lon="-1.73476">
        <ele>77.02</ele>
        <time>2023-10-22T11:30:03Z</time>
      </trkpt>
      <trkpt lat="47.01186" lon="-1.73474">
        <ele>77.19</ele>
        <time>2023-10-22T11:30:05Z</time>
      </trkpt>
      <trkpt lat="47.01175" lon="-1.73471">
        <ele>77.56</ele>
        <time>2023-10-22T11:30:07Z</time>
      </trkpt>
      <trkpt lat="47.01163" lon="-1.73467">
        <ele>76.17</ele>
        <time>2023-10-22T11:30:09Z</time>
      </trkpt>
      <trkpt lat="47.0115" lon="-1.73464">
        <ele>75.84</ele>
        <time>2023-10-22T11:30:11Z</time>
      </trkpt>
      <trkpt lat="47.01135" lon="-1.73461">
        <ele>74.25</ele>
        <time>2023-10-22T11:30:13Z</time>
      </trkpt>
      <trkpt lat="47.01122" lon="-1.73457">
        <ele>74.87</ele>
        <time>2023-10-22T11:30:15Z</time>
      </trkpt>
      <trkpt lat="47.01112" lon="-1.73457">
        <ele>74.65</ele>
        <time>2023-10-22T11:30:17Z</time>
      </trkpt>
      <trkpt lat="47.01103" lon="-1.73448">
        <ele>73.06</ele>
        <time>2023-10-22T11:30:19Z</time>
      </trkpt>
      <trkpt lat="47.01104" lon="-1.73432">
        <ele>75.1</ele>
        <time>2023-10-22T11:30:21Z</time>
      </trkpt>
      <trkpt lat="47.01111" lon="-1.73412">
        <ele>74.8</ele>
        <time>2023-10-22T11:30:23Z</time>
      </trkpt>
      <trkpt lat="47.01116" lon="-1.73397">
        <ele>72.19</ele>
        <time>2023-10-22T11:30:25Z</time>
      </trkpt>
      <trkpt lat="47.01121" lon="-1.73384">
        <ele>71.43</ele>
        <time>2023-10-22T11:30:27Z</time>
      </trkpt>
      <trkpt lat="47.01127" lon="-1.73373">
        <ele>70.18</ele>
        <time>2023-10-22T11:30:29Z</time>
      </trkpt>
      <trkpt lat="47.01134" lon="-1.7336">
        <ele>71.54</ele>
        <time>2023-10-22T11:30:31Z</time>
      </trkpt>
      <trkpt lat="47.01139" lon="-1.73349">
        <ele>70.59</ele>
        <time>2023-10-22T11:30:32Z</time>
      </trkpt>
      <trkpt lat="47.01145" lon="-1.73336">
        <ele>71.23</ele>
        <time>2023-10-22T11:30:34Z</time>
      </trkpt>
      <trkpt lat="47.01153" lon="-1.73317">
        <ele>70.63</ele>
        <time>2023-10-22T11:30:36Z</time>
      </trkpt>
      <trkpt lat="47.01161" lon="-1.73299">
        <ele>69.2</ele>
        <time>2023-10-22T11:30:38Z</time>
      </trkpt>
      <trkpt lat="47.0117" lon="-1.7328">
        <ele>69.24</ele>
        <time>2023-10-22T11:30:40Z</time>
      </trkpt>
      <trkpt lat="47.01176" lon="-1.73267">
        <ele>69.08</ele>
        <time>2023-10-22T11:30:42Z</time>
      </trkpt>
      <trkpt lat="47.01182" lon="-1.73253">
        <ele>68.74</ele>
        <time>2023-10-22T11:30:44Z</time>
      </trkpt>
      <trkpt lat="47.01188" lon="-1.73239">
        <ele>69.41</ele>
        <time>2023-10-22T11:30:46Z</time>
      </trkpt>
      <trkpt lat="47.01194" lon="-1.73224">
        <ele>69.9</ele>
        <time>2023-10-22T11:30:48Z</time>
      </trkpt>
      <trkpt lat="47.01198" lon="-1.73212">
        <ele>71.12</ele>
        <time>2023-10-22T11:30:49Z</time>
      </trkpt>
      <trkpt lat="47.01205" lon="-1.73194">
        <ele>70.54</ele>
        <time>2023-10-22T11:30:51Z</time>
      </trkpt>
      <trkpt lat="47.01212" lon="-1.73176">
        <ele>71.6</ele>
        <time>2023-10-22T11:30:53Z</time>
      </trkpt>
      <trkpt lat="47.01219" lon="-1.7316">
        <ele>73.36</ele>
        <time>2023-10-22T11:30:55Z</time>
      </trkpt>
      <trkpt lat="47.01226" lon="-1.73143">
        <ele>73.63</ele>
        <time>2023-10-22T11:30:57Z</time>
      </trkpt>
      <trkpt lat="47.01234" lon="-1.73126">
        <ele>72.99</ele>
        <time>2023-10-22T11:30:59Z</time>
      </trkpt>
      <trkpt lat="47.01241" lon="-1.73108">
        <ele>72.43</ele>
        <time>2023-10-22T11:31:01Z</time>
      </trkpt>
      <trkpt lat="47.01248" lon="-1.73093">
        <ele>72.56</ele>
        <time>2023-10-22T11:31:03Z</time>
      </trkpt>
      <trkpt lat="47.01256" lon="-1.73075">
        <ele>72.6</ele>
        <time>2023-10-22T11:31:05Z</time>
      </trkpt>
      <trkpt lat="47.01261" lon="-1.73064">
        <ele>72.51</ele>
        <time>2023-10-22T11:31:06Z</time>
      </trkpt>
      <trkpt lat="47.01268" lon="-1.73047">
        <ele>70.76</ele>
        <time>2023-10-22T11:31:08Z</time>
      </trkpt>
      <trkpt lat="47.01276" lon="-1.73028">
        <ele>71.39</ele>
        <time>2023-10-22T11:31:10Z</time>
      </trkpt>
      <trkpt lat="47.01284" lon="-1.73011">
        <ele>71.81</ele>
        <time>2023-10-22T11:31:12Z</time>
      </trkpt>
      <trkpt lat="47.0129" lon="-1.72994">
        <ele>71.52</ele>
        <time>2023-10-22T11:31:14Z</time>
      </trkpt>
      <trkpt lat="47.01299" lon="-1.72975">
        <ele>71.87</ele>
        <time>2023-10-22T11:31:16Z</time>
      </trkpt>
      <trkpt lat="47.01306" lon="-1.72961">
        <ele>72.23</ele>
        <time>2023-10-22T11:31:18Z</time>
      </trkpt>
      <trkpt lat="47.01313" lon="-1.72944">
        <ele>73.17</ele>
        <time>2023-10-22T11:31:20Z</time>
      </trkpt>
      <trkpt lat="47.0132" lon="-1.72928">
        <ele>73.71</ele>
        <time>2023-10-22T11:31:22Z</time>
      </trkpt>
      <trkpt lat="47.01327" lon="-1.7291">
        <ele>74.36</ele>
        <time>2023-10-22T11:31:24Z</time>
      </trkpt>
      <trkpt lat="47.01334" lon="-1.72895">
        <ele>73.35</ele>
        <time>2023-10-22T11:31:26Z</time>
      </trkpt>
      <trkpt lat="47.01341" lon="-1.72879">
        <ele>74.86</ele>
        <time>2023-10-22T11:31:28Z</time>
      </trkpt>
      <trkpt lat="47.01349" lon="-1.72862">
        <ele>77.06</ele>
        <time>2023-10-22T11:31:30Z</time>
      </trkpt>
      <trkpt lat="47.01357" lon="-1.72846">
        <ele>77.04</ele>
        <time>2023-10-22T11:31:32Z</time>
      </trkpt>
      <trkpt lat="47.01364" lon="-1.72831">
        <ele>77.45</ele>
        <time>2023-10-22T11:31:34Z</time>
      </trkpt>
      <trkpt lat="47.0137" lon="-1.72815">
        <ele>76.78</ele>
        <time>2023-10-22T11:31:36Z</time>
      </trkpt>
      <trkpt lat="47.01376" lon="-1.72798">
        <ele>75.83</ele>
        <time>2023-10-22T11:31:38Z</time>
      </trkpt>
      <trkpt lat="47.01383" lon="-1.72783">
        <ele>76.26</ele>
        <time>2023-10-22T11:31:40Z</time>
      </trkpt>
      <trkpt lat="47.0139" lon="-1.72768">
        <ele>76.87</ele>
        <time>2023-10-22T11:31:42Z</time>
      </trkpt>
      <trkpt lat="47.01396" lon="-1.72753">
        <ele>75.52</ele>
        <time>2023-10-22T11:31:44Z</time>
      </trkpt>
      <trkpt lat="47.01403" lon="-1.72736">
        <ele>75.4</ele>
        <time>2023-10-22T11:31:46Z</time>
      </trkpt>
      <trkpt lat="47.0141" lon="-1.72721">
        <ele>75.31</ele>
        <time>2023-10-22T11:31:48Z</time>
      </trkpt>
      <trkpt lat="47.01417" lon="-1.72704">
        <ele>76.63</ele>
        <time>2023-10-22T11:31:50Z</time>
      </trkpt>
      <trkpt lat="47.01423" lon="-1.72689">
        <ele>75.64</ele>
        <time>2023-10-22T11:31:52Z</time>
      </trkpt>
      <trkpt lat="47.0143" lon="-1.72674">
        <ele>76.43</ele>
        <time>2023-10-22T11:31:54Z</time>
      </trkpt>
      <trkpt lat="47.01437" lon="-1.72657">
        <ele>76.54</ele>
        <time>2023-10-22T11:31:56Z</time>
      </trkpt>
      <trkpt lat="47.01443" lon="-1.72642">
        <ele>77.29</ele>
        <time>2023-10-22T11:31:58Z</time>
      </trkpt>
      <trkpt lat="47.01451" lon="-1.72623">
        <ele>76.36</ele>
        <time>2023-10-22T11:32:00Z</time>
      </trkpt>
      <trkpt lat="47.01458" lon="-1.72605">
        <ele>77.18</ele>
        <time>2023-10-22T11:32:02Z</time>
      </trkpt>
      <trkpt lat="47.01463" lon="-1.72585">
        <ele>77.24</ele>
        <time>2023-10-22T11:32:04Z</time>
      </trkpt>
      <trkpt lat="47.0147" lon="-1.72573">
        <ele>77.23</ele>
        <time>2023-10-22T11:32:06Z</time>
      </trkpt>
      <trkpt lat="47.01479" lon="-1.72565">
        <ele>74.99</ele>
        <time>2023-10-22T11:32:08Z</time>
      </trkpt>
      <trkpt lat="47.01487" lon="-1.72553">
        <ele>74.18</ele>
        <time>2023-10-22T11:32:10Z</time>
      </trkpt>
      <trkpt lat="47.01491" lon="-1.72536">
        <ele>73.01</ele>
        <time>2023-10-22T11:32:11Z</time>
      </trkpt>
      <trkpt lat="47.01496" lon="-1.72523">
        <ele>70.79</ele>
        <time>2023-10-22T11:32:13Z</time>
      </trkpt>
      <trkpt lat="47.01501" lon="-1.7251">
        <ele>73.24</ele>
        <time>2023-10-22T11:32:14Z</time>
      </trkpt>
      <trkpt lat="47.01509" lon="-1.72493">
        <ele>74.26</ele>
        <time>2023-10-22T11:32:16Z</time>
      </trkpt>
      <trkpt lat="47.01516" lon="-1.72476">
        <ele>74.71</ele>
        <time>2023-10-22T11:32:18Z</time>
      </trkpt>
      <trkpt lat="47.01524" lon="-1.7246">
        <ele>76.36</ele>
        <time>2023-10-22T11:32:20Z</time>
      </trkpt>
      <trkpt lat="47.01532" lon="-1.72449">
        <ele>78.93</ele>
        <time>2023-10-22T11:32:22Z</time>
      </trkpt>
      <trkpt lat="47.01539" lon="-1.72434">
        <ele>79.2</ele>
        <time>2023-10-22T11:32:24Z</time>
      </trkpt>
      <trkpt lat="47.01546" lon="-1.72417">
        <ele>80.5</ele>
        <time>2023-10-22T11:32:26Z</time>
      </trkpt>
      <trkpt lat="47.01552" lon="-1.72403">
        <ele>80.71</ele>
        <time>2023-10-22T11:32:28Z</time>
      </trkpt>
      <trkpt lat="47.01558" lon="-1.72388">
        <ele>80.44</ele>
        <time>2023-10-22T11:32:30Z</time>
      </trkpt>
      <trkpt lat="47.01564" lon="-1.72373">
        <ele>79.49</ele>
        <time>2023-10-22T11:32:31Z</time>
      </trkpt>
      <trkpt lat="47.01572" lon="-1.72357">
        <ele>79.42</ele>
        <time>2023-10-22T11:32:33Z</time>
      </trkpt>
      <trkpt lat="47.01579" lon="-1.7234">
        <ele>79.63</ele>
        <time>2023-10-22T11:32:35Z</time>
      </trkpt>
      <trkpt lat="47.01586" lon="-1.72323">
        <ele>77.91</ele>
        <time>2023-10-22T11:32:37Z</time>
      </trkpt>
      <trkpt lat="47.01595" lon="-1.72305">
        <ele>78.25</ele>
        <time>2023-10-22T11:32:39Z</time>
      </trkpt>
      <trkpt lat="47.01602" lon="-1.72287">
        <ele>77.93</ele>
        <time>2023-10-22T11:32:41Z</time>
      </trkpt>
      <trkpt lat="47.01608" lon="-1.72268">
        <ele>76.93</ele>
        <time>2023-10-22T11:32:43Z</time>
      </trkpt>
      <trkpt lat="47.01614" lon="-1.72253">
        <ele>75.82</ele>
        <time>2023-10-22T11:32:45Z</time>
      </trkpt>
      <trkpt lat="47.01618" lon="-1.72238">
        <ele>73.56</ele>
        <time>2023-10-22T11:32:47Z</time>
      </trkpt>
      <trkpt lat="47.01625" lon="-1.72222">
        <ele>74.67</ele>
        <time>2023-10-22T11:32:49Z</time>
      </trkpt>
      <trkpt lat="47.01631" lon="-1.72203">
        <ele>75.34</ele>
        <time>2023-10-22T11:32:51Z</time>
      </trkpt>
      <trkpt lat="47.01637" lon="-1.72183">
        <ele>75.32</ele>
        <time>2023-10-22T11:32:53Z</time>
      </trkpt>
      <trkpt lat="47.01642" lon="-1.72165">
        <ele>75.68</ele>
        <time>2023-10-22T11:32:55Z</time>
      </trkpt>
      <trkpt lat="47.01649" lon="-1.72147">
        <ele>76.38</ele>
        <time>2023-10-22T11:32:57Z</time>
      </trkpt>
      <trkpt lat="47.01655" lon="-1.72129">
        <ele>77.51</ele>
        <time>2023-10-22T11:32:59Z</time>
      </trkpt>
      <trkpt lat="47.0166" lon="-1.72113">
        <ele>77.47</ele>
        <time>2023-10-22T11:33:01Z</time>
      </trkpt>
      <trkpt lat="47.01665" lon="-1.72097">
        <ele>77.45</ele>
        <time>2023-10-22T11:33:03Z</time>
      </trkpt>
      <trkpt lat="47.01672" lon="-1.7208">
        <ele>77.26</ele>
        <time>2023-10-22T11:33:05Z</time>
      </trkpt>
      <trkpt lat="47.01679" lon="-1.72063">
        <ele>77.78</ele>
        <time>2023-10-22T11:33:07Z</time>
      </trkpt>
      <trkpt lat="47.01685" lon="-1.72046">
        <ele>80.38</ele>
        <time>2023-10-22T11:33:09Z</time>
      </trkpt>
      <trkpt lat="47.0169" lon="-1.7203">
        <ele>80.58</ele>
        <time>2023-10-22T11:33:11Z</time>
      </trkpt>
      <trkpt lat="47.01696" lon="-1.72017">
        <ele>80.86</ele>
        <time>2023-10-22T11:33:13Z</time>
      </trkpt>
      <trkpt lat="47.01703" lon="-1.72001">
        <ele>80.46</ele>
        <time>2023-10-22T11:33:15Z</time>
      </trkpt>
      <trkpt lat="47.01708" lon="-1.71983">
        <ele>79.74</ele>
        <time>2023-10-22T11:33:17Z</time>
      </trkpt>
      <trkpt lat="47.01714" lon="-1.71964">
        <ele>79.41</ele>
        <time>2023-10-22T11:33:19Z</time>
      </trkpt>
      <trkpt lat="47.01721" lon="-1.71944">
        <ele>78.44</ele>
        <time>2023-10-22T11:33:21Z</time>
      </trkpt>
      <trkpt lat="47.01726" lon="-1.71928">
        <ele>78.83</ele>
        <time>2023-10-22T11:33:23Z</time>
      </trkpt>
      <trkpt lat="47.01732" lon="-1.7191">
        <ele>77.84</ele>
        <time>2023-10-22T11:33:25Z</time>
      </trkpt>
      <trkpt lat="47.01738" lon="-1.71895">
        <ele>78.11</ele>
        <time>2023-10-22T11:33:27Z</time>
      </trkpt>
      <trkpt lat="47.01743" lon="-1.71878">
        <ele>77.08</ele>
        <time>2023-10-22T11:33:29Z</time>
      </trkpt>
      <trkpt lat="47.01748" lon="-1.71858">
        <ele>78.68</ele>
        <time>2023-10-22T11:33:31Z</time>
      </trkpt>
      <trkpt lat="47.01753" lon="-1.71842">
        <ele>79.8</ele>
        <time>2023-10-22T11:33:33Z</time>
      </trkpt>
      <trkpt lat="47.0176" lon="-1.71821">
        <ele>80.09</ele>
        <time>2023-10-22T11:33:35Z</time>
      </trkpt>
      <trkpt lat="47.01766" lon="-1.71806">
        <ele>81.49</ele>
        <time>2023-10-22T11:33:37Z</time>
      </trkpt>
      <trkpt lat="47.01771" lon="-1.71792">
        <ele>82.5</ele>
        <time>2023-10-22T11:33:39Z</time>
      </trkpt>
      <trkpt lat="47.01778" lon="-1.71774">
        <ele>83.89</ele>
        <time>2023-10-22T11:33:41Z</time>
      </trkpt>
      <trkpt lat="47.01783" lon="-1.71757">
        <ele>82.8</ele>
        <time>2023-10-22T11:33:43Z</time>
      </trkpt>
      <trkpt lat="47.01789" lon="-1.71742">
        <ele>83.62</ele>
        <time>2023-10-22T11:33:45Z</time>
      </trkpt>
      <trkpt lat="47.01794" lon="-1.71726">
        <ele>82.92</ele>
        <time>2023-10-22T11:33:47Z</time>
      </trkpt>
      <trkpt lat="47.01801" lon="-1.7171">
        <ele>84.46</ele>
        <time>2023-10-22T11:33:49Z</time>
      </trkpt>
      <trkpt lat="47.01807" lon="-1.71694">
        <ele>84.53</ele>
        <time>2023-10-22T11:33:51Z</time>
      </trkpt>
      <trkpt lat="47.01812" lon="-1.71673">
        <ele>84.26</ele>
        <time>2023-10-22T11:33:53Z</time>
      </trkpt>
      <trkpt lat="47.01819" lon="-1.71655">
        <ele>84.26</ele>
        <time>2023-10-22T11:33:55Z</time>
      </trkpt>
      <trkpt lat="47.01826" lon="-1.71635">
        <ele>84.46</ele>
        <time>2023-10-22T11:33:57Z</time>
      </trkpt>
      <trkpt lat="47.01834" lon="-1.71618">
        <ele>84.71</ele>
        <time>2023-10-22T11:33:59Z</time>
      </trkpt>
      <trkpt lat="47.01842" lon="-1.716">
        <ele>84.87</ele>
        <time>2023-10-22T11:34:01Z</time>
      </trkpt>
      <trkpt lat="47.01851" lon="-1.71583">
        <ele>84.87</ele>
        <time>2023-10-22T11:34:03Z</time>
      </trkpt>
      <trkpt lat="47.01861" lon="-1.71567">
        <ele>85.54</ele>
        <time>2023-10-22T11:34:05Z</time>
      </trkpt>
      <trkpt lat="47.0187" lon="-1.71556">
        <ele>86.23</ele>
        <time>2023-10-22T11:34:07Z</time>
      </trkpt>
      <trkpt lat="47.01879" lon="-1.71543">
        <ele>86.72</ele>
        <time>2023-10-22T11:34:09Z</time>
      </trkpt>
      <trkpt lat="47.01889" lon="-1.71529">
        <ele>87.44</ele>
        <time>2023-10-22T11:34:11Z</time>
      </trkpt>
      <trkpt lat="47.01898" lon="-1.71513">
        <ele>85.91</ele>
        <time>2023-10-22T11:34:13Z</time>
      </trkpt>
      <trkpt lat="47.01907" lon="-1.71499">
        <ele>86.98</ele>
        <time>2023-10-22T11:34:15Z</time>
      </trkpt>
      <trkpt lat="47.01917" lon="-1.71482">
        <ele>85.46</ele>
        <time>2023-10-22T11:34:17Z</time>
      </trkpt>
      <trkpt lat="47.01927" lon="-1.71468">
        <ele>85.31</ele>
        <time>2023-10-22T11:34:19Z</time>
      </trkpt>
      <trkpt lat="47.01937" lon="-1.71454">
        <ele>86.64</ele>
        <time>2023-10-22T11:34:21Z</time>
      </trkpt>
      <trkpt lat="47.01945" lon="-1.71439">
        <ele>86.16</ele>
        <time>2023-10-22T11:34:23Z</time>
      </trkpt>
      <trkpt lat="47.01955" lon="-1.71425">
        <ele>86.23</ele>
        <time>2023-10-22T11:34:25Z</time>
      </trkpt>
      <trkpt lat="47.01964" lon="-1.71408">
        <ele>87.11</ele>
        <time>2023-10-22T11:34:27Z</time>
      </trkpt>
      <trkpt lat="47.01975" lon="-1.71391">
        <ele>85.54</ele>
        <time>2023-10-22T11:34:29Z</time>
      </trkpt>
      <trkpt lat="47.01986" lon="-1.71376">
        <ele>84.33</ele>
        <time>2023-10-22T11:34:31Z</time>
      </trkpt>
      <trkpt lat="47.01995" lon="-1.71365">
        <ele>84.04</ele>
        <time>2023-10-22T11:34:33Z</time>
      </trkpt>
      <trkpt lat="47.02007" lon="-1.71354">
        <ele>84.13</ele>
        <time>2023-10-22T11:34:35Z</time>
      </trkpt>
      <trkpt lat="47.02018" lon="-1.71344">
        <ele>84.02</ele>
        <time>2023-10-22T11:34:37Z</time>
      </trkpt>
      <trkpt lat="47.02032" lon="-1.7133">
        <ele>83.98</ele>
        <time>2023-10-22T11:34:39Z</time>
      </trkpt>
      <trkpt lat="47.02042" lon="-1.71314">
        <ele>84.36</ele>
        <time>2023-10-22T11:34:41Z</time>
      </trkpt>
      <trkpt lat="47.02052" lon="-1.71299">
        <ele>82.99</ele>
        <time>2023-10-22T11:34:43Z</time>
      </trkpt>
      <trkpt lat="47.0206" lon="-1.71283">
        <ele>83.25</ele>
        <time>2023-10-22T11:34:45Z</time>
      </trkpt>
      <trkpt lat="47.02067" lon="-1.71269">
        <ele>82.12</ele>
        <time>2023-10-22T11:34:47Z</time>
      </trkpt>
      <trkpt lat="47.02076" lon="-1.71251">
        <ele>80.77</ele>
        <time>2023-10-22T11:34:49Z</time>
      </trkpt>
      <trkpt lat="47.02084" lon="-1.71233">
        <ele>79.76</ele>
        <time>2023-10-22T11:34:51Z</time>
      </trkpt>
      <trkpt lat="47.02092" lon="-1.71212">
        <ele>80.63</ele>
        <time>2023-10-22T11:34:53Z</time>
      </trkpt>
      <trkpt lat="47.02102" lon="-1.71194">
        <ele>80.57</ele>
        <time>2023-10-22T11:34:55Z</time>
      </trkpt>
      <trkpt lat="47.02108" lon="-1.71175">
        <ele>79.49</ele>
        <time>2023-10-22T11:34:57Z</time>
      </trkpt>
      <trkpt lat="47.02115" lon="-1.71156">
        <ele>78.59</ele>
        <time>2023-10-22T11:34:59Z</time>
      </trkpt>
      <trkpt lat="47.0212" lon="-1.7114">
        <ele>80.12</ele>
        <time>2023-10-22T11:35:01Z</time>
      </trkpt>
      <trkpt lat="47.02124" lon="-1.71122">
        <ele>81.05</ele>
        <time>2023-10-22T11:35:03Z</time>
      </trkpt>
      <trkpt lat="47.02132" lon="-1.71104">
        <ele>79.61</ele>
        <time>2023-10-22T11:35:05Z</time>
      </trkpt>
      <trkpt lat="47.02137" lon="-1.71092">
        <ele>78.45</ele>
        <time>2023-10-22T11:35:06Z</time>
      </trkpt>
      <trkpt lat="47.02145" lon="-1.71072">
        <ele>77.84</ele>
        <time>2023-10-22T11:35:08Z</time>
      </trkpt>
      <trkpt lat="47.02152" lon="-1.71058">
        <ele>79.8</ele>
        <time>2023-10-22T11:35:10Z</time>
      </trkpt>
      <trkpt lat="47.02161" lon="-1.71043">
        <ele>80.49</ele>
        <time>2023-10-22T11:35:12Z</time>
      </trkpt>
      <trkpt lat="47.02168" lon="-1.71027">
        <ele>79.61</ele>
        <time>2023-10-22T11:35:14Z</time>
      </trkpt>
      <trkpt lat="47.02177" lon="-1.71011">
        <ele>80.19</ele>
        <time>2023-10-22T11:35:16Z</time>
      </trkpt>
      <trkpt lat="47.02184" lon="-1.70997">
        <ele>81.15</ele>
        <time>2023-10-22T11:35:18Z</time>
      </trkpt>
      <trkpt lat="47.02193" lon="-1.70978">
        <ele>80.02</ele>
        <time>2023-10-22T11:35:20Z</time>
      </trkpt>
      <trkpt lat="47.02202" lon="-1.70964">
        <ele>79.85</ele>
        <time>2023-10-22T11:35:22Z</time>
      </trkpt>
      <trkpt lat="47.0221" lon="-1.70951">
        <ele>81.42</ele>
        <time>2023-10-22T11:35:24Z</time>
      </trkpt>
      <trkpt lat="47.02219" lon="-1.70938">
        <ele>81.71</ele>
        <time>2023-10-22T11:35:26Z</time>
      </trkpt>
      <trkpt lat="47.0223" lon="-1.70921">
        <ele>83.02</ele>
        <time>2023-10-22T11:35:28Z</time>
      </trkpt>
      <trkpt lat="47.02239" lon="-1.70908">
        <ele>82.85</ele>
        <time>2023-10-22T11:35:30Z</time>
      </trkpt>
      <trkpt lat="47.0225" lon="-1.70893">
        <ele>82.23</ele>
        <time>2023-10-22T11:35:32Z</time>
      </trkpt>
      <trkpt lat="47.02259" lon="-1.70881">
        <ele>82.77</ele>
        <time>2023-10-22T11:35:34Z</time>
      </trkpt>
      <trkpt lat="47.02268" lon="-1.70868">
        <ele>83.81</ele>
        <time>2023-10-22T11:35:36Z</time>
      </trkpt>
      <trkpt lat="47.02279" lon="-1.7085">
        <ele>82.64</ele>
        <time>2023-10-22T11:35:38Z</time>
      </trkpt>
      <trkpt lat="47.02287" lon="-1.7083">
        <ele>82.41</ele>
        <time>2023-10-22T11:35:40Z</time>
      </trkpt>
      <trkpt lat="47.02298" lon="-1.70813">
        <ele>81.07</ele>
        <time>2023-10-22T11:35:42Z</time>
      </trkpt>
      <trkpt lat="47.02308" lon="-1.70795">
        <ele>81.75</ele>
        <time>2023-10-22T11:35:44Z</time>
      </trkpt>
      <trkpt lat="47.02316" lon="-1.7078">
        <ele>80.55</ele>
        <time>2023-10-22T11:35:46Z</time>
      </trkpt>
      <trkpt lat="47.02325" lon="-1.70767">
        <ele>81.01</ele>
        <time>2023-10-22T11:35:48Z</time>
      </trkpt>
      <trkpt lat="47.02333" lon="-1.70755">
        <ele>82.68</ele>
        <time>2023-10-22T11:35:50Z</time>
      </trkpt>
      <trkpt lat="47.02346" lon="-1.70737">
        <ele>79.25</ele>
        <time>2023-10-22T11:35:52Z</time>
      </trkpt>
      <trkpt lat="47.02356" lon="-1.70721">
        <ele>78.52</ele>
        <time>2023-10-22T11:35:54Z</time>
      </trkpt>
      <trkpt lat="47.02367" lon="-1.70704">
        <ele>77.28</ele>
        <time>2023-10-22T11:35:56Z</time>
      </trkpt>
      <trkpt lat="47.02375" lon="-1.70688">
        <ele>78.88</ele>
        <time>2023-10-22T11:35:58Z</time>
      </trkpt>
      <trkpt lat="47.02385" lon="-1.70675">
        <ele>78.74</ele>
        <time>2023-10-22T11:36:00Z</time>
      </trkpt>
      <trkpt lat="47.02394" lon="-1.70664">
        <ele>79.33</ele>
        <time>2023-10-22T11:36:02Z</time>
      </trkpt>
      <trkpt lat="47.02404" lon="-1.70653">
        <ele>77.53</ele>
        <time>2023-10-22T11:36:04Z</time>
      </trkpt>
      <trkpt lat="47.02414" lon="-1.7064">
        <ele>77.71</ele>
        <time>2023-10-22T11:36:06Z</time>
      </trkpt>
      <trkpt lat="47.02423" lon="-1.70624">
        <ele>76.91</ele>
        <time>2023-10-22T11:36:08Z</time>
      </trkpt>
      <trkpt lat="47.02431" lon="-1.70613">
        <ele>78.72</ele>
        <time>2023-10-22T11:36:10Z</time>
      </trkpt>
      <trkpt lat="47.02441" lon="-1.70594">
        <ele>78.92</ele>
        <time>2023-10-22T11:36:12Z</time>
      </trkpt>
      <trkpt lat="47.02451" lon="-1.70581">
        <ele>79.86</ele>
        <time>2023-10-22T11:36:14Z</time>
      </trkpt>
      <trkpt lat="47.02461" lon="-1.70567">
        <ele>80.1</ele>
        <time>2023-10-22T11:36:16Z</time>
      </trkpt>
      <trkpt lat="47.02471" lon="-1.70555">
        <ele>79.72</ele>
        <time>2023-10-22T11:36:18Z</time>
      </trkpt>
      <trkpt lat="47.02481" lon="-1.70544">
        <ele>80.58</ele>
        <time>2023-10-22T11:36:20Z</time>
      </trkpt>
      <trkpt lat="47.02496" lon="-1.70533">
        <ele>81.22</ele>
        <time>2023-10-22T11:36:22Z</time>
      </trkpt>
      <trkpt lat="47.02508" lon="-1.7052">
        <ele>81.28</ele>
        <time>2023-10-22T11:36:24Z</time>
      </trkpt>
      <trkpt lat="47.02516" lon="-1.70513">
        <ele>84.74</ele>
        <time>2023-10-22T11:36:26Z</time>
      </trkpt>
      <trkpt lat="47.02525" lon="-1.70508">
        <ele>84.25</ele>
        <time>2023-10-22T11:36:27Z</time>
      </trkpt>
      <trkpt lat="47.02538" lon="-1.70493">
        <ele>83.62</ele>
        <time>2023-10-22T11:36:29Z</time>
      </trkpt>
      <trkpt lat="47.02549" lon="-1.70482">
        <ele>83.67</ele>
        <time>2023-10-22T11:36:31Z</time>
      </trkpt>
      <trkpt lat="47.02561" lon="-1.70477">
        <ele>83.47</ele>
        <time>2023-10-22T11:36:33Z</time>
      </trkpt>
      <trkpt lat="47.02568" lon="-1.70467">
        <ele>82.77</ele>
        <time>2023-10-22T11:36:34Z</time>
      </trkpt>
      <trkpt lat="47.02578" lon="-1.70453">
        <ele>81.78</ele>
        <time>2023-10-22T11:36:36Z</time>
      </trkpt>
      <trkpt lat="47.02592" lon="-1.70444">
        <ele>82.27</ele>
        <time>2023-10-22T11:36:38Z</time>
      </trkpt>
      <trkpt lat="47.02606" lon="-1.70428">
        <ele>81.91</ele>
        <time>2023-10-22T11:36:40Z</time>
      </trkpt>
      <trkpt lat="47.02616" lon="-1.70418">
        <ele>82.93</ele>
        <time>2023-10-22T11:36:42Z</time>
      </trkpt>
      <trkpt lat="47.02626" lon="-1.70407">
        <ele>84.78</ele>
        <time>2023-10-22T11:36:44Z</time>
      </trkpt>
      <trkpt lat="47.02639" lon="-1.70392">
        <ele>82.43</ele>
        <time>2023-10-22T11:36:46Z</time>
      </trkpt>
      <trkpt lat="47.02649" lon="-1.70378">
        <ele>82.46</ele>
        <time>2023-10-22T11:36:48Z</time>
      </trkpt>
      <trkpt lat="47.02659" lon="-1.70366">
        <ele>82.71</ele>
        <time>2023-10-22T11:36:50Z</time>
      </trkpt>
      <trkpt lat="47.02668" lon="-1.70351">
        <ele>82.63</ele>
        <time>2023-10-22T11:36:52Z</time>
      </trkpt>
      <trkpt lat="47.02671" lon="-1.70337">
        <ele>82</ele>
        <time>2023-10-22T11:36:54Z</time>
      </trkpt>
      <trkpt lat="47.02661" lon="-1.70327">
        <ele>81.64</ele>
        <time>2023-10-22T11:36:57Z</time>
      </trkpt>
      <trkpt lat="47.02648" lon="-1.70315">
        <ele>81.88</ele>
        <time>2023-10-22T11:36:59Z</time>
      </trkpt>
      <trkpt lat="47.02634" lon="-1.70308">
        <ele>82.63</ele>
        <time>2023-10-22T11:37:01Z</time>
      </trkpt>
      <trkpt lat="47.02624" lon="-1.70291">
        <ele>83.98</ele>
        <time>2023-10-22T11:37:03Z</time>
      </trkpt>
      <trkpt lat="47.02611" lon="-1.70292">
        <ele>86.65</ele>
        <time>2023-10-22T11:37:05Z</time>
      </trkpt>
      <trkpt lat="47.02599" lon="-1.70286">
        <ele>88.4</ele>
        <time>2023-10-22T11:37:07Z</time>
      </trkpt>
      <trkpt lat="47.02588" lon="-1.70286">
        <ele>87.3</ele>
        <time>2023-10-22T11:37:08Z</time>
      </trkpt>
      <trkpt lat="47.02574" lon="-1.70282">
        <ele>88.55</ele>
        <time>2023-10-22T11:37:10Z</time>
      </trkpt>
      <trkpt lat="47.0256" lon="-1.70276">
        <ele>85.85</ele>
        <time>2023-10-22T11:37:12Z</time>
      </trkpt>
      <trkpt lat="47.02546" lon="-1.70268">
        <ele>86.07</ele>
        <time>2023-10-22T11:37:14Z</time>
      </trkpt>
      <trkpt lat="47.02537" lon="-1.70253">
        <ele>84.33</ele>
        <time>2023-10-22T11:37:16Z</time>
      </trkpt>
      <trkpt lat="47.0252" lon="-1.70247">
        <ele>82.17</ele>
        <time>2023-10-22T11:37:18Z</time>
      </trkpt>
      <trkpt lat="47.02511" lon="-1.70242">
        <ele>80.55</ele>
        <time>2023-10-22T11:37:19Z</time>
      </trkpt>
      <trkpt lat="47.02501" lon="-1.70229">
        <ele>82.14</ele>
        <time>2023-10-22T11:37:21Z</time>
      </trkpt>
      <trkpt lat="47.02491" lon="-1.70216">
        <ele>81.63</ele>
        <time>2023-10-22T11:37:23Z</time>
      </trkpt>
      <trkpt lat="47.02482" lon="-1.702">
        <ele>81.09</ele>
        <time>2023-10-22T11:37:25Z</time>
      </trkpt>
      <trkpt lat="47.02474" lon="-1.70184">
        <ele>80.57</ele>
        <time>2023-10-22T11:37:27Z</time>
      </trkpt>
      <trkpt lat="47.02466" lon="-1.70168">
        <ele>80.52</ele>
        <time>2023-10-22T11:37:29Z</time>
      </trkpt>
      <trkpt lat="47.02457" lon="-1.7015">
        <ele>80.6</ele>
        <time>2023-10-22T11:37:31Z</time>
      </trkpt>
      <trkpt lat="47.02449" lon="-1.7013">
        <ele>79.75</ele>
        <time>2023-10-22T11:37:33Z</time>
      </trkpt>
      <trkpt lat="47.02442" lon="-1.70111">
        <ele>79.64</ele>
        <time>2023-10-22T11:37:35Z</time>
      </trkpt>
      <trkpt lat="47.02438" lon="-1.70093">
        <ele>80.7</ele>
        <time>2023-10-22T11:37:37Z</time>
      </trkpt>
      <trkpt lat="47.02435" lon="-1.70072">
        <ele>80.92</ele>
        <time>2023-10-22T11:37:39Z</time>
      </trkpt>
      <trkpt lat="47.02432" lon="-1.70052">
        <ele>80.75</ele>
        <time>2023-10-22T11:37:41Z</time>
      </trkpt>
      <trkpt lat="47.02429" lon="-1.7003">
        <ele>79.99</ele>
        <time>2023-10-22T11:37:43Z</time>
      </trkpt>
      <trkpt lat="47.02428" lon="-1.7001">
        <ele>81.56</ele>
        <time>2023-10-22T11:37:45Z</time>
      </trkpt>
      <trkpt lat="47.02427" lon="-1.69989">
        <ele>80.87</ele>
        <time>2023-10-22T11:37:47Z</time>
      </trkpt>
      <trkpt lat="47.02425" lon="-1.69968">
        <ele>81.41</ele>
        <time>2023-10-22T11:37:49Z</time>
      </trkpt>
      <trkpt lat="47.0242" lon="-1.69946">
        <ele>80.79</ele>
        <time>2023-10-22T11:37:51Z</time>
      </trkpt>
      <trkpt lat="47.02419" lon="-1.69923">
        <ele>81.5</ele>
        <time>2023-10-22T11:37:53Z</time>
      </trkpt>
      <trkpt lat="47.02417" lon="-1.69904">
        <ele>82.58</ele>
        <time>2023-10-22T11:37:55Z</time>
      </trkpt>
      <trkpt lat="47.02414" lon="-1.69886">
        <ele>82.75</ele>
        <time>2023-10-22T11:37:57Z</time>
      </trkpt>
      <trkpt lat="47.02412" lon="-1.69867">
        <ele>83.42</ele>
        <time>2023-10-22T11:37:59Z</time>
      </trkpt>
      <trkpt lat="47.02405" lon="-1.69852">
        <ele>82.43</ele>
        <time>2023-10-22T11:38:01Z</time>
      </trkpt>
      <trkpt lat="47.024" lon="-1.69834">
        <ele>81.45</ele>
        <time>2023-10-22T11:38:03Z</time>
      </trkpt>
      <trkpt lat="47.02392" lon="-1.69816">
        <ele>81.31</ele>
        <time>2023-10-22T11:38:05Z</time>
      </trkpt>
      <trkpt lat="47.02383" lon="-1.698">
        <ele>82.41</ele>
        <time>2023-10-22T11:38:07Z</time>
      </trkpt>
      <trkpt lat="47.02375" lon="-1.69786">
        <ele>84.76</ele>
        <time>2023-10-22T11:38:09Z</time>
      </trkpt>
      <trkpt lat="47.02367" lon="-1.6977">
        <ele>85.93</ele>
        <time>2023-10-22T11:38:11Z</time>
      </trkpt>
      <trkpt lat="47.02358" lon="-1.69755">
        <ele>85.98</ele>
        <time>2023-10-22T11:38:13Z</time>
      </trkpt>
      <trkpt lat="47.0235" lon="-1.69741">
        <ele>85.67</ele>
        <time>2023-10-22T11:38:15Z</time>
      </trkpt>
      <trkpt lat="47.02343" lon="-1.69726">
        <ele>87.78</ele>
        <time>2023-10-22T11:38:17Z</time>
      </trkpt>
      <trkpt lat="47.02336" lon="-1.69712">
        <ele>88.26</ele>
        <time>2023-10-22T11:38:19Z</time>
      </trkpt>
      <trkpt lat="47.02329" lon="-1.697">
        <ele>89.69</ele>
        <time>2023-10-22T11:38:21Z</time>
      </trkpt>
      <trkpt lat="47.02321" lon="-1.69687">
        <ele>90.36</ele>
        <time>2023-10-22T11:38:23Z</time>
      </trkpt>
      <trkpt lat="47.02313" lon="-1.69674">
        <ele>90.04</ele>
        <time>2023-10-22T11:38:25Z</time>
      </trkpt>
      <trkpt lat="47.02305" lon="-1.6966">
        <ele>90.8</ele>
        <time>2023-10-22T11:38:27Z</time>
      </trkpt>
      <trkpt lat="47.02297" lon="-1.69644">
        <ele>90.29</ele>
        <time>2023-10-22T11:38:29Z</time>
      </trkpt>
      <trkpt lat="47.02287" lon="-1.69633">
        <ele>89.06</ele>
        <time>2023-10-22T11:38:31Z</time>
      </trkpt>
      <trkpt lat="47.02279" lon="-1.69618">
        <ele>89.75</ele>
        <time>2023-10-22T11:38:33Z</time>
      </trkpt>
      <trkpt lat="47.0227" lon="-1.69603">
        <ele>89.73</ele>
        <time>2023-10-22T11:38:35Z</time>
      </trkpt>
      <trkpt lat="47.02262" lon="-1.69588">
        <ele>88.32</ele>
        <time>2023-10-22T11:38:37Z</time>
      </trkpt>
      <trkpt lat="47.02256" lon="-1.69571">
        <ele>88.77</ele>
        <time>2023-10-22T11:38:39Z</time>
      </trkpt>
      <trkpt lat="47.0225" lon="-1.69553">
        <ele>89.69</ele>
        <time>2023-10-22T11:38:41Z</time>
      </trkpt>
      <trkpt lat="47.02244" lon="-1.69536">
        <ele>88.72</ele>
        <time>2023-10-22T11:38:43Z</time>
      </trkpt>
      <trkpt lat="47.02239" lon="-1.69519">
        <ele>87.69</ele>
        <time>2023-10-22T11:38:45Z</time>
      </trkpt>
      <trkpt lat="47.02235" lon="-1.69498">
        <ele>87.41</ele>
        <time>2023-10-22T11:38:47Z</time>
      </trkpt>
      <trkpt lat="47.02232" lon="-1.69479">
        <ele>87.29</ele>
        <time>2023-10-22T11:38:49Z</time>
      </trkpt>
      <trkpt lat="47.02229" lon="-1.69458">
        <ele>87.8</ele>
        <time>2023-10-22T11:38:51Z</time>
      </trkpt>
      <trkpt lat="47.02225" lon="-1.6944">
        <ele>87.8</ele>
        <time>2023-10-22T11:38:53Z</time>
      </trkpt>
      <trkpt lat="47.02221" lon="-1.69424">
        <ele>86.72</ele>
        <time>2023-10-22T11:38:55Z</time>
      </trkpt>
      <trkpt lat="47.02219" lon="-1.69405">
        <ele>87.09</ele>
        <time>2023-10-22T11:38:57Z</time>
      </trkpt>
      <trkpt lat="47.02217" lon="-1.69387">
        <ele>87.59</ele>
        <time>2023-10-22T11:38:59Z</time>
      </trkpt>
      <trkpt lat="47.02214" lon="-1.69367">
        <ele>87.25</ele>
        <time>2023-10-22T11:39:01Z</time>
      </trkpt>
      <trkpt lat="47.02215" lon="-1.69347">
        <ele>88.48</ele>
        <time>2023-10-22T11:39:03Z</time>
      </trkpt>
      <trkpt lat="47.02217" lon="-1.69327">
        <ele>87.45</ele>
        <time>2023-10-22T11:39:05Z</time>
      </trkpt>
      <trkpt lat="47.02219" lon="-1.69306">
        <ele>86.86</ele>
        <time>2023-10-22T11:39:07Z</time>
      </trkpt>
      <trkpt lat="47.02223" lon="-1.69287">
        <ele>87.36</ele>
        <time>2023-10-22T11:39:09Z</time>
      </trkpt>
      <trkpt lat="47.02227" lon="-1.69269">
        <ele>88.58</ele>
        <time>2023-10-22T11:39:11Z</time>
      </trkpt>
      <trkpt lat="47.02228" lon="-1.69249">
        <ele>88.29</ele>
        <time>2023-10-22T11:39:13Z</time>
      </trkpt>
      <trkpt lat="47.02227" lon="-1.69229">
        <ele>87.53</ele>
        <time>2023-10-22T11:39:15Z</time>
      </trkpt>
      <trkpt lat="47.02225" lon="-1.6921">
        <ele>87.38</ele>
        <time>2023-10-22T11:39:17Z</time>
      </trkpt>
      <trkpt lat="47.02222" lon="-1.69192">
        <ele>87.68</ele>
        <time>2023-10-22T11:39:19Z</time>
      </trkpt>
      <trkpt lat="47.02218" lon="-1.69173">
        <ele>87.48</ele>
        <time>2023-10-22T11:39:21Z</time>
      </trkpt>
      <trkpt lat="47.02214" lon="-1.69155">
        <ele>87.69</ele>
        <time>2023-10-22T11:39:23Z</time>
      </trkpt>
      <trkpt lat="47.02209" lon="-1.69136">
        <ele>87.8</ele>
        <time>2023-10-22T11:39:25Z</time>
      </trkpt>
      <trkpt lat="47.02204" lon="-1.69119">
        <ele>88.65</ele>
        <time>2023-10-22T11:39:27Z</time>
      </trkpt>
      <trkpt lat="47.022" lon="-1.69101">
        <ele>88.83</ele>
        <time>2023-10-22T11:39:29Z</time>
      </trkpt>
      <trkpt lat="47.02195" lon="-1.69083">
        <ele>88.69</ele>
        <time>2023-10-22T11:39:31Z</time>
      </trkpt>
      <trkpt lat="47.02191" lon="-1.69064">
        <ele>88.95</ele>
        <time>2023-10-22T11:39:33Z</time>
      </trkpt>
      <trkpt lat="47.02189" lon="-1.69045">
        <ele>89.64</ele>
        <time>2023-10-22T11:39:35Z</time>
      </trkpt>
      <trkpt lat="47.02188" lon="-1.69025">
        <ele>90.89</ele>
        <time>2023-10-22T11:39:37Z</time>
      </trkpt>
      <trkpt lat="47.02187" lon="-1.69005">
        <ele>90.4</ele>
        <time>2023-10-22T11:39:39Z</time>
      </trkpt>
      <trkpt lat="47.02188" lon="-1.68988">
        <ele>90.7</ele>
        <time>2023-10-22T11:39:41Z</time>
      </trkpt>
      <trkpt lat="47.02188" lon="-1.68968">
        <ele>91.86</ele>
        <time>2023-10-22T11:39:43Z</time>
      </trkpt>
      <trkpt lat="47.02188" lon="-1.68948">
        <ele>91.56</ele>
        <time>2023-10-22T11:39:45Z</time>
      </trkpt>
      <trkpt lat="47.02188" lon="-1.68927">
        <ele>89.14</ele>
        <time>2023-10-22T11:39:47Z</time>
      </trkpt>
      <trkpt lat="47.02189" lon="-1.6891">
        <ele>88.93</ele>
        <time>2023-10-22T11:39:49Z</time>
      </trkpt>
      <trkpt lat="47.02192" lon="-1.68891">
        <ele>89.5</ele>
        <time>2023-10-22T11:39:51Z</time>
      </trkpt>
      <trkpt lat="47.02194" lon="-1.68872">
        <ele>90.23</ele>
        <time>2023-10-22T11:39:53Z</time>
      </trkpt>
      <trkpt lat="47.02196" lon="-1.68852">
        <ele>91.12</ele>
        <time>2023-10-22T11:39:55Z</time>
      </trkpt>
      <trkpt lat="47.02197" lon="-1.68836">
        <ele>90.77</ele>
        <time>2023-10-22T11:39:57Z</time>
      </trkpt>
      <trkpt lat="47.02198" lon="-1.68818">
        <ele>90.29</ele>
        <time>2023-10-22T11:39:59Z</time>
      </trkpt>
      <trkpt lat="47.02196" lon="-1.68799">
        <ele>90.44</ele>
        <time>2023-10-22T11:40:02Z</time>
      </trkpt>
      <trkpt lat="47.02198" lon="-1.68785">
        <ele>92.81</ele>
        <time>2023-10-22T11:40:05Z</time>
      </trkpt>
      <trkpt lat="47.02205" lon="-1.6877">
        <ele>93.19</ele>
        <time>2023-10-22T11:40:08Z</time>
      </trkpt>
      <trkpt lat="47.02214" lon="-1.68758">
        <ele>94.63</ele>
        <time>2023-10-22T11:40:10Z</time>
      </trkpt>
      <trkpt lat="47.02221" lon="-1.68744">
        <ele>94.25</ele>
        <time>2023-10-22T11:40:12Z</time>
      </trkpt>
      <trkpt lat="47.02229" lon="-1.6873">
        <ele>94.97</ele>
        <time>2023-10-22T11:40:14Z</time>
      </trkpt>
      <trkpt lat="47.02235" lon="-1.68718">
        <ele>95.01</ele>
        <time>2023-10-22T11:40:16Z</time>
      </trkpt>
      <trkpt lat="47.02245" lon="-1.687">
        <ele>96.59</ele>
        <time>2023-10-22T11:40:19Z</time>
      </trkpt>
      <trkpt lat="47.02249" lon="-1.68689">
        <ele>95.63</ele>
        <time>2023-10-22T11:40:21Z</time>
      </trkpt>
      <trkpt lat="47.02259" lon="-1.68672">
        <ele>95.82</ele>
        <time>2023-10-22T11:40:24Z</time>
      </trkpt>
      <trkpt lat="47.02266" lon="-1.6866">
        <ele>96.81</ele>
        <time>2023-10-22T11:40:26Z</time>
      </trkpt>
      <trkpt lat="47.02272" lon="-1.68648">
        <ele>97.26</ele>
        <time>2023-10-22T11:40:28Z</time>
      </trkpt>
      <trkpt lat="47.02279" lon="-1.68637">
        <ele>97.3</ele>
        <time>2023-10-22T11:40:30Z</time>
      </trkpt>
      <trkpt lat="47.0229" lon="-1.68616">
        <ele>97.4</ele>
        <time>2023-10-22T11:40:34Z</time>
      </trkpt>
      <trkpt lat="47.02297" lon="-1.68603">
        <ele>97.95</ele>
        <time>2023-10-22T11:40:36Z</time>
      </trkpt>
      <trkpt lat="47.02304" lon="-1.68592">
        <ele>98.21</ele>
        <time>2023-10-22T11:40:38Z</time>
      </trkpt>
      <trkpt lat="47.02311" lon="-1.68581">
        <ele>99.14</ele>
        <time>2023-10-22T11:40:40Z</time>
      </trkpt>
      <trkpt lat="47.02317" lon="-1.68568">
        <ele>99.6</ele>
        <time>2023-10-22T11:40:42Z</time>
      </trkpt>
      <trkpt lat="47.02323" lon="-1.68556">
        <ele>99</ele>
        <time>2023-10-22T11:40:44Z</time>
      </trkpt>
      <trkpt lat="47.02329" lon="-1.68543">
        <ele>99.15</ele>
        <time>2023-10-22T11:40:46Z</time>
      </trkpt>
      <trkpt lat="47.02336" lon="-1.68532">
        <ele>100.97</ele>
        <time>2023-10-22T11:40:48Z</time>
      </trkpt>
      <trkpt lat="47.02343" lon="-1.68521">
        <ele>101.23</ele>
        <time>2023-10-22T11:40:50Z</time>
      </trkpt>
      <trkpt lat="47.02349" lon="-1.68509">
        <ele>101.65</ele>
        <time>2023-10-22T11:40:52Z</time>
      </trkpt>
      <trkpt lat="47.02355" lon="-1.68498">
        <ele>101.55</ele>
        <time>2023-10-22T11:40:54Z</time>
      </trkpt>
      <trkpt lat="47.0236" lon="-1.68487">
        <ele>101.7</ele>
        <time>2023-10-22T11:40:56Z</time>
      </trkpt>
      <trkpt lat="47.02366" lon="-1.68474">
        <ele>101.55</ele>
        <time>2023-10-22T11:40:58Z</time>
      </trkpt>
      <trkpt lat="47.02373" lon="-1.68459">
        <ele>101.69</ele>
        <time>2023-10-22T11:41:00Z</time>
      </trkpt>
      <trkpt lat="47.0238" lon="-1.68442">
        <ele>103.1</ele>
        <time>2023-10-22T11:41:02Z</time>
      </trkpt>
      <trkpt lat="47.02385" lon="-1.68426">
        <ele>102.44</ele>
        <time>2023-10-22T11:41:04Z</time>
      </trkpt>
      <trkpt lat="47.02392" lon="-1.68408">
        <ele>100.79</ele>
        <time>2023-10-22T11:41:06Z</time>
      </trkpt>
      <trkpt lat="47.02397" lon="-1.68392">
        <ele>101.8</ele>
        <time>2023-10-22T11:41:08Z</time>
      </trkpt>
      <trkpt lat="47.02403" lon="-1.68377">
        <ele>101.79</ele>
        <time>2023-10-22T11:41:10Z</time>
      </trkpt>
      <trkpt lat="47.02409" lon="-1.68359">
        <ele>102.01</ele>
        <time>2023-10-22T11:41:12Z</time>
      </trkpt>
      <trkpt lat="47.02416" lon="-1.68341">
        <ele>102.41</ele>
        <time>2023-10-22T11:41:14Z</time>
      </trkpt>
      <trkpt lat="47.02424" lon="-1.68322">
        <ele>102.72</ele>
        <time>2023-10-22T11:41:16Z</time>
      </trkpt>
      <trkpt lat="47.0243" lon="-1.68298">
        <ele>103.12</ele>
        <time>2023-10-22T11:41:18Z</time>
      </trkpt>
      <trkpt lat="47.02437" lon="-1.68281">
        <ele>103.11</ele>
        <time>2023-10-22T11:41:20Z</time>
      </trkpt>
      <trkpt lat="47.02443" lon="-1.68262">
        <ele>102.57</ele>
        <time>2023-10-22T11:41:22Z</time>
      </trkpt>
      <trkpt lat="47.0245" lon="-1.68245">
        <ele>102.46</ele>
        <time>2023-10-22T11:41:24Z</time>
      </trkpt>
      <trkpt lat="47.02457" lon="-1.68225">
        <ele>101.63</ele>
        <time>2023-10-22T11:41:26Z</time>
      </trkpt>
      <trkpt lat="47.02464" lon="-1.68205">
        <ele>102.37</ele>
        <time>2023-10-22T11:41:28Z</time>
      </trkpt>
      <trkpt lat="47.02472" lon="-1.68189">
        <ele>102.27</ele>
        <time>2023-10-22T11:41:30Z</time>
      </trkpt>
      <trkpt lat="47.02479" lon="-1.68172">
        <ele>102.75</ele>
        <time>2023-10-22T11:41:32Z</time>
      </trkpt>
      <trkpt lat="47.02486" lon="-1.68153">
        <ele>102.31</ele>
        <time>2023-10-22T11:41:34Z</time>
      </trkpt>
      <trkpt lat="47.02493" lon="-1.68132">
        <ele>101.98</ele>
        <time>2023-10-22T11:41:36Z</time>
      </trkpt>
      <trkpt lat="47.02501" lon="-1.68112">
        <ele>101.58</ele>
        <time>2023-10-22T11:41:38Z</time>
      </trkpt>
      <trkpt lat="47.02508" lon="-1.68092">
        <ele>101.45</ele>
        <time>2023-10-22T11:41:40Z</time>
      </trkpt>
      <trkpt lat="47.02515" lon="-1.68071">
        <ele>101.52</ele>
        <time>2023-10-22T11:41:42Z</time>
      </trkpt>
      <trkpt lat="47.02522" lon="-1.68052">
        <ele>103.08</ele>
        <time>2023-10-22T11:41:44Z</time>
      </trkpt>
      <trkpt lat="47.0253" lon="-1.68034">
        <ele>102.98</ele>
        <time>2023-10-22T11:41:46Z</time>
      </trkpt>
      <trkpt lat="47.02537" lon="-1.68014">
        <ele>102.8</ele>
        <time>2023-10-22T11:41:48Z</time>
      </trkpt>
      <trkpt lat="47.02545" lon="-1.67994">
        <ele>101.72</ele>
        <time>2023-10-22T11:41:50Z</time>
      </trkpt>
      <trkpt lat="47.02552" lon="-1.67974">
        <ele>102.26</ele>
        <time>2023-10-22T11:41:52Z</time>
      </trkpt>
      <trkpt lat="47.02559" lon="-1.67957">
        <ele>101.83</ele>
        <time>2023-10-22T11:41:54Z</time>
      </trkpt>
      <trkpt lat="47.02565" lon="-1.67936">
        <ele>100.87</ele>
        <time>2023-10-22T11:41:56Z</time>
      </trkpt>
      <trkpt lat="47.02573" lon="-1.67917">
        <ele>101.58</ele>
        <time>2023-10-22T11:41:58Z</time>
      </trkpt>
      <trkpt lat="47.02581" lon="-1.67897">
        <ele>101.85</ele>
        <time>2023-10-22T11:42:00Z</time>
      </trkpt>
      <trkpt lat="47.02587" lon="-1.67879">
        <ele>101.64</ele>
        <time>2023-10-22T11:42:02Z</time>
      </trkpt>
      <trkpt lat="47.02596" lon="-1.6786">
        <ele>103.37</ele>
        <time>2023-10-22T11:42:04Z</time>
      </trkpt>
      <trkpt lat="47.02602" lon="-1.67833">
        <ele>103.84</ele>
        <time>2023-10-22T11:42:06Z</time>
      </trkpt>
      <trkpt lat="47.02609" lon="-1.6782">
        <ele>102.69</ele>
        <time>2023-10-22T11:42:08Z</time>
      </trkpt>
      <trkpt lat="47.02619" lon="-1.67801">
        <ele>102.65</ele>
        <time>2023-10-22T11:42:10Z</time>
      </trkpt>
      <trkpt lat="47.02623" lon="-1.67789">
        <ele>102.83</ele>
        <time>2023-10-22T11:42:11Z</time>
      </trkpt>
      <trkpt lat="47.02625" lon="-1.67775">
        <ele>102.12</ele>
        <time>2023-10-22T11:42:12Z</time>
      </trkpt>
      <trkpt lat="47.0263" lon="-1.67762">
        <ele>101.41</ele>
        <time>2023-10-22T11:42:13Z</time>
      </trkpt>
      <trkpt lat="47.02638" lon="-1.67747">
        <ele>101.07</ele>
        <time>2023-10-22T11:42:15Z</time>
      </trkpt>
      <trkpt lat="47.02644" lon="-1.67727">
        <ele>100.55</ele>
        <time>2023-10-22T11:42:17Z</time>
      </trkpt>
      <trkpt lat="47.02649" lon="-1.67705">
        <ele>98.63</ele>
        <time>2023-10-22T11:42:19Z</time>
      </trkpt>
      <trkpt lat="47.02656" lon="-1.67686">
        <ele>97.99</ele>
        <time>2023-10-22T11:42:21Z</time>
      </trkpt>
      <trkpt lat="47.02668" lon="-1.67669">
        <ele>98.61</ele>
        <time>2023-10-22T11:42:23Z</time>
      </trkpt>
      <trkpt lat="47.02675" lon="-1.67651">
        <ele>98.6</ele>
        <time>2023-10-22T11:42:25Z</time>
      </trkpt>
      <trkpt lat="47.02677" lon="-1.67627">
        <ele>95.76</ele>
        <time>2023-10-22T11:42:27Z</time>
      </trkpt>
      <trkpt lat="47.02684" lon="-1.67609">
        <ele>96.59</ele>
        <time>2023-10-22T11:42:29Z</time>
      </trkpt>
      <trkpt lat="47.02691" lon="-1.67595">
        <ele>96.23</ele>
        <time>2023-10-22T11:42:31Z</time>
      </trkpt>
      <trkpt lat="47.02695" lon="-1.67582">
        <ele>94.26</ele>
        <time>2023-10-22T11:42:32Z</time>
      </trkpt>
      <trkpt lat="47.027" lon="-1.6756">
        <ele>97.05</ele>
        <time>2023-10-22T11:42:34Z</time>
      </trkpt>
      <trkpt lat="47.0271" lon="-1.6754">
        <ele>93.99</ele>
        <time>2023-10-22T11:42:36Z</time>
      </trkpt>
      <trkpt lat="47.02718" lon="-1.67522">
        <ele>93.36</ele>
        <time>2023-10-22T11:42:38Z</time>
      </trkpt>
      <trkpt lat="47.02725" lon="-1.675">
        <ele>90.68</ele>
        <time>2023-10-22T11:42:40Z</time>
      </trkpt>
      <trkpt lat="47.02729" lon="-1.67488">
        <ele>87.64</ele>
        <time>2023-10-22T11:42:41Z</time>
      </trkpt>
      <trkpt lat="47.02738" lon="-1.67467">
        <ele>87.25</ele>
        <time>2023-10-22T11:42:43Z</time>
      </trkpt>
      <trkpt lat="47.02745" lon="-1.67449">
        <ele>89.59</ele>
        <time>2023-10-22T11:42:45Z</time>
      </trkpt>
      <trkpt lat="47.02753" lon="-1.67425">
        <ele>90.51</ele>
        <time>2023-10-22T11:42:47Z</time>
      </trkpt>
      <trkpt lat="47.02761" lon="-1.67405">
        <ele>91.51</ele>
        <time>2023-10-22T11:42:49Z</time>
      </trkpt>
      <trkpt lat="47.02768" lon="-1.67386">
        <ele>93.79</ele>
        <time>2023-10-22T11:42:51Z</time>
      </trkpt>
      <trkpt lat="47.02775" lon="-1.67366">
        <ele>92.94</ele>
        <time>2023-10-22T11:42:53Z</time>
      </trkpt>
      <trkpt lat="47.02783" lon="-1.67344">
        <ele>91.15</ele>
        <time>2023-10-22T11:42:55Z</time>
      </trkpt>
      <trkpt lat="47.02792" lon="-1.67325">
        <ele>92.75</ele>
        <time>2023-10-22T11:42:57Z</time>
      </trkpt>
      <trkpt lat="47.02799" lon="-1.67301">
        <ele>92.62</ele>
        <time>2023-10-22T11:42:59Z</time>
      </trkpt>
      <trkpt lat="47.02808" lon="-1.67279">
        <ele>91.62</ele>
        <time>2023-10-22T11:43:01Z</time>
      </trkpt>
      <trkpt lat="47.02817" lon="-1.67256">
        <ele>92.7</ele>
        <time>2023-10-22T11:43:03Z</time>
      </trkpt>
      <trkpt lat="47.02827" lon="-1.67237">
        <ele>95.47</ele>
        <time>2023-10-22T11:43:05Z</time>
      </trkpt>
      <trkpt lat="47.0283" lon="-1.67225">
        <ele>94.39</ele>
        <time>2023-10-22T11:43:06Z</time>
      </trkpt>
      <trkpt lat="47.02838" lon="-1.67205">
        <ele>95.11</ele>
        <time>2023-10-22T11:43:08Z</time>
      </trkpt>
      <trkpt lat="47.02846" lon="-1.67184">
        <ele>95.83</ele>
        <time>2023-10-22T11:43:10Z</time>
      </trkpt>
      <trkpt lat="47.02854" lon="-1.67162">
        <ele>93.64</ele>
        <time>2023-10-22T11:43:12Z</time>
      </trkpt>
      <trkpt lat="47.02862" lon="-1.67141">
        <ele>96.23</ele>
        <time>2023-10-22T11:43:14Z</time>
      </trkpt>
      <trkpt lat="47.02866" lon="-1.67129">
        <ele>95.02</ele>
        <time>2023-10-22T11:43:15Z</time>
      </trkpt>
      <trkpt lat="47.02871" lon="-1.67118">
        <ele>95.97</ele>
        <time>2023-10-22T11:43:16Z</time>
      </trkpt>
      <trkpt lat="47.02879" lon="-1.67096">
        <ele>96.77</ele>
        <time>2023-10-22T11:43:18Z</time>
      </trkpt>
      <trkpt lat="47.02886" lon="-1.67074">
        <ele>96.43</ele>
        <time>2023-10-22T11:43:20Z</time>
      </trkpt>
      <trkpt lat="47.0289" lon="-1.67061">
        <ele>94.68</ele>
        <time>2023-10-22T11:43:21Z</time>
      </trkpt>
      <trkpt lat="47.029" lon="-1.67039">
        <ele>91.49</ele>
        <time>2023-10-22T11:43:23Z</time>
      </trkpt>
      <trkpt lat="47.02908" lon="-1.67019">
        <ele>92.26</ele>
        <time>2023-10-22T11:43:25Z</time>
      </trkpt>
      <trkpt lat="47.02917" lon="-1.66999">
        <ele>92.78</ele>
        <time>2023-10-22T11:43:27Z</time>
      </trkpt>
      <trkpt lat="47.02925" lon="-1.66976">
        <ele>90.52</ele>
        <time>2023-10-22T11:43:29Z</time>
      </trkpt>
      <trkpt lat="47.02929" lon="-1.66955">
        <ele>89.56</ele>
        <time>2023-10-22T11:43:31Z</time>
      </trkpt>
      <trkpt lat="47.02938" lon="-1.66934">
        <ele>89.43</ele>
        <time>2023-10-22T11:43:33Z</time>
      </trkpt>
      <trkpt lat="47.02943" lon="-1.66923">
        <ele>88.12</ele>
        <time>2023-10-22T11:43:34Z</time>
      </trkpt>
      <trkpt lat="47.0295" lon="-1.669">
        <ele>86.79</ele>
        <time>2023-10-22T11:43:36Z</time>
      </trkpt>
      <trkpt lat="47.02957" lon="-1.66879">
        <ele>84.94</ele>
        <time>2023-10-22T11:43:38Z</time>
      </trkpt>
      <trkpt lat="47.02967" lon="-1.66859">
        <ele>88.25</ele>
        <time>2023-10-22T11:43:40Z</time>
      </trkpt>
      <trkpt lat="47.02974" lon="-1.66839">
        <ele>88.38</ele>
        <time>2023-10-22T11:43:42Z</time>
      </trkpt>
      <trkpt lat="47.02982" lon="-1.66818">
        <ele>89.32</ele>
        <time>2023-10-22T11:43:44Z</time>
      </trkpt>
      <trkpt lat="47.02992" lon="-1.66799">
        <ele>91.66</ele>
        <time>2023-10-22T11:43:46Z</time>
      </trkpt>
      <trkpt lat="47.02999" lon="-1.6678">
        <ele>92.04</ele>
        <time>2023-10-22T11:43:48Z</time>
      </trkpt>
      <trkpt lat="47.03004" lon="-1.66759">
        <ele>91.41</ele>
        <time>2023-10-22T11:43:50Z</time>
      </trkpt>
      <trkpt lat="47.0301" lon="-1.6674">
        <ele>90.82</ele>
        <time>2023-10-22T11:43:52Z</time>
      </trkpt>
      <trkpt lat="47.03018" lon="-1.6672">
        <ele>92.03</ele>
        <time>2023-10-22T11:43:54Z</time>
      </trkpt>
      <trkpt lat="47.03025" lon="-1.667">
        <ele>90.68</ele>
        <time>2023-10-22T11:43:56Z</time>
      </trkpt>
      <trkpt lat="47.03034" lon="-1.6668">
        <ele>90.46</ele>
        <time>2023-10-22T11:43:58Z</time>
      </trkpt>
      <trkpt lat="47.03041" lon="-1.66659">
        <ele>90.27</ele>
        <time>2023-10-22T11:44:00Z</time>
      </trkpt>
      <trkpt lat="47.03048" lon="-1.66638">
        <ele>91.09</ele>
        <time>2023-10-22T11:44:02Z</time>
      </trkpt>
      <trkpt lat="47.03053" lon="-1.66626">
        <ele>90.27</ele>
        <time>2023-10-22T11:44:03Z</time>
      </trkpt>
      <trkpt lat="47.03058" lon="-1.66614">
        <ele>88.33</ele>
        <time>2023-10-22T11:44:04Z</time>
      </trkpt>
      <trkpt lat="47.03062" lon="-1.66602">
        <ele>88.11</ele>
        <time>2023-10-22T11:44:05Z</time>
      </trkpt>
      <trkpt lat="47.03067" lon="-1.66591">
        <ele>87.34</ele>
        <time>2023-10-22T11:44:06Z</time>
      </trkpt>
      <trkpt lat="47.03072" lon="-1.66579">
        <ele>87.15</ele>
        <time>2023-10-22T11:44:07Z</time>
      </trkpt>
      <trkpt lat="47.03076" lon="-1.66567">
        <ele>86.1</ele>
        <time>2023-10-22T11:44:08Z</time>
      </trkpt>
      <trkpt lat="47.03081" lon="-1.66555">
        <ele>86.15</ele>
        <time>2023-10-22T11:44:09Z</time>
      </trkpt>
      <trkpt lat="47.03085" lon="-1.66542">
        <ele>86.89</ele>
        <time>2023-10-22T11:44:10Z</time>
      </trkpt>
      <trkpt lat="47.0309" lon="-1.6653">
        <ele>86.91</ele>
        <time>2023-10-22T11:44:11Z</time>
      </trkpt>
      <trkpt lat="47.03094" lon="-1.66516">
        <ele>86.11</ele>
        <time>2023-10-22T11:44:12Z</time>
      </trkpt>
      <trkpt lat="47.03099" lon="-1.66503">
        <ele>86.55</ele>
        <time>2023-10-22T11:44:13Z</time>
      </trkpt>
      <trkpt lat="47.03105" lon="-1.66491">
        <ele>87.06</ele>
        <time>2023-10-22T11:44:14Z</time>
      </trkpt>
      <trkpt lat="47.03112" lon="-1.66478">
        <ele>86.5</ele>
        <time>2023-10-22T11:44:15Z</time>
      </trkpt>
      <trkpt lat="47.03119" lon="-1.66468">
        <ele>86.44</ele>
        <time>2023-10-22T11:44:16Z</time>
      </trkpt>
      <trkpt lat="47.03127" lon="-1.66456">
        <ele>85.25</ele>
        <time>2023-10-22T11:44:17Z</time>
      </trkpt>
      <trkpt lat="47.03135" lon="-1.66445">
        <ele>84.61</ele>
        <time>2023-10-22T11:44:18Z</time>
      </trkpt>
      <trkpt lat="47.03143" lon="-1.66434">
        <ele>84.3</ele>
        <time>2023-10-22T11:44:19Z</time>
      </trkpt>
      <trkpt lat="47.03151" lon="-1.66423">
        <ele>83.2</ele>
        <time>2023-10-22T11:44:20Z</time>
      </trkpt>
      <trkpt lat="47.03159" lon="-1.66411">
        <ele>83.97</ele>
        <time>2023-10-22T11:44:21Z</time>
      </trkpt>
      <trkpt lat="47.03166" lon="-1.66399">
        <ele>82.46</ele>
        <time>2023-10-22T11:44:22Z</time>
      </trkpt>
      <trkpt lat="47.03173" lon="-1.66387">
        <ele>82.1</ele>
        <time>2023-10-22T11:44:23Z</time>
      </trkpt>
      <trkpt lat="47.0318" lon="-1.66375">
        <ele>81.33</ele>
        <time>2023-10-22T11:44:24Z</time>
      </trkpt>
      <trkpt lat="47.03186" lon="-1.66362">
        <ele>80.29</ele>
        <time>2023-10-22T11:44:25Z</time>
      </trkpt>
      <trkpt lat="47.03193" lon="-1.6635">
        <ele>80.58</ele>
        <time>2023-10-22T11:44:26Z</time>
      </trkpt>
      <trkpt lat="47.032" lon="-1.66337">
        <ele>81.1</ele>
        <time>2023-10-22T11:44:27Z</time>
      </trkpt>
      <trkpt lat="47.03206" lon="-1.66323">
        <ele>81.16</ele>
        <time>2023-10-22T11:44:28Z</time>
      </trkpt>
      <trkpt lat="47.03212" lon="-1.6631">
        <ele>80.54</ele>
        <time>2023-10-22T11:44:29Z</time>
      </trkpt>
      <trkpt lat="47.03217" lon="-1.66295">
        <ele>79.48</ele>
        <time>2023-10-22T11:44:30Z</time>
      </trkpt>
      <trkpt lat="47.03222" lon="-1.66282">
        <ele>79.85</ele>
        <time>2023-10-22T11:44:31Z</time>
      </trkpt>
      <trkpt lat="47.03228" lon="-1.66269">
        <ele>80.13</ele>
        <time>2023-10-22T11:44:32Z</time>
      </trkpt>
      <trkpt lat="47.03234" lon="-1.66256">
        <ele>79.74</ele>
        <time>2023-10-22T11:44:33Z</time>
      </trkpt>
      <trkpt lat="47.03239" lon="-1.66242">
        <ele>80.48</ele>
        <time>2023-10-22T11:44:34Z</time>
      </trkpt>
      <trkpt lat="47.03245" lon="-1.66229">
        <ele>81.04</ele>
        <time>2023-10-22T11:44:35Z</time>
      </trkpt>
      <trkpt lat="47.03249" lon="-1.66216">
        <ele>81.14</ele>
        <time>2023-10-22T11:44:36Z</time>
      </trkpt>
      <trkpt lat="47.03256" lon="-1.66203">
        <ele>81.96</ele>
        <time>2023-10-22T11:44:37Z</time>
      </trkpt>
      <trkpt lat="47.03261" lon="-1.6619">
        <ele>80.39</ele>
        <time>2023-10-22T11:44:38Z</time>
      </trkpt>
      <trkpt lat="47.03266" lon="-1.66176">
        <ele>79.83</ele>
        <time>2023-10-22T11:44:39Z</time>
      </trkpt>
      <trkpt lat="47.03271" lon="-1.66163">
        <ele>79.33</ele>
        <time>2023-10-22T11:44:40Z</time>
      </trkpt>
      <trkpt lat="47.03276" lon="-1.6615">
        <ele>78.87</ele>
        <time>2023-10-22T11:44:41Z</time>
      </trkpt>
      <trkpt lat="47.0328" lon="-1.66136">
        <ele>76.65</ele>
        <time>2023-10-22T11:44:42Z</time>
      </trkpt>
      <trkpt lat="47.03287" lon="-1.66126">
        <ele>76.48</ele>
        <time>2023-10-22T11:44:43Z</time>
      </trkpt>
      <trkpt lat="47.03295" lon="-1.66117">
        <ele>76.65</ele>
        <time>2023-10-22T11:44:44Z</time>
      </trkpt>
      <trkpt lat="47.03303" lon="-1.6611">
        <ele>77.19</ele>
        <time>2023-10-22T11:44:45Z</time>
      </trkpt>
      <trkpt lat="47.03312" lon="-1.66105">
        <ele>77.21</ele>
        <time>2023-10-22T11:44:46Z</time>
      </trkpt>
      <trkpt lat="47.03329" lon="-1.66103">
        <ele>77.75</ele>
        <time>2023-10-22T11:44:48Z</time>
      </trkpt>
      <trkpt lat="47.03347" lon="-1.66107">
        <ele>77.92</ele>
        <time>2023-10-22T11:44:50Z</time>
      </trkpt>
      <trkpt lat="47.0336" lon="-1.66118">
        <ele>78.51</ele>
        <time>2023-10-22T11:44:52Z</time>
      </trkpt>
      <trkpt lat="47.03375" lon="-1.66119">
        <ele>75.21</ele>
        <time>2023-10-22T11:44:54Z</time>
      </trkpt>
      <trkpt lat="47.03388" lon="-1.6611">
        <ele>75.21</ele>
        <time>2023-10-22T11:44:56Z</time>
      </trkpt>
      <trkpt lat="47.03389" lon="-1.66091">
        <ele>74.25</ele>
        <time>2023-10-22T11:44:58Z</time>
      </trkpt>
      <trkpt lat="47.03387" lon="-1.66071">
        <ele>74.52</ele>
        <time>2023-10-22T11:45:00Z</time>
      </trkpt>
      <trkpt lat="47.03388" lon="-1.66052">
        <ele>73.8</ele>
        <time>2023-10-22T11:45:02Z</time>
      </trkpt>
      <trkpt lat="47.03394" lon="-1.66036">
        <ele>73.71</ele>
        <time>2023-10-22T11:45:04Z</time>
      </trkpt>
      <trkpt lat="47.034" lon="-1.66019">
        <ele>73.79</ele>
        <time>2023-10-22T11:45:06Z</time>
      </trkpt>
      <trkpt lat="47.03401" lon="-1.66001">
        <ele>74.78</ele>
        <time>2023-10-22T11:45:08Z</time>
      </trkpt>
      <trkpt lat="47.03401" lon="-1.65981">
        <ele>74.56</ele>
        <time>2023-10-22T11:45:10Z</time>
      </trkpt>
      <trkpt lat="47.034" lon="-1.65962">
        <ele>72.6</ele>
        <time>2023-10-22T11:45:12Z</time>
      </trkpt>
      <trkpt lat="47.03399" lon="-1.65943">
        <ele>73.42</ele>
        <time>2023-10-22T11:45:14Z</time>
      </trkpt>
      <trkpt lat="47.03398" lon="-1.65923">
        <ele>75.31</ele>
        <time>2023-10-22T11:45:16Z</time>
      </trkpt>
      <trkpt lat="47.03394" lon="-1.65906">
        <ele>76.64</ele>
        <time>2023-10-22T11:45:18Z</time>
      </trkpt>
      <trkpt lat="47.0339" lon="-1.65889">
        <ele>76.05</ele>
        <time>2023-10-22T11:45:20Z</time>
      </trkpt>
      <trkpt lat="47.03384" lon="-1.65872">
        <ele>77.24</ele>
        <time>2023-10-22T11:45:22Z</time>
      </trkpt>
      <trkpt lat="47.03378" lon="-1.65857">
        <ele>79.08</ele>
        <time>2023-10-22T11:45:24Z</time>
      </trkpt>
      <trkpt lat="47.03371" lon="-1.65841">
        <ele>78.81</ele>
        <time>2023-10-22T11:45:26Z</time>
      </trkpt>
      <trkpt lat="47.03364" lon="-1.65826">
        <ele>78.57</ele>
        <time>2023-10-22T11:45:28Z</time>
      </trkpt>
      <trkpt lat="47.03357" lon="-1.65811">
        <ele>77.86</ele>
        <time>2023-10-22T11:45:30Z</time>
      </trkpt>
      <trkpt lat="47.0335" lon="-1.65796">
        <ele>76.91</ele>
        <time>2023-10-22T11:45:32Z</time>
      </trkpt>
      <trkpt lat="47.03343" lon="-1.65779">
        <ele>78.42</ele>
        <time>2023-10-22T11:45:34Z</time>
      </trkpt>
      <trkpt lat="47.03336" lon="-1.65763">
        <ele>79.79</ele>
        <time>2023-10-22T11:45:36Z</time>
      </trkpt>
      <trkpt lat="47.03329" lon="-1.65744">
        <ele>80.1</ele>
        <time>2023-10-22T11:45:38Z</time>
      </trkpt>
      <trkpt lat="47.03323" lon="-1.65726">
        <ele>80.11</ele>
        <time>2023-10-22T11:45:40Z</time>
      </trkpt>
      <trkpt lat="47.03319" lon="-1.65706">
        <ele>79.35</ele>
        <time>2023-10-22T11:45:42Z</time>
      </trkpt>
      <trkpt lat="47.03317" lon="-1.65686">
        <ele>79.93</ele>
        <time>2023-10-22T11:45:44Z</time>
      </trkpt>
      <trkpt lat="47.03315" lon="-1.65664">
        <ele>79.77</ele>
        <time>2023-10-22T11:45:46Z</time>
      </trkpt>
      <trkpt lat="47.03317" lon="-1.65642">
        <ele>78.21</ele>
        <time>2023-10-22T11:45:48Z</time>
      </trkpt>
      <trkpt lat="47.03316" lon="-1.65619">
        <ele>76.62</ele>
        <time>2023-10-22T11:45:50Z</time>
      </trkpt>
      <trkpt lat="47.03312" lon="-1.65598">
        <ele>74.4</ele>
        <time>2023-10-22T11:45:52Z</time>
      </trkpt>
      <trkpt lat="47.0331" lon="-1.65576">
        <ele>72.96</ele>
        <time>2023-10-22T11:45:54Z</time>
      </trkpt>
      <trkpt lat="47.03312" lon="-1.65555">
        <ele>72.04</ele>
        <time>2023-10-22T11:45:56Z</time>
      </trkpt>
      <trkpt lat="47.03312" lon="-1.65532">
        <ele>71.33</ele>
        <time>2023-10-22T11:45:58Z</time>
      </trkpt>
      <trkpt lat="47.03308" lon="-1.65509">
        <ele>67.71</ele>
        <time>2023-10-22T11:46:00Z</time>
      </trkpt>
      <trkpt lat="47.03303" lon="-1.65489">
        <ele>66.14</ele>
        <time>2023-10-22T11:46:02Z</time>
      </trkpt>
      <trkpt lat="47.03298" lon="-1.65466">
        <ele>63.04</ele>
        <time>2023-10-22T11:46:04Z</time>
      </trkpt>
      <trkpt lat="47.03292" lon="-1.65444">
        <ele>62.62</ele>
        <time>2023-10-22T11:46:06Z</time>
      </trkpt>
      <trkpt lat="47.03288" lon="-1.65423">
        <ele>62.53</ele>
        <time>2023-10-22T11:46:08Z</time>
      </trkpt>
      <trkpt lat="47.03283" lon="-1.65401">
        <ele>63.39</ele>
        <time>2023-10-22T11:46:10Z</time>
      </trkpt>
      <trkpt lat="47.03277" lon="-1.65379">
        <ele>63.02</ele>
        <time>2023-10-22T11:46:12Z</time>
      </trkpt>
      <trkpt lat="47.03271" lon="-1.65355">
        <ele>62.26</ele>
        <time>2023-10-22T11:46:14Z</time>
      </trkpt>
      <trkpt lat="47.03266" lon="-1.65332">
        <ele>62.22</ele>
        <time>2023-10-22T11:46:16Z</time>
      </trkpt>
      <trkpt lat="47.03261" lon="-1.6531">
        <ele>63.49</ele>
        <time>2023-10-22T11:46:18Z</time>
      </trkpt>
      <trkpt lat="47.03256" lon="-1.65287">
        <ele>63.2</ele>
        <time>2023-10-22T11:46:20Z</time>
      </trkpt>
      <trkpt lat="47.03249" lon="-1.65266">
        <ele>63.23</ele>
        <time>2023-10-22T11:46:22Z</time>
      </trkpt>
      <trkpt lat="47.03243" lon="-1.65245">
        <ele>64.5</ele>
        <time>2023-10-22T11:46:24Z</time>
      </trkpt>
      <trkpt lat="47.03238" lon="-1.65224">
        <ele>64.97</ele>
        <time>2023-10-22T11:46:26Z</time>
      </trkpt>
      <trkpt lat="47.03232" lon="-1.65204">
        <ele>64.3</ele>
        <time>2023-10-22T11:46:28Z</time>
      </trkpt>
      <trkpt lat="47.03226" lon="-1.65184">
        <ele>63.83</ele>
        <time>2023-10-22T11:46:30Z</time>
      </trkpt>
      <trkpt lat="47.03218" lon="-1.65166">
        <ele>63.11</ele>
        <time>2023-10-22T11:46:32Z</time>
      </trkpt>
      <trkpt lat="47.03211" lon="-1.65148">
        <ele>64.06</ele>
        <time>2023-10-22T11:46:34Z</time>
      </trkpt>
      <trkpt lat="47.03203" lon="-1.65129">
        <ele>63.92</ele>
        <time>2023-10-22T11:46:36Z</time>
      </trkpt>
      <trkpt lat="47.03195" lon="-1.65112">
        <ele>64.45</ele>
        <time>2023-10-22T11:46:38Z</time>
      </trkpt>
      <trkpt lat="47.03187" lon="-1.65094">
        <ele>64.93</ele>
        <time>2023-10-22T11:46:40Z</time>
      </trkpt>
      <trkpt lat="47.03179" lon="-1.65077">
        <ele>66.18</ele>
        <time>2023-10-22T11:46:42Z</time>
      </trkpt>
      <trkpt lat="47.03171" lon="-1.6506">
        <ele>65.97</ele>
        <time>2023-10-22T11:46:44Z</time>
      </trkpt>
      <trkpt lat="47.03162" lon="-1.65045">
        <ele>66.24</ele>
        <time>2023-10-22T11:46:46Z</time>
      </trkpt>
      <trkpt lat="47.03154" lon="-1.65029">
        <ele>67.23</ele>
        <time>2023-10-22T11:46:48Z</time>
      </trkpt>
      <trkpt lat="47.03145" lon="-1.65014">
        <ele>67.59</ele>
        <time>2023-10-22T11:46:50Z</time>
      </trkpt>
      <trkpt lat="47.03135" lon="-1.64998">
        <ele>67.75</ele>
        <time>2023-10-22T11:46:52Z</time>
      </trkpt>
      <trkpt lat="47.03126" lon="-1.64982">
        <ele>67.28</ele>
        <time>2023-10-22T11:46:54Z</time>
      </trkpt>
      <trkpt lat="47.03116" lon="-1.64967">
        <ele>67.58</ele>
        <time>2023-10-22T11:46:56Z</time>
      </trkpt>
      <trkpt lat="47.03107" lon="-1.64952">
        <ele>67.53</ele>
        <time>2023-10-22T11:46:58Z</time>
      </trkpt>
      <trkpt lat="47.03098" lon="-1.64937">
        <ele>68.32</ele>
        <time>2023-10-22T11:47:00Z</time>
      </trkpt>
      <trkpt lat="47.03089" lon="-1.64922">
        <ele>68.29</ele>
        <time>2023-10-22T11:47:02Z</time>
      </trkpt>
      <trkpt lat="47.03079" lon="-1.64906">
        <ele>68.79</ele>
        <time>2023-10-22T11:47:04Z</time>
      </trkpt>
      <trkpt lat="47.0307" lon="-1.64892">
        <ele>69.39</ele>
        <time>2023-10-22T11:47:06Z</time>
      </trkpt>
      <trkpt lat="47.03062" lon="-1.64877">
        <ele>71.64</ele>
        <time>2023-10-22T11:47:08Z</time>
      </trkpt>
      <trkpt lat="47.03054" lon="-1.64861">
        <ele>72.17</ele>
        <time>2023-10-22T11:47:10Z</time>
      </trkpt>
      <trkpt lat="47.03044" lon="-1.64847">
        <ele>72.08</ele>
        <time>2023-10-22T11:47:12Z</time>
      </trkpt>
      <trkpt lat="47.03035" lon="-1.64831">
        <ele>71.81</ele>
        <time>2023-10-22T11:47:14Z</time>
      </trkpt>
      <trkpt lat="47.03026" lon="-1.64818">
        <ele>73.07</ele>
        <time>2023-10-22T11:47:16Z</time>
      </trkpt>
      <trkpt lat="47.03015" lon="-1.64806">
        <ele>73.13</ele>
        <time>2023-10-22T11:47:18Z</time>
      </trkpt>
      <trkpt lat="47.03002" lon="-1.648">
        <ele>72.71</ele>
        <time>2023-10-22T11:47:20Z</time>
      </trkpt>
      <trkpt lat="47.02991" lon="-1.64789">
        <ele>72.55</ele>
        <time>2023-10-22T11:47:22Z</time>
      </trkpt>
      <trkpt lat="47.02986" lon="-1.64772">
        <ele>73.35</ele>
        <time>2023-10-22T11:47:24Z</time>
      </trkpt>
      <trkpt lat="47.02982" lon="-1.64752">
        <ele>75.49</ele>
        <time>2023-10-22T11:47:26Z</time>
      </trkpt>
      <trkpt lat="47.02974" lon="-1.64735">
        <ele>75.66</ele>
        <time>2023-10-22T11:47:28Z</time>
      </trkpt>
      <trkpt lat="47.02965" lon="-1.6472">
        <ele>76.13</ele>
        <time>2023-10-22T11:47:30Z</time>
      </trkpt>
      <trkpt lat="47.02955" lon="-1.64705">
        <ele>75.79</ele>
        <time>2023-10-22T11:47:32Z</time>
      </trkpt>
      <trkpt lat="47.02945" lon="-1.64691">
        <ele>75.88</ele>
        <time>2023-10-22T11:47:34Z</time>
      </trkpt>
      <trkpt lat="47.02936" lon="-1.64677">
        <ele>74.89</ele>
        <time>2023-10-22T11:47:36Z</time>
      </trkpt>
      <trkpt lat="47.02926" lon="-1.64664">
        <ele>75.26</ele>
        <time>2023-10-22T11:47:38Z</time>
      </trkpt>
      <trkpt lat="47.02918" lon="-1.6465">
        <ele>75.14</ele>
        <time>2023-10-22T11:47:40Z</time>
      </trkpt>
      <trkpt lat="47.02909" lon="-1.64637">
        <ele>74.74</ele>
        <time>2023-10-22T11:47:42Z</time>
      </trkpt>
      <trkpt lat="47.02899" lon="-1.64623">
        <ele>73.86</ele>
        <time>2023-10-22T11:47:44Z</time>
      </trkpt>
      <trkpt lat="47.0289" lon="-1.64609">
        <ele>73.57</ele>
        <time>2023-10-22T11:47:46Z</time>
      </trkpt>
      <trkpt lat="47.02881" lon="-1.64596">
        <ele>74.42</ele>
        <time>2023-10-22T11:47:48Z</time>
      </trkpt>
      <trkpt lat="47.02872" lon="-1.64582">
        <ele>74.66</ele>
        <time>2023-10-22T11:47:50Z</time>
      </trkpt>
      <trkpt lat="47.02864" lon="-1.64568">
        <ele>75.82</ele>
        <time>2023-10-22T11:47:52Z</time>
      </trkpt>
      <trkpt lat="47.02855" lon="-1.64554">
        <ele>75.45</ele>
        <time>2023-10-22T11:47:54Z</time>
      </trkpt>
      <trkpt lat="47.02847" lon="-1.6454">
        <ele>75.25</ele>
        <time>2023-10-22T11:47:56Z</time>
      </trkpt>
      <trkpt lat="47.02838" lon="-1.64525">
        <ele>75.45</ele>
        <time>2023-10-22T11:47:58Z</time>
      </trkpt>
      <trkpt lat="47.0283" lon="-1.6451">
        <ele>75.86</ele>
        <time>2023-10-22T11:48:00Z</time>
      </trkpt>
      <trkpt lat="47.02821" lon="-1.64496">
        <ele>75.91</ele>
        <time>2023-10-22T11:48:02Z</time>
      </trkpt>
      <trkpt lat="47.02814" lon="-1.64481">
        <ele>75.46</ele>
        <time>2023-10-22T11:48:04Z</time>
      </trkpt>
      <trkpt lat="47.02806" lon="-1.64466">
        <ele>75.29</ele>
        <time>2023-10-22T11:48:06Z</time>
      </trkpt>
      <trkpt lat="47.02798" lon="-1.64451">
        <ele>74.89</ele>
        <time>2023-10-22T11:48:08Z</time>
      </trkpt>
      <trkpt lat="47.02791" lon="-1.64436">
        <ele>74.73</ele>
        <time>2023-10-22T11:48:10Z</time>
      </trkpt>
      <trkpt lat="47.02783" lon="-1.64421">
        <ele>74.03</ele>
        <time>2023-10-22T11:48:12Z</time>
      </trkpt>
      <trkpt lat="47.02773" lon="-1.64408">
        <ele>75.16</ele>
        <time>2023-10-22T11:48:14Z</time>
      </trkpt>
      <trkpt lat="47.02762" lon="-1.64398">
        <ele>74.57</ele>
        <time>2023-10-22T11:48:16Z</time>
      </trkpt>
      <trkpt lat="47.02757" lon="-1.64381">
        <ele>73.27</ele>
        <time>2023-10-22T11:48:18Z</time>
      </trkpt>
      <trkpt lat="47.02761" lon="-1.64364">
        <ele>74.13</ele>
        <time>2023-10-22T11:48:20Z</time>
      </trkpt>
      <trkpt lat="47.02773" lon="-1.64355">
        <ele>73.56</ele>
        <time>2023-10-22T11:48:22Z</time>
      </trkpt>
      <trkpt lat="47.02787" lon="-1.64357">
        <ele>72.59</ele>
        <time>2023-10-22T11:48:24Z</time>
      </trkpt>
      <trkpt lat="47.02801" lon="-1.64353">
        <ele>74.14</ele>
        <time>2023-10-22T11:48:26Z</time>
      </trkpt>
      <trkpt lat="47.02813" lon="-1.64346">
        <ele>73.44</ele>
        <time>2023-10-22T11:48:28Z</time>
      </trkpt>
      <trkpt lat="47.02827" lon="-1.64339">
        <ele>73.37</ele>
        <time>2023-10-22T11:48:30Z</time>
      </trkpt>
      <trkpt lat="47.02839" lon="-1.64336">
        <ele>72.93</ele>
        <time>2023-10-22T11:48:32Z</time>
      </trkpt>
      <trkpt lat="47.02852" lon="-1.64333">
        <ele>72.15</ele>
        <time>2023-10-22T11:48:34Z</time>
      </trkpt>
      <trkpt lat="47.02865" lon="-1.64333">
        <ele>71.55</ele>
        <time>2023-10-22T11:48:36Z</time>
      </trkpt>
      <trkpt lat="47.02878" lon="-1.64332">
        <ele>71.86</ele>
        <time>2023-10-22T11:48:38Z</time>
      </trkpt>
      <trkpt lat="47.02891" lon="-1.6433">
        <ele>71.83</ele>
        <time>2023-10-22T11:48:40Z</time>
      </trkpt>
      <trkpt lat="47.02903" lon="-1.64323">
        <ele>71.65</ele>
        <time>2023-10-22T11:48:42Z</time>
      </trkpt>
      <trkpt lat="47.02916" lon="-1.64315">
        <ele>72.14</ele>
        <time>2023-10-22T11:48:44Z</time>
      </trkpt>
      <trkpt lat="47.02929" lon="-1.64306">
        <ele>72.17</ele>
        <time>2023-10-22T11:48:46Z</time>
      </trkpt>
      <trkpt lat="47.02942" lon="-1.64298">
        <ele>71.12</ele>
        <time>2023-10-22T11:48:48Z</time>
      </trkpt>
      <trkpt lat="47.02956" lon="-1.64287">
        <ele>70.31</ele>
        <time>2023-10-22T11:48:50Z</time>
      </trkpt>
      <trkpt lat="47.02971" lon="-1.64278">
        <ele>70.2</ele>
        <time>2023-10-22T11:48:52Z</time>
      </trkpt>
      <trkpt lat="47.02986" lon="-1.64267">
        <ele>69.25</ele>
        <time>2023-10-22T11:48:54Z</time>
      </trkpt>
      <trkpt lat="47.03001" lon="-1.64256">
        <ele>68.24</ele>
        <time>2023-10-22T11:48:56Z</time>
      </trkpt>
      <trkpt lat="47.03017" lon="-1.64245">
        <ele>67.46</ele>
        <time>2023-10-22T11:48:58Z</time>
      </trkpt>
      <trkpt lat="47.03025" lon="-1.64239">
        <ele>67.62</ele>
        <time>2023-10-22T11:48:59Z</time>
      </trkpt>
      <trkpt lat="47.03034" lon="-1.64234">
        <ele>67.18</ele>
        <time>2023-10-22T11:49:00Z</time>
      </trkpt>
      <trkpt lat="47.03042" lon="-1.64228">
        <ele>66.87</ele>
        <time>2023-10-22T11:49:01Z</time>
      </trkpt>
      <trkpt lat="47.03059" lon="-1.64219">
        <ele>66.84</ele>
        <time>2023-10-22T11:49:03Z</time>
      </trkpt>
      <trkpt lat="47.03076" lon="-1.64215">
        <ele>66.87</ele>
        <time>2023-10-22T11:49:05Z</time>
      </trkpt>
      <trkpt lat="47.03093" lon="-1.64215">
        <ele>66.87</ele>
        <time>2023-10-22T11:49:07Z</time>
      </trkpt>
      <trkpt lat="47.03111" lon="-1.64218">
        <ele>66.41</ele>
        <time>2023-10-22T11:49:09Z</time>
      </trkpt>
      <trkpt lat="47.0312" lon="-1.6422">
        <ele>66.11</ele>
        <time>2023-10-22T11:49:10Z</time>
      </trkpt>
      <trkpt lat="47.03129" lon="-1.64222">
        <ele>65.19</ele>
        <time>2023-10-22T11:49:11Z</time>
      </trkpt>
      <trkpt lat="47.03138" lon="-1.64226">
        <ele>65.36</ele>
        <time>2023-10-22T11:49:12Z</time>
      </trkpt>
      <trkpt lat="47.03156" lon="-1.6423">
        <ele>63.5</ele>
        <time>2023-10-22T11:49:14Z</time>
      </trkpt>
      <trkpt lat="47.03165" lon="-1.64233">
        <ele>63.84</ele>
        <time>2023-10-22T11:49:15Z</time>
      </trkpt>
      <trkpt lat="47.03183" lon="-1.64237">
        <ele>62.55</ele>
        <time>2023-10-22T11:49:17Z</time>
      </trkpt>
      <trkpt lat="47.03192" lon="-1.64238">
        <ele>62.37</ele>
        <time>2023-10-22T11:49:18Z</time>
      </trkpt>
      <trkpt lat="47.03202" lon="-1.64239">
        <ele>62.45</ele>
        <time>2023-10-22T11:49:19Z</time>
      </trkpt>
      <trkpt lat="47.03211" lon="-1.64239">
        <ele>62.73</ele>
        <time>2023-10-22T11:49:20Z</time>
      </trkpt>
      <trkpt lat="47.03221" lon="-1.64239">
        <ele>62.51</ele>
        <time>2023-10-22T11:49:21Z</time>
      </trkpt>
      <trkpt lat="47.03238" lon="-1.64239">
        <ele>62.58</ele>
        <time>2023-10-22T11:49:23Z</time>
      </trkpt>
      <trkpt lat="47.03254" lon="-1.64239">
        <ele>62.97</ele>
        <time>2023-10-22T11:49:25Z</time>
      </trkpt>
      <trkpt lat="47.03271" lon="-1.64238">
        <ele>62.97</ele>
        <time>2023-10-22T11:49:27Z</time>
      </trkpt>
      <trkpt lat="47.03289" lon="-1.64238">
        <ele>63.12</ele>
        <time>2023-10-22T11:49:29Z</time>
      </trkpt>
      <trkpt lat="47.03305" lon="-1.64234">
        <ele>62.87</ele>
        <time>2023-10-22T11:49:31Z</time>
      </trkpt>
      <trkpt lat="47.03323" lon="-1.64234">
        <ele>61.79</ele>
        <time>2023-10-22T11:49:33Z</time>
      </trkpt>
      <trkpt lat="47.03339" lon="-1.64236">
        <ele>62.17</ele>
        <time>2023-10-22T11:49:35Z</time>
      </trkpt>
      <trkpt lat="47.03363" lon="-1.64241">
        <ele>62.68</ele>
        <time>2023-10-22T11:49:38Z</time>
      </trkpt>
      <trkpt lat="47.03379" lon="-1.64244">
        <ele>62.36</ele>
        <time>2023-10-22T11:49:40Z</time>
      </trkpt>
      <trkpt lat="47.03395" lon="-1.64248">
        <ele>61.01</ele>
        <time>2023-10-22T11:49:42Z</time>
      </trkpt>
      <trkpt lat="47.03409" lon="-1.64253">
        <ele>61.02</ele>
        <time>2023-10-22T11:49:44Z</time>
      </trkpt>
      <trkpt lat="47.03423" lon="-1.64259">
        <ele>60.77</ele>
        <time>2023-10-22T11:49:46Z</time>
      </trkpt>
      <trkpt lat="47.03438" lon="-1.64265">
        <ele>60.32</ele>
        <time>2023-10-22T11:49:48Z</time>
      </trkpt>
      <trkpt lat="47.03452" lon="-1.6427">
        <ele>59.93</ele>
        <time>2023-10-22T11:49:50Z</time>
      </trkpt>
      <trkpt lat="47.03466" lon="-1.64276">
        <ele>60.49</ele>
        <time>2023-10-22T11:49:52Z</time>
      </trkpt>
      <trkpt lat="47.03482" lon="-1.64282">
        <ele>60.07</ele>
        <time>2023-10-22T11:49:54Z</time>
      </trkpt>
      <trkpt lat="47.03497" lon="-1.64288">
        <ele>60.25</ele>
        <time>2023-10-22T11:49:56Z</time>
      </trkpt>
      <trkpt lat="47.03512" lon="-1.64293">
        <ele>61.63</ele>
        <time>2023-10-22T11:49:58Z</time>
      </trkpt>
      <trkpt lat="47.03527" lon="-1.64297">
        <ele>60.65</ele>
        <time>2023-10-22T11:50:00Z</time>
      </trkpt>
      <trkpt lat="47.03541" lon="-1.64302">
        <ele>61.46</ele>
        <time>2023-10-22T11:50:02Z</time>
      </trkpt>
      <trkpt lat="47.03554" lon="-1.64304">
        <ele>61.26</ele>
        <time>2023-10-22T11:50:04Z</time>
      </trkpt>
      <trkpt lat="47.03568" lon="-1.64301">
        <ele>60.34</ele>
        <time>2023-10-22T11:50:06Z</time>
      </trkpt>
      <trkpt lat="47.03575" lon="-1.64285">
        <ele>59.93</ele>
        <time>2023-10-22T11:50:08Z</time>
      </trkpt>
      <trkpt lat="47.03569" lon="-1.64269">
        <ele>59.46</ele>
        <time>2023-10-22T11:50:10Z</time>
      </trkpt>
      <trkpt lat="47.03565" lon="-1.64251">
        <ele>59.17</ele>
        <time>2023-10-22T11:50:12Z</time>
      </trkpt>
      <trkpt lat="47.03561" lon="-1.64233">
        <ele>60.05</ele>
        <time>2023-10-22T11:50:14Z</time>
      </trkpt>
      <trkpt lat="47.03558" lon="-1.64218">
        <ele>60.29</ele>
        <time>2023-10-22T11:50:16Z</time>
      </trkpt>
      <trkpt lat="47.03556" lon="-1.64204">
        <ele>59.17</ele>
        <time>2023-10-22T11:50:18Z</time>
      </trkpt>
      <trkpt lat="47.03562" lon="-1.64193">
        <ele>60.2</ele>
        <time>2023-10-22T11:50:20Z</time>
      </trkpt>
      <trkpt lat="47.03573" lon="-1.64184">
        <ele>61.23</ele>
        <time>2023-10-22T11:50:23Z</time>
      </trkpt>
      <trkpt lat="47.03584" lon="-1.64178">
        <ele>61.13</ele>
        <time>2023-10-22T11:50:26Z</time>
      </trkpt>
      <trkpt lat="47.03595" lon="-1.64171">
        <ele>60.14</ele>
        <time>2023-10-22T11:50:29Z</time>
      </trkpt>
      <trkpt lat="47.03604" lon="-1.64165">
        <ele>60.13</ele>
        <time>2023-10-22T11:50:32Z</time>
      </trkpt>
      <trkpt lat="47.03614" lon="-1.64158">
        <ele>60.66</ele>
        <time>2023-10-22T11:50:37Z</time>
      </trkpt>
      <trkpt lat="47.03618" lon="-1.64146">
        <ele>60.91</ele>
        <time>2023-10-22T11:50:40Z</time>
      </trkpt>
      <trkpt lat="47.03627" lon="-1.64143">
        <ele>59.79</ele>
        <time>2023-10-22T11:50:42Z</time>
      </trkpt>
      <trkpt lat="47.03636" lon="-1.64139">
        <ele>59.53</ele>
        <time>2023-10-22T11:50:44Z</time>
      </trkpt>
      <trkpt lat="47.0365" lon="-1.64134">
        <ele>58.29</ele>
        <time>2023-10-22T11:50:47Z</time>
      </trkpt>
      <trkpt lat="47.03663" lon="-1.64128">
        <ele>58.42</ele>
        <time>2023-10-22T11:50:49Z</time>
      </trkpt>
      <trkpt lat="47.03677" lon="-1.64124">
        <ele>58.47</ele>
        <time>2023-10-22T11:50:51Z</time>
      </trkpt>
      <trkpt lat="47.03692" lon="-1.64121">
        <ele>58.69</ele>
        <time>2023-10-22T11:50:53Z</time>
      </trkpt>
      <trkpt lat="47.03706" lon="-1.64117">
        <ele>59.35</ele>
        <time>2023-10-22T11:50:55Z</time>
      </trkpt>
      <trkpt lat="47.03721" lon="-1.64113">
        <ele>59.76</ele>
        <time>2023-10-22T11:50:57Z</time>
      </trkpt>
      <trkpt lat="47.03735" lon="-1.64109">
        <ele>59.92</ele>
        <time>2023-10-22T11:50:59Z</time>
      </trkpt>
      <trkpt lat="47.0375" lon="-1.64107">
        <ele>58.69</ele>
        <time>2023-10-22T11:51:01Z</time>
      </trkpt>
      <trkpt lat="47.03764" lon="-1.64105">
        <ele>58.47</ele>
        <time>2023-10-22T11:51:03Z</time>
      </trkpt>
      <trkpt lat="47.03778" lon="-1.64101">
        <ele>58.54</ele>
        <time>2023-10-22T11:51:05Z</time>
      </trkpt>
      <trkpt lat="47.03792" lon="-1.64099">
        <ele>59.37</ele>
        <time>2023-10-22T11:51:07Z</time>
      </trkpt>
      <trkpt lat="47.03807" lon="-1.64095">
        <ele>59.25</ele>
        <time>2023-10-22T11:51:09Z</time>
      </trkpt>
      <trkpt lat="47.03822" lon="-1.64091">
        <ele>59.85</ele>
        <time>2023-10-22T11:51:11Z</time>
      </trkpt>
      <trkpt lat="47.03836" lon="-1.64088">
        <ele>60.56</ele>
        <time>2023-10-22T11:51:13Z</time>
      </trkpt>
      <trkpt lat="47.03849" lon="-1.64087">
        <ele>61.73</ele>
        <time>2023-10-22T11:51:15Z</time>
      </trkpt>
      <trkpt lat="47.0386" lon="-1.64092">
        <ele>62.44</ele>
        <time>2023-10-22T11:51:17Z</time>
      </trkpt>
      <trkpt lat="47.03875" lon="-1.64099">
        <ele>62.02</ele>
        <time>2023-10-22T11:51:19Z</time>
      </trkpt>
      <trkpt lat="47.03888" lon="-1.64103">
        <ele>61.89</ele>
        <time>2023-10-22T11:51:21Z</time>
      </trkpt>
      <trkpt lat="47.03901" lon="-1.6411">
        <ele>60.8</ele>
        <time>2023-10-22T11:51:23Z</time>
      </trkpt>
      <trkpt lat="47.03915" lon="-1.64118">
        <ele>61.06</ele>
        <time>2023-10-22T11:51:25Z</time>
      </trkpt>
      <trkpt lat="47.0393" lon="-1.64127">
        <ele>60.51</ele>
        <time>2023-10-22T11:51:27Z</time>
      </trkpt>
      <trkpt lat="47.03945" lon="-1.64135">
        <ele>61.01</ele>
        <time>2023-10-22T11:51:29Z</time>
      </trkpt>
      <trkpt lat="47.0396" lon="-1.6414">
        <ele>62.17</ele>
        <time>2023-10-22T11:51:31Z</time>
      </trkpt>
      <trkpt lat="47.03973" lon="-1.6414">
        <ele>62.58</ele>
        <time>2023-10-22T11:51:33Z</time>
      </trkpt>
      <trkpt lat="47.03986" lon="-1.64137">
        <ele>60.78</ele>
        <time>2023-10-22T11:51:35Z</time>
      </trkpt>
      <trkpt lat="47.03998" lon="-1.6413">
        <ele>60.8</ele>
        <time>2023-10-22T11:51:37Z</time>
      </trkpt>
      <trkpt lat="47.04011" lon="-1.64126">
        <ele>59.92</ele>
        <time>2023-10-22T11:51:39Z</time>
      </trkpt>
      <trkpt lat="47.04025" lon="-1.6412">
        <ele>59.62</ele>
        <time>2023-10-22T11:51:41Z</time>
      </trkpt>
      <trkpt lat="47.0404" lon="-1.64114">
        <ele>58.19</ele>
        <time>2023-10-22T11:51:43Z</time>
      </trkpt>
      <trkpt lat="47.04054" lon="-1.64107">
        <ele>57.93</ele>
        <time>2023-10-22T11:51:45Z</time>
      </trkpt>
      <trkpt lat="47.04069" lon="-1.64099">
        <ele>57.13</ele>
        <time>2023-10-22T11:51:47Z</time>
      </trkpt>
      <trkpt lat="47.04085" lon="-1.64092">
        <ele>55.82</ele>
        <time>2023-10-22T11:51:49Z</time>
      </trkpt>
      <trkpt lat="47.041" lon="-1.64085">
        <ele>56.98</ele>
        <time>2023-10-22T11:51:51Z</time>
      </trkpt>
      <trkpt lat="47.04116" lon="-1.64076">
        <ele>57.87</ele>
        <time>2023-10-22T11:51:53Z</time>
      </trkpt>
      <trkpt lat="47.0413" lon="-1.64071">
        <ele>56.78</ele>
        <time>2023-10-22T11:51:55Z</time>
      </trkpt>
      <trkpt lat="47.04145" lon="-1.64064">
        <ele>56.03</ele>
        <time>2023-10-22T11:51:57Z</time>
      </trkpt>
      <trkpt lat="47.04159" lon="-1.64057">
        <ele>54.75</ele>
        <time>2023-10-22T11:51:59Z</time>
      </trkpt>
      <trkpt lat="47.04172" lon="-1.64052">
        <ele>55.73</ele>
        <time>2023-10-22T11:52:01Z</time>
      </trkpt>
      <trkpt lat="47.04183" lon="-1.64046">
        <ele>55.5</ele>
        <time>2023-10-22T11:52:03Z</time>
      </trkpt>
      <trkpt lat="47.04195" lon="-1.64041">
        <ele>55</ele>
        <time>2023-10-22T11:52:05Z</time>
      </trkpt>
      <trkpt lat="47.0421" lon="-1.64037">
        <ele>55.05</ele>
        <time>2023-10-22T11:52:07Z</time>
      </trkpt>
      <trkpt lat="47.04223" lon="-1.6403">
        <ele>54.98</ele>
        <time>2023-10-22T11:52:09Z</time>
      </trkpt>
      <trkpt lat="47.04238" lon="-1.64024">
        <ele>53.83</ele>
        <time>2023-10-22T11:52:11Z</time>
      </trkpt>
      <trkpt lat="47.04253" lon="-1.64017">
        <ele>54.25</ele>
        <time>2023-10-22T11:52:13Z</time>
      </trkpt>
      <trkpt lat="47.04269" lon="-1.64011">
        <ele>53.91</ele>
        <time>2023-10-22T11:52:15Z</time>
      </trkpt>
      <trkpt lat="47.04284" lon="-1.64004">
        <ele>53.93</ele>
        <time>2023-10-22T11:52:17Z</time>
      </trkpt>
      <trkpt lat="47.04299" lon="-1.63997">
        <ele>53.36</ele>
        <time>2023-10-22T11:52:19Z</time>
      </trkpt>
      <trkpt lat="47.04313" lon="-1.63991">
        <ele>54.52</ele>
        <time>2023-10-22T11:52:21Z</time>
      </trkpt>
      <trkpt lat="47.04327" lon="-1.63984">
        <ele>54.36</ele>
        <time>2023-10-22T11:52:23Z</time>
      </trkpt>
      <trkpt lat="47.0434" lon="-1.63977">
        <ele>53.1</ele>
        <time>2023-10-22T11:52:25Z</time>
      </trkpt>
      <trkpt lat="47.04355" lon="-1.63971">
        <ele>53.59</ele>
        <time>2023-10-22T11:52:27Z</time>
      </trkpt>
      <trkpt lat="47.04369" lon="-1.63964">
        <ele>54.39</ele>
        <time>2023-10-22T11:52:29Z</time>
      </trkpt>
      <trkpt lat="47.04384" lon="-1.63958">
        <ele>54.38</ele>
        <time>2023-10-22T11:52:31Z</time>
      </trkpt>
      <trkpt lat="47.04399" lon="-1.63951">
        <ele>55.01</ele>
        <time>2023-10-22T11:52:33Z</time>
      </trkpt>
      <trkpt lat="47.04414" lon="-1.63946">
        <ele>53.85</ele>
        <time>2023-10-22T11:52:35Z</time>
      </trkpt>
      <trkpt lat="47.0443" lon="-1.63939">
        <ele>53.22</ele>
        <time>2023-10-22T11:52:37Z</time>
      </trkpt>
      <trkpt lat="47.04444" lon="-1.63933">
        <ele>52.21</ele>
        <time>2023-10-22T11:52:39Z</time>
      </trkpt>
      <trkpt lat="47.04458" lon="-1.63925">
        <ele>51.74</ele>
        <time>2023-10-22T11:52:41Z</time>
      </trkpt>
      <trkpt lat="47.04471" lon="-1.63913">
        <ele>52.5</ele>
        <time>2023-10-22T11:52:43Z</time>
      </trkpt>
      <trkpt lat="47.04486" lon="-1.6391">
        <ele>51.73</ele>
        <time>2023-10-22T11:52:45Z</time>
      </trkpt>
      <trkpt lat="47.045" lon="-1.63901">
        <ele>51.99</ele>
        <time>2023-10-22T11:52:47Z</time>
      </trkpt>
      <trkpt lat="47.04514" lon="-1.63893">
        <ele>52.23</ele>
        <time>2023-10-22T11:52:49Z</time>
      </trkpt>
      <trkpt lat="47.04527" lon="-1.63884">
        <ele>52.52</ele>
        <time>2023-10-22T11:52:51Z</time>
      </trkpt>
      <trkpt lat="47.04541" lon="-1.63874">
        <ele>52.56</ele>
        <time>2023-10-22T11:52:53Z</time>
      </trkpt>
      <trkpt lat="47.04555" lon="-1.63866">
        <ele>52.09</ele>
        <time>2023-10-22T11:52:55Z</time>
      </trkpt>
      <trkpt lat="47.04569" lon="-1.63857">
        <ele>52.82</ele>
        <time>2023-10-22T11:52:57Z</time>
      </trkpt>
      <trkpt lat="47.04583" lon="-1.6385">
        <ele>53.46</ele>
        <time>2023-10-22T11:52:59Z</time>
      </trkpt>
      <trkpt lat="47.04597" lon="-1.63845">
        <ele>53.16</ele>
        <time>2023-10-22T11:53:01Z</time>
      </trkpt>
      <trkpt lat="47.04611" lon="-1.63842">
        <ele>53.32</ele>
        <time>2023-10-22T11:53:03Z</time>
      </trkpt>
      <trkpt lat="47.04626" lon="-1.6384">
        <ele>54.06</ele>
        <time>2023-10-22T11:53:05Z</time>
      </trkpt>
      <trkpt lat="47.04639" lon="-1.63838">
        <ele>55.09</ele>
        <time>2023-10-22T11:53:07Z</time>
      </trkpt>
      <trkpt lat="47.04651" lon="-1.63833">
        <ele>56.45</ele>
        <time>2023-10-22T11:53:09Z</time>
      </trkpt>
      <trkpt lat="47.04664" lon="-1.63826">
        <ele>56.3</ele>
        <time>2023-10-22T11:53:11Z</time>
      </trkpt>
      <trkpt lat="47.04676" lon="-1.63819">
        <ele>56.46</ele>
        <time>2023-10-22T11:53:13Z</time>
      </trkpt>
      <trkpt lat="47.04689" lon="-1.63812">
        <ele>57</ele>
        <time>2023-10-22T11:53:15Z</time>
      </trkpt>
      <trkpt lat="47.04702" lon="-1.63807">
        <ele>57.69</ele>
        <time>2023-10-22T11:53:17Z</time>
      </trkpt>
      <trkpt lat="47.04715" lon="-1.638">
        <ele>58.31</ele>
        <time>2023-10-22T11:53:19Z</time>
      </trkpt>
      <trkpt lat="47.04729" lon="-1.63797">
        <ele>58.34</ele>
        <time>2023-10-22T11:53:21Z</time>
      </trkpt>
      <trkpt lat="47.04743" lon="-1.63797">
        <ele>58.75</ele>
        <time>2023-10-22T11:53:23Z</time>
      </trkpt>
      <trkpt lat="47.04757" lon="-1.63792">
        <ele>59.44</ele>
        <time>2023-10-22T11:53:25Z</time>
      </trkpt>
      <trkpt lat="47.0477" lon="-1.63787">
        <ele>60.38</ele>
        <time>2023-10-22T11:53:27Z</time>
      </trkpt>
      <trkpt lat="47.04783" lon="-1.63783">
        <ele>61.04</ele>
        <time>2023-10-22T11:53:29Z</time>
      </trkpt>
      <trkpt lat="47.04796" lon="-1.63779">
        <ele>61.03</ele>
        <time>2023-10-22T11:53:31Z</time>
      </trkpt>
      <trkpt lat="47.04809" lon="-1.63777">
        <ele>60.12</ele>
        <time>2023-10-22T11:53:33Z</time>
      </trkpt>
      <trkpt lat="47.04822" lon="-1.63775">
        <ele>60.72</ele>
        <time>2023-10-22T11:53:35Z</time>
      </trkpt>
      <trkpt lat="47.04834" lon="-1.63773">
        <ele>60.84</ele>
        <time>2023-10-22T11:53:37Z</time>
      </trkpt>
      <trkpt lat="47.04847" lon="-1.63769">
        <ele>61.13</ele>
        <time>2023-10-22T11:53:39Z</time>
      </trkpt>
      <trkpt lat="47.04859" lon="-1.63766">
        <ele>61</ele>
        <time>2023-10-22T11:53:41Z</time>
      </trkpt>
      <trkpt lat="47.04873" lon="-1.63764">
        <ele>61.32</ele>
        <time>2023-10-22T11:53:43Z</time>
      </trkpt>
      <trkpt lat="47.04887" lon="-1.63762">
        <ele>60.59</ele>
        <time>2023-10-22T11:53:45Z</time>
      </trkpt>
      <trkpt lat="47.04902" lon="-1.63758">
        <ele>59.66</ele>
        <time>2023-10-22T11:53:47Z</time>
      </trkpt>
      <trkpt lat="47.04916" lon="-1.63755">
        <ele>59.24</ele>
        <time>2023-10-22T11:53:49Z</time>
      </trkpt>
      <trkpt lat="47.0493" lon="-1.63748">
        <ele>59.27</ele>
        <time>2023-10-22T11:53:51Z</time>
      </trkpt>
      <trkpt lat="47.04942" lon="-1.63735">
        <ele>59.44</ele>
        <time>2023-10-22T11:53:53Z</time>
      </trkpt>
      <trkpt lat="47.04948" lon="-1.63715">
        <ele>58.73</ele>
        <time>2023-10-22T11:53:55Z</time>
      </trkpt>
      <trkpt lat="47.04949" lon="-1.63693">
        <ele>59.2</ele>
        <time>2023-10-22T11:53:57Z</time>
      </trkpt>
      <trkpt lat="47.04948" lon="-1.63671">
        <ele>58.35</ele>
        <time>2023-10-22T11:53:59Z</time>
      </trkpt>
      <trkpt lat="47.04949" lon="-1.63649">
        <ele>57.88</ele>
        <time>2023-10-22T11:54:01Z</time>
      </trkpt>
      <trkpt lat="47.04951" lon="-1.63626">
        <ele>57.49</ele>
        <time>2023-10-22T11:54:03Z</time>
      </trkpt>
      <trkpt lat="47.04957" lon="-1.63604">
        <ele>56.72</ele>
        <time>2023-10-22T11:54:05Z</time>
      </trkpt>
      <trkpt lat="47.04966" lon="-1.63584">
        <ele>55.8</ele>
        <time>2023-10-22T11:54:07Z</time>
      </trkpt>
      <trkpt lat="47.0498" lon="-1.63569">
        <ele>56.16</ele>
        <time>2023-10-22T11:54:09Z</time>
      </trkpt>
      <trkpt lat="47.04995" lon="-1.63556">
        <ele>55.98</ele>
        <time>2023-10-22T11:54:11Z</time>
      </trkpt>
      <trkpt lat="47.05011" lon="-1.63548">
        <ele>55.81</ele>
        <time>2023-10-22T11:54:13Z</time>
      </trkpt>
      <trkpt lat="47.05027" lon="-1.63541">
        <ele>55.4</ele>
        <time>2023-10-22T11:54:15Z</time>
      </trkpt>
      <trkpt lat="47.05043" lon="-1.63534">
        <ele>54.91</ele>
        <time>2023-10-22T11:54:17Z</time>
      </trkpt>
      <trkpt lat="47.05059" lon="-1.6353">
        <ele>54.61</ele>
        <time>2023-10-22T11:54:19Z</time>
      </trkpt>
      <trkpt lat="47.05074" lon="-1.63523">
        <ele>55.25</ele>
        <time>2023-10-22T11:54:21Z</time>
      </trkpt>
      <trkpt lat="47.0509" lon="-1.63517">
        <ele>55.19</ele>
        <time>2023-10-22T11:54:23Z</time>
      </trkpt>
      <trkpt lat="47.05105" lon="-1.63512">
        <ele>55.73</ele>
        <time>2023-10-22T11:54:25Z</time>
      </trkpt>
      <trkpt lat="47.0512" lon="-1.63505">
        <ele>56.1</ele>
        <time>2023-10-22T11:54:27Z</time>
      </trkpt>
      <trkpt lat="47.05135" lon="-1.63499">
        <ele>56.57</ele>
        <time>2023-10-22T11:54:29Z</time>
      </trkpt>
      <trkpt lat="47.0515" lon="-1.63493">
        <ele>56.07</ele>
        <time>2023-10-22T11:54:31Z</time>
      </trkpt>
      <trkpt lat="47.05165" lon="-1.63487">
        <ele>55.83</ele>
        <time>2023-10-22T11:54:33Z</time>
      </trkpt>
      <trkpt lat="47.05181" lon="-1.63481">
        <ele>55.41</ele>
        <time>2023-10-22T11:54:35Z</time>
      </trkpt>
      <trkpt lat="47.05196" lon="-1.63476">
        <ele>55.08</ele>
        <time>2023-10-22T11:54:37Z</time>
      </trkpt>
      <trkpt lat="47.05213" lon="-1.6347">
        <ele>54.57</ele>
        <time>2023-10-22T11:54:39Z</time>
      </trkpt>
      <trkpt lat="47.05229" lon="-1.63464">
        <ele>54.57</ele>
        <time>2023-10-22T11:54:41Z</time>
      </trkpt>
      <trkpt lat="47.05244" lon="-1.6346">
        <ele>54.91</ele>
        <time>2023-10-22T11:54:43Z</time>
      </trkpt>
      <trkpt lat="47.05261" lon="-1.63456">
        <ele>54.78</ele>
        <time>2023-10-22T11:54:45Z</time>
      </trkpt>
      <trkpt lat="47.05277" lon="-1.63452">
        <ele>55.77</ele>
        <time>2023-10-22T11:54:47Z</time>
      </trkpt>
      <trkpt lat="47.05292" lon="-1.6345">
        <ele>55.51</ele>
        <time>2023-10-22T11:54:49Z</time>
      </trkpt>
      <trkpt lat="47.05307" lon="-1.63448">
        <ele>56.63</ele>
        <time>2023-10-22T11:54:51Z</time>
      </trkpt>
      <trkpt lat="47.05322" lon="-1.63447">
        <ele>56.29</ele>
        <time>2023-10-22T11:54:53Z</time>
      </trkpt>
      <trkpt lat="47.05337" lon="-1.63446">
        <ele>56.03</ele>
        <time>2023-10-22T11:54:55Z</time>
      </trkpt>
      <trkpt lat="47.05353" lon="-1.63444">
        <ele>55.92</ele>
        <time>2023-10-22T11:54:57Z</time>
      </trkpt>
      <trkpt lat="47.05367" lon="-1.63436">
        <ele>55.94</ele>
        <time>2023-10-22T11:54:59Z</time>
      </trkpt>
      <trkpt lat="47.05383" lon="-1.6343">
        <ele>56.81</ele>
        <time>2023-10-22T11:55:01Z</time>
      </trkpt>
      <trkpt lat="47.05399" lon="-1.63431">
        <ele>56.97</ele>
        <time>2023-10-22T11:55:03Z</time>
      </trkpt>
      <trkpt lat="47.05414" lon="-1.63428">
        <ele>57.01</ele>
        <time>2023-10-22T11:55:05Z</time>
      </trkpt>
      <trkpt lat="47.0543" lon="-1.63426">
        <ele>55.4</ele>
        <time>2023-10-22T11:55:07Z</time>
      </trkpt>
      <trkpt lat="47.05445" lon="-1.63425">
        <ele>54.16</ele>
        <time>2023-10-22T11:55:09Z</time>
      </trkpt>
      <trkpt lat="47.05461" lon="-1.63422">
        <ele>54.08</ele>
        <time>2023-10-22T11:55:11Z</time>
      </trkpt>
      <trkpt lat="47.05476" lon="-1.6342">
        <ele>53.74</ele>
        <time>2023-10-22T11:55:13Z</time>
      </trkpt>
      <trkpt lat="47.05492" lon="-1.63417">
        <ele>54.61</ele>
        <time>2023-10-22T11:55:15Z</time>
      </trkpt>
      <trkpt lat="47.05507" lon="-1.63414">
        <ele>54.08</ele>
        <time>2023-10-22T11:55:17Z</time>
      </trkpt>
      <trkpt lat="47.05523" lon="-1.63412">
        <ele>54.45</ele>
        <time>2023-10-22T11:55:19Z</time>
      </trkpt>
      <trkpt lat="47.05538" lon="-1.63408">
        <ele>54.89</ele>
        <time>2023-10-22T11:55:21Z</time>
      </trkpt>
      <trkpt lat="47.05553" lon="-1.63402">
        <ele>55.59</ele>
        <time>2023-10-22T11:55:23Z</time>
      </trkpt>
      <trkpt lat="47.05567" lon="-1.63397">
        <ele>55.98</ele>
        <time>2023-10-22T11:55:25Z</time>
      </trkpt>
      <trkpt lat="47.05582" lon="-1.63389">
        <ele>56.16</ele>
        <time>2023-10-22T11:55:27Z</time>
      </trkpt>
      <trkpt lat="47.05597" lon="-1.63382">
        <ele>56.94</ele>
        <time>2023-10-22T11:55:29Z</time>
      </trkpt>
      <trkpt lat="47.05612" lon="-1.63376">
        <ele>57</ele>
        <time>2023-10-22T11:55:31Z</time>
      </trkpt>
      <trkpt lat="47.05627" lon="-1.63369">
        <ele>57.17</ele>
        <time>2023-10-22T11:55:33Z</time>
      </trkpt>
      <trkpt lat="47.05641" lon="-1.63363">
        <ele>56.84</ele>
        <time>2023-10-22T11:55:35Z</time>
      </trkpt>
      <trkpt lat="47.05655" lon="-1.63356">
        <ele>57.23</ele>
        <time>2023-10-22T11:55:37Z</time>
      </trkpt>
      <trkpt lat="47.0567" lon="-1.63349">
        <ele>57.45</ele>
        <time>2023-10-22T11:55:39Z</time>
      </trkpt>
      <trkpt lat="47.05685" lon="-1.6334">
        <ele>57.57</ele>
        <time>2023-10-22T11:55:41Z</time>
      </trkpt>
      <trkpt lat="47.057" lon="-1.63334">
        <ele>57.32</ele>
        <time>2023-10-22T11:55:43Z</time>
      </trkpt>
      <trkpt lat="47.05715" lon="-1.63328">
        <ele>57.03</ele>
        <time>2023-10-22T11:55:45Z</time>
      </trkpt>
      <trkpt lat="47.0573" lon="-1.6332">
        <ele>57.11</ele>
        <time>2023-10-22T11:55:47Z</time>
      </trkpt>
      <trkpt lat="47.05744" lon="-1.63313">
        <ele>57.25</ele>
        <time>2023-10-22T11:55:49Z</time>
      </trkpt>
      <trkpt lat="47.05758" lon="-1.63307">
        <ele>56.81</ele>
        <time>2023-10-22T11:55:51Z</time>
      </trkpt>
      <trkpt lat="47.05773" lon="-1.63301">
        <ele>56.74</ele>
        <time>2023-10-22T11:55:53Z</time>
      </trkpt>
      <trkpt lat="47.05788" lon="-1.63294">
        <ele>55.96</ele>
        <time>2023-10-22T11:55:55Z</time>
      </trkpt>
      <trkpt lat="47.05802" lon="-1.63287">
        <ele>55.55</ele>
        <time>2023-10-22T11:55:57Z</time>
      </trkpt>
      <trkpt lat="47.05817" lon="-1.6328">
        <ele>56.03</ele>
        <time>2023-10-22T11:55:59Z</time>
      </trkpt>
      <trkpt lat="47.05831" lon="-1.63273">
        <ele>55.18</ele>
        <time>2023-10-22T11:56:01Z</time>
      </trkpt>
      <trkpt lat="47.05846" lon="-1.63266">
        <ele>55.17</ele>
        <time>2023-10-22T11:56:03Z</time>
      </trkpt>
      <trkpt lat="47.0586" lon="-1.63259">
        <ele>55.17</ele>
        <time>2023-10-22T11:56:05Z</time>
      </trkpt>
      <trkpt lat="47.05875" lon="-1.63251">
        <ele>54.32</ele>
        <time>2023-10-22T11:56:07Z</time>
      </trkpt>
      <trkpt lat="47.0589" lon="-1.63245">
        <ele>53.37</ele>
        <time>2023-10-22T11:56:09Z</time>
      </trkpt>
      <trkpt lat="47.05904" lon="-1.63238">
        <ele>53.1</ele>
        <time>2023-10-22T11:56:11Z</time>
      </trkpt>
      <trkpt lat="47.05918" lon="-1.63232">
        <ele>52.85</ele>
        <time>2023-10-22T11:56:13Z</time>
      </trkpt>
      <trkpt lat="47.05932" lon="-1.63225">
        <ele>53.57</ele>
        <time>2023-10-22T11:56:15Z</time>
      </trkpt>
      <trkpt lat="47.05948" lon="-1.63218">
        <ele>53.95</ele>
        <time>2023-10-22T11:56:17Z</time>
      </trkpt>
      <trkpt lat="47.05962" lon="-1.6321">
        <ele>54.37</ele>
        <time>2023-10-22T11:56:19Z</time>
      </trkpt>
      <trkpt lat="47.05978" lon="-1.63203">
        <ele>53.67</ele>
        <time>2023-10-22T11:56:21Z</time>
      </trkpt>
      <trkpt lat="47.05993" lon="-1.63197">
        <ele>54.43</ele>
        <time>2023-10-22T11:56:23Z</time>
      </trkpt>
      <trkpt lat="47.06007" lon="-1.63191">
        <ele>54.88</ele>
        <time>2023-10-22T11:56:25Z</time>
      </trkpt>
      <trkpt lat="47.06022" lon="-1.63184">
        <ele>54.86</ele>
        <time>2023-10-22T11:56:27Z</time>
      </trkpt>
      <trkpt lat="47.06038" lon="-1.63177">
        <ele>54.78</ele>
        <time>2023-10-22T11:56:29Z</time>
      </trkpt>
      <trkpt lat="47.06052" lon="-1.63169">
        <ele>54.49</ele>
        <time>2023-10-22T11:56:31Z</time>
      </trkpt>
      <trkpt lat="47.06067" lon="-1.63162">
        <ele>54.4</ele>
        <time>2023-10-22T11:56:33Z</time>
      </trkpt>
      <trkpt lat="47.06081" lon="-1.63155">
        <ele>54.33</ele>
        <time>2023-10-22T11:56:35Z</time>
      </trkpt>
      <trkpt lat="47.06097" lon="-1.63148">
        <ele>53.97</ele>
        <time>2023-10-22T11:56:37Z</time>
      </trkpt>
      <trkpt lat="47.06112" lon="-1.63141">
        <ele>53.66</ele>
        <time>2023-10-22T11:56:39Z</time>
      </trkpt>
      <trkpt lat="47.06127" lon="-1.63133">
        <ele>53.79</ele>
        <time>2023-10-22T11:56:41Z</time>
      </trkpt>
      <trkpt lat="47.06142" lon="-1.63127">
        <ele>54.83</ele>
        <time>2023-10-22T11:56:43Z</time>
      </trkpt>
      <trkpt lat="47.06157" lon="-1.6312">
        <ele>54.46</ele>
        <time>2023-10-22T11:56:45Z</time>
      </trkpt>
      <trkpt lat="47.06172" lon="-1.63113">
        <ele>54.79</ele>
        <time>2023-10-22T11:56:47Z</time>
      </trkpt>
      <trkpt lat="47.06188" lon="-1.63106">
        <ele>53.83</ele>
        <time>2023-10-22T11:56:49Z</time>
      </trkpt>
      <trkpt lat="47.06203" lon="-1.63098">
        <ele>53.86</ele>
        <time>2023-10-22T11:56:51Z</time>
      </trkpt>
      <trkpt lat="47.06217" lon="-1.63092">
        <ele>53.18</ele>
        <time>2023-10-22T11:56:53Z</time>
      </trkpt>
      <trkpt lat="47.06231" lon="-1.63086">
        <ele>53.28</ele>
        <time>2023-10-22T11:56:55Z</time>
      </trkpt>
      <trkpt lat="47.06246" lon="-1.63078">
        <ele>53.57</ele>
        <time>2023-10-22T11:56:57Z</time>
      </trkpt>
      <trkpt lat="47.0626" lon="-1.63072">
        <ele>53.15</ele>
        <time>2023-10-22T11:56:59Z</time>
      </trkpt>
      <trkpt lat="47.06274" lon="-1.63066">
        <ele>52.93</ele>
        <time>2023-10-22T11:57:01Z</time>
      </trkpt>
      <trkpt lat="47.06288" lon="-1.63059">
        <ele>53.87</ele>
        <time>2023-10-22T11:57:03Z</time>
      </trkpt>
      <trkpt lat="47.06301" lon="-1.63052">
        <ele>54.59</ele>
        <time>2023-10-22T11:57:05Z</time>
      </trkpt>
      <trkpt lat="47.06315" lon="-1.63047">
        <ele>54.46</ele>
        <time>2023-10-22T11:57:07Z</time>
      </trkpt>
      <trkpt lat="47.06329" lon="-1.6304">
        <ele>53.88</ele>
        <time>2023-10-22T11:57:09Z</time>
      </trkpt>
      <trkpt lat="47.06343" lon="-1.63034">
        <ele>54.56</ele>
        <time>2023-10-22T11:57:11Z</time>
      </trkpt>
      <trkpt lat="47.06358" lon="-1.63028">
        <ele>54</ele>
        <time>2023-10-22T11:57:13Z</time>
      </trkpt>
      <trkpt lat="47.06372" lon="-1.63021">
        <ele>54.69</ele>
        <time>2023-10-22T11:57:15Z</time>
      </trkpt>
      <trkpt lat="47.06387" lon="-1.63015">
        <ele>53.5</ele>
        <time>2023-10-22T11:57:17Z</time>
      </trkpt>
      <trkpt lat="47.064" lon="-1.63008">
        <ele>53.66</ele>
        <time>2023-10-22T11:57:19Z</time>
      </trkpt>
      <trkpt lat="47.06415" lon="-1.63">
        <ele>54.68</ele>
        <time>2023-10-22T11:57:21Z</time>
      </trkpt>
      <trkpt lat="47.06429" lon="-1.62992">
        <ele>54.66</ele>
        <time>2023-10-22T11:57:23Z</time>
      </trkpt>
      <trkpt lat="47.06443" lon="-1.62985">
        <ele>54.88</ele>
        <time>2023-10-22T11:57:25Z</time>
      </trkpt>
      <trkpt lat="47.06457" lon="-1.62979">
        <ele>55.76</ele>
        <time>2023-10-22T11:57:27Z</time>
      </trkpt>
      <trkpt lat="47.06471" lon="-1.62971">
        <ele>55.66</ele>
        <time>2023-10-22T11:57:29Z</time>
      </trkpt>
      <trkpt lat="47.06485" lon="-1.62964">
        <ele>55.3</ele>
        <time>2023-10-22T11:57:31Z</time>
      </trkpt>
      <trkpt lat="47.06498" lon="-1.62955">
        <ele>56.09</ele>
        <time>2023-10-22T11:57:33Z</time>
      </trkpt>
      <trkpt lat="47.06511" lon="-1.62943">
        <ele>56.76</ele>
        <time>2023-10-22T11:57:35Z</time>
      </trkpt>
      <trkpt lat="47.06523" lon="-1.62929">
        <ele>56.17</ele>
        <time>2023-10-22T11:57:37Z</time>
      </trkpt>
      <trkpt lat="47.06536" lon="-1.62914">
        <ele>56.17</ele>
        <time>2023-10-22T11:57:39Z</time>
      </trkpt>
      <trkpt lat="47.06547" lon="-1.62897">
        <ele>57.6</ele>
        <time>2023-10-22T11:57:41Z</time>
      </trkpt>
      <trkpt lat="47.06558" lon="-1.62881">
        <ele>57.65</ele>
        <time>2023-10-22T11:57:43Z</time>
      </trkpt>
      <trkpt lat="47.06569" lon="-1.62865">
        <ele>57.44</ele>
        <time>2023-10-22T11:57:45Z</time>
      </trkpt>
      <trkpt lat="47.06579" lon="-1.62849">
        <ele>57.27</ele>
        <time>2023-10-22T11:57:47Z</time>
      </trkpt>
      <trkpt lat="47.0659" lon="-1.62832">
        <ele>57.52</ele>
        <time>2023-10-22T11:57:49Z</time>
      </trkpt>
      <trkpt lat="47.06601" lon="-1.62815">
        <ele>57.15</ele>
        <time>2023-10-22T11:57:51Z</time>
      </trkpt>
      <trkpt lat="47.06612" lon="-1.62799">
        <ele>56.54</ele>
        <time>2023-10-22T11:57:53Z</time>
      </trkpt>
      <trkpt lat="47.06622" lon="-1.62783">
        <ele>57.07</ele>
        <time>2023-10-22T11:57:55Z</time>
      </trkpt>
      <trkpt lat="47.06632" lon="-1.62767">
        <ele>55.96</ele>
        <time>2023-10-22T11:57:57Z</time>
      </trkpt>
      <trkpt lat="47.06643" lon="-1.62752">
        <ele>57</ele>
        <time>2023-10-22T11:57:59Z</time>
      </trkpt>
      <trkpt lat="47.06659" lon="-1.62728">
        <ele>55.77</ele>
        <time>2023-10-22T11:58:02Z</time>
      </trkpt>
      <trkpt lat="47.06669" lon="-1.62711">
        <ele>55.24</ele>
        <time>2023-10-22T11:58:04Z</time>
      </trkpt>
      <trkpt lat="47.0668" lon="-1.62695">
        <ele>55.71</ele>
        <time>2023-10-22T11:58:06Z</time>
      </trkpt>
      <trkpt lat="47.0669" lon="-1.62679">
        <ele>55.4</ele>
        <time>2023-10-22T11:58:08Z</time>
      </trkpt>
      <trkpt lat="47.067" lon="-1.62663">
        <ele>55.34</ele>
        <time>2023-10-22T11:58:10Z</time>
      </trkpt>
      <trkpt lat="47.06712" lon="-1.62649">
        <ele>55.69</ele>
        <time>2023-10-22T11:58:12Z</time>
      </trkpt>
      <trkpt lat="47.06723" lon="-1.62633">
        <ele>54.87</ele>
        <time>2023-10-22T11:58:14Z</time>
      </trkpt>
      <trkpt lat="47.06735" lon="-1.6262">
        <ele>55.46</ele>
        <time>2023-10-22T11:58:16Z</time>
      </trkpt>
      <trkpt lat="47.06748" lon="-1.62608">
        <ele>56.26</ele>
        <time>2023-10-22T11:58:18Z</time>
      </trkpt>
      <trkpt lat="47.06761" lon="-1.62596">
        <ele>56.14</ele>
        <time>2023-10-22T11:58:20Z</time>
      </trkpt>
      <trkpt lat="47.06773" lon="-1.62584">
        <ele>55.98</ele>
        <time>2023-10-22T11:58:22Z</time>
      </trkpt>
      <trkpt lat="47.06786" lon="-1.62573">
        <ele>56.08</ele>
        <time>2023-10-22T11:58:24Z</time>
      </trkpt>
      <trkpt lat="47.068" lon="-1.62561">
        <ele>55.92</ele>
        <time>2023-10-22T11:58:26Z</time>
      </trkpt>
      <trkpt lat="47.06813" lon="-1.62548">
        <ele>55.8</ele>
        <time>2023-10-22T11:58:28Z</time>
      </trkpt>
      <trkpt lat="47.06826" lon="-1.62537">
        <ele>56.49</ele>
        <time>2023-10-22T11:58:30Z</time>
      </trkpt>
      <trkpt lat="47.06839" lon="-1.62526">
        <ele>57</ele>
        <time>2023-10-22T11:58:32Z</time>
      </trkpt>
      <trkpt lat="47.06852" lon="-1.62516">
        <ele>57.62</ele>
        <time>2023-10-22T11:58:34Z</time>
      </trkpt>
      <trkpt lat="47.06866" lon="-1.62506">
        <ele>57.11</ele>
        <time>2023-10-22T11:58:36Z</time>
      </trkpt>
      <trkpt lat="47.06881" lon="-1.62498">
        <ele>56.58</ele>
        <time>2023-10-22T11:58:38Z</time>
      </trkpt>
      <trkpt lat="47.06896" lon="-1.62489">
        <ele>56.24</ele>
        <time>2023-10-22T11:58:40Z</time>
      </trkpt>
      <trkpt lat="47.06913" lon="-1.62478">
        <ele>52.5</ele>
        <time>2023-10-22T11:58:42Z</time>
      </trkpt>
      <trkpt lat="47.06929" lon="-1.62472">
        <ele>53.07</ele>
        <time>2023-10-22T11:58:44Z</time>
      </trkpt>
      <trkpt lat="47.06944" lon="-1.62463">
        <ele>51.26</ele>
        <time>2023-10-22T11:58:46Z</time>
      </trkpt>
      <trkpt lat="47.06959" lon="-1.62458">
        <ele>49.85</ele>
        <time>2023-10-22T11:58:48Z</time>
      </trkpt>
      <trkpt lat="47.06974" lon="-1.62454">
        <ele>49.66</ele>
        <time>2023-10-22T11:58:50Z</time>
      </trkpt>
      <trkpt lat="47.06989" lon="-1.62445">
        <ele>49.01</ele>
        <time>2023-10-22T11:58:52Z</time>
      </trkpt>
      <trkpt lat="47.07002" lon="-1.62439">
        <ele>50.4</ele>
        <time>2023-10-22T11:58:54Z</time>
      </trkpt>
      <trkpt lat="47.07016" lon="-1.62435">
        <ele>51.04</ele>
        <time>2023-10-22T11:58:56Z</time>
      </trkpt>
      <trkpt lat="47.0703" lon="-1.62429">
        <ele>52.53</ele>
        <time>2023-10-22T11:58:58Z</time>
      </trkpt>
      <trkpt lat="47.07045" lon="-1.62425">
        <ele>52.72</ele>
        <time>2023-10-22T11:59:00Z</time>
      </trkpt>
      <trkpt lat="47.07058" lon="-1.62418">
        <ele>52.44</ele>
        <time>2023-10-22T11:59:02Z</time>
      </trkpt>
      <trkpt lat="47.07071" lon="-1.62406">
        <ele>52.17</ele>
        <time>2023-10-22T11:59:04Z</time>
      </trkpt>
      <trkpt lat="47.07084" lon="-1.62391">
        <ele>50.68</ele>
        <time>2023-10-22T11:59:06Z</time>
      </trkpt>
      <trkpt lat="47.07098" lon="-1.62383">
        <ele>50.43</ele>
        <time>2023-10-22T11:59:08Z</time>
      </trkpt>
      <trkpt lat="47.07105" lon="-1.62374">
        <ele>48.97</ele>
        <time>2023-10-22T11:59:09Z</time>
      </trkpt>
      <trkpt lat="47.07118" lon="-1.62366">
        <ele>49.09</ele>
        <time>2023-10-22T11:59:11Z</time>
      </trkpt>
      <trkpt lat="47.0713" lon="-1.62356">
        <ele>48.42</ele>
        <time>2023-10-22T11:59:13Z</time>
      </trkpt>
      <trkpt lat="47.07143" lon="-1.62347">
        <ele>46.79</ele>
        <time>2023-10-22T11:59:15Z</time>
      </trkpt>
      <trkpt lat="47.07156" lon="-1.62338">
        <ele>46.59</ele>
        <time>2023-10-22T11:59:17Z</time>
      </trkpt>
      <trkpt lat="47.0717" lon="-1.62331">
        <ele>46.7</ele>
        <time>2023-10-22T11:59:19Z</time>
      </trkpt>
      <trkpt lat="47.07184" lon="-1.62323">
        <ele>47.99</ele>
        <time>2023-10-22T11:59:21Z</time>
      </trkpt>
      <trkpt lat="47.07197" lon="-1.62315">
        <ele>48.68</ele>
        <time>2023-10-22T11:59:23Z</time>
      </trkpt>
      <trkpt lat="47.0721" lon="-1.62306">
        <ele>50.6</ele>
        <time>2023-10-22T11:59:25Z</time>
      </trkpt>
      <trkpt lat="47.07224" lon="-1.62297">
        <ele>52.01</ele>
        <time>2023-10-22T11:59:27Z</time>
      </trkpt>
      <trkpt lat="47.07237" lon="-1.62288">
        <ele>52.46</ele>
        <time>2023-10-22T11:59:29Z</time>
      </trkpt>
      <trkpt lat="47.07252" lon="-1.62277">
        <ele>53.29</ele>
        <time>2023-10-22T11:59:31Z</time>
      </trkpt>
      <trkpt lat="47.07266" lon="-1.62268">
        <ele>55.19</ele>
        <time>2023-10-22T11:59:33Z</time>
      </trkpt>
      <trkpt lat="47.07279" lon="-1.62255">
        <ele>54.85</ele>
        <time>2023-10-22T11:59:35Z</time>
      </trkpt>
      <trkpt lat="47.07291" lon="-1.62243">
        <ele>55.69</ele>
        <time>2023-10-22T11:59:37Z</time>
      </trkpt>
      <trkpt lat="47.07303" lon="-1.62228">
        <ele>56.7</ele>
        <time>2023-10-22T11:59:39Z</time>
      </trkpt>
      <trkpt lat="47.07315" lon="-1.62212">
        <ele>56.66</ele>
        <time>2023-10-22T11:59:41Z</time>
      </trkpt>
      <trkpt lat="47.07326" lon="-1.62196">
        <ele>57.04</ele>
        <time>2023-10-22T11:59:43Z</time>
      </trkpt>
      <trkpt lat="47.07338" lon="-1.6218">
        <ele>57.21</ele>
        <time>2023-10-22T11:59:45Z</time>
      </trkpt>
      <trkpt lat="47.07349" lon="-1.62164">
        <ele>57.26</ele>
        <time>2023-10-22T11:59:47Z</time>
      </trkpt>
      <trkpt lat="47.0736" lon="-1.62146">
        <ele>56.74</ele>
        <time>2023-10-22T11:59:49Z</time>
      </trkpt>
      <trkpt lat="47.0737" lon="-1.62129">
        <ele>56.79</ele>
        <time>2023-10-22T11:59:51Z</time>
      </trkpt>
      <trkpt lat="47.07381" lon="-1.62112">
        <ele>56.65</ele>
        <time>2023-10-22T11:59:53Z</time>
      </trkpt>
      <trkpt lat="47.07391" lon="-1.62095">
        <ele>57.2</ele>
        <time>2023-10-22T11:59:55Z</time>
      </trkpt>
      <trkpt lat="47.07401" lon="-1.62078">
        <ele>57.44</ele>
        <time>2023-10-22T11:59:57Z</time>
      </trkpt>
      <trkpt lat="47.0741" lon="-1.62061">
        <ele>57.49</ele>
        <time>2023-10-22T11:59:59Z</time>
      </trkpt>
      <trkpt lat="47.07421" lon="-1.62045">
        <ele>57.51</ele>
        <time>2023-10-22T12:00:01Z</time>
      </trkpt>
      <trkpt lat="47.07432" lon="-1.62029">
        <ele>57.92</ele>
        <time>2023-10-22T12:00:03Z</time>
      </trkpt>
      <trkpt lat="47.07443" lon="-1.62013">
        <ele>58.14</ele>
        <time>2023-10-22T12:00:05Z</time>
      </trkpt>
      <trkpt lat="47.07454" lon="-1.61998">
        <ele>58.92</ele>
        <time>2023-10-22T12:00:07Z</time>
      </trkpt>
      <trkpt lat="47.07466" lon="-1.61984">
        <ele>57.89</ele>
        <time>2023-10-22T12:00:09Z</time>
      </trkpt>
      <trkpt lat="47.07477" lon="-1.6197">
        <ele>58.15</ele>
        <time>2023-10-22T12:00:11Z</time>
      </trkpt>
      <trkpt lat="47.07489" lon="-1.61955">
        <ele>57.96</ele>
        <time>2023-10-22T12:00:13Z</time>
      </trkpt>
      <trkpt lat="47.07501" lon="-1.61942">
        <ele>57.94</ele>
        <time>2023-10-22T12:00:15Z</time>
      </trkpt>
      <trkpt lat="47.07513" lon="-1.61928">
        <ele>57.67</ele>
        <time>2023-10-22T12:00:17Z</time>
      </trkpt>
      <trkpt lat="47.07525" lon="-1.61915">
        <ele>57.82</ele>
        <time>2023-10-22T12:00:19Z</time>
      </trkpt>
      <trkpt lat="47.07535" lon="-1.619">
        <ele>57.76</ele>
        <time>2023-10-22T12:00:21Z</time>
      </trkpt>
      <trkpt lat="47.07547" lon="-1.61886">
        <ele>57.81</ele>
        <time>2023-10-22T12:00:23Z</time>
      </trkpt>
      <trkpt lat="47.07559" lon="-1.61874">
        <ele>56.76</ele>
        <time>2023-10-22T12:00:25Z</time>
      </trkpt>
      <trkpt lat="47.07572" lon="-1.6186">
        <ele>54.89</ele>
        <time>2023-10-22T12:00:27Z</time>
      </trkpt>
      <trkpt lat="47.07584" lon="-1.61845">
        <ele>55.38</ele>
        <time>2023-10-22T12:00:29Z</time>
      </trkpt>
      <trkpt lat="47.07596" lon="-1.61832">
        <ele>55.62</ele>
        <time>2023-10-22T12:00:31Z</time>
      </trkpt>
      <trkpt lat="47.07609" lon="-1.61816">
        <ele>54.9</ele>
        <time>2023-10-22T12:00:33Z</time>
      </trkpt>
      <trkpt lat="47.07621" lon="-1.618">
        <ele>54.71</ele>
        <time>2023-10-22T12:00:35Z</time>
      </trkpt>
      <trkpt lat="47.07633" lon="-1.61787">
        <ele>55.34</ele>
        <time>2023-10-22T12:00:37Z</time>
      </trkpt>
      <trkpt lat="47.07646" lon="-1.6177">
        <ele>54.67</ele>
        <time>2023-10-22T12:00:39Z</time>
      </trkpt>
      <trkpt lat="47.07653" lon="-1.61762">
        <ele>53.24</ele>
        <time>2023-10-22T12:00:40Z</time>
      </trkpt>
      <trkpt lat="47.07666" lon="-1.61749">
        <ele>55.1</ele>
        <time>2023-10-22T12:00:42Z</time>
      </trkpt>
      <trkpt lat="47.07678" lon="-1.61736">
        <ele>56.44</ele>
        <time>2023-10-22T12:00:44Z</time>
      </trkpt>
      <trkpt lat="47.07689" lon="-1.61725">
        <ele>56.71</ele>
        <time>2023-10-22T12:00:46Z</time>
      </trkpt>
      <trkpt lat="47.077" lon="-1.61711">
        <ele>56.47</ele>
        <time>2023-10-22T12:00:48Z</time>
      </trkpt>
      <trkpt lat="47.07712" lon="-1.61697">
        <ele>56.97</ele>
        <time>2023-10-22T12:00:50Z</time>
      </trkpt>
      <trkpt lat="47.07724" lon="-1.61683">
        <ele>56.57</ele>
        <time>2023-10-22T12:00:52Z</time>
      </trkpt>
      <trkpt lat="47.07737" lon="-1.61669">
        <ele>56.72</ele>
        <time>2023-10-22T12:00:54Z</time>
      </trkpt>
      <trkpt lat="47.07749" lon="-1.61655">
        <ele>56.95</ele>
        <time>2023-10-22T12:00:56Z</time>
      </trkpt>
      <trkpt lat="47.07761" lon="-1.6164">
        <ele>57.38</ele>
        <time>2023-10-22T12:00:58Z</time>
      </trkpt>
      <trkpt lat="47.07775" lon="-1.61623">
        <ele>55.47</ele>
        <time>2023-10-22T12:01:00Z</time>
      </trkpt>
      <trkpt lat="47.07788" lon="-1.61609">
        <ele>54.55</ele>
        <time>2023-10-22T12:01:02Z</time>
      </trkpt>
      <trkpt lat="47.07801" lon="-1.61596">
        <ele>55.73</ele>
        <time>2023-10-22T12:01:04Z</time>
      </trkpt>
      <trkpt lat="47.07813" lon="-1.61586">
        <ele>55.27</ele>
        <time>2023-10-22T12:01:06Z</time>
      </trkpt>
      <trkpt lat="47.07827" lon="-1.61578">
        <ele>56.33</ele>
        <time>2023-10-22T12:01:08Z</time>
      </trkpt>
      <trkpt lat="47.0784" lon="-1.61571">
        <ele>55.94</ele>
        <time>2023-10-22T12:01:10Z</time>
      </trkpt>
      <trkpt lat="47.07854" lon="-1.61563">
        <ele>56.12</ele>
        <time>2023-10-22T12:01:12Z</time>
      </trkpt>
      <trkpt lat="47.07868" lon="-1.61557">
        <ele>55.84</ele>
        <time>2023-10-22T12:01:14Z</time>
      </trkpt>
      <trkpt lat="47.07882" lon="-1.61551">
        <ele>55.69</ele>
        <time>2023-10-22T12:01:16Z</time>
      </trkpt>
      <trkpt lat="47.07895" lon="-1.61545">
        <ele>56.18</ele>
        <time>2023-10-22T12:01:18Z</time>
      </trkpt>
      <trkpt lat="47.0791" lon="-1.61539">
        <ele>55.77</ele>
        <time>2023-10-22T12:01:20Z</time>
      </trkpt>
      <trkpt lat="47.07923" lon="-1.61534">
        <ele>55.15</ele>
        <time>2023-10-22T12:01:22Z</time>
      </trkpt>
      <trkpt lat="47.07936" lon="-1.61528">
        <ele>55.66</ele>
        <time>2023-10-22T12:01:24Z</time>
      </trkpt>
      <trkpt lat="47.07949" lon="-1.61522">
        <ele>55.62</ele>
        <time>2023-10-22T12:01:26Z</time>
      </trkpt>
      <trkpt lat="47.07964" lon="-1.61515">
        <ele>54.77</ele>
        <time>2023-10-22T12:01:28Z</time>
      </trkpt>
      <trkpt lat="47.07977" lon="-1.6151">
        <ele>55.71</ele>
        <time>2023-10-22T12:01:30Z</time>
      </trkpt>
      <trkpt lat="47.07991" lon="-1.61504">
        <ele>56.47</ele>
        <time>2023-10-22T12:01:32Z</time>
      </trkpt>
      <trkpt lat="47.08005" lon="-1.61498">
        <ele>55.82</ele>
        <time>2023-10-22T12:01:34Z</time>
      </trkpt>
      <trkpt lat="47.08019" lon="-1.61492">
        <ele>55.65</ele>
        <time>2023-10-22T12:01:36Z</time>
      </trkpt>
      <trkpt lat="47.08033" lon="-1.61487">
        <ele>55.6</ele>
        <time>2023-10-22T12:01:38Z</time>
      </trkpt>
      <trkpt lat="47.08047" lon="-1.61481">
        <ele>55.57</ele>
        <time>2023-10-22T12:01:40Z</time>
      </trkpt>
      <trkpt lat="47.08062" lon="-1.61474">
        <ele>55.18</ele>
        <time>2023-10-22T12:01:42Z</time>
      </trkpt>
      <trkpt lat="47.08076" lon="-1.61468">
        <ele>55.47</ele>
        <time>2023-10-22T12:01:44Z</time>
      </trkpt>
      <trkpt lat="47.0809" lon="-1.61461">
        <ele>55</ele>
        <time>2023-10-22T12:01:46Z</time>
      </trkpt>
      <trkpt lat="47.08104" lon="-1.61455">
        <ele>55.34</ele>
        <time>2023-10-22T12:01:48Z</time>
      </trkpt>
      <trkpt lat="47.08118" lon="-1.61448">
        <ele>55.43</ele>
        <time>2023-10-22T12:01:50Z</time>
      </trkpt>
      <trkpt lat="47.08132" lon="-1.61442">
        <ele>54.94</ele>
        <time>2023-10-22T12:01:52Z</time>
      </trkpt>
      <trkpt lat="47.08147" lon="-1.61437">
        <ele>55.07</ele>
        <time>2023-10-22T12:01:54Z</time>
      </trkpt>
      <trkpt lat="47.08161" lon="-1.6143">
        <ele>54.55</ele>
        <time>2023-10-22T12:01:56Z</time>
      </trkpt>
      <trkpt lat="47.08175" lon="-1.61424">
        <ele>54.94</ele>
        <time>2023-10-22T12:01:58Z</time>
      </trkpt>
      <trkpt lat="47.08189" lon="-1.61417">
        <ele>54.77</ele>
        <time>2023-10-22T12:02:00Z</time>
      </trkpt>
      <trkpt lat="47.08203" lon="-1.61412">
        <ele>54.43</ele>
        <time>2023-10-22T12:02:02Z</time>
      </trkpt>
      <trkpt lat="47.08217" lon="-1.61406">
        <ele>54.95</ele>
        <time>2023-10-22T12:02:04Z</time>
      </trkpt>
      <trkpt lat="47.08231" lon="-1.614">
        <ele>54.17</ele>
        <time>2023-10-22T12:02:06Z</time>
      </trkpt>
      <trkpt lat="47.08245" lon="-1.61394">
        <ele>54.58</ele>
        <time>2023-10-22T12:02:08Z</time>
      </trkpt>
      <trkpt lat="47.08259" lon="-1.61388">
        <ele>55.04</ele>
        <time>2023-10-22T12:02:10Z</time>
      </trkpt>
      <trkpt lat="47.08273" lon="-1.61382">
        <ele>55.23</ele>
        <time>2023-10-22T12:02:12Z</time>
      </trkpt>
      <trkpt lat="47.08287" lon="-1.61376">
        <ele>55.49</ele>
        <time>2023-10-22T12:02:14Z</time>
      </trkpt>
      <trkpt lat="47.08301" lon="-1.6137">
        <ele>55.35</ele>
        <time>2023-10-22T12:02:16Z</time>
      </trkpt>
      <trkpt lat="47.08315" lon="-1.61365">
        <ele>55.62</ele>
        <time>2023-10-22T12:02:18Z</time>
      </trkpt>
      <trkpt lat="47.08329" lon="-1.61359">
        <ele>55.96</ele>
        <time>2023-10-22T12:02:20Z</time>
      </trkpt>
      <trkpt lat="47.08344" lon="-1.61352">
        <ele>56.06</ele>
        <time>2023-10-22T12:02:22Z</time>
      </trkpt>
      <trkpt lat="47.08358" lon="-1.61346">
        <ele>56.33</ele>
        <time>2023-10-22T12:02:24Z</time>
      </trkpt>
      <trkpt lat="47.08372" lon="-1.6134">
        <ele>56.21</ele>
        <time>2023-10-22T12:02:26Z</time>
      </trkpt>
      <trkpt lat="47.08386" lon="-1.61334">
        <ele>55.5</ele>
        <time>2023-10-22T12:02:28Z</time>
      </trkpt>
      <trkpt lat="47.08401" lon="-1.61328">
        <ele>55.87</ele>
        <time>2023-10-22T12:02:30Z</time>
      </trkpt>
      <trkpt lat="47.08416" lon="-1.61322">
        <ele>56.06</ele>
        <time>2023-10-22T12:02:32Z</time>
      </trkpt>
      <trkpt lat="47.0843" lon="-1.61315">
        <ele>56.79</ele>
        <time>2023-10-22T12:02:34Z</time>
      </trkpt>
      <trkpt lat="47.08444" lon="-1.61309">
        <ele>55.78</ele>
        <time>2023-10-22T12:02:36Z</time>
      </trkpt>
      <trkpt lat="47.08458" lon="-1.61303">
        <ele>55.38</ele>
        <time>2023-10-22T12:02:38Z</time>
      </trkpt>
      <trkpt lat="47.08472" lon="-1.61298">
        <ele>55.98</ele>
        <time>2023-10-22T12:02:40Z</time>
      </trkpt>
      <trkpt lat="47.08485" lon="-1.61291">
        <ele>55.47</ele>
        <time>2023-10-22T12:02:42Z</time>
      </trkpt>
      <trkpt lat="47.08498" lon="-1.61283">
        <ele>55.3</ele>
        <time>2023-10-22T12:02:44Z</time>
      </trkpt>
      <trkpt lat="47.08512" lon="-1.61279">
        <ele>55.07</ele>
        <time>2023-10-22T12:02:46Z</time>
      </trkpt>
      <trkpt lat="47.08525" lon="-1.61273">
        <ele>55.28</ele>
        <time>2023-10-22T12:02:48Z</time>
      </trkpt>
      <trkpt lat="47.08538" lon="-1.61267">
        <ele>55.55</ele>
        <time>2023-10-22T12:02:50Z</time>
      </trkpt>
      <trkpt lat="47.08552" lon="-1.61262">
        <ele>55.81</ele>
        <time>2023-10-22T12:02:52Z</time>
      </trkpt>
      <trkpt lat="47.08565" lon="-1.61257">
        <ele>56.28</ele>
        <time>2023-10-22T12:02:54Z</time>
      </trkpt>
      <trkpt lat="47.08579" lon="-1.61251">
        <ele>55.84</ele>
        <time>2023-10-22T12:02:56Z</time>
      </trkpt>
      <trkpt lat="47.08593" lon="-1.61244">
        <ele>56.58</ele>
        <time>2023-10-22T12:02:58Z</time>
      </trkpt>
      <trkpt lat="47.08606" lon="-1.61239">
        <ele>57.27</ele>
        <time>2023-10-22T12:03:00Z</time>
      </trkpt>
      <trkpt lat="47.08619" lon="-1.61233">
        <ele>57.47</ele>
        <time>2023-10-22T12:03:02Z</time>
      </trkpt>
      <trkpt lat="47.08632" lon="-1.61227">
        <ele>58.47</ele>
        <time>2023-10-22T12:03:04Z</time>
      </trkpt>
      <trkpt lat="47.08645" lon="-1.61221">
        <ele>58.74</ele>
        <time>2023-10-22T12:03:06Z</time>
      </trkpt>
      <trkpt lat="47.08659" lon="-1.61217">
        <ele>58.92</ele>
        <time>2023-10-22T12:03:08Z</time>
      </trkpt>
      <trkpt lat="47.08673" lon="-1.61209">
        <ele>58.26</ele>
        <time>2023-10-22T12:03:10Z</time>
      </trkpt>
      <trkpt lat="47.08686" lon="-1.61204">
        <ele>58.17</ele>
        <time>2023-10-22T12:03:12Z</time>
      </trkpt>
      <trkpt lat="47.087" lon="-1.61199">
        <ele>58.47</ele>
        <time>2023-10-22T12:03:14Z</time>
      </trkpt>
      <trkpt lat="47.08713" lon="-1.61194">
        <ele>59.25</ele>
        <time>2023-10-22T12:03:16Z</time>
      </trkpt>
      <trkpt lat="47.08727" lon="-1.61187">
        <ele>59.13</ele>
        <time>2023-10-22T12:03:18Z</time>
      </trkpt>
      <trkpt lat="47.08741" lon="-1.61181">
        <ele>60.08</ele>
        <time>2023-10-22T12:03:20Z</time>
      </trkpt>
      <trkpt lat="47.08755" lon="-1.61176">
        <ele>59.98</ele>
        <time>2023-10-22T12:03:22Z</time>
      </trkpt>
      <trkpt lat="47.0877" lon="-1.6117">
        <ele>60.07</ele>
        <time>2023-10-22T12:03:24Z</time>
      </trkpt>
      <trkpt lat="47.08784" lon="-1.61164">
        <ele>60.4</ele>
        <time>2023-10-22T12:03:26Z</time>
      </trkpt>
      <trkpt lat="47.08798" lon="-1.61158">
        <ele>60.82</ele>
        <time>2023-10-22T12:03:28Z</time>
      </trkpt>
      <trkpt lat="47.08811" lon="-1.61152">
        <ele>60.79</ele>
        <time>2023-10-22T12:03:30Z</time>
      </trkpt>
      <trkpt lat="47.08825" lon="-1.61146">
        <ele>60.94</ele>
        <time>2023-10-22T12:03:32Z</time>
      </trkpt>
      <trkpt lat="47.08839" lon="-1.61141">
        <ele>60.98</ele>
        <time>2023-10-22T12:03:34Z</time>
      </trkpt>
      <trkpt lat="47.08852" lon="-1.61135">
        <ele>61.24</ele>
        <time>2023-10-22T12:03:36Z</time>
      </trkpt>
      <trkpt lat="47.08865" lon="-1.61131">
        <ele>61.14</ele>
        <time>2023-10-22T12:03:38Z</time>
      </trkpt>
      <trkpt lat="47.08878" lon="-1.61126">
        <ele>61.79</ele>
        <time>2023-10-22T12:03:40Z</time>
      </trkpt>
      <trkpt lat="47.08891" lon="-1.6112">
        <ele>62.12</ele>
        <time>2023-10-22T12:03:42Z</time>
      </trkpt>
      <trkpt lat="47.08904" lon="-1.61113">
        <ele>62.47</ele>
        <time>2023-10-22T12:03:44Z</time>
      </trkpt>
      <trkpt lat="47.08917" lon="-1.61108">
        <ele>62.61</ele>
        <time>2023-10-22T12:03:46Z</time>
      </trkpt>
      <trkpt lat="47.0893" lon="-1.61102">
        <ele>63.27</ele>
        <time>2023-10-22T12:03:48Z</time>
      </trkpt>
      <trkpt lat="47.08944" lon="-1.61096">
        <ele>63.62</ele>
        <time>2023-10-22T12:03:50Z</time>
      </trkpt>
      <trkpt lat="47.08957" lon="-1.61091">
        <ele>63.24</ele>
        <time>2023-10-22T12:03:52Z</time>
      </trkpt>
      <trkpt lat="47.0897" lon="-1.61086">
        <ele>62.79</ele>
        <time>2023-10-22T12:03:54Z</time>
      </trkpt>
      <trkpt lat="47.08983" lon="-1.61085">
        <ele>63</ele>
        <time>2023-10-22T12:03:56Z</time>
      </trkpt>
      <trkpt lat="47.08998" lon="-1.61085">
        <ele>63.31</ele>
        <time>2023-10-22T12:03:58Z</time>
      </trkpt>
      <trkpt lat="47.09012" lon="-1.61088">
        <ele>63.23</ele>
        <time>2023-10-22T12:04:00Z</time>
      </trkpt>
      <trkpt lat="47.09025" lon="-1.61092">
        <ele>63.63</ele>
        <time>2023-10-22T12:04:02Z</time>
      </trkpt>
      <trkpt lat="47.09039" lon="-1.61096">
        <ele>63.2</ele>
        <time>2023-10-22T12:04:04Z</time>
      </trkpt>
      <trkpt lat="47.09054" lon="-1.61101">
        <ele>63.37</ele>
        <time>2023-10-22T12:04:06Z</time>
      </trkpt>
      <trkpt lat="47.09068" lon="-1.61106">
        <ele>62.84</ele>
        <time>2023-10-22T12:04:08Z</time>
      </trkpt>
      <trkpt lat="47.09082" lon="-1.6111">
        <ele>62.87</ele>
        <time>2023-10-22T12:04:10Z</time>
      </trkpt>
      <trkpt lat="47.09096" lon="-1.61115">
        <ele>62.62</ele>
        <time>2023-10-22T12:04:12Z</time>
      </trkpt>
      <trkpt lat="47.09109" lon="-1.6112">
        <ele>62.77</ele>
        <time>2023-10-22T12:04:14Z</time>
      </trkpt>
      <trkpt lat="47.09123" lon="-1.61124">
        <ele>62.91</ele>
        <time>2023-10-22T12:04:16Z</time>
      </trkpt>
      <trkpt lat="47.09138" lon="-1.61127">
        <ele>63.19</ele>
        <time>2023-10-22T12:04:18Z</time>
      </trkpt>
      <trkpt lat="47.09153" lon="-1.61133">
        <ele>63.24</ele>
        <time>2023-10-22T12:04:20Z</time>
      </trkpt>
      <trkpt lat="47.09167" lon="-1.61136">
        <ele>63.01</ele>
        <time>2023-10-22T12:04:22Z</time>
      </trkpt>
      <trkpt lat="47.09181" lon="-1.61141">
        <ele>63.54</ele>
        <time>2023-10-22T12:04:24Z</time>
      </trkpt>
      <trkpt lat="47.09195" lon="-1.61145">
        <ele>63.4</ele>
        <time>2023-10-22T12:04:26Z</time>
      </trkpt>
      <trkpt lat="47.09209" lon="-1.6115">
        <ele>63.03</ele>
        <time>2023-10-22T12:04:28Z</time>
      </trkpt>
      <trkpt lat="47.09222" lon="-1.61157">
        <ele>63.03</ele>
        <time>2023-10-22T12:04:30Z</time>
      </trkpt>
      <trkpt lat="47.09234" lon="-1.61168">
        <ele>62.15</ele>
        <time>2023-10-22T12:04:32Z</time>
      </trkpt>
      <trkpt lat="47.09246" lon="-1.61178">
        <ele>61.91</ele>
        <time>2023-10-22T12:04:34Z</time>
      </trkpt>
      <trkpt lat="47.09261" lon="-1.61182">
        <ele>61.72</ele>
        <time>2023-10-22T12:04:36Z</time>
      </trkpt>
      <trkpt lat="47.09275" lon="-1.61186">
        <ele>60.56</ele>
        <time>2023-10-22T12:04:38Z</time>
      </trkpt>
      <trkpt lat="47.09289" lon="-1.6119">
        <ele>59.75</ele>
        <time>2023-10-22T12:04:40Z</time>
      </trkpt>
      <trkpt lat="47.09304" lon="-1.61195">
        <ele>59.59</ele>
        <time>2023-10-22T12:04:42Z</time>
      </trkpt>
      <trkpt lat="47.09318" lon="-1.61199">
        <ele>61.23</ele>
        <time>2023-10-22T12:04:44Z</time>
      </trkpt>
      <trkpt lat="47.09333" lon="-1.61203">
        <ele>60.47</ele>
        <time>2023-10-22T12:04:46Z</time>
      </trkpt>
      <trkpt lat="47.09348" lon="-1.61207">
        <ele>60.34</ele>
        <time>2023-10-22T12:04:48Z</time>
      </trkpt>
      <trkpt lat="47.09362" lon="-1.61212">
        <ele>59.92</ele>
        <time>2023-10-22T12:04:50Z</time>
      </trkpt>
      <trkpt lat="47.09376" lon="-1.6122">
        <ele>59.78</ele>
        <time>2023-10-22T12:04:52Z</time>
      </trkpt>
      <trkpt lat="47.09391" lon="-1.61226">
        <ele>59.94</ele>
        <time>2023-10-22T12:04:54Z</time>
      </trkpt>
      <trkpt lat="47.09406" lon="-1.61232">
        <ele>60.8</ele>
        <time>2023-10-22T12:04:56Z</time>
      </trkpt>
      <trkpt lat="47.09422" lon="-1.61234">
        <ele>61.61</ele>
        <time>2023-10-22T12:04:58Z</time>
      </trkpt>
      <trkpt lat="47.09435" lon="-1.6122">
        <ele>61.32</ele>
        <time>2023-10-22T12:05:00Z</time>
      </trkpt>
      <trkpt lat="47.09449" lon="-1.61205">
        <ele>61.46</ele>
        <time>2023-10-22T12:05:02Z</time>
      </trkpt>
      <trkpt lat="47.09462" lon="-1.6119">
        <ele>61.64</ele>
        <time>2023-10-22T12:05:04Z</time>
      </trkpt>
      <trkpt lat="47.09474" lon="-1.61175">
        <ele>61.78</ele>
        <time>2023-10-22T12:05:06Z</time>
      </trkpt>
      <trkpt lat="47.09488" lon="-1.61162">
        <ele>62.39</ele>
        <time>2023-10-22T12:05:08Z</time>
      </trkpt>
      <trkpt lat="47.09502" lon="-1.61153">
        <ele>61.77</ele>
        <time>2023-10-22T12:05:10Z</time>
      </trkpt>
      <trkpt lat="47.09517" lon="-1.61144">
        <ele>60.77</ele>
        <time>2023-10-22T12:05:12Z</time>
      </trkpt>
      <trkpt lat="47.09533" lon="-1.6114">
        <ele>59.64</ele>
        <time>2023-10-22T12:05:14Z</time>
      </trkpt>
      <trkpt lat="47.0955" lon="-1.61137">
        <ele>59.33</ele>
        <time>2023-10-22T12:05:16Z</time>
      </trkpt>
      <trkpt lat="47.09566" lon="-1.61135">
        <ele>59.36</ele>
        <time>2023-10-22T12:05:18Z</time>
      </trkpt>
      <trkpt lat="47.09583" lon="-1.61133">
        <ele>59.17</ele>
        <time>2023-10-22T12:05:20Z</time>
      </trkpt>
      <trkpt lat="47.09599" lon="-1.61131">
        <ele>58.79</ele>
        <time>2023-10-22T12:05:22Z</time>
      </trkpt>
      <trkpt lat="47.09616" lon="-1.61129">
        <ele>58.15</ele>
        <time>2023-10-22T12:05:24Z</time>
      </trkpt>
      <trkpt lat="47.09632" lon="-1.61127">
        <ele>58</ele>
        <time>2023-10-22T12:05:26Z</time>
      </trkpt>
      <trkpt lat="47.09649" lon="-1.61125">
        <ele>58.58</ele>
        <time>2023-10-22T12:05:28Z</time>
      </trkpt>
      <trkpt lat="47.09665" lon="-1.61122">
        <ele>57.87</ele>
        <time>2023-10-22T12:05:30Z</time>
      </trkpt>
      <trkpt lat="47.09682" lon="-1.61119">
        <ele>57.28</ele>
        <time>2023-10-22T12:05:32Z</time>
      </trkpt>
      <trkpt lat="47.09699" lon="-1.61117">
        <ele>56.83</ele>
        <time>2023-10-22T12:05:34Z</time>
      </trkpt>
      <trkpt lat="47.09716" lon="-1.61114">
        <ele>57.71</ele>
        <time>2023-10-22T12:05:36Z</time>
      </trkpt>
      <trkpt lat="47.09733" lon="-1.61112">
        <ele>57.72</ele>
        <time>2023-10-22T12:05:38Z</time>
      </trkpt>
      <trkpt lat="47.0975" lon="-1.6111">
        <ele>57.04</ele>
        <time>2023-10-22T12:05:40Z</time>
      </trkpt>
      <trkpt lat="47.09766" lon="-1.61107">
        <ele>57.46</ele>
        <time>2023-10-22T12:05:42Z</time>
      </trkpt>
      <trkpt lat="47.09782" lon="-1.61105">
        <ele>56.7</ele>
        <time>2023-10-22T12:05:44Z</time>
      </trkpt>
      <trkpt lat="47.09798" lon="-1.611">
        <ele>57.28</ele>
        <time>2023-10-22T12:05:46Z</time>
      </trkpt>
      <trkpt lat="47.09812" lon="-1.61092">
        <ele>56.86</ele>
        <time>2023-10-22T12:05:48Z</time>
      </trkpt>
      <trkpt lat="47.09826" lon="-1.61083">
        <ele>57.63</ele>
        <time>2023-10-22T12:05:50Z</time>
      </trkpt>
      <trkpt lat="47.09839" lon="-1.61071">
        <ele>58.04</ele>
        <time>2023-10-22T12:05:52Z</time>
      </trkpt>
      <trkpt lat="47.09851" lon="-1.61057">
        <ele>58.27</ele>
        <time>2023-10-22T12:05:54Z</time>
      </trkpt>
      <trkpt lat="47.09861" lon="-1.61042">
        <ele>58.44</ele>
        <time>2023-10-22T12:05:56Z</time>
      </trkpt>
      <trkpt lat="47.09871" lon="-1.61024">
        <ele>59.54</ele>
        <time>2023-10-22T12:05:58Z</time>
      </trkpt>
      <trkpt lat="47.0988" lon="-1.61004">
        <ele>60.54</ele>
        <time>2023-10-22T12:06:00Z</time>
      </trkpt>
      <trkpt lat="47.09888" lon="-1.60982">
        <ele>59.65</ele>
        <time>2023-10-22T12:06:02Z</time>
      </trkpt>
      <trkpt lat="47.09897" lon="-1.60961">
        <ele>60.59</ele>
        <time>2023-10-22T12:06:04Z</time>
      </trkpt>
      <trkpt lat="47.09906" lon="-1.60939">
        <ele>60.78</ele>
        <time>2023-10-22T12:06:06Z</time>
      </trkpt>
      <trkpt lat="47.09915" lon="-1.60918">
        <ele>61.11</ele>
        <time>2023-10-22T12:06:08Z</time>
      </trkpt>
      <trkpt lat="47.09923" lon="-1.60898">
        <ele>60.76</ele>
        <time>2023-10-22T12:06:10Z</time>
      </trkpt>
      <trkpt lat="47.09931" lon="-1.60877">
        <ele>60.77</ele>
        <time>2023-10-22T12:06:12Z</time>
      </trkpt>
      <trkpt lat="47.0994" lon="-1.60857">
        <ele>60.89</ele>
        <time>2023-10-22T12:06:14Z</time>
      </trkpt>
      <trkpt lat="47.09947" lon="-1.60837">
        <ele>61.27</ele>
        <time>2023-10-22T12:06:16Z</time>
      </trkpt>
      <trkpt lat="47.09954" lon="-1.60815">
        <ele>61.06</ele>
        <time>2023-10-22T12:06:18Z</time>
      </trkpt>
      <trkpt lat="47.0996" lon="-1.60795">
        <ele>61.07</ele>
        <time>2023-10-22T12:06:20Z</time>
      </trkpt>
      <trkpt lat="47.09966" lon="-1.60773">
        <ele>61.01</ele>
        <time>2023-10-22T12:06:22Z</time>
      </trkpt>
      <trkpt lat="47.09971" lon="-1.60753">
        <ele>60.98</ele>
        <time>2023-10-22T12:06:24Z</time>
      </trkpt>
      <trkpt lat="47.09977" lon="-1.60732">
        <ele>60.37</ele>
        <time>2023-10-22T12:06:26Z</time>
      </trkpt>
      <trkpt lat="47.09983" lon="-1.60712">
        <ele>59.96</ele>
        <time>2023-10-22T12:06:28Z</time>
      </trkpt>
      <trkpt lat="47.09989" lon="-1.60693">
        <ele>58.74</ele>
        <time>2023-10-22T12:06:30Z</time>
      </trkpt>
      <trkpt lat="47.09994" lon="-1.60673">
        <ele>59.19</ele>
        <time>2023-10-22T12:06:32Z</time>
      </trkpt>
      <trkpt lat="47.1" lon="-1.60654">
        <ele>59.25</ele>
        <time>2023-10-22T12:06:34Z</time>
      </trkpt>
      <trkpt lat="47.10007" lon="-1.60634">
        <ele>58.64</ele>
        <time>2023-10-22T12:06:36Z</time>
      </trkpt>
      <trkpt lat="47.10012" lon="-1.60615">
        <ele>59.05</ele>
        <time>2023-10-22T12:06:38Z</time>
      </trkpt>
      <trkpt lat="47.10017" lon="-1.60596">
        <ele>59.12</ele>
        <time>2023-10-22T12:06:40Z</time>
      </trkpt>
      <trkpt lat="47.10024" lon="-1.60577">
        <ele>59.48</ele>
        <time>2023-10-22T12:06:42Z</time>
      </trkpt>
      <trkpt lat="47.10029" lon="-1.60557">
        <ele>58.87</ele>
        <time>2023-10-22T12:06:44Z</time>
      </trkpt>
      <trkpt lat="47.10038" lon="-1.60528">
        <ele>59.1</ele>
        <time>2023-10-22T12:06:47Z</time>
      </trkpt>
      <trkpt lat="47.10045" lon="-1.60498">
        <ele>58.4</ele>
        <time>2023-10-22T12:06:50Z</time>
      </trkpt>
      <trkpt lat="47.1005" lon="-1.60478">
        <ele>58.58</ele>
        <time>2023-10-22T12:06:52Z</time>
      </trkpt>
      <trkpt lat="47.10057" lon="-1.60449">
        <ele>59.03</ele>
        <time>2023-10-22T12:06:55Z</time>
      </trkpt>
      <trkpt lat="47.1006" lon="-1.60428">
        <ele>58.86</ele>
        <time>2023-10-22T12:06:57Z</time>
      </trkpt>
      <trkpt lat="47.10064" lon="-1.60408">
        <ele>59.33</ele>
        <time>2023-10-22T12:06:59Z</time>
      </trkpt>
      <trkpt lat="47.10065" lon="-1.60387">
        <ele>59.68</ele>
        <time>2023-10-22T12:07:01Z</time>
      </trkpt>
      <trkpt lat="47.10068" lon="-1.60366">
        <ele>59.86</ele>
        <time>2023-10-22T12:07:03Z</time>
      </trkpt>
      <trkpt lat="47.10069" lon="-1.60345">
        <ele>57.57</ele>
        <time>2023-10-22T12:07:05Z</time>
      </trkpt>
      <trkpt lat="47.10071" lon="-1.60324">
        <ele>58.32</ele>
        <time>2023-10-22T12:07:07Z</time>
      </trkpt>
      <trkpt lat="47.10073" lon="-1.60302">
        <ele>59.55</ele>
        <time>2023-10-22T12:07:09Z</time>
      </trkpt>
      <trkpt lat="47.10075" lon="-1.60282">
        <ele>59.32</ele>
        <time>2023-10-22T12:07:11Z</time>
      </trkpt>
      <trkpt lat="47.10076" lon="-1.6026">
        <ele>58.75</ele>
        <time>2023-10-22T12:07:13Z</time>
      </trkpt>
      <trkpt lat="47.10078" lon="-1.60239">
        <ele>58.87</ele>
        <time>2023-10-22T12:07:15Z</time>
      </trkpt>
      <trkpt lat="47.10079" lon="-1.60217">
        <ele>59.51</ele>
        <time>2023-10-22T12:07:17Z</time>
      </trkpt>
      <trkpt lat="47.1008" lon="-1.60195">
        <ele>59.2</ele>
        <time>2023-10-22T12:07:19Z</time>
      </trkpt>
      <trkpt lat="47.10081" lon="-1.60174">
        <ele>59.1</ele>
        <time>2023-10-22T12:07:21Z</time>
      </trkpt>
      <trkpt lat="47.10075" lon="-1.60153">
        <ele>58.96</ele>
        <time>2023-10-22T12:07:23Z</time>
      </trkpt>
      <trkpt lat="47.1007" lon="-1.60133">
        <ele>58.96</ele>
        <time>2023-10-22T12:07:25Z</time>
      </trkpt>
      <trkpt lat="47.10074" lon="-1.60113">
        <ele>58.84</ele>
        <time>2023-10-22T12:07:27Z</time>
      </trkpt>
      <trkpt lat="47.10087" lon="-1.60101">
        <ele>59.14</ele>
        <time>2023-10-22T12:07:29Z</time>
      </trkpt>
      <trkpt lat="47.10102" lon="-1.60095">
        <ele>59.28</ele>
        <time>2023-10-22T12:07:31Z</time>
      </trkpt>
      <trkpt lat="47.10111" lon="-1.6008">
        <ele>59.75</ele>
        <time>2023-10-22T12:07:33Z</time>
      </trkpt>
      <trkpt lat="47.10121" lon="-1.60063">
        <ele>59.87</ele>
        <time>2023-10-22T12:07:35Z</time>
      </trkpt>
      <trkpt lat="47.10131" lon="-1.60046">
        <ele>59.17</ele>
        <time>2023-10-22T12:07:37Z</time>
      </trkpt>
      <trkpt lat="47.10142" lon="-1.60028">
        <ele>59.37</ele>
        <time>2023-10-22T12:07:39Z</time>
      </trkpt>
      <trkpt lat="47.10152" lon="-1.60011">
        <ele>59.72</ele>
        <time>2023-10-22T12:07:41Z</time>
      </trkpt>
      <trkpt lat="47.10162" lon="-1.59995">
        <ele>60.23</ele>
        <time>2023-10-22T12:07:43Z</time>
      </trkpt>
      <trkpt lat="47.10172" lon="-1.59977">
        <ele>60.68</ele>
        <time>2023-10-22T12:07:45Z</time>
      </trkpt>
      <trkpt lat="47.10182" lon="-1.59961">
        <ele>61.87</ele>
        <time>2023-10-22T12:07:47Z</time>
      </trkpt>
      <trkpt lat="47.10192" lon="-1.59944">
        <ele>61.89</ele>
        <time>2023-10-22T12:07:49Z</time>
      </trkpt>
      <trkpt lat="47.10202" lon="-1.59928">
        <ele>62.55</ele>
        <time>2023-10-22T12:07:51Z</time>
      </trkpt>
      <trkpt lat="47.10212" lon="-1.59912">
        <ele>62.74</ele>
        <time>2023-10-22T12:07:53Z</time>
      </trkpt>
      <trkpt lat="47.10222" lon="-1.59896">
        <ele>62.5</ele>
        <time>2023-10-22T12:07:55Z</time>
      </trkpt>
      <trkpt lat="47.10233" lon="-1.5988">
        <ele>62.27</ele>
        <time>2023-10-22T12:07:57Z</time>
      </trkpt>
      <trkpt lat="47.10242" lon="-1.59863">
        <ele>62.51</ele>
        <time>2023-10-22T12:07:59Z</time>
      </trkpt>
      <trkpt lat="47.10252" lon="-1.59846">
        <ele>63.12</ele>
        <time>2023-10-22T12:08:01Z</time>
      </trkpt>
      <trkpt lat="47.10262" lon="-1.59831">
        <ele>62.57</ele>
        <time>2023-10-22T12:08:03Z</time>
      </trkpt>
      <trkpt lat="47.10272" lon="-1.59814">
        <ele>62.3</ele>
        <time>2023-10-22T12:08:05Z</time>
      </trkpt>
      <trkpt lat="47.10282" lon="-1.59798">
        <ele>62.45</ele>
        <time>2023-10-22T12:08:07Z</time>
      </trkpt>
      <trkpt lat="47.10291" lon="-1.5978">
        <ele>62.75</ele>
        <time>2023-10-22T12:08:09Z</time>
      </trkpt>
      <trkpt lat="47.10301" lon="-1.59764">
        <ele>62.88</ele>
        <time>2023-10-22T12:08:11Z</time>
      </trkpt>
      <trkpt lat="47.1031" lon="-1.59748">
        <ele>62.78</ele>
        <time>2023-10-22T12:08:13Z</time>
      </trkpt>
      <trkpt lat="47.1032" lon="-1.59731">
        <ele>63.18</ele>
        <time>2023-10-22T12:08:15Z</time>
      </trkpt>
      <trkpt lat="47.10329" lon="-1.59715">
        <ele>62.98</ele>
        <time>2023-10-22T12:08:17Z</time>
      </trkpt>
      <trkpt lat="47.10339" lon="-1.59699">
        <ele>62.46</ele>
        <time>2023-10-22T12:08:19Z</time>
      </trkpt>
      <trkpt lat="47.10348" lon="-1.59683">
        <ele>62.91</ele>
        <time>2023-10-22T12:08:21Z</time>
      </trkpt>
      <trkpt lat="47.10358" lon="-1.59667">
        <ele>62.93</ele>
        <time>2023-10-22T12:08:23Z</time>
      </trkpt>
      <trkpt lat="47.10367" lon="-1.59652">
        <ele>63.15</ele>
        <time>2023-10-22T12:08:25Z</time>
      </trkpt>
      <trkpt lat="47.10377" lon="-1.59635">
        <ele>62.75</ele>
        <time>2023-10-22T12:08:27Z</time>
      </trkpt>
      <trkpt lat="47.10386" lon="-1.5962">
        <ele>63.04</ele>
        <time>2023-10-22T12:08:29Z</time>
      </trkpt>
      <trkpt lat="47.10395" lon="-1.59605">
        <ele>63.13</ele>
        <time>2023-10-22T12:08:31Z</time>
      </trkpt>
      <trkpt lat="47.10405" lon="-1.59589">
        <ele>63.02</ele>
        <time>2023-10-22T12:08:33Z</time>
      </trkpt>
      <trkpt lat="47.10414" lon="-1.59574">
        <ele>63.63</ele>
        <time>2023-10-22T12:08:35Z</time>
      </trkpt>
      <trkpt lat="47.10423" lon="-1.59557">
        <ele>63.35</ele>
        <time>2023-10-22T12:08:37Z</time>
      </trkpt>
      <trkpt lat="47.10433" lon="-1.59541">
        <ele>63.58</ele>
        <time>2023-10-22T12:08:39Z</time>
      </trkpt>
      <trkpt lat="47.10443" lon="-1.59526">
        <ele>63.05</ele>
        <time>2023-10-22T12:08:41Z</time>
      </trkpt>
      <trkpt lat="47.10452" lon="-1.5951">
        <ele>63.2</ele>
        <time>2023-10-22T12:08:43Z</time>
      </trkpt>
      <trkpt lat="47.10461" lon="-1.59494">
        <ele>63.11</ele>
        <time>2023-10-22T12:08:45Z</time>
      </trkpt>
      <trkpt lat="47.10471" lon="-1.59477">
        <ele>63.45</ele>
        <time>2023-10-22T12:08:47Z</time>
      </trkpt>
      <trkpt lat="47.1048" lon="-1.59462">
        <ele>64.73</ele>
        <time>2023-10-22T12:08:49Z</time>
      </trkpt>
      <trkpt lat="47.10489" lon="-1.59446">
        <ele>65.33</ele>
        <time>2023-10-22T12:08:51Z</time>
      </trkpt>
      <trkpt lat="47.10498" lon="-1.59431">
        <ele>65.83</ele>
        <time>2023-10-22T12:08:53Z</time>
      </trkpt>
      <trkpt lat="47.10507" lon="-1.59416">
        <ele>66.26</ele>
        <time>2023-10-22T12:08:55Z</time>
      </trkpt>
      <trkpt lat="47.10517" lon="-1.594">
        <ele>66.54</ele>
        <time>2023-10-22T12:08:57Z</time>
      </trkpt>
      <trkpt lat="47.10526" lon="-1.59385">
        <ele>66.39</ele>
        <time>2023-10-22T12:08:59Z</time>
      </trkpt>
      <trkpt lat="47.10535" lon="-1.59369">
        <ele>66.26</ele>
        <time>2023-10-22T12:09:01Z</time>
      </trkpt>
      <trkpt lat="47.10544" lon="-1.59353">
        <ele>67.38</ele>
        <time>2023-10-22T12:09:03Z</time>
      </trkpt>
      <trkpt lat="47.10552" lon="-1.59337">
        <ele>68.03</ele>
        <time>2023-10-22T12:09:05Z</time>
      </trkpt>
      <trkpt lat="47.10561" lon="-1.59321">
        <ele>68.94</ele>
        <time>2023-10-22T12:09:07Z</time>
      </trkpt>
      <trkpt lat="47.1057" lon="-1.59305">
        <ele>69.07</ele>
        <time>2023-10-22T12:09:09Z</time>
      </trkpt>
      <trkpt lat="47.10578" lon="-1.5929">
        <ele>69.36</ele>
        <time>2023-10-22T12:09:11Z</time>
      </trkpt>
      <trkpt lat="47.10588" lon="-1.59275">
        <ele>69.39</ele>
        <time>2023-10-22T12:09:13Z</time>
      </trkpt>
      <trkpt lat="47.10596" lon="-1.5926">
        <ele>69.99</ele>
        <time>2023-10-22T12:09:15Z</time>
      </trkpt>
      <trkpt lat="47.10605" lon="-1.59245">
        <ele>69.09</ele>
        <time>2023-10-22T12:09:17Z</time>
      </trkpt>
      <trkpt lat="47.10615" lon="-1.5923">
        <ele>69.38</ele>
        <time>2023-10-22T12:09:19Z</time>
      </trkpt>
      <trkpt lat="47.10624" lon="-1.59216">
        <ele>69.31</ele>
        <time>2023-10-22T12:09:21Z</time>
      </trkpt>
      <trkpt lat="47.10632" lon="-1.592">
        <ele>70.42</ele>
        <time>2023-10-22T12:09:23Z</time>
      </trkpt>
      <trkpt lat="47.1064" lon="-1.59184">
        <ele>70.79</ele>
        <time>2023-10-22T12:09:25Z</time>
      </trkpt>
      <trkpt lat="47.10648" lon="-1.59168">
        <ele>70.77</ele>
        <time>2023-10-22T12:09:27Z</time>
      </trkpt>
      <trkpt lat="47.10655" lon="-1.59152">
        <ele>71.15</ele>
        <time>2023-10-22T12:09:29Z</time>
      </trkpt>
      <trkpt lat="47.10662" lon="-1.59135">
        <ele>71.57</ele>
        <time>2023-10-22T12:09:31Z</time>
      </trkpt>
      <trkpt lat="47.10668" lon="-1.59118">
        <ele>71.72</ele>
        <time>2023-10-22T12:09:33Z</time>
      </trkpt>
      <trkpt lat="47.10673" lon="-1.59102">
        <ele>70.85</ele>
        <time>2023-10-22T12:09:35Z</time>
      </trkpt>
      <trkpt lat="47.10679" lon="-1.59085">
        <ele>71.15</ele>
        <time>2023-10-22T12:09:37Z</time>
      </trkpt>
      <trkpt lat="47.10685" lon="-1.59068">
        <ele>71.06</ele>
        <time>2023-10-22T12:09:39Z</time>
      </trkpt>
      <trkpt lat="47.10688" lon="-1.59052">
        <ele>71.87</ele>
        <time>2023-10-22T12:09:41Z</time>
      </trkpt>
      <trkpt lat="47.10691" lon="-1.59037">
        <ele>71.83</ele>
        <time>2023-10-22T12:09:43Z</time>
      </trkpt>
      <trkpt lat="47.10698" lon="-1.59024">
        <ele>72.8</ele>
        <time>2023-10-22T12:09:45Z</time>
      </trkpt>
      <trkpt lat="47.10705" lon="-1.59012">
        <ele>73.32</ele>
        <time>2023-10-22T12:09:47Z</time>
      </trkpt>
      <trkpt lat="47.10713" lon="-1.58999">
        <ele>73.25</ele>
        <time>2023-10-22T12:09:49Z</time>
      </trkpt>
      <trkpt lat="47.10719" lon="-1.58984">
        <ele>72.72</ele>
        <time>2023-10-22T12:09:51Z</time>
      </trkpt>
      <trkpt lat="47.10725" lon="-1.58968">
        <ele>72.54</ele>
        <time>2023-10-22T12:09:53Z</time>
      </trkpt>
      <trkpt lat="47.10731" lon="-1.5895">
        <ele>72.27</ele>
        <time>2023-10-22T12:09:55Z</time>
      </trkpt>
      <trkpt lat="47.10736" lon="-1.58933">
        <ele>71.66</ele>
        <time>2023-10-22T12:09:57Z</time>
      </trkpt>
      <trkpt lat="47.10743" lon="-1.58916">
        <ele>72.03</ele>
        <time>2023-10-22T12:09:59Z</time>
      </trkpt>
      <trkpt lat="47.1075" lon="-1.589">
        <ele>72.23</ele>
        <time>2023-10-22T12:10:01Z</time>
      </trkpt>
      <trkpt lat="47.10758" lon="-1.58884">
        <ele>72.11</ele>
        <time>2023-10-22T12:10:03Z</time>
      </trkpt>
      <trkpt lat="47.10768" lon="-1.58871">
        <ele>71.57</ele>
        <time>2023-10-22T12:10:05Z</time>
      </trkpt>
      <trkpt lat="47.10778" lon="-1.58856">
        <ele>70.72</ele>
        <time>2023-10-22T12:10:07Z</time>
      </trkpt>
      <trkpt lat="47.10788" lon="-1.58841">
        <ele>70.2</ele>
        <time>2023-10-22T12:10:09Z</time>
      </trkpt>
      <trkpt lat="47.10797" lon="-1.58825">
        <ele>69.98</ele>
        <time>2023-10-22T12:10:11Z</time>
      </trkpt>
      <trkpt lat="47.10808" lon="-1.5881">
        <ele>69.36</ele>
        <time>2023-10-22T12:10:13Z</time>
      </trkpt>
      <trkpt lat="47.10818" lon="-1.58794">
        <ele>69.69</ele>
        <time>2023-10-22T12:10:15Z</time>
      </trkpt>
      <trkpt lat="47.10828" lon="-1.58777">
        <ele>69.05</ele>
        <time>2023-10-22T12:10:17Z</time>
      </trkpt>
      <trkpt lat="47.10838" lon="-1.58763">
        <ele>68.32</ele>
        <time>2023-10-22T12:10:19Z</time>
      </trkpt>
      <trkpt lat="47.10848" lon="-1.58746">
        <ele>67.25</ele>
        <time>2023-10-22T12:10:21Z</time>
      </trkpt>
      <trkpt lat="47.10857" lon="-1.58731">
        <ele>66.47</ele>
        <time>2023-10-22T12:10:23Z</time>
      </trkpt>
      <trkpt lat="47.10868" lon="-1.58718">
        <ele>66.58</ele>
        <time>2023-10-22T12:10:25Z</time>
      </trkpt>
      <trkpt lat="47.10878" lon="-1.58704">
        <ele>65.69</ele>
        <time>2023-10-22T12:10:27Z</time>
      </trkpt>
      <trkpt lat="47.10888" lon="-1.58689">
        <ele>66.13</ele>
        <time>2023-10-22T12:10:29Z</time>
      </trkpt>
      <trkpt lat="47.10898" lon="-1.58673">
        <ele>65.96</ele>
        <time>2023-10-22T12:10:31Z</time>
      </trkpt>
      <trkpt lat="47.10909" lon="-1.58655">
        <ele>65.55</ele>
        <time>2023-10-22T12:10:33Z</time>
      </trkpt>
      <trkpt lat="47.1092" lon="-1.58639">
        <ele>65.58</ele>
        <time>2023-10-22T12:10:35Z</time>
      </trkpt>
      <trkpt lat="47.10931" lon="-1.58623">
        <ele>65.22</ele>
        <time>2023-10-22T12:10:37Z</time>
      </trkpt>
      <trkpt lat="47.10944" lon="-1.58607">
        <ele>65.39</ele>
        <time>2023-10-22T12:10:39Z</time>
      </trkpt>
      <trkpt lat="47.10956" lon="-1.58592">
        <ele>65.35</ele>
        <time>2023-10-22T12:10:41Z</time>
      </trkpt>
      <trkpt lat="47.10967" lon="-1.58575">
        <ele>64.93</ele>
        <time>2023-10-22T12:10:43Z</time>
      </trkpt>
      <trkpt lat="47.10977" lon="-1.58556">
        <ele>64.86</ele>
        <time>2023-10-22T12:10:45Z</time>
      </trkpt>
      <trkpt lat="47.10988" lon="-1.58538">
        <ele>64.52</ele>
        <time>2023-10-22T12:10:47Z</time>
      </trkpt>
      <trkpt lat="47.11" lon="-1.58521">
        <ele>64.02</ele>
        <time>2023-10-22T12:10:49Z</time>
      </trkpt>
      <trkpt lat="47.11011" lon="-1.58504">
        <ele>64.18</ele>
        <time>2023-10-22T12:10:51Z</time>
      </trkpt>
      <trkpt lat="47.11022" lon="-1.58487">
        <ele>63.67</ele>
        <time>2023-10-22T12:10:53Z</time>
      </trkpt>
      <trkpt lat="47.11033" lon="-1.58469">
        <ele>62.73</ele>
        <time>2023-10-22T12:10:55Z</time>
      </trkpt>
      <trkpt lat="47.11044" lon="-1.5845">
        <ele>61.94</ele>
        <time>2023-10-22T12:10:57Z</time>
      </trkpt>
      <trkpt lat="47.11053" lon="-1.58431">
        <ele>61.08</ele>
        <time>2023-10-22T12:10:59Z</time>
      </trkpt>
      <trkpt lat="47.11064" lon="-1.58412">
        <ele>61.02</ele>
        <time>2023-10-22T12:11:01Z</time>
      </trkpt>
      <trkpt lat="47.11072" lon="-1.58393">
        <ele>60.29</ele>
        <time>2023-10-22T12:11:03Z</time>
      </trkpt>
      <trkpt lat="47.1108" lon="-1.58374">
        <ele>60.48</ele>
        <time>2023-10-22T12:11:05Z</time>
      </trkpt>
      <trkpt lat="47.11089" lon="-1.58354">
        <ele>59.25</ele>
        <time>2023-10-22T12:11:07Z</time>
      </trkpt>
      <trkpt lat="47.11099" lon="-1.58336">
        <ele>58.96</ele>
        <time>2023-10-22T12:11:09Z</time>
      </trkpt>
      <trkpt lat="47.11109" lon="-1.5832">
        <ele>58.82</ele>
        <time>2023-10-22T12:11:11Z</time>
      </trkpt>
      <trkpt lat="47.11121" lon="-1.58305">
        <ele>58.86</ele>
        <time>2023-10-22T12:11:13Z</time>
      </trkpt>
      <trkpt lat="47.11134" lon="-1.58292">
        <ele>58.67</ele>
        <time>2023-10-22T12:11:15Z</time>
      </trkpt>
      <trkpt lat="47.11147" lon="-1.58278">
        <ele>58.44</ele>
        <time>2023-10-22T12:11:17Z</time>
      </trkpt>
      <trkpt lat="47.1116" lon="-1.58264">
        <ele>58.8</ele>
        <time>2023-10-22T12:11:19Z</time>
      </trkpt>
      <trkpt lat="47.11173" lon="-1.5825">
        <ele>58.39</ele>
        <time>2023-10-22T12:11:21Z</time>
      </trkpt>
      <trkpt lat="47.11186" lon="-1.58236">
        <ele>57.88</ele>
        <time>2023-10-22T12:11:23Z</time>
      </trkpt>
      <trkpt lat="47.11197" lon="-1.58221">
        <ele>58.35</ele>
        <time>2023-10-22T12:11:25Z</time>
      </trkpt>
      <trkpt lat="47.11209" lon="-1.58206">
        <ele>58.22</ele>
        <time>2023-10-22T12:11:27Z</time>
      </trkpt>
      <trkpt lat="47.11221" lon="-1.5819">
        <ele>58.36</ele>
        <time>2023-10-22T12:11:29Z</time>
      </trkpt>
      <trkpt lat="47.11233" lon="-1.58175">
        <ele>58.31</ele>
        <time>2023-10-22T12:11:31Z</time>
      </trkpt>
      <trkpt lat="47.11246" lon="-1.58162">
        <ele>58.75</ele>
        <time>2023-10-22T12:11:33Z</time>
      </trkpt>
      <trkpt lat="47.11259" lon="-1.58148">
        <ele>58.72</ele>
        <time>2023-10-22T12:11:35Z</time>
      </trkpt>
      <trkpt lat="47.11273" lon="-1.58136">
        <ele>58.47</ele>
        <time>2023-10-22T12:11:37Z</time>
      </trkpt>
      <trkpt lat="47.11287" lon="-1.58124">
        <ele>58.37</ele>
        <time>2023-10-22T12:11:39Z</time>
      </trkpt>
      <trkpt lat="47.11301" lon="-1.58114">
        <ele>58.03</ele>
        <time>2023-10-22T12:11:41Z</time>
      </trkpt>
      <trkpt lat="47.11316" lon="-1.58105">
        <ele>58.48</ele>
        <time>2023-10-22T12:11:43Z</time>
      </trkpt>
      <trkpt lat="47.11331" lon="-1.58096">
        <ele>59.24</ele>
        <time>2023-10-22T12:11:45Z</time>
      </trkpt>
      <trkpt lat="47.11345" lon="-1.58087">
        <ele>58.93</ele>
        <time>2023-10-22T12:11:47Z</time>
      </trkpt>
      <trkpt lat="47.11359" lon="-1.58079">
        <ele>58.5</ele>
        <time>2023-10-22T12:11:49Z</time>
      </trkpt>
      <trkpt lat="47.11373" lon="-1.58069">
        <ele>58.24</ele>
        <time>2023-10-22T12:11:51Z</time>
      </trkpt>
      <trkpt lat="47.11387" lon="-1.5806">
        <ele>58.57</ele>
        <time>2023-10-22T12:11:53Z</time>
      </trkpt>
      <trkpt lat="47.11401" lon="-1.58051">
        <ele>59.29</ele>
        <time>2023-10-22T12:11:55Z</time>
      </trkpt>
      <trkpt lat="47.11415" lon="-1.58042">
        <ele>59.19</ele>
        <time>2023-10-22T12:11:57Z</time>
      </trkpt>
      <trkpt lat="47.11428" lon="-1.58034">
        <ele>59.04</ele>
        <time>2023-10-22T12:11:59Z</time>
      </trkpt>
      <trkpt lat="47.11442" lon="-1.58028">
        <ele>59.25</ele>
        <time>2023-10-22T12:12:01Z</time>
      </trkpt>
      <trkpt lat="47.11457" lon="-1.58021">
        <ele>59.02</ele>
        <time>2023-10-22T12:12:03Z</time>
      </trkpt>
      <trkpt lat="47.11471" lon="-1.58017">
        <ele>59.55</ele>
        <time>2023-10-22T12:12:05Z</time>
      </trkpt>
      <trkpt lat="47.11486" lon="-1.58013">
        <ele>58.88</ele>
        <time>2023-10-22T12:12:07Z</time>
      </trkpt>
      <trkpt lat="47.11501" lon="-1.5801">
        <ele>59.08</ele>
        <time>2023-10-22T12:12:09Z</time>
      </trkpt>
      <trkpt lat="47.11516" lon="-1.58009">
        <ele>59.36</ele>
        <time>2023-10-22T12:12:11Z</time>
      </trkpt>
      <trkpt lat="47.1153" lon="-1.58009">
        <ele>60.18</ele>
        <time>2023-10-22T12:12:13Z</time>
      </trkpt>
      <trkpt lat="47.11543" lon="-1.5801">
        <ele>61.98</ele>
        <time>2023-10-22T12:12:15Z</time>
      </trkpt>
      <trkpt lat="47.11558" lon="-1.58009">
        <ele>61.5</ele>
        <time>2023-10-22T12:12:17Z</time>
      </trkpt>
      <trkpt lat="47.11571" lon="-1.58012">
        <ele>62.48</ele>
        <time>2023-10-22T12:12:19Z</time>
      </trkpt>
      <trkpt lat="47.11585" lon="-1.58016">
        <ele>63.3</ele>
        <time>2023-10-22T12:12:21Z</time>
      </trkpt>
      <trkpt lat="47.11599" lon="-1.58017">
        <ele>62.82</ele>
        <time>2023-10-22T12:12:23Z</time>
      </trkpt>
      <trkpt lat="47.11613" lon="-1.58015">
        <ele>63.45</ele>
        <time>2023-10-22T12:12:25Z</time>
      </trkpt>
      <trkpt lat="47.11626" lon="-1.58011">
        <ele>64.23</ele>
        <time>2023-10-22T12:12:27Z</time>
      </trkpt>
      <trkpt lat="47.11639" lon="-1.5801">
        <ele>63.8</ele>
        <time>2023-10-22T12:12:29Z</time>
      </trkpt>
      <trkpt lat="47.11648" lon="-1.58022">
        <ele>63.53</ele>
        <time>2023-10-22T12:12:31Z</time>
      </trkpt>
      <trkpt lat="47.11659" lon="-1.5803">
        <ele>62.29</ele>
        <time>2023-10-22T12:12:33Z</time>
      </trkpt>
      <trkpt lat="47.11673" lon="-1.58032">
        <ele>61.37</ele>
        <time>2023-10-22T12:12:35Z</time>
      </trkpt>
      <trkpt lat="47.11688" lon="-1.58032">
        <ele>61.17</ele>
        <time>2023-10-22T12:12:37Z</time>
      </trkpt>
      <trkpt lat="47.11702" lon="-1.58032">
        <ele>60.82</ele>
        <time>2023-10-22T12:12:39Z</time>
      </trkpt>
      <trkpt lat="47.11717" lon="-1.58031">
        <ele>60.19</ele>
        <time>2023-10-22T12:12:41Z</time>
      </trkpt>
      <trkpt lat="47.11731" lon="-1.58033">
        <ele>61.15</ele>
        <time>2023-10-22T12:12:43Z</time>
      </trkpt>
      <trkpt lat="47.11745" lon="-1.58036">
        <ele>60.7</ele>
        <time>2023-10-22T12:12:45Z</time>
      </trkpt>
      <trkpt lat="47.1176" lon="-1.58038">
        <ele>61.19</ele>
        <time>2023-10-22T12:12:47Z</time>
      </trkpt>
      <trkpt lat="47.11775" lon="-1.58041">
        <ele>61.81</ele>
        <time>2023-10-22T12:12:49Z</time>
      </trkpt>
      <trkpt lat="47.11789" lon="-1.58044">
        <ele>61.36</ele>
        <time>2023-10-22T12:12:51Z</time>
      </trkpt>
      <trkpt lat="47.11804" lon="-1.58047">
        <ele>61.02</ele>
        <time>2023-10-22T12:12:53Z</time>
      </trkpt>
      <trkpt lat="47.11818" lon="-1.58051">
        <ele>61.67</ele>
        <time>2023-10-22T12:12:55Z</time>
      </trkpt>
      <trkpt lat="47.11832" lon="-1.58055">
        <ele>62.3</ele>
        <time>2023-10-22T12:12:57Z</time>
      </trkpt>
      <trkpt lat="47.11847" lon="-1.58059">
        <ele>63</ele>
        <time>2023-10-22T12:12:59Z</time>
      </trkpt>
      <trkpt lat="47.11861" lon="-1.58063">
        <ele>62.46</ele>
        <time>2023-10-22T12:13:01Z</time>
      </trkpt>
      <trkpt lat="47.11876" lon="-1.58067">
        <ele>62.66</ele>
        <time>2023-10-22T12:13:03Z</time>
      </trkpt>
      <trkpt lat="47.11891" lon="-1.58069">
        <ele>61.94</ele>
        <time>2023-10-22T12:13:05Z</time>
      </trkpt>
      <trkpt lat="47.11905" lon="-1.58072">
        <ele>62.47</ele>
        <time>2023-10-22T12:13:07Z</time>
      </trkpt>
      <trkpt lat="47.11919" lon="-1.58075">
        <ele>62.77</ele>
        <time>2023-10-22T12:13:09Z</time>
      </trkpt>
      <trkpt lat="47.11933" lon="-1.58078">
        <ele>63.49</ele>
        <time>2023-10-22T12:13:11Z</time>
      </trkpt>
      <trkpt lat="47.11947" lon="-1.58082">
        <ele>63.18</ele>
        <time>2023-10-22T12:13:13Z</time>
      </trkpt>
      <trkpt lat="47.11961" lon="-1.58087">
        <ele>64.18</ele>
        <time>2023-10-22T12:13:15Z</time>
      </trkpt>
      <trkpt lat="47.11975" lon="-1.5809">
        <ele>64.12</ele>
        <time>2023-10-22T12:13:17Z</time>
      </trkpt>
      <trkpt lat="47.11988" lon="-1.58095">
        <ele>63.6</ele>
        <time>2023-10-22T12:13:19Z</time>
      </trkpt>
      <trkpt lat="47.12002" lon="-1.58098">
        <ele>63.5</ele>
        <time>2023-10-22T12:13:21Z</time>
      </trkpt>
      <trkpt lat="47.12014" lon="-1.58097">
        <ele>63.54</ele>
        <time>2023-10-22T12:13:23Z</time>
      </trkpt>
      <trkpt lat="47.12025" lon="-1.58098">
        <ele>63.14</ele>
        <time>2023-10-22T12:13:25Z</time>
      </trkpt>
      <trkpt lat="47.12036" lon="-1.58111">
        <ele>62.97</ele>
        <time>2023-10-22T12:13:27Z</time>
      </trkpt>
      <trkpt lat="47.12048" lon="-1.58121">
        <ele>62.35</ele>
        <time>2023-10-22T12:13:29Z</time>
      </trkpt>
      <trkpt lat="47.12062" lon="-1.58129">
        <ele>62.87</ele>
        <time>2023-10-22T12:13:31Z</time>
      </trkpt>
      <trkpt lat="47.12077" lon="-1.58137">
        <ele>62.52</ele>
        <time>2023-10-22T12:13:33Z</time>
      </trkpt>
      <trkpt lat="47.12091" lon="-1.58146">
        <ele>62.81</ele>
        <time>2023-10-22T12:13:35Z</time>
      </trkpt>
      <trkpt lat="47.12107" lon="-1.58155">
        <ele>62.49</ele>
        <time>2023-10-22T12:13:37Z</time>
      </trkpt>
      <trkpt lat="47.12121" lon="-1.58166">
        <ele>62.21</ele>
        <time>2023-10-22T12:13:39Z</time>
      </trkpt>
      <trkpt lat="47.12135" lon="-1.5818">
        <ele>62.83</ele>
        <time>2023-10-22T12:13:41Z</time>
      </trkpt>
      <trkpt lat="47.1215" lon="-1.58195">
        <ele>61.68</ele>
        <time>2023-10-22T12:13:43Z</time>
      </trkpt>
      <trkpt lat="47.12165" lon="-1.58209">
        <ele>61.21</ele>
        <time>2023-10-22T12:13:45Z</time>
      </trkpt>
      <trkpt lat="47.12179" lon="-1.58224">
        <ele>60.85</ele>
        <time>2023-10-22T12:13:47Z</time>
      </trkpt>
      <trkpt lat="47.12191" lon="-1.58237">
        <ele>57.65</ele>
        <time>2023-10-22T12:13:49Z</time>
      </trkpt>
      <trkpt lat="47.12203" lon="-1.58249">
        <ele>58.74</ele>
        <time>2023-10-22T12:13:51Z</time>
      </trkpt>
      <trkpt lat="47.12217" lon="-1.58262">
        <ele>57.39</ele>
        <time>2023-10-22T12:13:53Z</time>
      </trkpt>
      <trkpt lat="47.1223" lon="-1.58274">
        <ele>56.83</ele>
        <time>2023-10-22T12:13:55Z</time>
      </trkpt>
      <trkpt lat="47.12244" lon="-1.58286">
        <ele>56.19</ele>
        <time>2023-10-22T12:13:57Z</time>
      </trkpt>
      <trkpt lat="47.12257" lon="-1.58299">
        <ele>55.79</ele>
        <time>2023-10-22T12:13:59Z</time>
      </trkpt>
      <trkpt lat="47.1227" lon="-1.58312">
        <ele>55.29</ele>
        <time>2023-10-22T12:14:01Z</time>
      </trkpt>
      <trkpt lat="47.12282" lon="-1.58325">
        <ele>55.47</ele>
        <time>2023-10-22T12:14:03Z</time>
      </trkpt>
      <trkpt lat="47.12294" lon="-1.58338">
        <ele>56.4</ele>
        <time>2023-10-22T12:14:05Z</time>
      </trkpt>
      <trkpt lat="47.123" lon="-1.58356">
        <ele>56.99</ele>
        <time>2023-10-22T12:14:07Z</time>
      </trkpt>
      <trkpt lat="47.12301" lon="-1.58377">
        <ele>57.88</ele>
        <time>2023-10-22T12:14:09Z</time>
      </trkpt>
      <trkpt lat="47.12304" lon="-1.58397">
        <ele>57.73</ele>
        <time>2023-10-22T12:14:11Z</time>
      </trkpt>
      <trkpt lat="47.12311" lon="-1.58414">
        <ele>59.41</ele>
        <time>2023-10-22T12:14:13Z</time>
      </trkpt>
      <trkpt lat="47.12322" lon="-1.5843">
        <ele>60.4</ele>
        <time>2023-10-22T12:14:15Z</time>
      </trkpt>
      <trkpt lat="47.12336" lon="-1.58435">
        <ele>59.67</ele>
        <time>2023-10-22T12:14:17Z</time>
      </trkpt>
      <trkpt lat="47.12351" lon="-1.58434">
        <ele>58.85</ele>
        <time>2023-10-22T12:14:19Z</time>
      </trkpt>
      <trkpt lat="47.12366" lon="-1.58429">
        <ele>60.1</ele>
        <time>2023-10-22T12:14:21Z</time>
      </trkpt>
      <trkpt lat="47.1238" lon="-1.58426">
        <ele>61.03</ele>
        <time>2023-10-22T12:14:23Z</time>
      </trkpt>
      <trkpt lat="47.12396" lon="-1.5842">
        <ele>61.36</ele>
        <time>2023-10-22T12:14:25Z</time>
      </trkpt>
      <trkpt lat="47.12409" lon="-1.5841">
        <ele>61.7</ele>
        <time>2023-10-22T12:14:27Z</time>
      </trkpt>
      <trkpt lat="47.12421" lon="-1.584">
        <ele>62.07</ele>
        <time>2023-10-22T12:14:29Z</time>
      </trkpt>
      <trkpt lat="47.12434" lon="-1.58391">
        <ele>63.15</ele>
        <time>2023-10-22T12:14:31Z</time>
      </trkpt>
      <trkpt lat="47.12447" lon="-1.58379">
        <ele>64.44</ele>
        <time>2023-10-22T12:14:33Z</time>
      </trkpt>
      <trkpt lat="47.12458" lon="-1.58369">
        <ele>65.62</ele>
        <time>2023-10-22T12:14:35Z</time>
      </trkpt>
      <trkpt lat="47.12471" lon="-1.58357">
        <ele>66.16</ele>
        <time>2023-10-22T12:14:37Z</time>
      </trkpt>
      <trkpt lat="47.12484" lon="-1.58346">
        <ele>66.7</ele>
        <time>2023-10-22T12:14:39Z</time>
      </trkpt>
      <trkpt lat="47.12496" lon="-1.58334">
        <ele>67.24</ele>
        <time>2023-10-22T12:14:41Z</time>
      </trkpt>
      <trkpt lat="47.12508" lon="-1.58324">
        <ele>67.89</ele>
        <time>2023-10-22T12:14:43Z</time>
      </trkpt>
      <trkpt lat="47.1252" lon="-1.58313">
        <ele>68.37</ele>
        <time>2023-10-22T12:14:45Z</time>
      </trkpt>
      <trkpt lat="47.12532" lon="-1.58304">
        <ele>69.47</ele>
        <time>2023-10-22T12:14:47Z</time>
      </trkpt>
      <trkpt lat="47.12545" lon="-1.58295">
        <ele>69.73</ele>
        <time>2023-10-22T12:14:49Z</time>
      </trkpt>
      <trkpt lat="47.12556" lon="-1.58286">
        <ele>70.54</ele>
        <time>2023-10-22T12:14:51Z</time>
      </trkpt>
      <trkpt lat="47.12568" lon="-1.58276">
        <ele>71.2</ele>
        <time>2023-10-22T12:14:53Z</time>
      </trkpt>
      <trkpt lat="47.1258" lon="-1.58265">
        <ele>71.46</ele>
        <time>2023-10-22T12:14:55Z</time>
      </trkpt>
      <trkpt lat="47.12592" lon="-1.58255">
        <ele>71.31</ele>
        <time>2023-10-22T12:14:57Z</time>
      </trkpt>
      <trkpt lat="47.12604" lon="-1.58245">
        <ele>71.24</ele>
        <time>2023-10-22T12:14:59Z</time>
      </trkpt>
      <trkpt lat="47.12615" lon="-1.58235">
        <ele>70.57</ele>
        <time>2023-10-22T12:15:01Z</time>
      </trkpt>
      <trkpt lat="47.12627" lon="-1.58225">
        <ele>69.85</ele>
        <time>2023-10-22T12:15:03Z</time>
      </trkpt>
      <trkpt lat="47.12639" lon="-1.58213">
        <ele>69.37</ele>
        <time>2023-10-22T12:15:05Z</time>
      </trkpt>
      <trkpt lat="47.12651" lon="-1.58202">
        <ele>68.76</ele>
        <time>2023-10-22T12:15:07Z</time>
      </trkpt>
      <trkpt lat="47.12662" lon="-1.58191">
        <ele>68.75</ele>
        <time>2023-10-22T12:15:09Z</time>
      </trkpt>
      <trkpt lat="47.12674" lon="-1.5818">
        <ele>68.51</ele>
        <time>2023-10-22T12:15:11Z</time>
      </trkpt>
      <trkpt lat="47.12686" lon="-1.58169">
        <ele>68.86</ele>
        <time>2023-10-22T12:15:13Z</time>
      </trkpt>
      <trkpt lat="47.12698" lon="-1.58159">
        <ele>68.34</ele>
        <time>2023-10-22T12:15:15Z</time>
      </trkpt>
      <trkpt lat="47.12709" lon="-1.58147">
        <ele>67.89</ele>
        <time>2023-10-22T12:15:17Z</time>
      </trkpt>
      <trkpt lat="47.12721" lon="-1.58136">
        <ele>67.82</ele>
        <time>2023-10-22T12:15:19Z</time>
      </trkpt>
      <trkpt lat="47.12733" lon="-1.58124">
        <ele>67.37</ele>
        <time>2023-10-22T12:15:21Z</time>
      </trkpt>
      <trkpt lat="47.12744" lon="-1.58111">
        <ele>67.63</ele>
        <time>2023-10-22T12:15:23Z</time>
      </trkpt>
      <trkpt lat="47.12753" lon="-1.58097">
        <ele>67.54</ele>
        <time>2023-10-22T12:15:25Z</time>
      </trkpt>
      <trkpt lat="47.12772" lon="-1.58087">
        <ele>67.99</ele>
        <time>2023-10-22T12:15:28Z</time>
      </trkpt>
      <trkpt lat="47.12784" lon="-1.58075">
        <ele>67.75</ele>
        <time>2023-10-22T12:15:30Z</time>
      </trkpt>
      <trkpt lat="47.12796" lon="-1.58063">
        <ele>67.84</ele>
        <time>2023-10-22T12:15:32Z</time>
      </trkpt>
      <trkpt lat="47.12809" lon="-1.58053">
        <ele>67.97</ele>
        <time>2023-10-22T12:15:34Z</time>
      </trkpt>
      <trkpt lat="47.12823" lon="-1.58043">
        <ele>66.22</ele>
        <time>2023-10-22T12:15:36Z</time>
      </trkpt>
      <trkpt lat="47.12842" lon="-1.58023">
        <ele>65.55</ele>
        <time>2023-10-22T12:15:39Z</time>
      </trkpt>
      <trkpt lat="47.12854" lon="-1.58009">
        <ele>65.61</ele>
        <time>2023-10-22T12:15:41Z</time>
      </trkpt>
      <trkpt lat="47.12868" lon="-1.57998">
        <ele>65.3</ele>
        <time>2023-10-22T12:15:43Z</time>
      </trkpt>
      <trkpt lat="47.1288" lon="-1.57986">
        <ele>65.23</ele>
        <time>2023-10-22T12:15:45Z</time>
      </trkpt>
      <trkpt lat="47.12894" lon="-1.57973">
        <ele>65.02</ele>
        <time>2023-10-22T12:15:47Z</time>
      </trkpt>
      <trkpt lat="47.12907" lon="-1.57961">
        <ele>65.32</ele>
        <time>2023-10-22T12:15:49Z</time>
      </trkpt>
      <trkpt lat="47.12921" lon="-1.57953">
        <ele>65.76</ele>
        <time>2023-10-22T12:15:51Z</time>
      </trkpt>
      <trkpt lat="47.12936" lon="-1.57949">
        <ele>65.67</ele>
        <time>2023-10-22T12:15:53Z</time>
      </trkpt>
      <trkpt lat="47.12953" lon="-1.57947">
        <ele>65.02</ele>
        <time>2023-10-22T12:15:55Z</time>
      </trkpt>
      <trkpt lat="47.12967" lon="-1.57957">
        <ele>64.6</ele>
        <time>2023-10-22T12:15:57Z</time>
      </trkpt>
      <trkpt lat="47.12983" lon="-1.57962">
        <ele>63.76</ele>
        <time>2023-10-22T12:15:59Z</time>
      </trkpt>
      <trkpt lat="47.12998" lon="-1.57969">
        <ele>62.41</ele>
        <time>2023-10-22T12:16:01Z</time>
      </trkpt>
      <trkpt lat="47.13013" lon="-1.57973">
        <ele>61.96</ele>
        <time>2023-10-22T12:16:03Z</time>
      </trkpt>
      <trkpt lat="47.13029" lon="-1.57977">
        <ele>61.01</ele>
        <time>2023-10-22T12:16:05Z</time>
      </trkpt>
      <trkpt lat="47.13044" lon="-1.57982">
        <ele>60.89</ele>
        <time>2023-10-22T12:16:07Z</time>
      </trkpt>
      <trkpt lat="47.13059" lon="-1.57987">
        <ele>60.29</ele>
        <time>2023-10-22T12:16:09Z</time>
      </trkpt>
      <trkpt lat="47.13074" lon="-1.57991">
        <ele>59.86</ele>
        <time>2023-10-22T12:16:11Z</time>
      </trkpt>
      <trkpt lat="47.13089" lon="-1.57995">
        <ele>58.93</ele>
        <time>2023-10-22T12:16:13Z</time>
      </trkpt>
      <trkpt lat="47.13104" lon="-1.57999">
        <ele>58.89</ele>
        <time>2023-10-22T12:16:15Z</time>
      </trkpt>
      <trkpt lat="47.13119" lon="-1.58001">
        <ele>58.8</ele>
        <time>2023-10-22T12:16:17Z</time>
      </trkpt>
      <trkpt lat="47.13134" lon="-1.58003">
        <ele>59.7</ele>
        <time>2023-10-22T12:16:19Z</time>
      </trkpt>
      <trkpt lat="47.13149" lon="-1.58005">
        <ele>60.21</ele>
        <time>2023-10-22T12:16:21Z</time>
      </trkpt>
      <trkpt lat="47.13164" lon="-1.58007">
        <ele>60.4</ele>
        <time>2023-10-22T12:16:23Z</time>
      </trkpt>
      <trkpt lat="47.13179" lon="-1.58009">
        <ele>60.31</ele>
        <time>2023-10-22T12:16:25Z</time>
      </trkpt>
      <trkpt lat="47.13194" lon="-1.58011">
        <ele>59.96</ele>
        <time>2023-10-22T12:16:27Z</time>
      </trkpt>
      <trkpt lat="47.13209" lon="-1.58014">
        <ele>59.27</ele>
        <time>2023-10-22T12:16:29Z</time>
      </trkpt>
      <trkpt lat="47.13225" lon="-1.58015">
        <ele>58.96</ele>
        <time>2023-10-22T12:16:31Z</time>
      </trkpt>
      <trkpt lat="47.13241" lon="-1.58015">
        <ele>59.37</ele>
        <time>2023-10-22T12:16:33Z</time>
      </trkpt>
      <trkpt lat="47.13256" lon="-1.58011">
        <ele>59.77</ele>
        <time>2023-10-22T12:16:35Z</time>
      </trkpt>
      <trkpt lat="47.13272" lon="-1.58006">
        <ele>59.87</ele>
        <time>2023-10-22T12:16:37Z</time>
      </trkpt>
      <trkpt lat="47.13285" lon="-1.58001">
        <ele>60.23</ele>
        <time>2023-10-22T12:16:39Z</time>
      </trkpt>
      <trkpt lat="47.13299" lon="-1.57996">
        <ele>60.72</ele>
        <time>2023-10-22T12:16:41Z</time>
      </trkpt>
      <trkpt lat="47.13311" lon="-1.57991">
        <ele>61.47</ele>
        <time>2023-10-22T12:16:43Z</time>
      </trkpt>
      <trkpt lat="47.13325" lon="-1.57988">
        <ele>61.94</ele>
        <time>2023-10-22T12:16:45Z</time>
      </trkpt>
      <trkpt lat="47.13339" lon="-1.57987">
        <ele>63.82</ele>
        <time>2023-10-22T12:16:47Z</time>
      </trkpt>
      <trkpt lat="47.13354" lon="-1.57989">
        <ele>64.72</ele>
        <time>2023-10-22T12:16:49Z</time>
      </trkpt>
      <trkpt lat="47.13368" lon="-1.57995">
        <ele>65.19</ele>
        <time>2023-10-22T12:16:51Z</time>
      </trkpt>
      <trkpt lat="47.1338" lon="-1.58004">
        <ele>65.03</ele>
        <time>2023-10-22T12:16:53Z</time>
      </trkpt>
      <trkpt lat="47.13393" lon="-1.58014">
        <ele>65.01</ele>
        <time>2023-10-22T12:16:55Z</time>
      </trkpt>
      <trkpt lat="47.13406" lon="-1.58026">
        <ele>65.11</ele>
        <time>2023-10-22T12:16:57Z</time>
      </trkpt>
      <trkpt lat="47.13419" lon="-1.58035">
        <ele>65.15</ele>
        <time>2023-10-22T12:16:59Z</time>
      </trkpt>
      <trkpt lat="47.1343" lon="-1.58046">
        <ele>65.16</ele>
        <time>2023-10-22T12:17:01Z</time>
      </trkpt>
      <trkpt lat="47.13443" lon="-1.58056">
        <ele>64.92</ele>
        <time>2023-10-22T12:17:03Z</time>
      </trkpt>
      <trkpt lat="47.13454" lon="-1.58066">
        <ele>64.82</ele>
        <time>2023-10-22T12:17:05Z</time>
      </trkpt>
      <trkpt lat="47.13466" lon="-1.58076">
        <ele>64.1</ele>
        <time>2023-10-22T12:17:07Z</time>
      </trkpt>
      <trkpt lat="47.13478" lon="-1.58087">
        <ele>64.12</ele>
        <time>2023-10-22T12:17:09Z</time>
      </trkpt>
      <trkpt lat="47.1349" lon="-1.58097">
        <ele>64.24</ele>
        <time>2023-10-22T12:17:11Z</time>
      </trkpt>
      <trkpt lat="47.13502" lon="-1.58106">
        <ele>63.62</ele>
        <time>2023-10-22T12:17:13Z</time>
      </trkpt>
      <trkpt lat="47.13516" lon="-1.58115">
        <ele>64.14</ele>
        <time>2023-10-22T12:17:15Z</time>
      </trkpt>
      <trkpt lat="47.13529" lon="-1.58122">
        <ele>64.21</ele>
        <time>2023-10-22T12:17:17Z</time>
      </trkpt>
      <trkpt lat="47.13542" lon="-1.58127">
        <ele>64.83</ele>
        <time>2023-10-22T12:17:19Z</time>
      </trkpt>
      <trkpt lat="47.13556" lon="-1.5813">
        <ele>65.38</ele>
        <time>2023-10-22T12:17:21Z</time>
      </trkpt>
      <trkpt lat="47.13569" lon="-1.58132">
        <ele>65.38</ele>
        <time>2023-10-22T12:17:23Z</time>
      </trkpt>
      <trkpt lat="47.13583" lon="-1.58134">
        <ele>65.74</ele>
        <time>2023-10-22T12:17:25Z</time>
      </trkpt>
      <trkpt lat="47.13597" lon="-1.58135">
        <ele>65.34</ele>
        <time>2023-10-22T12:17:27Z</time>
      </trkpt>
      <trkpt lat="47.13612" lon="-1.58136">
        <ele>65.62</ele>
        <time>2023-10-22T12:17:29Z</time>
      </trkpt>
      <trkpt lat="47.13626" lon="-1.58137">
        <ele>65.85</ele>
        <time>2023-10-22T12:17:31Z</time>
      </trkpt>
      <trkpt lat="47.1364" lon="-1.58138">
        <ele>65.52</ele>
        <time>2023-10-22T12:17:33Z</time>
      </trkpt>
      <trkpt lat="47.13655" lon="-1.58139">
        <ele>65.35</ele>
        <time>2023-10-22T12:17:35Z</time>
      </trkpt>
      <trkpt lat="47.13669" lon="-1.58142">
        <ele>65.59</ele>
        <time>2023-10-22T12:17:37Z</time>
      </trkpt>
      <trkpt lat="47.13684" lon="-1.58142">
        <ele>65.18</ele>
        <time>2023-10-22T12:17:39Z</time>
      </trkpt>
      <trkpt lat="47.13699" lon="-1.58141">
        <ele>65.57</ele>
        <time>2023-10-22T12:17:41Z</time>
      </trkpt>
      <trkpt lat="47.13713" lon="-1.58138">
        <ele>65.25</ele>
        <time>2023-10-22T12:17:43Z</time>
      </trkpt>
      <trkpt lat="47.13727" lon="-1.58132">
        <ele>65.92</ele>
        <time>2023-10-22T12:17:45Z</time>
      </trkpt>
      <trkpt lat="47.1374" lon="-1.58121">
        <ele>65.92</ele>
        <time>2023-10-22T12:17:47Z</time>
      </trkpt>
      <trkpt lat="47.13751" lon="-1.58108">
        <ele>67.08</ele>
        <time>2023-10-22T12:17:49Z</time>
      </trkpt>
      <trkpt lat="47.13761" lon="-1.58094">
        <ele>66.86</ele>
        <time>2023-10-22T12:17:51Z</time>
      </trkpt>
      <trkpt lat="47.13773" lon="-1.58079">
        <ele>67.05</ele>
        <time>2023-10-22T12:17:53Z</time>
      </trkpt>
      <trkpt lat="47.13783" lon="-1.58065">
        <ele>67.53</ele>
        <time>2023-10-22T12:17:55Z</time>
      </trkpt>
      <trkpt lat="47.13794" lon="-1.5805">
        <ele>68.13</ele>
        <time>2023-10-22T12:17:57Z</time>
      </trkpt>
      <trkpt lat="47.13805" lon="-1.58034">
        <ele>67.9</ele>
        <time>2023-10-22T12:17:59Z</time>
      </trkpt>
      <trkpt lat="47.13816" lon="-1.58019">
        <ele>68.73</ele>
        <time>2023-10-22T12:18:01Z</time>
      </trkpt>
      <trkpt lat="47.13828" lon="-1.58003">
        <ele>68.46</ele>
        <time>2023-10-22T12:18:03Z</time>
      </trkpt>
      <trkpt lat="47.13838" lon="-1.57988">
        <ele>68.47</ele>
        <time>2023-10-22T12:18:05Z</time>
      </trkpt>
      <trkpt lat="47.13849" lon="-1.57973">
        <ele>68.32</ele>
        <time>2023-10-22T12:18:07Z</time>
      </trkpt>
      <trkpt lat="47.1386" lon="-1.57959">
        <ele>68.31</ele>
        <time>2023-10-22T12:18:09Z</time>
      </trkpt>
      <trkpt lat="47.13872" lon="-1.57944">
        <ele>69</ele>
        <time>2023-10-22T12:18:11Z</time>
      </trkpt>
      <trkpt lat="47.13882" lon="-1.57929">
        <ele>69.87</ele>
        <time>2023-10-22T12:18:13Z</time>
      </trkpt>
      <trkpt lat="47.13893" lon="-1.57914">
        <ele>69.69</ele>
        <time>2023-10-22T12:18:15Z</time>
      </trkpt>
      <trkpt lat="47.13904" lon="-1.57898">
        <ele>69.56</ele>
        <time>2023-10-22T12:18:17Z</time>
      </trkpt>
      <trkpt lat="47.13915" lon="-1.57883">
        <ele>69.29</ele>
        <time>2023-10-22T12:18:19Z</time>
      </trkpt>
      <trkpt lat="47.13926" lon="-1.57868">
        <ele>69.53</ele>
        <time>2023-10-22T12:18:21Z</time>
      </trkpt>
      <trkpt lat="47.13937" lon="-1.57852">
        <ele>69.02</ele>
        <time>2023-10-22T12:18:23Z</time>
      </trkpt>
      <trkpt lat="47.13949" lon="-1.57837">
        <ele>68.66</ele>
        <time>2023-10-22T12:18:25Z</time>
      </trkpt>
      <trkpt lat="47.1396" lon="-1.57821">
        <ele>68.1</ele>
        <time>2023-10-22T12:18:27Z</time>
      </trkpt>
      <trkpt lat="47.13972" lon="-1.57806">
        <ele>69.35</ele>
        <time>2023-10-22T12:18:29Z</time>
      </trkpt>
      <trkpt lat="47.13983" lon="-1.57789">
        <ele>69.88</ele>
        <time>2023-10-22T12:18:31Z</time>
      </trkpt>
      <trkpt lat="47.13994" lon="-1.57774">
        <ele>70.63</ele>
        <time>2023-10-22T12:18:33Z</time>
      </trkpt>
      <trkpt lat="47.14006" lon="-1.57759">
        <ele>70.62</ele>
        <time>2023-10-22T12:18:35Z</time>
      </trkpt>
      <trkpt lat="47.14017" lon="-1.57745">
        <ele>71.53</ele>
        <time>2023-10-22T12:18:37Z</time>
      </trkpt>
      <trkpt lat="47.14027" lon="-1.57731">
        <ele>72.11</ele>
        <time>2023-10-22T12:18:39Z</time>
      </trkpt>
      <trkpt lat="47.14037" lon="-1.57715">
        <ele>72.56</ele>
        <time>2023-10-22T12:18:41Z</time>
      </trkpt>
      <trkpt lat="47.14048" lon="-1.577">
        <ele>72.09</ele>
        <time>2023-10-22T12:18:43Z</time>
      </trkpt>
      <trkpt lat="47.14057" lon="-1.57686">
        <ele>72.47</ele>
        <time>2023-10-22T12:18:45Z</time>
      </trkpt>
      <trkpt lat="47.14067" lon="-1.5767">
        <ele>73.01</ele>
        <time>2023-10-22T12:18:47Z</time>
      </trkpt>
      <trkpt lat="47.14075" lon="-1.57653">
        <ele>73.02</ele>
        <time>2023-10-22T12:18:49Z</time>
      </trkpt>
      <trkpt lat="47.14083" lon="-1.57635">
        <ele>72.4</ele>
        <time>2023-10-22T12:18:51Z</time>
      </trkpt>
      <trkpt lat="47.14092" lon="-1.57617">
        <ele>71.95</ele>
        <time>2023-10-22T12:18:53Z</time>
      </trkpt>
      <trkpt lat="47.141" lon="-1.57599">
        <ele>71.4</ele>
        <time>2023-10-22T12:18:55Z</time>
      </trkpt>
      <trkpt lat="47.14108" lon="-1.5758">
        <ele>70.61</ele>
        <time>2023-10-22T12:18:57Z</time>
      </trkpt>
      <trkpt lat="47.14116" lon="-1.57561">
        <ele>69.11</ele>
        <time>2023-10-22T12:18:59Z</time>
      </trkpt>
      <trkpt lat="47.14125" lon="-1.57541">
        <ele>68.62</ele>
        <time>2023-10-22T12:19:01Z</time>
      </trkpt>
      <trkpt lat="47.14134" lon="-1.5752">
        <ele>68.95</ele>
        <time>2023-10-22T12:19:03Z</time>
      </trkpt>
      <trkpt lat="47.14143" lon="-1.57499">
        <ele>69.18</ele>
        <time>2023-10-22T12:19:05Z</time>
      </trkpt>
      <trkpt lat="47.14153" lon="-1.57478">
        <ele>69.02</ele>
        <time>2023-10-22T12:19:07Z</time>
      </trkpt>
      <trkpt lat="47.14162" lon="-1.57457">
        <ele>68.43</ele>
        <time>2023-10-22T12:19:09Z</time>
      </trkpt>
      <trkpt lat="47.1417" lon="-1.57435">
        <ele>67.71</ele>
        <time>2023-10-22T12:19:11Z</time>
      </trkpt>
      <trkpt lat="47.14179" lon="-1.57413">
        <ele>67.36</ele>
        <time>2023-10-22T12:19:13Z</time>
      </trkpt>
      <trkpt lat="47.14188" lon="-1.57392">
        <ele>66.49</ele>
        <time>2023-10-22T12:19:15Z</time>
      </trkpt>
      <trkpt lat="47.14198" lon="-1.57372">
        <ele>65.94</ele>
        <time>2023-10-22T12:19:17Z</time>
      </trkpt>
      <trkpt lat="47.14207" lon="-1.57352">
        <ele>65.51</ele>
        <time>2023-10-22T12:19:19Z</time>
      </trkpt>
      <trkpt lat="47.14215" lon="-1.57332">
        <ele>65.97</ele>
        <time>2023-10-22T12:19:21Z</time>
      </trkpt>
      <trkpt lat="47.14224" lon="-1.57314">
        <ele>65.95</ele>
        <time>2023-10-22T12:19:23Z</time>
      </trkpt>
      <trkpt lat="47.14233" lon="-1.57296">
        <ele>66.23</ele>
        <time>2023-10-22T12:19:25Z</time>
      </trkpt>
      <trkpt lat="47.14242" lon="-1.57279">
        <ele>66.28</ele>
        <time>2023-10-22T12:19:27Z</time>
      </trkpt>
      <trkpt lat="47.1425" lon="-1.57262">
        <ele>66.52</ele>
        <time>2023-10-22T12:19:29Z</time>
      </trkpt>
      <trkpt lat="47.14258" lon="-1.57246">
        <ele>66.96</ele>
        <time>2023-10-22T12:19:31Z</time>
      </trkpt>
      <trkpt lat="47.14267" lon="-1.5723">
        <ele>66.99</ele>
        <time>2023-10-22T12:19:33Z</time>
      </trkpt>
      <trkpt lat="47.14275" lon="-1.57214">
        <ele>67.49</ele>
        <time>2023-10-22T12:19:35Z</time>
      </trkpt>
      <trkpt lat="47.14282" lon="-1.57199">
        <ele>67.09</ele>
        <time>2023-10-22T12:19:37Z</time>
      </trkpt>
      <trkpt lat="47.14289" lon="-1.57182">
        <ele>66.74</ele>
        <time>2023-10-22T12:19:39Z</time>
      </trkpt>
      <trkpt lat="47.14296" lon="-1.57165">
        <ele>67.48</ele>
        <time>2023-10-22T12:19:41Z</time>
      </trkpt>
      <trkpt lat="47.14303" lon="-1.57148">
        <ele>68.23</ele>
        <time>2023-10-22T12:19:43Z</time>
      </trkpt>
      <trkpt lat="47.1431" lon="-1.57129">
        <ele>69.47</ele>
        <time>2023-10-22T12:19:45Z</time>
      </trkpt>
      <trkpt lat="47.14315" lon="-1.57111">
        <ele>69.61</ele>
        <time>2023-10-22T12:19:47Z</time>
      </trkpt>
      <trkpt lat="47.1432" lon="-1.57091">
        <ele>70.14</ele>
        <time>2023-10-22T12:19:49Z</time>
      </trkpt>
      <trkpt lat="47.14323" lon="-1.57072">
        <ele>70.55</ele>
        <time>2023-10-22T12:19:51Z</time>
      </trkpt>
      <trkpt lat="47.14327" lon="-1.57052">
        <ele>70.93</ele>
        <time>2023-10-22T12:19:53Z</time>
      </trkpt>
      <trkpt lat="47.14328" lon="-1.57032">
        <ele>71.99</ele>
        <time>2023-10-22T12:19:55Z</time>
      </trkpt>
      <trkpt lat="47.1433" lon="-1.57011">
        <ele>72.4</ele>
        <time>2023-10-22T12:19:57Z</time>
      </trkpt>
      <trkpt lat="47.14332" lon="-1.56993">
        <ele>72.82</ele>
        <time>2023-10-22T12:19:59Z</time>
      </trkpt>
      <trkpt lat="47.14335" lon="-1.56973">
        <ele>73.47</ele>
        <time>2023-10-22T12:20:01Z</time>
      </trkpt>
      <trkpt lat="47.14337" lon="-1.56954">
        <ele>73.53</ele>
        <time>2023-10-22T12:20:03Z</time>
      </trkpt>
      <trkpt lat="47.14339" lon="-1.56935">
        <ele>73.87</ele>
        <time>2023-10-22T12:20:05Z</time>
      </trkpt>
      <trkpt lat="47.14342" lon="-1.56917">
        <ele>72.9</ele>
        <time>2023-10-22T12:20:07Z</time>
      </trkpt>
      <trkpt lat="47.14344" lon="-1.56898">
        <ele>72.78</ele>
        <time>2023-10-22T12:20:09Z</time>
      </trkpt>
      <trkpt lat="47.14347" lon="-1.56879">
        <ele>72.44</ele>
        <time>2023-10-22T12:20:11Z</time>
      </trkpt>
      <trkpt lat="47.14351" lon="-1.56862">
        <ele>72.39</ele>
        <time>2023-10-22T12:20:13Z</time>
      </trkpt>
      <trkpt lat="47.14355" lon="-1.56844">
        <ele>72.68</ele>
        <time>2023-10-22T12:20:15Z</time>
      </trkpt>
      <trkpt lat="47.1436" lon="-1.56826">
        <ele>73.05</ele>
        <time>2023-10-22T12:20:17Z</time>
      </trkpt>
      <trkpt lat="47.14365" lon="-1.5681">
        <ele>73.14</ele>
        <time>2023-10-22T12:20:19Z</time>
      </trkpt>
      <trkpt lat="47.14371" lon="-1.56793">
        <ele>73.33</ele>
        <time>2023-10-22T12:20:21Z</time>
      </trkpt>
      <trkpt lat="47.14377" lon="-1.56778">
        <ele>74.04</ele>
        <time>2023-10-22T12:20:23Z</time>
      </trkpt>
      <trkpt lat="47.14384" lon="-1.56762">
        <ele>74.29</ele>
        <time>2023-10-22T12:20:25Z</time>
      </trkpt>
      <trkpt lat="47.1439" lon="-1.56748">
        <ele>74.25</ele>
        <time>2023-10-22T12:20:27Z</time>
      </trkpt>
      <trkpt lat="47.14397" lon="-1.56734">
        <ele>74.88</ele>
        <time>2023-10-22T12:20:29Z</time>
      </trkpt>
      <trkpt lat="47.14405" lon="-1.5672">
        <ele>75.11</ele>
        <time>2023-10-22T12:20:31Z</time>
      </trkpt>
      <trkpt lat="47.14413" lon="-1.56705">
        <ele>75.17</ele>
        <time>2023-10-22T12:20:33Z</time>
      </trkpt>
      <trkpt lat="47.1442" lon="-1.56691">
        <ele>74.62</ele>
        <time>2023-10-22T12:20:35Z</time>
      </trkpt>
      <trkpt lat="47.14428" lon="-1.56677">
        <ele>74.31</ele>
        <time>2023-10-22T12:20:37Z</time>
      </trkpt>
      <trkpt lat="47.14435" lon="-1.56664">
        <ele>74.18</ele>
        <time>2023-10-22T12:20:39Z</time>
      </trkpt>
      <trkpt lat="47.14444" lon="-1.5665">
        <ele>73.73</ele>
        <time>2023-10-22T12:20:41Z</time>
      </trkpt>
      <trkpt lat="47.14453" lon="-1.56637">
        <ele>73.42</ele>
        <time>2023-10-22T12:20:43Z</time>
      </trkpt>
      <trkpt lat="47.14462" lon="-1.56623">
        <ele>72.21</ele>
        <time>2023-10-22T12:20:45Z</time>
      </trkpt>
      <trkpt lat="47.14472" lon="-1.56609">
        <ele>72.56</ele>
        <time>2023-10-22T12:20:47Z</time>
      </trkpt>
      <trkpt lat="47.14482" lon="-1.56595">
        <ele>71.74</ele>
        <time>2023-10-22T12:20:49Z</time>
      </trkpt>
      <trkpt lat="47.14493" lon="-1.5658">
        <ele>71.49</ele>
        <time>2023-10-22T12:20:51Z</time>
      </trkpt>
      <trkpt lat="47.14504" lon="-1.56566">
        <ele>71.08</ele>
        <time>2023-10-22T12:20:53Z</time>
      </trkpt>
      <trkpt lat="47.14514" lon="-1.56551">
        <ele>70.66</ele>
        <time>2023-10-22T12:20:55Z</time>
      </trkpt>
      <trkpt lat="47.14525" lon="-1.56536">
        <ele>69.82</ele>
        <time>2023-10-22T12:20:57Z</time>
      </trkpt>
      <trkpt lat="47.14536" lon="-1.56522">
        <ele>70.87</ele>
        <time>2023-10-22T12:20:59Z</time>
      </trkpt>
      <trkpt lat="47.14547" lon="-1.56507">
        <ele>71.49</ele>
        <time>2023-10-22T12:21:01Z</time>
      </trkpt>
      <trkpt lat="47.14557" lon="-1.56493">
        <ele>71.27</ele>
        <time>2023-10-22T12:21:03Z</time>
      </trkpt>
      <trkpt lat="47.14568" lon="-1.56477">
        <ele>70.98</ele>
        <time>2023-10-22T12:21:05Z</time>
      </trkpt>
      <trkpt lat="47.14579" lon="-1.56462">
        <ele>71.4</ele>
        <time>2023-10-22T12:21:07Z</time>
      </trkpt>
      <trkpt lat="47.1459" lon="-1.56446">
        <ele>72.14</ele>
        <time>2023-10-22T12:21:09Z</time>
      </trkpt>
      <trkpt lat="47.146" lon="-1.56432">
        <ele>71.9</ele>
        <time>2023-10-22T12:21:11Z</time>
      </trkpt>
      <trkpt lat="47.14611" lon="-1.56417">
        <ele>71.78</ele>
        <time>2023-10-22T12:21:13Z</time>
      </trkpt>
      <trkpt lat="47.1462" lon="-1.56402">
        <ele>72.09</ele>
        <time>2023-10-22T12:21:15Z</time>
      </trkpt>
      <trkpt lat="47.14631" lon="-1.56387">
        <ele>72.78</ele>
        <time>2023-10-22T12:21:17Z</time>
      </trkpt>
      <trkpt lat="47.14641" lon="-1.56372">
        <ele>72.01</ele>
        <time>2023-10-22T12:21:19Z</time>
      </trkpt>
      <trkpt lat="47.14651" lon="-1.56359">
        <ele>71.81</ele>
        <time>2023-10-22T12:21:21Z</time>
      </trkpt>
      <trkpt lat="47.14662" lon="-1.56345">
        <ele>71.58</ele>
        <time>2023-10-22T12:21:23Z</time>
      </trkpt>
      <trkpt lat="47.14673" lon="-1.56333">
        <ele>71.2</ele>
        <time>2023-10-22T12:21:25Z</time>
      </trkpt>
      <trkpt lat="47.14685" lon="-1.56323">
        <ele>71.64</ele>
        <time>2023-10-22T12:21:27Z</time>
      </trkpt>
      <trkpt lat="47.14697" lon="-1.56314">
        <ele>71.29</ele>
        <time>2023-10-22T12:21:29Z</time>
      </trkpt>
      <trkpt lat="47.14709" lon="-1.56307">
        <ele>71.38</ele>
        <time>2023-10-22T12:21:31Z</time>
      </trkpt>
      <trkpt lat="47.14722" lon="-1.56299">
        <ele>71.09</ele>
        <time>2023-10-22T12:21:33Z</time>
      </trkpt>
      <trkpt lat="47.14736" lon="-1.56293">
        <ele>72.26</ele>
        <time>2023-10-22T12:21:35Z</time>
      </trkpt>
      <trkpt lat="47.14749" lon="-1.56286">
        <ele>72.35</ele>
        <time>2023-10-22T12:21:37Z</time>
      </trkpt>
      <trkpt lat="47.14763" lon="-1.5628">
        <ele>72.51</ele>
        <time>2023-10-22T12:21:39Z</time>
      </trkpt>
      <trkpt lat="47.14776" lon="-1.56274">
        <ele>72.26</ele>
        <time>2023-10-22T12:21:41Z</time>
      </trkpt>
      <trkpt lat="47.1479" lon="-1.56268">
        <ele>73.48</ele>
        <time>2023-10-22T12:21:43Z</time>
      </trkpt>
      <trkpt lat="47.14804" lon="-1.56263">
        <ele>74.43</ele>
        <time>2023-10-22T12:21:45Z</time>
      </trkpt>
      <trkpt lat="47.14817" lon="-1.56257">
        <ele>74.63</ele>
        <time>2023-10-22T12:21:47Z</time>
      </trkpt>
      <trkpt lat="47.14831" lon="-1.5625">
        <ele>74.88</ele>
        <time>2023-10-22T12:21:49Z</time>
      </trkpt>
      <trkpt lat="47.14844" lon="-1.56243">
        <ele>75.07</ele>
        <time>2023-10-22T12:21:51Z</time>
      </trkpt>
      <trkpt lat="47.14857" lon="-1.56233">
        <ele>75.64</ele>
        <time>2023-10-22T12:21:53Z</time>
      </trkpt>
      <trkpt lat="47.14869" lon="-1.56224">
        <ele>76.38</ele>
        <time>2023-10-22T12:21:55Z</time>
      </trkpt>
      <trkpt lat="47.1488" lon="-1.56212">
        <ele>76.7</ele>
        <time>2023-10-22T12:21:57Z</time>
      </trkpt>
      <trkpt lat="47.14891" lon="-1.562">
        <ele>76.49</ele>
        <time>2023-10-22T12:21:59Z</time>
      </trkpt>
      <trkpt lat="47.14903" lon="-1.56187">
        <ele>76.62</ele>
        <time>2023-10-22T12:22:01Z</time>
      </trkpt>
      <trkpt lat="47.14914" lon="-1.56175">
        <ele>77.16</ele>
        <time>2023-10-22T12:22:03Z</time>
      </trkpt>
      <trkpt lat="47.14925" lon="-1.56163">
        <ele>77.56</ele>
        <time>2023-10-22T12:22:05Z</time>
      </trkpt>
      <trkpt lat="47.14935" lon="-1.5615">
        <ele>77.94</ele>
        <time>2023-10-22T12:22:07Z</time>
      </trkpt>
      <trkpt lat="47.14946" lon="-1.56137">
        <ele>78.19</ele>
        <time>2023-10-22T12:22:09Z</time>
      </trkpt>
      <trkpt lat="47.14957" lon="-1.56124">
        <ele>78.24</ele>
        <time>2023-10-22T12:22:11Z</time>
      </trkpt>
      <trkpt lat="47.14968" lon="-1.56111">
        <ele>78.65</ele>
        <time>2023-10-22T12:22:13Z</time>
      </trkpt>
      <trkpt lat="47.14978" lon="-1.56099">
        <ele>79.38</ele>
        <time>2023-10-22T12:22:15Z</time>
      </trkpt>
      <trkpt lat="47.14989" lon="-1.56086">
        <ele>79.32</ele>
        <time>2023-10-22T12:22:17Z</time>
      </trkpt>
      <trkpt lat="47.15" lon="-1.56075">
        <ele>79.52</ele>
        <time>2023-10-22T12:22:19Z</time>
      </trkpt>
      <trkpt lat="47.15011" lon="-1.56063">
        <ele>79.85</ele>
        <time>2023-10-22T12:22:21Z</time>
      </trkpt>
      <trkpt lat="47.15022" lon="-1.56052">
        <ele>80.46</ele>
        <time>2023-10-22T12:22:23Z</time>
      </trkpt>
      <trkpt lat="47.15034" lon="-1.56042">
        <ele>80.85</ele>
        <time>2023-10-22T12:22:25Z</time>
      </trkpt>
      <trkpt lat="47.15046" lon="-1.56035">
        <ele>81.27</ele>
        <time>2023-10-22T12:22:27Z</time>
      </trkpt>
      <trkpt lat="47.15058" lon="-1.56027">
        <ele>80.87</ele>
        <time>2023-10-22T12:22:29Z</time>
      </trkpt>
      <trkpt lat="47.15072" lon="-1.5602">
        <ele>79.95</ele>
        <time>2023-10-22T12:22:31Z</time>
      </trkpt>
      <trkpt lat="47.15085" lon="-1.56015">
        <ele>80.59</ele>
        <time>2023-10-22T12:22:33Z</time>
      </trkpt>
      <trkpt lat="47.15098" lon="-1.56009">
        <ele>80.22</ele>
        <time>2023-10-22T12:22:35Z</time>
      </trkpt>
      <trkpt lat="47.15112" lon="-1.56003">
        <ele>80.25</ele>
        <time>2023-10-22T12:22:37Z</time>
      </trkpt>
      <trkpt lat="47.15126" lon="-1.55997">
        <ele>80.51</ele>
        <time>2023-10-22T12:22:39Z</time>
      </trkpt>
      <trkpt lat="47.15139" lon="-1.55992">
        <ele>80.08</ele>
        <time>2023-10-22T12:22:41Z</time>
      </trkpt>
      <trkpt lat="47.15153" lon="-1.55986">
        <ele>79.21</ele>
        <time>2023-10-22T12:22:43Z</time>
      </trkpt>
      <trkpt lat="47.15166" lon="-1.5598">
        <ele>78.6</ele>
        <time>2023-10-22T12:22:45Z</time>
      </trkpt>
      <trkpt lat="47.1518" lon="-1.55975">
        <ele>78.29</ele>
        <time>2023-10-22T12:22:47Z</time>
      </trkpt>
      <trkpt lat="47.15193" lon="-1.55968">
        <ele>78.72</ele>
        <time>2023-10-22T12:22:49Z</time>
      </trkpt>
      <trkpt lat="47.15207" lon="-1.55962">
        <ele>78.54</ele>
        <time>2023-10-22T12:22:51Z</time>
      </trkpt>
      <trkpt lat="47.1522" lon="-1.55957">
        <ele>79</ele>
        <time>2023-10-22T12:22:53Z</time>
      </trkpt>
      <trkpt lat="47.15234" lon="-1.55951">
        <ele>78.24</ele>
        <time>2023-10-22T12:22:55Z</time>
      </trkpt>
      <trkpt lat="47.15247" lon="-1.55943">
        <ele>78.04</ele>
        <time>2023-10-22T12:22:57Z</time>
      </trkpt>
      <trkpt lat="47.1526" lon="-1.55937">
        <ele>78.08</ele>
        <time>2023-10-22T12:22:59Z</time>
      </trkpt>
      <trkpt lat="47.15274" lon="-1.55931">
        <ele>77.59</ele>
        <time>2023-10-22T12:23:01Z</time>
      </trkpt>
      <trkpt lat="47.15288" lon="-1.55925">
        <ele>78.2</ele>
        <time>2023-10-22T12:23:03Z</time>
      </trkpt>
      <trkpt lat="47.15301" lon="-1.55919">
        <ele>78.1</ele>
        <time>2023-10-22T12:23:05Z</time>
      </trkpt>
      <trkpt lat="47.15314" lon="-1.55913">
        <ele>78.42</ele>
        <time>2023-10-22T12:23:07Z</time>
      </trkpt>
      <trkpt lat="47.15327" lon="-1.55906">
        <ele>78.31</ele>
        <time>2023-10-22T12:23:09Z</time>
      </trkpt>
      <trkpt lat="47.15339" lon="-1.55899">
        <ele>78.03</ele>
        <time>2023-10-22T12:23:11Z</time>
      </trkpt>
      <trkpt lat="47.15352" lon="-1.55896">
        <ele>79.16</ele>
        <time>2023-10-22T12:23:13Z</time>
      </trkpt>
      <trkpt lat="47.15364" lon="-1.55892">
        <ele>79.09</ele>
        <time>2023-10-22T12:23:15Z</time>
      </trkpt>
      <trkpt lat="47.15378" lon="-1.55888">
        <ele>79.57</ele>
        <time>2023-10-22T12:23:17Z</time>
      </trkpt>
      <trkpt lat="47.15391" lon="-1.55885">
        <ele>79.87</ele>
        <time>2023-10-22T12:23:19Z</time>
      </trkpt>
      <trkpt lat="47.15403" lon="-1.55886">
        <ele>80.13</ele>
        <time>2023-10-22T12:23:21Z</time>
      </trkpt>
      <trkpt lat="47.15414" lon="-1.55896">
        <ele>79.03</ele>
        <time>2023-10-22T12:23:23Z</time>
      </trkpt>
      <trkpt lat="47.15426" lon="-1.55904">
        <ele>78.21</ele>
        <time>2023-10-22T12:23:25Z</time>
      </trkpt>
      <trkpt lat="47.15438" lon="-1.55913">
        <ele>78.44</ele>
        <time>2023-10-22T12:23:27Z</time>
      </trkpt>
      <trkpt lat="47.1545" lon="-1.55923">
        <ele>78.98</ele>
        <time>2023-10-22T12:23:29Z</time>
      </trkpt>
      <trkpt lat="47.15461" lon="-1.55932">
        <ele>78.54</ele>
        <time>2023-10-22T12:23:31Z</time>
      </trkpt>
      <trkpt lat="47.15471" lon="-1.55943">
        <ele>79.23</ele>
        <time>2023-10-22T12:23:33Z</time>
      </trkpt>
      <trkpt lat="47.15481" lon="-1.55957">
        <ele>78.87</ele>
        <time>2023-10-22T12:23:35Z</time>
      </trkpt>
      <trkpt lat="47.15491" lon="-1.5596">
        <ele>79.41</ele>
        <time>2023-10-22T12:23:36Z</time>
      </trkpt>
      <trkpt lat="47.15504" lon="-1.55971">
        <ele>80.65</ele>
        <time>2023-10-22T12:23:38Z</time>
      </trkpt>
      <trkpt lat="47.15516" lon="-1.55977">
        <ele>81.65</ele>
        <time>2023-10-22T12:23:40Z</time>
      </trkpt>
      <trkpt lat="47.15526" lon="-1.55984">
        <ele>80.89</ele>
        <time>2023-10-22T12:23:42Z</time>
      </trkpt>
      <trkpt lat="47.15535" lon="-1.5599">
        <ele>80.42</ele>
        <time>2023-10-22T12:23:44Z</time>
      </trkpt>
      <trkpt lat="47.15545" lon="-1.55999">
        <ele>81.3</ele>
        <time>2023-10-22T12:23:46Z</time>
      </trkpt>
      <trkpt lat="47.15557" lon="-1.56007">
        <ele>80.98</ele>
        <time>2023-10-22T12:23:48Z</time>
      </trkpt>
      <trkpt lat="47.15567" lon="-1.56016">
        <ele>80.58</ele>
        <time>2023-10-22T12:23:50Z</time>
      </trkpt>
      <trkpt lat="47.15578" lon="-1.56024">
        <ele>79.08</ele>
        <time>2023-10-22T12:23:52Z</time>
      </trkpt>
      <trkpt lat="47.15586" lon="-1.56038">
        <ele>79.01</ele>
        <time>2023-10-22T12:23:54Z</time>
      </trkpt>
      <trkpt lat="47.15584" lon="-1.56056">
        <ele>80.46</ele>
        <time>2023-10-22T12:23:56Z</time>
      </trkpt>
      <trkpt lat="47.15579" lon="-1.56075">
        <ele>82.8</ele>
        <time>2023-10-22T12:23:58Z</time>
      </trkpt>
      <trkpt lat="47.15577" lon="-1.56095">
        <ele>82.88</ele>
        <time>2023-10-22T12:24:00Z</time>
      </trkpt>
      <trkpt lat="47.15578" lon="-1.56116">
        <ele>82.12</ele>
        <time>2023-10-22T12:24:02Z</time>
      </trkpt>
      <trkpt lat="47.15584" lon="-1.56135">
        <ele>80.66</ele>
        <time>2023-10-22T12:24:04Z</time>
      </trkpt>
      <trkpt lat="47.15591" lon="-1.56153">
        <ele>80.69</ele>
        <time>2023-10-22T12:24:06Z</time>
      </trkpt>
      <trkpt lat="47.15598" lon="-1.5617">
        <ele>82.53</ele>
        <time>2023-10-22T12:24:08Z</time>
      </trkpt>
      <trkpt lat="47.15605" lon="-1.56188">
        <ele>83.31</ele>
        <time>2023-10-22T12:24:10Z</time>
      </trkpt>
      <trkpt lat="47.15613" lon="-1.56204">
        <ele>82.99</ele>
        <time>2023-10-22T12:24:12Z</time>
      </trkpt>
      <trkpt lat="47.15621" lon="-1.56221">
        <ele>83.2</ele>
        <time>2023-10-22T12:24:14Z</time>
      </trkpt>
      <trkpt lat="47.15629" lon="-1.56238">
        <ele>83.63</ele>
        <time>2023-10-22T12:24:16Z</time>
      </trkpt>
      <trkpt lat="47.15636" lon="-1.56254">
        <ele>83.02</ele>
        <time>2023-10-22T12:24:18Z</time>
      </trkpt>
      <trkpt lat="47.15642" lon="-1.56271">
        <ele>83.5</ele>
        <time>2023-10-22T12:24:20Z</time>
      </trkpt>
      <trkpt lat="47.15651" lon="-1.56287">
        <ele>83.15</ele>
        <time>2023-10-22T12:24:22Z</time>
      </trkpt>
      <trkpt lat="47.15662" lon="-1.56297">
        <ele>82.78</ele>
        <time>2023-10-22T12:24:24Z</time>
      </trkpt>
      <trkpt lat="47.1568" lon="-1.56311">
        <ele>83.16</ele>
        <time>2023-10-22T12:24:27Z</time>
      </trkpt>
      <trkpt lat="47.15687" lon="-1.56327">
        <ele>82.73</ele>
        <time>2023-10-22T12:24:29Z</time>
      </trkpt>
      <trkpt lat="47.15691" lon="-1.56347">
        <ele>82.3</ele>
        <time>2023-10-22T12:24:31Z</time>
      </trkpt>
      <trkpt lat="47.15695" lon="-1.56368">
        <ele>82.48</ele>
        <time>2023-10-22T12:24:33Z</time>
      </trkpt>
      <trkpt lat="47.15701" lon="-1.56388">
        <ele>82.47</ele>
        <time>2023-10-22T12:24:35Z</time>
      </trkpt>
      <trkpt lat="47.15709" lon="-1.56404">
        <ele>82.69</ele>
        <time>2023-10-22T12:24:37Z</time>
      </trkpt>
      <trkpt lat="47.1572" lon="-1.56419">
        <ele>82.32</ele>
        <time>2023-10-22T12:24:39Z</time>
      </trkpt>
      <trkpt lat="47.1573" lon="-1.56434">
        <ele>82.53</ele>
        <time>2023-10-22T12:24:41Z</time>
      </trkpt>
      <trkpt lat="47.15737" lon="-1.56451">
        <ele>82.96</ele>
        <time>2023-10-22T12:24:43Z</time>
      </trkpt>
      <trkpt lat="47.15743" lon="-1.56471">
        <ele>82.86</ele>
        <time>2023-10-22T12:24:45Z</time>
      </trkpt>
      <trkpt lat="47.15743" lon="-1.56492">
        <ele>83.05</ele>
        <time>2023-10-22T12:24:47Z</time>
      </trkpt>
      <trkpt lat="47.15741" lon="-1.56512">
        <ele>82.89</ele>
        <time>2023-10-22T12:24:49Z</time>
      </trkpt>
      <trkpt lat="47.15736" lon="-1.56532">
        <ele>83.4</ele>
        <time>2023-10-22T12:24:51Z</time>
      </trkpt>
      <trkpt lat="47.1573" lon="-1.56551">
        <ele>84.09</ele>
        <time>2023-10-22T12:24:53Z</time>
      </trkpt>
      <trkpt lat="47.15726" lon="-1.56573">
        <ele>81.96</ele>
        <time>2023-10-22T12:24:55Z</time>
      </trkpt>
      <trkpt lat="47.15719" lon="-1.56591">
        <ele>82.68</ele>
        <time>2023-10-22T12:24:57Z</time>
      </trkpt>
      <trkpt lat="47.15714" lon="-1.56611">
        <ele>81.71</ele>
        <time>2023-10-22T12:24:59Z</time>
      </trkpt>
      <trkpt lat="47.15708" lon="-1.56631">
        <ele>81.21</ele>
        <time>2023-10-22T12:25:01Z</time>
      </trkpt>
      <trkpt lat="47.15704" lon="-1.56651">
        <ele>80.77</ele>
        <time>2023-10-22T12:25:03Z</time>
      </trkpt>
      <trkpt lat="47.15701" lon="-1.56671">
        <ele>80.34</ele>
        <time>2023-10-22T12:25:05Z</time>
      </trkpt>
      <trkpt lat="47.157" lon="-1.56693">
        <ele>80.71</ele>
        <time>2023-10-22T12:25:07Z</time>
      </trkpt>
      <trkpt lat="47.157" lon="-1.56715">
        <ele>80.26</ele>
        <time>2023-10-22T12:25:09Z</time>
      </trkpt>
      <trkpt lat="47.15702" lon="-1.56737">
        <ele>79.44</ele>
        <time>2023-10-22T12:25:11Z</time>
      </trkpt>
      <trkpt lat="47.15705" lon="-1.56759">
        <ele>79.5</ele>
        <time>2023-10-22T12:25:13Z</time>
      </trkpt>
      <trkpt lat="47.15709" lon="-1.5678">
        <ele>78.99</ele>
        <time>2023-10-22T12:25:15Z</time>
      </trkpt>
      <trkpt lat="47.15712" lon="-1.56802">
        <ele>78.39</ele>
        <time>2023-10-22T12:25:17Z</time>
      </trkpt>
      <trkpt lat="47.15714" lon="-1.56825">
        <ele>78.2</ele>
        <time>2023-10-22T12:25:19Z</time>
      </trkpt>
      <trkpt lat="47.15717" lon="-1.56847">
        <ele>77.95</ele>
        <time>2023-10-22T12:25:21Z</time>
      </trkpt>
      <trkpt lat="47.15721" lon="-1.56869">
        <ele>77.58</ele>
        <time>2023-10-22T12:25:23Z</time>
      </trkpt>
      <trkpt lat="47.15727" lon="-1.56891">
        <ele>78.19</ele>
        <time>2023-10-22T12:25:25Z</time>
      </trkpt>
      <trkpt lat="47.15734" lon="-1.56913">
        <ele>78.13</ele>
        <time>2023-10-22T12:25:27Z</time>
      </trkpt>
      <trkpt lat="47.15743" lon="-1.56932">
        <ele>78.8</ele>
        <time>2023-10-22T12:25:29Z</time>
      </trkpt>
      <trkpt lat="47.15752" lon="-1.56951">
        <ele>78.82</ele>
        <time>2023-10-22T12:25:31Z</time>
      </trkpt>
      <trkpt lat="47.1576" lon="-1.56969">
        <ele>78.66</ele>
        <time>2023-10-22T12:25:33Z</time>
      </trkpt>
      <trkpt lat="47.1577" lon="-1.56988">
        <ele>77.85</ele>
        <time>2023-10-22T12:25:35Z</time>
      </trkpt>
      <trkpt lat="47.15778" lon="-1.57006">
        <ele>77.64</ele>
        <time>2023-10-22T12:25:37Z</time>
      </trkpt>
      <trkpt lat="47.15787" lon="-1.57022">
        <ele>77.14</ele>
        <time>2023-10-22T12:25:39Z</time>
      </trkpt>
      <trkpt lat="47.15795" lon="-1.57039">
        <ele>77.11</ele>
        <time>2023-10-22T12:25:41Z</time>
      </trkpt>
      <trkpt lat="47.15803" lon="-1.57057">
        <ele>77.41</ele>
        <time>2023-10-22T12:25:43Z</time>
      </trkpt>
      <trkpt lat="47.15811" lon="-1.57073">
        <ele>77.63</ele>
        <time>2023-10-22T12:25:45Z</time>
      </trkpt>
      <trkpt lat="47.15819" lon="-1.57088">
        <ele>77.93</ele>
        <time>2023-10-22T12:25:47Z</time>
      </trkpt>
      <trkpt lat="47.15827" lon="-1.57104">
        <ele>77.6</ele>
        <time>2023-10-22T12:25:49Z</time>
      </trkpt>
      <trkpt lat="47.15835" lon="-1.5712">
        <ele>77.12</ele>
        <time>2023-10-22T12:25:51Z</time>
      </trkpt>
      <trkpt lat="47.15843" lon="-1.57136">
        <ele>77.4</ele>
        <time>2023-10-22T12:25:53Z</time>
      </trkpt>
      <trkpt lat="47.15852" lon="-1.57153">
        <ele>77.75</ele>
        <time>2023-10-22T12:25:55Z</time>
      </trkpt>
      <trkpt lat="47.1586" lon="-1.57169">
        <ele>78.78</ele>
        <time>2023-10-22T12:25:57Z</time>
      </trkpt>
      <trkpt lat="47.15869" lon="-1.57186">
        <ele>77.75</ele>
        <time>2023-10-22T12:25:59Z</time>
      </trkpt>
      <trkpt lat="47.15876" lon="-1.57203">
        <ele>79</ele>
        <time>2023-10-22T12:26:01Z</time>
      </trkpt>
      <trkpt lat="47.15885" lon="-1.57219">
        <ele>79.1</ele>
        <time>2023-10-22T12:26:03Z</time>
      </trkpt>
      <trkpt lat="47.15894" lon="-1.57234">
        <ele>78.43</ele>
        <time>2023-10-22T12:26:05Z</time>
      </trkpt>
      <trkpt lat="47.15901" lon="-1.57248">
        <ele>78.68</ele>
        <time>2023-10-22T12:26:07Z</time>
      </trkpt>
      <trkpt lat="47.1591" lon="-1.57261">
        <ele>78.85</ele>
        <time>2023-10-22T12:26:09Z</time>
      </trkpt>
      <trkpt lat="47.15917" lon="-1.57274">
        <ele>78.8</ele>
        <time>2023-10-22T12:26:11Z</time>
      </trkpt>
      <trkpt lat="47.15924" lon="-1.57286">
        <ele>79.17</ele>
        <time>2023-10-22T12:26:13Z</time>
      </trkpt>
      <trkpt lat="47.15933" lon="-1.57299">
        <ele>79.34</ele>
        <time>2023-10-22T12:26:15Z</time>
      </trkpt>
      <trkpt lat="47.15942" lon="-1.57313">
        <ele>79.14</ele>
        <time>2023-10-22T12:26:17Z</time>
      </trkpt>
      <trkpt lat="47.15953" lon="-1.57326">
        <ele>79.43</ele>
        <time>2023-10-22T12:26:19Z</time>
      </trkpt>
      <trkpt lat="47.15965" lon="-1.57339">
        <ele>79.56</ele>
        <time>2023-10-22T12:26:21Z</time>
      </trkpt>
      <trkpt lat="47.15977" lon="-1.5735">
        <ele>79.97</ele>
        <time>2023-10-22T12:26:23Z</time>
      </trkpt>
      <trkpt lat="47.15991" lon="-1.57358">
        <ele>80.11</ele>
        <time>2023-10-22T12:26:25Z</time>
      </trkpt>
      <trkpt lat="47.16004" lon="-1.57364">
        <ele>78.77</ele>
        <time>2023-10-22T12:26:27Z</time>
      </trkpt>
      <trkpt lat="47.16018" lon="-1.57369">
        <ele>78.85</ele>
        <time>2023-10-22T12:26:29Z</time>
      </trkpt>
      <trkpt lat="47.16031" lon="-1.57373">
        <ele>78.57</ele>
        <time>2023-10-22T12:26:31Z</time>
      </trkpt>
      <trkpt lat="47.16045" lon="-1.57376">
        <ele>78.68</ele>
        <time>2023-10-22T12:26:33Z</time>
      </trkpt>
      <trkpt lat="47.16059" lon="-1.57378">
        <ele>79.02</ele>
        <time>2023-10-22T12:26:35Z</time>
      </trkpt>
      <trkpt lat="47.16073" lon="-1.57377">
        <ele>79.48</ele>
        <time>2023-10-22T12:26:37Z</time>
      </trkpt>
      <trkpt lat="47.16088" lon="-1.57376">
        <ele>79.07</ele>
        <time>2023-10-22T12:26:39Z</time>
      </trkpt>
      <trkpt lat="47.16102" lon="-1.57372">
        <ele>79.39</ele>
        <time>2023-10-22T12:26:41Z</time>
      </trkpt>
      <trkpt lat="47.16116" lon="-1.57368">
        <ele>79.25</ele>
        <time>2023-10-22T12:26:43Z</time>
      </trkpt>
      <trkpt lat="47.16128" lon="-1.57362">
        <ele>79.85</ele>
        <time>2023-10-22T12:26:45Z</time>
      </trkpt>
      <trkpt lat="47.16141" lon="-1.57358">
        <ele>80.31</ele>
        <time>2023-10-22T12:26:47Z</time>
      </trkpt>
      <trkpt lat="47.16153" lon="-1.57354">
        <ele>80.5</ele>
        <time>2023-10-22T12:26:49Z</time>
      </trkpt>
      <trkpt lat="47.16165" lon="-1.57358">
        <ele>81.05</ele>
        <time>2023-10-22T12:26:51Z</time>
      </trkpt>
      <trkpt lat="47.16169" lon="-1.57375">
        <ele>81.3</ele>
        <time>2023-10-22T12:26:53Z</time>
      </trkpt>
      <trkpt lat="47.16171" lon="-1.57395">
        <ele>81.96</ele>
        <time>2023-10-22T12:26:55Z</time>
      </trkpt>
      <trkpt lat="47.16172" lon="-1.57416">
        <ele>81.75</ele>
        <time>2023-10-22T12:26:57Z</time>
      </trkpt>
      <trkpt lat="47.16173" lon="-1.57436">
        <ele>82.04</ele>
        <time>2023-10-22T12:26:59Z</time>
      </trkpt>
      <trkpt lat="47.16172" lon="-1.57457">
        <ele>81.88</ele>
        <time>2023-10-22T12:27:01Z</time>
      </trkpt>
      <trkpt lat="47.16172" lon="-1.57477">
        <ele>82.49</ele>
        <time>2023-10-22T12:27:03Z</time>
      </trkpt>
      <trkpt lat="47.16171" lon="-1.57497">
        <ele>82.8</ele>
        <time>2023-10-22T12:27:05Z</time>
      </trkpt>
      <trkpt lat="47.16172" lon="-1.57517">
        <ele>82.66</ele>
        <time>2023-10-22T12:27:07Z</time>
      </trkpt>
      <trkpt lat="47.16174" lon="-1.57537">
        <ele>82.94</ele>
        <time>2023-10-22T12:27:09Z</time>
      </trkpt>
      <trkpt lat="47.16179" lon="-1.57555">
        <ele>84.22</ele>
        <time>2023-10-22T12:27:11Z</time>
      </trkpt>
      <trkpt lat="47.16186" lon="-1.57573">
        <ele>84.28</ele>
        <time>2023-10-22T12:27:13Z</time>
      </trkpt>
      <trkpt lat="47.16193" lon="-1.57591">
        <ele>84.19</ele>
        <time>2023-10-22T12:27:15Z</time>
      </trkpt>
      <trkpt lat="47.16202" lon="-1.57607">
        <ele>84.97</ele>
        <time>2023-10-22T12:27:17Z</time>
      </trkpt>
      <trkpt lat="47.16212" lon="-1.57622">
        <ele>84.75</ele>
        <time>2023-10-22T12:27:19Z</time>
      </trkpt>
      <trkpt lat="47.16223" lon="-1.57637">
        <ele>85.2</ele>
        <time>2023-10-22T12:27:21Z</time>
      </trkpt>
      <trkpt lat="47.16235" lon="-1.57649">
        <ele>85.22</ele>
        <time>2023-10-22T12:27:23Z</time>
      </trkpt>
      <trkpt lat="47.16246" lon="-1.5766">
        <ele>85.32</ele>
        <time>2023-10-22T12:27:25Z</time>
      </trkpt>
      <trkpt lat="47.16257" lon="-1.5767">
        <ele>85.49</ele>
        <time>2023-10-22T12:27:27Z</time>
      </trkpt>
      <trkpt lat="47.16268" lon="-1.5768">
        <ele>85.56</ele>
        <time>2023-10-22T12:27:29Z</time>
      </trkpt>
      <trkpt lat="47.16279" lon="-1.57693">
        <ele>85.36</ele>
        <time>2023-10-22T12:27:31Z</time>
      </trkpt>
      <trkpt lat="47.16288" lon="-1.57707">
        <ele>85.54</ele>
        <time>2023-10-22T12:27:33Z</time>
      </trkpt>
      <trkpt lat="47.16298" lon="-1.57721">
        <ele>85.6</ele>
        <time>2023-10-22T12:27:35Z</time>
      </trkpt>
      <trkpt lat="47.16308" lon="-1.57736">
        <ele>84.88</ele>
        <time>2023-10-22T12:27:37Z</time>
      </trkpt>
      <trkpt lat="47.16318" lon="-1.5775">
        <ele>84.59</ele>
        <time>2023-10-22T12:27:39Z</time>
      </trkpt>
      <trkpt lat="47.16328" lon="-1.57764">
        <ele>84.08</ele>
        <time>2023-10-22T12:27:41Z</time>
      </trkpt>
      <trkpt lat="47.16337" lon="-1.57778">
        <ele>84.55</ele>
        <time>2023-10-22T12:27:43Z</time>
      </trkpt>
      <trkpt lat="47.16346" lon="-1.57792">
        <ele>84.53</ele>
        <time>2023-10-22T12:27:45Z</time>
      </trkpt>
      <trkpt lat="47.16356" lon="-1.57806">
        <ele>85.18</ele>
        <time>2023-10-22T12:27:47Z</time>
      </trkpt>
      <trkpt lat="47.16368" lon="-1.57817">
        <ele>84.98</ele>
        <time>2023-10-22T12:27:49Z</time>
      </trkpt>
      <trkpt lat="47.1638" lon="-1.57828">
        <ele>84.86</ele>
        <time>2023-10-22T12:27:51Z</time>
      </trkpt>
      <trkpt lat="47.16392" lon="-1.57838">
        <ele>85.05</ele>
        <time>2023-10-22T12:27:53Z</time>
      </trkpt>
      <trkpt lat="47.16404" lon="-1.57848">
        <ele>84.83</ele>
        <time>2023-10-22T12:27:55Z</time>
      </trkpt>
      <trkpt lat="47.16416" lon="-1.57857">
        <ele>85.37</ele>
        <time>2023-10-22T12:27:57Z</time>
      </trkpt>
      <trkpt lat="47.16428" lon="-1.57866">
        <ele>85.93</ele>
        <time>2023-10-22T12:27:59Z</time>
      </trkpt>
      <trkpt lat="47.16441" lon="-1.57876">
        <ele>85.65</ele>
        <time>2023-10-22T12:28:01Z</time>
      </trkpt>
      <trkpt lat="47.16453" lon="-1.57885">
        <ele>85.69</ele>
        <time>2023-10-22T12:28:03Z</time>
      </trkpt>
      <trkpt lat="47.16465" lon="-1.57895">
        <ele>84.92</ele>
        <time>2023-10-22T12:28:05Z</time>
      </trkpt>
      <trkpt lat="47.16477" lon="-1.57906">
        <ele>85.15</ele>
        <time>2023-10-22T12:28:07Z</time>
      </trkpt>
      <trkpt lat="47.16489" lon="-1.57919">
        <ele>84.59</ele>
        <time>2023-10-22T12:28:09Z</time>
      </trkpt>
      <trkpt lat="47.16501" lon="-1.57931">
        <ele>84.54</ele>
        <time>2023-10-22T12:28:11Z</time>
      </trkpt>
      <trkpt lat="47.16514" lon="-1.57944">
        <ele>84.13</ele>
        <time>2023-10-22T12:28:13Z</time>
      </trkpt>
      <trkpt lat="47.16526" lon="-1.57957">
        <ele>83.58</ele>
        <time>2023-10-22T12:28:15Z</time>
      </trkpt>
      <trkpt lat="47.16538" lon="-1.57969">
        <ele>84.25</ele>
        <time>2023-10-22T12:28:17Z</time>
      </trkpt>
      <trkpt lat="47.1655" lon="-1.57981">
        <ele>84.07</ele>
        <time>2023-10-22T12:28:19Z</time>
      </trkpt>
      <trkpt lat="47.16562" lon="-1.57993">
        <ele>83.56</ele>
        <time>2023-10-22T12:28:21Z</time>
      </trkpt>
      <trkpt lat="47.16573" lon="-1.58005">
        <ele>83.21</ele>
        <time>2023-10-22T12:28:23Z</time>
      </trkpt>
      <trkpt lat="47.16585" lon="-1.58015">
        <ele>83.3</ele>
        <time>2023-10-22T12:28:25Z</time>
      </trkpt>
      <trkpt lat="47.16596" lon="-1.58021">
        <ele>83.64</ele>
        <time>2023-10-22T12:28:27Z</time>
      </trkpt>
      <trkpt lat="47.16608" lon="-1.58028">
        <ele>83.39</ele>
        <time>2023-10-22T12:28:29Z</time>
      </trkpt>
      <trkpt lat="47.16619" lon="-1.58036">
        <ele>83.2</ele>
        <time>2023-10-22T12:28:32Z</time>
      </trkpt>
      <trkpt lat="47.16627" lon="-1.58041">
        <ele>83</ele>
        <time>2023-10-22T12:28:36Z</time>
      </trkpt>
      <trkpt lat="47.16637" lon="-1.58042">
        <ele>84.08</ele>
        <time>2023-10-22T12:28:44Z</time>
      </trkpt>
      <trkpt lat="47.16646" lon="-1.58059">
        <ele>85.07</ele>
        <time>2023-10-22T12:28:49Z</time>
      </trkpt>
      <trkpt lat="47.1665" lon="-1.58074">
        <ele>85.8</ele>
        <time>2023-10-22T12:28:51Z</time>
      </trkpt>
      <trkpt lat="47.16658" lon="-1.58087">
        <ele>86.25</ele>
        <time>2023-10-22T12:28:53Z</time>
      </trkpt>
      <trkpt lat="47.16668" lon="-1.58101">
        <ele>86.03</ele>
        <time>2023-10-22T12:28:55Z</time>
      </trkpt>
      <trkpt lat="47.1668" lon="-1.58113">
        <ele>85.93</ele>
        <time>2023-10-22T12:28:57Z</time>
      </trkpt>
      <trkpt lat="47.1669" lon="-1.58124">
        <ele>85.59</ele>
        <time>2023-10-22T12:28:59Z</time>
      </trkpt>
      <trkpt lat="47.16701" lon="-1.58136">
        <ele>85.33</ele>
        <time>2023-10-22T12:29:01Z</time>
      </trkpt>
      <trkpt lat="47.16713" lon="-1.58147">
        <ele>85.62</ele>
        <time>2023-10-22T12:29:03Z</time>
      </trkpt>
      <trkpt lat="47.16723" lon="-1.58158">
        <ele>85.57</ele>
        <time>2023-10-22T12:29:05Z</time>
      </trkpt>
      <trkpt lat="47.16732" lon="-1.58167">
        <ele>85.3</ele>
        <time>2023-10-22T12:29:07Z</time>
      </trkpt>
      <trkpt lat="47.1674" lon="-1.58177">
        <ele>85.75</ele>
        <time>2023-10-22T12:29:09Z</time>
      </trkpt>
      <trkpt lat="47.16748" lon="-1.58185">
        <ele>86</ele>
        <time>2023-10-22T12:29:11Z</time>
      </trkpt>
      <trkpt lat="47.1676" lon="-1.58192">
        <ele>85.54</ele>
        <time>2023-10-22T12:29:13Z</time>
      </trkpt>
      <trkpt lat="47.16771" lon="-1.58202">
        <ele>84.79</ele>
        <time>2023-10-22T12:29:15Z</time>
      </trkpt>
      <trkpt lat="47.16783" lon="-1.58214">
        <ele>84.4</ele>
        <time>2023-10-22T12:29:17Z</time>
      </trkpt>
      <trkpt lat="47.16794" lon="-1.58226">
        <ele>84.69</ele>
        <time>2023-10-22T12:29:19Z</time>
      </trkpt>
      <trkpt lat="47.16805" lon="-1.58239">
        <ele>84.26</ele>
        <time>2023-10-22T12:29:21Z</time>
      </trkpt>
      <trkpt lat="47.16817" lon="-1.5825">
        <ele>84.4</ele>
        <time>2023-10-22T12:29:23Z</time>
      </trkpt>
      <trkpt lat="47.16827" lon="-1.58262">
        <ele>83.65</ele>
        <time>2023-10-22T12:29:25Z</time>
      </trkpt>
      <trkpt lat="47.16837" lon="-1.58273">
        <ele>83.52</ele>
        <time>2023-10-22T12:29:27Z</time>
      </trkpt>
      <trkpt lat="47.16849" lon="-1.58283">
        <ele>82.91</ele>
        <time>2023-10-22T12:29:29Z</time>
      </trkpt>
      <trkpt lat="47.16858" lon="-1.58293">
        <ele>83.62</ele>
        <time>2023-10-22T12:29:31Z</time>
      </trkpt>
      <trkpt lat="47.16868" lon="-1.58304">
        <ele>83.19</ele>
        <time>2023-10-22T12:29:33Z</time>
      </trkpt>
      <trkpt lat="47.16878" lon="-1.58314">
        <ele>83.22</ele>
        <time>2023-10-22T12:29:35Z</time>
      </trkpt>
      <trkpt lat="47.16891" lon="-1.58325">
        <ele>82.48</ele>
        <time>2023-10-22T12:29:37Z</time>
      </trkpt>
      <trkpt lat="47.16903" lon="-1.58338">
        <ele>82.35</ele>
        <time>2023-10-22T12:29:39Z</time>
      </trkpt>
      <trkpt lat="47.16915" lon="-1.5835">
        <ele>82.33</ele>
        <time>2023-10-22T12:29:41Z</time>
      </trkpt>
      <trkpt lat="47.16926" lon="-1.58363">
        <ele>81.57</ele>
        <time>2023-10-22T12:29:43Z</time>
      </trkpt>
      <trkpt lat="47.16939" lon="-1.58374">
        <ele>81.89</ele>
        <time>2023-10-22T12:29:45Z</time>
      </trkpt>
      <trkpt lat="47.16951" lon="-1.58385">
        <ele>81.73</ele>
        <time>2023-10-22T12:29:47Z</time>
      </trkpt>
      <trkpt lat="47.16965" lon="-1.58397">
        <ele>80.89</ele>
        <time>2023-10-22T12:29:49Z</time>
      </trkpt>
      <trkpt lat="47.16978" lon="-1.58404">
        <ele>80.89</ele>
        <time>2023-10-22T12:29:51Z</time>
      </trkpt>
      <trkpt lat="47.1699" lon="-1.58412">
        <ele>81.45</ele>
        <time>2023-10-22T12:29:53Z</time>
      </trkpt>
      <trkpt lat="47.17001" lon="-1.5841">
        <ele>82.09</ele>
        <time>2023-10-22T12:29:55Z</time>
      </trkpt>
      <trkpt lat="47.17011" lon="-1.58407">
        <ele>82.89</ele>
        <time>2023-10-22T12:29:57Z</time>
      </trkpt>
      <trkpt lat="47.17021" lon="-1.58403">
        <ele>83.97</ele>
        <time>2023-10-22T12:29:59Z</time>
      </trkpt>
      <trkpt lat="47.17032" lon="-1.58399">
        <ele>83.91</ele>
        <time>2023-10-22T12:30:01Z</time>
      </trkpt>
      <trkpt lat="47.17043" lon="-1.58397">
        <ele>83.66</ele>
        <time>2023-10-22T12:30:03Z</time>
      </trkpt>
      <trkpt lat="47.17051" lon="-1.58407">
        <ele>83.61</ele>
        <time>2023-10-22T12:30:05Z</time>
      </trkpt>
      <trkpt lat="47.17055" lon="-1.58424">
        <ele>80.92</ele>
        <time>2023-10-22T12:30:07Z</time>
      </trkpt>
      <trkpt lat="47.1706" lon="-1.58443">
        <ele>79.49</ele>
        <time>2023-10-22T12:30:09Z</time>
      </trkpt>
      <trkpt lat="47.17066" lon="-1.58456">
        <ele>79.19</ele>
        <time>2023-10-22T12:30:11Z</time>
      </trkpt>
      <trkpt lat="47.17077" lon="-1.5846">
        <ele>78.83</ele>
        <time>2023-10-22T12:30:13Z</time>
      </trkpt>
      <trkpt lat="47.17089" lon="-1.58466">
        <ele>79.05</ele>
        <time>2023-10-22T12:30:15Z</time>
      </trkpt>
      <trkpt lat="47.17102" lon="-1.5847">
        <ele>80.11</ele>
        <time>2023-10-22T12:30:17Z</time>
      </trkpt>
      <trkpt lat="47.17115" lon="-1.5847">
        <ele>80.77</ele>
        <time>2023-10-22T12:30:19Z</time>
      </trkpt>
      <trkpt lat="47.17129" lon="-1.58471">
        <ele>81.01</ele>
        <time>2023-10-22T12:30:21Z</time>
      </trkpt>
      <trkpt lat="47.17142" lon="-1.58472">
        <ele>80.92</ele>
        <time>2023-10-22T12:30:23Z</time>
      </trkpt>
      <trkpt lat="47.17156" lon="-1.58474">
        <ele>80.55</ele>
        <time>2023-10-22T12:30:25Z</time>
      </trkpt>
      <trkpt lat="47.1717" lon="-1.58474">
        <ele>79.63</ele>
        <time>2023-10-22T12:30:27Z</time>
      </trkpt>
      <trkpt lat="47.17183" lon="-1.58475">
        <ele>79.6</ele>
        <time>2023-10-22T12:30:29Z</time>
      </trkpt>
      <trkpt lat="47.17198" lon="-1.58477">
        <ele>80.09</ele>
        <time>2023-10-22T12:30:31Z</time>
      </trkpt>
      <trkpt lat="47.17213" lon="-1.58476">
        <ele>80.56</ele>
        <time>2023-10-22T12:30:33Z</time>
      </trkpt>
      <trkpt lat="47.17227" lon="-1.58479">
        <ele>79.17</ele>
        <time>2023-10-22T12:30:35Z</time>
      </trkpt>
      <trkpt lat="47.17242" lon="-1.58481">
        <ele>79.47</ele>
        <time>2023-10-22T12:30:37Z</time>
      </trkpt>
      <trkpt lat="47.17256" lon="-1.58484">
        <ele>79.39</ele>
        <time>2023-10-22T12:30:39Z</time>
      </trkpt>
      <trkpt lat="47.17271" lon="-1.58487">
        <ele>78.27</ele>
        <time>2023-10-22T12:30:41Z</time>
      </trkpt>
      <trkpt lat="47.17286" lon="-1.58489">
        <ele>78.81</ele>
        <time>2023-10-22T12:30:43Z</time>
      </trkpt>
      <trkpt lat="47.173" lon="-1.58492">
        <ele>80.48</ele>
        <time>2023-10-22T12:30:45Z</time>
      </trkpt>
      <trkpt lat="47.17314" lon="-1.58495">
        <ele>80.33</ele>
        <time>2023-10-22T12:30:47Z</time>
      </trkpt>
      <trkpt lat="47.17328" lon="-1.58499">
        <ele>80.85</ele>
        <time>2023-10-22T12:30:49Z</time>
      </trkpt>
      <trkpt lat="47.17342" lon="-1.58501">
        <ele>80.79</ele>
        <time>2023-10-22T12:30:51Z</time>
      </trkpt>
      <trkpt lat="47.17357" lon="-1.58502">
        <ele>79.11</ele>
        <time>2023-10-22T12:30:53Z</time>
      </trkpt>
      <trkpt lat="47.17372" lon="-1.58503">
        <ele>78.85</ele>
        <time>2023-10-22T12:30:55Z</time>
      </trkpt>
      <trkpt lat="47.17386" lon="-1.58504">
        <ele>78.78</ele>
        <time>2023-10-22T12:30:57Z</time>
      </trkpt>
      <trkpt lat="47.17401" lon="-1.58507">
        <ele>79.58</ele>
        <time>2023-10-22T12:30:59Z</time>
      </trkpt>
      <trkpt lat="47.17415" lon="-1.58509">
        <ele>79.06</ele>
        <time>2023-10-22T12:31:01Z</time>
      </trkpt>
      <trkpt lat="47.17429" lon="-1.5851">
        <ele>78.56</ele>
        <time>2023-10-22T12:31:03Z</time>
      </trkpt>
      <trkpt lat="47.17444" lon="-1.58512">
        <ele>79.94</ele>
        <time>2023-10-22T12:31:05Z</time>
      </trkpt>
      <trkpt lat="47.17459" lon="-1.58516">
        <ele>79.5</ele>
        <time>2023-10-22T12:31:07Z</time>
      </trkpt>
      <trkpt lat="47.17474" lon="-1.5852">
        <ele>78.15</ele>
        <time>2023-10-22T12:31:09Z</time>
      </trkpt>
      <trkpt lat="47.17488" lon="-1.58525">
        <ele>79.31</ele>
        <time>2023-10-22T12:31:11Z</time>
      </trkpt>
      <trkpt lat="47.17503" lon="-1.58531">
        <ele>78.07</ele>
        <time>2023-10-22T12:31:13Z</time>
      </trkpt>
      <trkpt lat="47.17516" lon="-1.58537">
        <ele>78.64</ele>
        <time>2023-10-22T12:31:15Z</time>
      </trkpt>
      <trkpt lat="47.17529" lon="-1.58545">
        <ele>78.05</ele>
        <time>2023-10-22T12:31:17Z</time>
      </trkpt>
      <trkpt lat="47.17542" lon="-1.58554">
        <ele>78.95</ele>
        <time>2023-10-22T12:31:19Z</time>
      </trkpt>
      <trkpt lat="47.17555" lon="-1.58563">
        <ele>79.76</ele>
        <time>2023-10-22T12:31:21Z</time>
      </trkpt>
      <trkpt lat="47.17569" lon="-1.5857">
        <ele>78.52</ele>
        <time>2023-10-22T12:31:23Z</time>
      </trkpt>
      <trkpt lat="47.17585" lon="-1.58576">
        <ele>77.19</ele>
        <time>2023-10-22T12:31:25Z</time>
      </trkpt>
      <trkpt lat="47.17598" lon="-1.58581">
        <ele>78.82</ele>
        <time>2023-10-22T12:31:27Z</time>
      </trkpt>
      <trkpt lat="47.17613" lon="-1.58589">
        <ele>78.65</ele>
        <time>2023-10-22T12:31:29Z</time>
      </trkpt>
      <trkpt lat="47.17626" lon="-1.58598">
        <ele>78.94</ele>
        <time>2023-10-22T12:31:31Z</time>
      </trkpt>
      <trkpt lat="47.17639" lon="-1.58606">
        <ele>77.48</ele>
        <time>2023-10-22T12:31:33Z</time>
      </trkpt>
      <trkpt lat="47.17652" lon="-1.58612">
        <ele>78.95</ele>
        <time>2023-10-22T12:31:35Z</time>
      </trkpt>
      <trkpt lat="47.17664" lon="-1.5862">
        <ele>79.6</ele>
        <time>2023-10-22T12:31:37Z</time>
      </trkpt>
      <trkpt lat="47.17678" lon="-1.58625">
        <ele>79.86</ele>
        <time>2023-10-22T12:31:39Z</time>
      </trkpt>
      <trkpt lat="47.17691" lon="-1.58626">
        <ele>79.9</ele>
        <time>2023-10-22T12:31:41Z</time>
      </trkpt>
      <trkpt lat="47.17706" lon="-1.58626">
        <ele>78.26</ele>
        <time>2023-10-22T12:31:43Z</time>
      </trkpt>
      <trkpt lat="47.1772" lon="-1.58627">
        <ele>78.9</ele>
        <time>2023-10-22T12:31:45Z</time>
      </trkpt>
      <trkpt lat="47.17734" lon="-1.58627">
        <ele>78.87</ele>
        <time>2023-10-22T12:31:47Z</time>
      </trkpt>
      <trkpt lat="47.17749" lon="-1.58622">
        <ele>77.56</ele>
        <time>2023-10-22T12:31:49Z</time>
      </trkpt>
      <trkpt lat="47.17762" lon="-1.58618">
        <ele>78.57</ele>
        <time>2023-10-22T12:31:51Z</time>
      </trkpt>
      <trkpt lat="47.17772" lon="-1.5863">
        <ele>78.12</ele>
        <time>2023-10-22T12:31:53Z</time>
      </trkpt>
      <trkpt lat="47.17777" lon="-1.58649">
        <ele>79.09</ele>
        <time>2023-10-22T12:31:55Z</time>
      </trkpt>
      <trkpt lat="47.17788" lon="-1.58663">
        <ele>79.6</ele>
        <time>2023-10-22T12:31:57Z</time>
      </trkpt>
      <trkpt lat="47.178" lon="-1.58678">
        <ele>79.6</ele>
        <time>2023-10-22T12:31:59Z</time>
      </trkpt>
      <trkpt lat="47.17811" lon="-1.58693">
        <ele>79.64</ele>
        <time>2023-10-22T12:32:01Z</time>
      </trkpt>
      <trkpt lat="47.17822" lon="-1.58708">
        <ele>78.71</ele>
        <time>2023-10-22T12:32:03Z</time>
      </trkpt>
      <trkpt lat="47.17834" lon="-1.58722">
        <ele>78.95</ele>
        <time>2023-10-22T12:32:05Z</time>
      </trkpt>
      <trkpt lat="47.17845" lon="-1.58738">
        <ele>77.7</ele>
        <time>2023-10-22T12:32:07Z</time>
      </trkpt>
      <trkpt lat="47.17857" lon="-1.58753">
        <ele>78.23</ele>
        <time>2023-10-22T12:32:09Z</time>
      </trkpt>
      <trkpt lat="47.17868" lon="-1.58768">
        <ele>77.72</ele>
        <time>2023-10-22T12:32:11Z</time>
      </trkpt>
      <trkpt lat="47.1788" lon="-1.58782">
        <ele>77.3</ele>
        <time>2023-10-22T12:32:13Z</time>
      </trkpt>
      <trkpt lat="47.17893" lon="-1.58794">
        <ele>76.89</ele>
        <time>2023-10-22T12:32:15Z</time>
      </trkpt>
      <trkpt lat="47.17906" lon="-1.58806">
        <ele>76.54</ele>
        <time>2023-10-22T12:32:17Z</time>
      </trkpt>
      <trkpt lat="47.1792" lon="-1.58817">
        <ele>76.21</ele>
        <time>2023-10-22T12:32:19Z</time>
      </trkpt>
      <trkpt lat="47.17933" lon="-1.58829">
        <ele>75.44</ele>
        <time>2023-10-22T12:32:21Z</time>
      </trkpt>
      <trkpt lat="47.17947" lon="-1.58838">
        <ele>76.13</ele>
        <time>2023-10-22T12:32:23Z</time>
      </trkpt>
      <trkpt lat="47.17959" lon="-1.5885">
        <ele>75.62</ele>
        <time>2023-10-22T12:32:25Z</time>
      </trkpt>
      <trkpt lat="47.17971" lon="-1.58858">
        <ele>76.47</ele>
        <time>2023-10-22T12:32:27Z</time>
      </trkpt>
      <trkpt lat="47.17983" lon="-1.58866">
        <ele>76.46</ele>
        <time>2023-10-22T12:32:29Z</time>
      </trkpt>
      <trkpt lat="47.17994" lon="-1.5888">
        <ele>75.22</ele>
        <time>2023-10-22T12:32:31Z</time>
      </trkpt>
      <trkpt lat="47.18006" lon="-1.58892">
        <ele>75.97</ele>
        <time>2023-10-22T12:32:33Z</time>
      </trkpt>
      <trkpt lat="47.18018" lon="-1.58902">
        <ele>75.55</ele>
        <time>2023-10-22T12:32:35Z</time>
      </trkpt>
      <trkpt lat="47.18031" lon="-1.58914">
        <ele>75.63</ele>
        <time>2023-10-22T12:32:37Z</time>
      </trkpt>
      <trkpt lat="47.18044" lon="-1.58925">
        <ele>75.79</ele>
        <time>2023-10-22T12:32:39Z</time>
      </trkpt>
      <trkpt lat="47.18057" lon="-1.58937">
        <ele>75.5</ele>
        <time>2023-10-22T12:32:41Z</time>
      </trkpt>
      <trkpt lat="47.1807" lon="-1.58949">
        <ele>75.33</ele>
        <time>2023-10-22T12:32:43Z</time>
      </trkpt>
      <trkpt lat="47.18082" lon="-1.58962">
        <ele>75.7</ele>
        <time>2023-10-22T12:32:45Z</time>
      </trkpt>
      <trkpt lat="47.18094" lon="-1.58975">
        <ele>75.53</ele>
        <time>2023-10-22T12:32:47Z</time>
      </trkpt>
      <trkpt lat="47.18106" lon="-1.58988">
        <ele>75.36</ele>
        <time>2023-10-22T12:32:49Z</time>
      </trkpt>
      <trkpt lat="47.18119" lon="-1.59002">
        <ele>75.31</ele>
        <time>2023-10-22T12:32:51Z</time>
      </trkpt>
      <trkpt lat="47.18129" lon="-1.59017">
        <ele>76.65</ele>
        <time>2023-10-22T12:32:53Z</time>
      </trkpt>
      <trkpt lat="47.18141" lon="-1.59032">
        <ele>76.56</ele>
        <time>2023-10-22T12:32:55Z</time>
      </trkpt>
      <trkpt lat="47.18151" lon="-1.59046">
        <ele>77.05</ele>
        <time>2023-10-22T12:32:57Z</time>
      </trkpt>
      <trkpt lat="47.18165" lon="-1.59067">
        <ele>76.78</ele>
        <time>2023-10-22T12:33:00Z</time>
      </trkpt>
      <trkpt lat="47.18176" lon="-1.59072">
        <ele>76.51</ele>
        <time>2023-10-22T12:33:02Z</time>
      </trkpt>
      <trkpt lat="47.18185" lon="-1.59062">
        <ele>75.84</ele>
        <time>2023-10-22T12:33:04Z</time>
      </trkpt>
      <trkpt lat="47.18194" lon="-1.59047">
        <ele>75.84</ele>
        <time>2023-10-22T12:33:06Z</time>
      </trkpt>
      <trkpt lat="47.18204" lon="-1.59033">
        <ele>75.33</ele>
        <time>2023-10-22T12:33:08Z</time>
      </trkpt>
      <trkpt lat="47.1822" lon="-1.59026">
        <ele>74.72</ele>
        <time>2023-10-22T12:33:11Z</time>
      </trkpt>
      <trkpt lat="47.18233" lon="-1.59027">
        <ele>75.11</ele>
        <time>2023-10-22T12:33:13Z</time>
      </trkpt>
      <trkpt lat="47.18248" lon="-1.59024">
        <ele>76.88</ele>
        <time>2023-10-22T12:33:15Z</time>
      </trkpt>
      <trkpt lat="47.18263" lon="-1.59001">
        <ele>78.08</ele>
        <time>2023-10-22T12:33:18Z</time>
      </trkpt>
      <trkpt lat="47.18269" lon="-1.58981">
        <ele>79.02</ele>
        <time>2023-10-22T12:33:20Z</time>
      </trkpt>
      <trkpt lat="47.18273" lon="-1.5895">
        <ele>79.93</ele>
        <time>2023-10-22T12:33:23Z</time>
      </trkpt>
      <trkpt lat="47.18275" lon="-1.58932">
        <ele>80.82</ele>
        <time>2023-10-22T12:33:25Z</time>
      </trkpt>
      <trkpt lat="47.18278" lon="-1.58916">
        <ele>80.95</ele>
        <time>2023-10-22T12:33:27Z</time>
      </trkpt>
      <trkpt lat="47.18279" lon="-1.589">
        <ele>81.07</ele>
        <time>2023-10-22T12:33:29Z</time>
      </trkpt>
      <trkpt lat="47.18286" lon="-1.58886">
        <ele>79.64</ele>
        <time>2023-10-22T12:33:32Z</time>
      </trkpt>
      <trkpt lat="47.18298" lon="-1.58887">
        <ele>78.72</ele>
        <time>2023-10-22T12:33:35Z</time>
      </trkpt>
      <trkpt lat="47.18311" lon="-1.58886">
        <ele>78.39</ele>
        <time>2023-10-22T12:33:38Z</time>
      </trkpt>
      <trkpt lat="47.18314" lon="-1.58925">
        <ele>54.14</ele>
        <time>2023-10-22T13:34:29Z</time>
      </trkpt>
      <trkpt lat="47.18314" lon="-1.58924">
        <ele>55.56</ele>
        <time>2023-10-22T13:34:30Z</time>
      </trkpt>
      <trkpt lat="47.18314" lon="-1.58924">
        <ele>56.08</ele>
        <time>2023-10-22T13:34:31Z</time>
      </trkpt>
      <trkpt lat="47.18315" lon="-1.58923">
        <ele>59.51</ele>
        <time>2023-10-22T13:34:32Z</time>
      </trkpt>
      <trkpt lat="47.18314" lon="-1.58908">
        <ele>76.34</ele>
        <time>2023-10-22T13:34:37Z</time>
      </trkpt>
      <trkpt lat="47.18322" lon="-1.589">
        <ele>78.13</ele>
        <time>2023-10-22T13:34:56Z</time>
      </trkpt>
      <trkpt lat="47.18319" lon="-1.58899">
        <ele>77.01</ele>
        <time>2023-10-22T13:38:33Z</time>
      </trkpt>
      <trkpt lat="47.18319" lon="-1.58899">
        <ele>77.01</ele>
        <time>2023-10-22T13:38:34Z</time>
      </trkpt>
      <trkpt lat="47.18319" lon="-1.58899">
        <ele>77</ele>
        <time>2023-10-22T13:38:35Z</time>
      </trkpt>
      <trkpt lat="47.18319" lon="-1.58899">
        <ele>77</ele>
        <time>2023-10-22T13:38:36Z</time>
      </trkpt>
      <trkpt lat="47.18319" lon="-1.58899">
        <ele>77.14</ele>
        <time>2023-10-22T13:40:37Z</time>
      </trkpt>
      <trkpt lat="47.18319" lon="-1.58898">
        <ele>78.33</ele>
        <time>2023-10-22T13:42:38Z</time>
      </trkpt>
      <trkpt lat="47.18323" lon="-1.58914">
        <ele>76.33</ele>
        <time>2023-10-22T13:44:36Z</time>
      </trkpt>
      <trkpt lat="47.18324" lon="-1.58931">
        <ele>75.92</ele>
        <time>2023-10-22T13:44:39Z</time>
      </trkpt>
      <trkpt lat="47.18328" lon="-1.58946">
        <ele>78.45</ele>
        <time>2023-10-22T13:44:42Z</time>
      </trkpt>
      <trkpt lat="47.18337" lon="-1.58959">
        <ele>79.7</ele>
        <time>2023-10-22T13:44:45Z</time>
      </trkpt>
      <trkpt lat="47.18345" lon="-1.58967">
        <ele>79.72</ele>
        <time>2023-10-22T13:44:47Z</time>
      </trkpt>
      <trkpt lat="47.18355" lon="-1.5898">
        <ele>78.31</ele>
        <time>2023-10-22T13:44:50Z</time>
      </trkpt>
      <trkpt lat="47.18358" lon="-1.58996">
        <ele>77.57</ele>
        <time>2023-10-22T13:44:54Z</time>
      </trkpt>
      <trkpt lat="47.18349" lon="-1.5901">
        <ele>78.52</ele>
        <time>2023-10-22T13:44:57Z</time>
      </trkpt>
      <trkpt lat="47.18342" lon="-1.5902">
        <ele>77.65</ele>
        <time>2023-10-22T13:44:59Z</time>
      </trkpt>
      <trkpt lat="47.18334" lon="-1.59031">
        <ele>78.22</ele>
        <time>2023-10-22T13:45:01Z</time>
      </trkpt>
      <trkpt lat="47.18327" lon="-1.59043">
        <ele>80.15</ele>
        <time>2023-10-22T13:45:03Z</time>
      </trkpt>
      <trkpt lat="47.1832" lon="-1.59058">
        <ele>79.31</ele>
        <time>2023-10-22T13:45:05Z</time>
      </trkpt>
      <trkpt lat="47.18316" lon="-1.59074">
        <ele>77.62</ele>
        <time>2023-10-22T13:45:07Z</time>
      </trkpt>
      <trkpt lat="47.18311" lon="-1.5909">
        <ele>77.53</ele>
        <time>2023-10-22T13:45:09Z</time>
      </trkpt>
      <trkpt lat="47.18306" lon="-1.59105">
        <ele>75.92</ele>
        <time>2023-10-22T13:45:11Z</time>
      </trkpt>
      <trkpt lat="47.18301" lon="-1.59123">
        <ele>74.5</ele>
        <time>2023-10-22T13:45:13Z</time>
      </trkpt>
      <trkpt lat="47.18294" lon="-1.59141">
        <ele>73.43</ele>
        <time>2023-10-22T13:45:15Z</time>
      </trkpt>
      <trkpt lat="47.18289" lon="-1.59157">
        <ele>72.45</ele>
        <time>2023-10-22T13:45:17Z</time>
      </trkpt>
      <trkpt lat="47.18282" lon="-1.59173">
        <ele>71.58</ele>
        <time>2023-10-22T13:45:19Z</time>
      </trkpt>
      <trkpt lat="47.18278" lon="-1.59188">
        <ele>70.72</ele>
        <time>2023-10-22T13:45:21Z</time>
      </trkpt>
      <trkpt lat="47.18273" lon="-1.59207">
        <ele>73.92</ele>
        <time>2023-10-22T13:45:23Z</time>
      </trkpt>
      <trkpt lat="47.18262" lon="-1.59215">
        <ele>75</ele>
        <time>2023-10-22T13:45:25Z</time>
      </trkpt>
      <trkpt lat="47.18253" lon="-1.59226">
        <ele>75.15</ele>
        <time>2023-10-22T13:45:27Z</time>
      </trkpt>
      <trkpt lat="47.18245" lon="-1.59237">
        <ele>75.69</ele>
        <time>2023-10-22T13:45:29Z</time>
      </trkpt>
      <trkpt lat="47.18238" lon="-1.59246">
        <ele>74.95</ele>
        <time>2023-10-22T13:45:31Z</time>
      </trkpt>
      <trkpt lat="47.18228" lon="-1.59256">
        <ele>74.44</ele>
        <time>2023-10-22T13:45:33Z</time>
      </trkpt>
      <trkpt lat="47.18219" lon="-1.59265">
        <ele>74.77</ele>
        <time>2023-10-22T13:45:35Z</time>
      </trkpt>
      <trkpt lat="47.18211" lon="-1.59274">
        <ele>76.47</ele>
        <time>2023-10-22T13:45:37Z</time>
      </trkpt>
      <trkpt lat="47.18202" lon="-1.59283">
        <ele>78.19</ele>
        <time>2023-10-22T13:45:39Z</time>
      </trkpt>
      <trkpt lat="47.18192" lon="-1.59293">
        <ele>79.7</ele>
        <time>2023-10-22T13:45:41Z</time>
      </trkpt>
      <trkpt lat="47.18182" lon="-1.59302">
        <ele>79.18</ele>
        <time>2023-10-22T13:45:43Z</time>
      </trkpt>
      <trkpt lat="47.18172" lon="-1.59313">
        <ele>78.28</ele>
        <time>2023-10-22T13:45:45Z</time>
      </trkpt>
      <trkpt lat="47.18162" lon="-1.59324">
        <ele>79.63</ele>
        <time>2023-10-22T13:45:47Z</time>
      </trkpt>
      <trkpt lat="47.18151" lon="-1.59333">
        <ele>78.71</ele>
        <time>2023-10-22T13:45:49Z</time>
      </trkpt>
      <trkpt lat="47.1814" lon="-1.59343">
        <ele>79.15</ele>
        <time>2023-10-22T13:45:51Z</time>
      </trkpt>
      <trkpt lat="47.18129" lon="-1.59355">
        <ele>80.57</ele>
        <time>2023-10-22T13:45:53Z</time>
      </trkpt>
      <trkpt lat="47.18117" lon="-1.59365">
        <ele>82.6</ele>
        <time>2023-10-22T13:45:55Z</time>
      </trkpt>
      <trkpt lat="47.18105" lon="-1.59378">
        <ele>80.03</ele>
        <time>2023-10-22T13:45:57Z</time>
      </trkpt>
      <trkpt lat="47.18094" lon="-1.59389">
        <ele>79.33</ele>
        <time>2023-10-22T13:45:59Z</time>
      </trkpt>
      <trkpt lat="47.18082" lon="-1.59399">
        <ele>78.33</ele>
        <time>2023-10-22T13:46:01Z</time>
      </trkpt>
      <trkpt lat="47.18071" lon="-1.59414">
        <ele>77.77</ele>
        <time>2023-10-22T13:46:03Z</time>
      </trkpt>
      <trkpt lat="47.18061" lon="-1.59427">
        <ele>76.34</ele>
        <time>2023-10-22T13:46:05Z</time>
      </trkpt>
      <trkpt lat="47.18051" lon="-1.59442">
        <ele>76.6</ele>
        <time>2023-10-22T13:46:07Z</time>
      </trkpt>
      <trkpt lat="47.18043" lon="-1.5946">
        <ele>75.52</ele>
        <time>2023-10-22T13:46:09Z</time>
      </trkpt>
      <trkpt lat="47.18037" lon="-1.5948">
        <ele>76.03</ele>
        <time>2023-10-22T13:46:11Z</time>
      </trkpt>
      <trkpt lat="47.18032" lon="-1.59498">
        <ele>76.4</ele>
        <time>2023-10-22T13:46:13Z</time>
      </trkpt>
      <trkpt lat="47.18027" lon="-1.59518">
        <ele>76.5</ele>
        <time>2023-10-22T13:46:15Z</time>
      </trkpt>
      <trkpt lat="47.18022" lon="-1.59537">
        <ele>76.01</ele>
        <time>2023-10-22T13:46:17Z</time>
      </trkpt>
      <trkpt lat="47.18017" lon="-1.59556">
        <ele>77.11</ele>
        <time>2023-10-22T13:46:19Z</time>
      </trkpt>
      <trkpt lat="47.18012" lon="-1.59575">
        <ele>78.45</ele>
        <time>2023-10-22T13:46:21Z</time>
      </trkpt>
      <trkpt lat="47.18007" lon="-1.59594">
        <ele>79.29</ele>
        <time>2023-10-22T13:46:23Z</time>
      </trkpt>
      <trkpt lat="47.18002" lon="-1.59612">
        <ele>79.22</ele>
        <time>2023-10-22T13:46:25Z</time>
      </trkpt>
      <trkpt lat="47.17997" lon="-1.59631">
        <ele>80.22</ele>
        <time>2023-10-22T13:46:27Z</time>
      </trkpt>
      <trkpt lat="47.17992" lon="-1.59652">
        <ele>78.48</ele>
        <time>2023-10-22T13:46:29Z</time>
      </trkpt>
      <trkpt lat="47.17986" lon="-1.59672">
        <ele>77.25</ele>
        <time>2023-10-22T13:46:31Z</time>
      </trkpt>
      <trkpt lat="47.17982" lon="-1.59693">
        <ele>76.28</ele>
        <time>2023-10-22T13:46:33Z</time>
      </trkpt>
      <trkpt lat="47.17975" lon="-1.59713">
        <ele>75.85</ele>
        <time>2023-10-22T13:46:35Z</time>
      </trkpt>
      <trkpt lat="47.17969" lon="-1.59736">
        <ele>75.91</ele>
        <time>2023-10-22T13:46:37Z</time>
      </trkpt>
      <trkpt lat="47.17962" lon="-1.59758">
        <ele>74.08</ele>
        <time>2023-10-22T13:46:39Z</time>
      </trkpt>
      <trkpt lat="47.17958" lon="-1.59771">
        <ele>73.17</ele>
        <time>2023-10-22T13:46:40Z</time>
      </trkpt>
      <trkpt lat="47.17955" lon="-1.59783">
        <ele>72.85</ele>
        <time>2023-10-22T13:46:41Z</time>
      </trkpt>
      <trkpt lat="47.17952" lon="-1.59796">
        <ele>72.46</ele>
        <time>2023-10-22T13:46:42Z</time>
      </trkpt>
      <trkpt lat="47.1795" lon="-1.5981">
        <ele>71.16</ele>
        <time>2023-10-22T13:46:43Z</time>
      </trkpt>
      <trkpt lat="47.17948" lon="-1.59824">
        <ele>70.75</ele>
        <time>2023-10-22T13:46:44Z</time>
      </trkpt>
      <trkpt lat="47.17946" lon="-1.59837">
        <ele>70.5</ele>
        <time>2023-10-22T13:46:45Z</time>
      </trkpt>
      <trkpt lat="47.17945" lon="-1.59851">
        <ele>69.95</ele>
        <time>2023-10-22T13:46:46Z</time>
      </trkpt>
      <trkpt lat="47.17941" lon="-1.59866">
        <ele>68.74</ele>
        <time>2023-10-22T13:46:47Z</time>
      </trkpt>
      <trkpt lat="47.17938" lon="-1.59881">
        <ele>68.37</ele>
        <time>2023-10-22T13:46:48Z</time>
      </trkpt>
      <trkpt lat="47.17934" lon="-1.59894">
        <ele>67.62</ele>
        <time>2023-10-22T13:46:49Z</time>
      </trkpt>
      <trkpt lat="47.17931" lon="-1.59909">
        <ele>66.21</ele>
        <time>2023-10-22T13:46:50Z</time>
      </trkpt>
      <trkpt lat="47.17927" lon="-1.59923">
        <ele>65.41</ele>
        <time>2023-10-22T13:46:51Z</time>
      </trkpt>
      <trkpt lat="47.17922" lon="-1.59935">
        <ele>65.51</ele>
        <time>2023-10-22T13:46:52Z</time>
      </trkpt>
      <trkpt lat="47.17906" lon="-1.59944">
        <ele>63.82</ele>
        <time>2023-10-22T13:46:54Z</time>
      </trkpt>
      <trkpt lat="47.17889" lon="-1.59947">
        <ele>62.67</ele>
        <time>2023-10-22T13:46:56Z</time>
      </trkpt>
      <trkpt lat="47.17881" lon="-1.59953">
        <ele>63.3</ele>
        <time>2023-10-22T13:46:57Z</time>
      </trkpt>
      <trkpt lat="47.17876" lon="-1.59965">
        <ele>63.69</ele>
        <time>2023-10-22T13:46:58Z</time>
      </trkpt>
      <trkpt lat="47.1787" lon="-1.59976">
        <ele>63.51</ele>
        <time>2023-10-22T13:46:59Z</time>
      </trkpt>
      <trkpt lat="47.17864" lon="-1.59986">
        <ele>63.91</ele>
        <time>2023-10-22T13:47:00Z</time>
      </trkpt>
      <trkpt lat="47.17858" lon="-1.59996">
        <ele>64.25</ele>
        <time>2023-10-22T13:47:01Z</time>
      </trkpt>
      <trkpt lat="47.17847" lon="-1.60016">
        <ele>64.13</ele>
        <time>2023-10-22T13:47:03Z</time>
      </trkpt>
      <trkpt lat="47.17836" lon="-1.60036">
        <ele>64.75</ele>
        <time>2023-10-22T13:47:05Z</time>
      </trkpt>
      <trkpt lat="47.17826" lon="-1.60056">
        <ele>65.7</ele>
        <time>2023-10-22T13:47:07Z</time>
      </trkpt>
      <trkpt lat="47.17815" lon="-1.60074">
        <ele>65.53</ele>
        <time>2023-10-22T13:47:09Z</time>
      </trkpt>
      <trkpt lat="47.17804" lon="-1.60091">
        <ele>65.93</ele>
        <time>2023-10-22T13:47:11Z</time>
      </trkpt>
      <trkpt lat="47.17795" lon="-1.60108">
        <ele>67.46</ele>
        <time>2023-10-22T13:47:13Z</time>
      </trkpt>
      <trkpt lat="47.17785" lon="-1.60126">
        <ele>67.35</ele>
        <time>2023-10-22T13:47:15Z</time>
      </trkpt>
      <trkpt lat="47.17776" lon="-1.60142">
        <ele>67.46</ele>
        <time>2023-10-22T13:47:17Z</time>
      </trkpt>
      <trkpt lat="47.17767" lon="-1.60159">
        <ele>68.28</ele>
        <time>2023-10-22T13:47:19Z</time>
      </trkpt>
      <trkpt lat="47.17759" lon="-1.60177">
        <ele>69.25</ele>
        <time>2023-10-22T13:47:21Z</time>
      </trkpt>
      <trkpt lat="47.17753" lon="-1.60195">
        <ele>70.48</ele>
        <time>2023-10-22T13:47:23Z</time>
      </trkpt>
      <trkpt lat="47.17748" lon="-1.60214">
        <ele>70.72</ele>
        <time>2023-10-22T13:47:25Z</time>
      </trkpt>
      <trkpt lat="47.17743" lon="-1.60233">
        <ele>72.05</ele>
        <time>2023-10-22T13:47:27Z</time>
      </trkpt>
      <trkpt lat="47.17739" lon="-1.60251">
        <ele>72.88</ele>
        <time>2023-10-22T13:47:29Z</time>
      </trkpt>
      <trkpt lat="47.17733" lon="-1.60269">
        <ele>72.77</ele>
        <time>2023-10-22T13:47:31Z</time>
      </trkpt>
      <trkpt lat="47.17724" lon="-1.60284">
        <ele>73.16</ele>
        <time>2023-10-22T13:47:33Z</time>
      </trkpt>
      <trkpt lat="47.17714" lon="-1.60298">
        <ele>73.22</ele>
        <time>2023-10-22T13:47:35Z</time>
      </trkpt>
      <trkpt lat="47.17704" lon="-1.60311">
        <ele>73.2</ele>
        <time>2023-10-22T13:47:37Z</time>
      </trkpt>
      <trkpt lat="47.17695" lon="-1.60323">
        <ele>73.42</ele>
        <time>2023-10-22T13:47:39Z</time>
      </trkpt>
      <trkpt lat="47.17685" lon="-1.60335">
        <ele>73.4</ele>
        <time>2023-10-22T13:47:41Z</time>
      </trkpt>
      <trkpt lat="47.17675" lon="-1.60348">
        <ele>73.19</ele>
        <time>2023-10-22T13:47:43Z</time>
      </trkpt>
      <trkpt lat="47.17666" lon="-1.6036">
        <ele>73.22</ele>
        <time>2023-10-22T13:47:45Z</time>
      </trkpt>
      <trkpt lat="47.17657" lon="-1.60374">
        <ele>72.43</ele>
        <time>2023-10-22T13:47:47Z</time>
      </trkpt>
      <trkpt lat="47.17648" lon="-1.60389">
        <ele>71.59</ele>
        <time>2023-10-22T13:47:49Z</time>
      </trkpt>
      <trkpt lat="47.17638" lon="-1.60404">
        <ele>71.27</ele>
        <time>2023-10-22T13:47:51Z</time>
      </trkpt>
      <trkpt lat="47.1763" lon="-1.6042">
        <ele>70.93</ele>
        <time>2023-10-22T13:47:53Z</time>
      </trkpt>
      <trkpt lat="47.1762" lon="-1.60436">
        <ele>71.19</ele>
        <time>2023-10-22T13:47:55Z</time>
      </trkpt>
      <trkpt lat="47.1761" lon="-1.60453">
        <ele>71.61</ele>
        <time>2023-10-22T13:47:57Z</time>
      </trkpt>
      <trkpt lat="47.176" lon="-1.60469">
        <ele>72.03</ele>
        <time>2023-10-22T13:47:59Z</time>
      </trkpt>
      <trkpt lat="47.1759" lon="-1.60484">
        <ele>70.93</ele>
        <time>2023-10-22T13:48:01Z</time>
      </trkpt>
      <trkpt lat="47.17581" lon="-1.60499">
        <ele>71.49</ele>
        <time>2023-10-22T13:48:03Z</time>
      </trkpt>
      <trkpt lat="47.17572" lon="-1.60514">
        <ele>71.19</ele>
        <time>2023-10-22T13:48:05Z</time>
      </trkpt>
      <trkpt lat="47.17562" lon="-1.60528">
        <ele>71.62</ele>
        <time>2023-10-22T13:48:07Z</time>
      </trkpt>
      <trkpt lat="47.17554" lon="-1.60543">
        <ele>71.48</ele>
        <time>2023-10-22T13:48:09Z</time>
      </trkpt>
      <trkpt lat="47.17544" lon="-1.60558">
        <ele>71.55</ele>
        <time>2023-10-22T13:48:11Z</time>
      </trkpt>
      <trkpt lat="47.17536" lon="-1.60572">
        <ele>71.67</ele>
        <time>2023-10-22T13:48:13Z</time>
      </trkpt>
      <trkpt lat="47.17526" lon="-1.60587">
        <ele>71.46</ele>
        <time>2023-10-22T13:48:15Z</time>
      </trkpt>
      <trkpt lat="47.17517" lon="-1.60602">
        <ele>71.17</ele>
        <time>2023-10-22T13:48:17Z</time>
      </trkpt>
      <trkpt lat="47.17508" lon="-1.60617">
        <ele>71.32</ele>
        <time>2023-10-22T13:48:19Z</time>
      </trkpt>
      <trkpt lat="47.17499" lon="-1.60632">
        <ele>70.73</ele>
        <time>2023-10-22T13:48:21Z</time>
      </trkpt>
      <trkpt lat="47.1749" lon="-1.60647">
        <ele>70.85</ele>
        <time>2023-10-22T13:48:23Z</time>
      </trkpt>
      <trkpt lat="47.1748" lon="-1.60663">
        <ele>69.99</ele>
        <time>2023-10-22T13:48:25Z</time>
      </trkpt>
      <trkpt lat="47.17471" lon="-1.60679">
        <ele>69.85</ele>
        <time>2023-10-22T13:48:27Z</time>
      </trkpt>
      <trkpt lat="47.17462" lon="-1.60695">
        <ele>69.14</ele>
        <time>2023-10-22T13:48:29Z</time>
      </trkpt>
      <trkpt lat="47.17452" lon="-1.60711">
        <ele>68.53</ele>
        <time>2023-10-22T13:48:31Z</time>
      </trkpt>
      <trkpt lat="47.17443" lon="-1.60727">
        <ele>68.18</ele>
        <time>2023-10-22T13:48:33Z</time>
      </trkpt>
      <trkpt lat="47.17434" lon="-1.60743">
        <ele>68.02</ele>
        <time>2023-10-22T13:48:35Z</time>
      </trkpt>
      <trkpt lat="47.17426" lon="-1.60762">
        <ele>67.37</ele>
        <time>2023-10-22T13:48:37Z</time>
      </trkpt>
      <trkpt lat="47.17419" lon="-1.60783">
        <ele>66.24</ele>
        <time>2023-10-22T13:48:39Z</time>
      </trkpt>
      <trkpt lat="47.17411" lon="-1.60803">
        <ele>66.2</ele>
        <time>2023-10-22T13:48:41Z</time>
      </trkpt>
      <trkpt lat="47.17405" lon="-1.60824">
        <ele>65.01</ele>
        <time>2023-10-22T13:48:43Z</time>
      </trkpt>
      <trkpt lat="47.174" lon="-1.60847">
        <ele>64.98</ele>
        <time>2023-10-22T13:48:45Z</time>
      </trkpt>
      <trkpt lat="47.17397" lon="-1.6087">
        <ele>64.43</ele>
        <time>2023-10-22T13:48:47Z</time>
      </trkpt>
      <trkpt lat="47.17396" lon="-1.60894">
        <ele>63.78</ele>
        <time>2023-10-22T13:48:49Z</time>
      </trkpt>
      <trkpt lat="47.17397" lon="-1.60919">
        <ele>62.79</ele>
        <time>2023-10-22T13:48:51Z</time>
      </trkpt>
      <trkpt lat="47.17401" lon="-1.60944">
        <ele>62.7</ele>
        <time>2023-10-22T13:48:53Z</time>
      </trkpt>
      <trkpt lat="47.17407" lon="-1.60967">
        <ele>62.39</ele>
        <time>2023-10-22T13:48:55Z</time>
      </trkpt>
      <trkpt lat="47.17416" lon="-1.60988">
        <ele>62.16</ele>
        <time>2023-10-22T13:48:57Z</time>
      </trkpt>
      <trkpt lat="47.17421" lon="-1.61009">
        <ele>62.18</ele>
        <time>2023-10-22T13:48:59Z</time>
      </trkpt>
      <trkpt lat="47.17423" lon="-1.61032">
        <ele>62.78</ele>
        <time>2023-10-22T13:49:01Z</time>
      </trkpt>
      <trkpt lat="47.17427" lon="-1.61052">
        <ele>63.72</ele>
        <time>2023-10-22T13:49:03Z</time>
      </trkpt>
      <trkpt lat="47.17435" lon="-1.61069">
        <ele>64.46</ele>
        <time>2023-10-22T13:49:05Z</time>
      </trkpt>
      <trkpt lat="47.17442" lon="-1.61088">
        <ele>64.99</ele>
        <time>2023-10-22T13:49:07Z</time>
      </trkpt>
      <trkpt lat="47.17449" lon="-1.61107">
        <ele>66.03</ele>
        <time>2023-10-22T13:49:09Z</time>
      </trkpt>
      <trkpt lat="47.17456" lon="-1.61126">
        <ele>66.35</ele>
        <time>2023-10-22T13:49:11Z</time>
      </trkpt>
      <trkpt lat="47.17463" lon="-1.61144">
        <ele>66.92</ele>
        <time>2023-10-22T13:49:13Z</time>
      </trkpt>
      <trkpt lat="47.17471" lon="-1.61161">
        <ele>66.69</ele>
        <time>2023-10-22T13:49:15Z</time>
      </trkpt>
      <trkpt lat="47.17478" lon="-1.61178">
        <ele>65.77</ele>
        <time>2023-10-22T13:49:17Z</time>
      </trkpt>
      <trkpt lat="47.17485" lon="-1.61195">
        <ele>64.98</ele>
        <time>2023-10-22T13:49:19Z</time>
      </trkpt>
      <trkpt lat="47.17492" lon="-1.61213">
        <ele>64.82</ele>
        <time>2023-10-22T13:49:21Z</time>
      </trkpt>
      <trkpt lat="47.175" lon="-1.6123">
        <ele>65.3</ele>
        <time>2023-10-22T13:49:23Z</time>
      </trkpt>
      <trkpt lat="47.17508" lon="-1.61248">
        <ele>65.92</ele>
        <time>2023-10-22T13:49:25Z</time>
      </trkpt>
      <trkpt lat="47.17517" lon="-1.61264">
        <ele>65.93</ele>
        <time>2023-10-22T13:49:27Z</time>
      </trkpt>
      <trkpt lat="47.17529" lon="-1.61279">
        <ele>66.15</ele>
        <time>2023-10-22T13:49:29Z</time>
      </trkpt>
      <trkpt lat="47.17542" lon="-1.61289">
        <ele>65.3</ele>
        <time>2023-10-22T13:49:31Z</time>
      </trkpt>
      <trkpt lat="47.17556" lon="-1.61297">
        <ele>65.59</ele>
        <time>2023-10-22T13:49:33Z</time>
      </trkpt>
      <trkpt lat="47.17564" lon="-1.61316">
        <ele>64.87</ele>
        <time>2023-10-22T13:49:35Z</time>
      </trkpt>
      <trkpt lat="47.1756" lon="-1.61338">
        <ele>65.6</ele>
        <time>2023-10-22T13:49:37Z</time>
      </trkpt>
      <trkpt lat="47.17549" lon="-1.61354">
        <ele>65.71</ele>
        <time>2023-10-22T13:49:39Z</time>
      </trkpt>
      <trkpt lat="47.17537" lon="-1.61368">
        <ele>65.57</ele>
        <time>2023-10-22T13:49:41Z</time>
      </trkpt>
      <trkpt lat="47.17529" lon="-1.61388">
        <ele>65.7</ele>
        <time>2023-10-22T13:49:43Z</time>
      </trkpt>
      <trkpt lat="47.17524" lon="-1.61409">
        <ele>67.35</ele>
        <time>2023-10-22T13:49:45Z</time>
      </trkpt>
      <trkpt lat="47.17519" lon="-1.61429">
        <ele>68.22</ele>
        <time>2023-10-22T13:49:47Z</time>
      </trkpt>
      <trkpt lat="47.17515" lon="-1.61447">
        <ele>68.87</ele>
        <time>2023-10-22T13:49:49Z</time>
      </trkpt>
      <trkpt lat="47.17506" lon="-1.6146">
        <ele>70.77</ele>
        <time>2023-10-22T13:49:51Z</time>
      </trkpt>
      <trkpt lat="47.17494" lon="-1.61466">
        <ele>71.51</ele>
        <time>2023-10-22T13:49:53Z</time>
      </trkpt>
      <trkpt lat="47.1748" lon="-1.61471">
        <ele>72.04</ele>
        <time>2023-10-22T13:49:55Z</time>
      </trkpt>
      <trkpt lat="47.17468" lon="-1.61476">
        <ele>72.15</ele>
        <time>2023-10-22T13:49:57Z</time>
      </trkpt>
      <trkpt lat="47.1745" lon="-1.61486">
        <ele>72.81</ele>
        <time>2023-10-22T13:50:00Z</time>
      </trkpt>
      <trkpt lat="47.17437" lon="-1.61492">
        <ele>73.98</ele>
        <time>2023-10-22T13:50:02Z</time>
      </trkpt>
      <trkpt lat="47.17426" lon="-1.61499">
        <ele>75.3</ele>
        <time>2023-10-22T13:50:04Z</time>
      </trkpt>
      <trkpt lat="47.17414" lon="-1.61506">
        <ele>75.75</ele>
        <time>2023-10-22T13:50:06Z</time>
      </trkpt>
      <trkpt lat="47.17403" lon="-1.61515">
        <ele>76.33</ele>
        <time>2023-10-22T13:50:08Z</time>
      </trkpt>
      <trkpt lat="47.17392" lon="-1.61522">
        <ele>77.36</ele>
        <time>2023-10-22T13:50:10Z</time>
      </trkpt>
      <trkpt lat="47.17382" lon="-1.61532">
        <ele>78.52</ele>
        <time>2023-10-22T13:50:12Z</time>
      </trkpt>
      <trkpt lat="47.17372" lon="-1.61542">
        <ele>78.59</ele>
        <time>2023-10-22T13:50:14Z</time>
      </trkpt>
      <trkpt lat="47.17362" lon="-1.61551">
        <ele>78.91</ele>
        <time>2023-10-22T13:50:16Z</time>
      </trkpt>
      <trkpt lat="47.17352" lon="-1.61562">
        <ele>78.78</ele>
        <time>2023-10-22T13:50:18Z</time>
      </trkpt>
      <trkpt lat="47.17343" lon="-1.61574">
        <ele>79.04</ele>
        <time>2023-10-22T13:50:20Z</time>
      </trkpt>
      <trkpt lat="47.17334" lon="-1.61585">
        <ele>79.09</ele>
        <time>2023-10-22T13:50:22Z</time>
      </trkpt>
      <trkpt lat="47.17326" lon="-1.61597">
        <ele>78.74</ele>
        <time>2023-10-22T13:50:24Z</time>
      </trkpt>
      <trkpt lat="47.17317" lon="-1.61609">
        <ele>78.76</ele>
        <time>2023-10-22T13:50:26Z</time>
      </trkpt>
      <trkpt lat="47.17308" lon="-1.61623">
        <ele>78.53</ele>
        <time>2023-10-22T13:50:28Z</time>
      </trkpt>
      <trkpt lat="47.17299" lon="-1.61636">
        <ele>77.96</ele>
        <time>2023-10-22T13:50:30Z</time>
      </trkpt>
      <trkpt lat="47.17292" lon="-1.61649">
        <ele>78.01</ele>
        <time>2023-10-22T13:50:32Z</time>
      </trkpt>
      <trkpt lat="47.17285" lon="-1.61663">
        <ele>77.63</ele>
        <time>2023-10-22T13:50:34Z</time>
      </trkpt>
      <trkpt lat="47.17277" lon="-1.61678">
        <ele>77.51</ele>
        <time>2023-10-22T13:50:36Z</time>
      </trkpt>
      <trkpt lat="47.1727" lon="-1.61691">
        <ele>77.46</ele>
        <time>2023-10-22T13:50:38Z</time>
      </trkpt>
      <trkpt lat="47.17263" lon="-1.61706">
        <ele>78.33</ele>
        <time>2023-10-22T13:50:40Z</time>
      </trkpt>
      <trkpt lat="47.17256" lon="-1.61721">
        <ele>77.63</ele>
        <time>2023-10-22T13:50:42Z</time>
      </trkpt>
      <trkpt lat="47.17249" lon="-1.61737">
        <ele>77.14</ele>
        <time>2023-10-22T13:50:44Z</time>
      </trkpt>
      <trkpt lat="47.17246" lon="-1.61756">
        <ele>77.02</ele>
        <time>2023-10-22T13:50:46Z</time>
      </trkpt>
      <trkpt lat="47.17241" lon="-1.61773">
        <ele>77.19</ele>
        <time>2023-10-22T13:50:48Z</time>
      </trkpt>
      <trkpt lat="47.17232" lon="-1.61785">
        <ele>76.67</ele>
        <time>2023-10-22T13:50:50Z</time>
      </trkpt>
      <trkpt lat="47.17221" lon="-1.61796">
        <ele>76.87</ele>
        <time>2023-10-22T13:50:52Z</time>
      </trkpt>
      <trkpt lat="47.1721" lon="-1.61806">
        <ele>76.52</ele>
        <time>2023-10-22T13:50:54Z</time>
      </trkpt>
      <trkpt lat="47.17199" lon="-1.61815">
        <ele>77.06</ele>
        <time>2023-10-22T13:50:56Z</time>
      </trkpt>
      <trkpt lat="47.17187" lon="-1.61825">
        <ele>76.88</ele>
        <time>2023-10-22T13:50:58Z</time>
      </trkpt>
      <trkpt lat="47.17177" lon="-1.61835">
        <ele>77.32</ele>
        <time>2023-10-22T13:51:00Z</time>
      </trkpt>
      <trkpt lat="47.17166" lon="-1.61847">
        <ele>76.26</ele>
        <time>2023-10-22T13:51:02Z</time>
      </trkpt>
      <trkpt lat="47.17155" lon="-1.61857">
        <ele>76.47</ele>
        <time>2023-10-22T13:51:04Z</time>
      </trkpt>
      <trkpt lat="47.17144" lon="-1.61867">
        <ele>76.37</ele>
        <time>2023-10-22T13:51:06Z</time>
      </trkpt>
      <trkpt lat="47.17133" lon="-1.61878">
        <ele>76.38</ele>
        <time>2023-10-22T13:51:08Z</time>
      </trkpt>
      <trkpt lat="47.17122" lon="-1.61888">
        <ele>76.28</ele>
        <time>2023-10-22T13:51:10Z</time>
      </trkpt>
      <trkpt lat="47.17111" lon="-1.619">
        <ele>76.14</ele>
        <time>2023-10-22T13:51:12Z</time>
      </trkpt>
      <trkpt lat="47.171" lon="-1.6191">
        <ele>76.09</ele>
        <time>2023-10-22T13:51:14Z</time>
      </trkpt>
      <trkpt lat="47.17089" lon="-1.6192">
        <ele>76.67</ele>
        <time>2023-10-22T13:51:16Z</time>
      </trkpt>
      <trkpt lat="47.17079" lon="-1.61931">
        <ele>76.69</ele>
        <time>2023-10-22T13:51:18Z</time>
      </trkpt>
      <trkpt lat="47.17068" lon="-1.61943">
        <ele>76.42</ele>
        <time>2023-10-22T13:51:20Z</time>
      </trkpt>
      <trkpt lat="47.17058" lon="-1.61954">
        <ele>76.17</ele>
        <time>2023-10-22T13:51:22Z</time>
      </trkpt>
      <trkpt lat="47.17048" lon="-1.61967">
        <ele>76.19</ele>
        <time>2023-10-22T13:51:24Z</time>
      </trkpt>
      <trkpt lat="47.17039" lon="-1.61979">
        <ele>76.6</ele>
        <time>2023-10-22T13:51:26Z</time>
      </trkpt>
      <trkpt lat="47.1703" lon="-1.61993">
        <ele>76.61</ele>
        <time>2023-10-22T13:51:28Z</time>
      </trkpt>
      <trkpt lat="47.1702" lon="-1.62007">
        <ele>76.32</ele>
        <time>2023-10-22T13:51:30Z</time>
      </trkpt>
      <trkpt lat="47.1701" lon="-1.62021">
        <ele>76.46</ele>
        <time>2023-10-22T13:51:32Z</time>
      </trkpt>
      <trkpt lat="47.17003" lon="-1.62036">
        <ele>76.8</ele>
        <time>2023-10-22T13:51:34Z</time>
      </trkpt>
      <trkpt lat="47.16993" lon="-1.62053">
        <ele>76.15</ele>
        <time>2023-10-22T13:51:36Z</time>
      </trkpt>
      <trkpt lat="47.16985" lon="-1.62069">
        <ele>76.36</ele>
        <time>2023-10-22T13:51:38Z</time>
      </trkpt>
      <trkpt lat="47.16976" lon="-1.62084">
        <ele>75.74</ele>
        <time>2023-10-22T13:51:40Z</time>
      </trkpt>
      <trkpt lat="47.16968" lon="-1.62099">
        <ele>76.06</ele>
        <time>2023-10-22T13:51:42Z</time>
      </trkpt>
      <trkpt lat="47.1696" lon="-1.62114">
        <ele>76.35</ele>
        <time>2023-10-22T13:51:44Z</time>
      </trkpt>
      <trkpt lat="47.16952" lon="-1.6213">
        <ele>76.32</ele>
        <time>2023-10-22T13:51:46Z</time>
      </trkpt>
      <trkpt lat="47.16944" lon="-1.62146">
        <ele>76</ele>
        <time>2023-10-22T13:51:48Z</time>
      </trkpt>
      <trkpt lat="47.16937" lon="-1.62162">
        <ele>75.83</ele>
        <time>2023-10-22T13:51:50Z</time>
      </trkpt>
      <trkpt lat="47.16929" lon="-1.62179">
        <ele>76.07</ele>
        <time>2023-10-22T13:51:52Z</time>
      </trkpt>
      <trkpt lat="47.1692" lon="-1.62195">
        <ele>75.8</ele>
        <time>2023-10-22T13:51:54Z</time>
      </trkpt>
      <trkpt lat="47.1691" lon="-1.6221">
        <ele>75.34</ele>
        <time>2023-10-22T13:51:56Z</time>
      </trkpt>
      <trkpt lat="47.169" lon="-1.62224">
        <ele>75.01</ele>
        <time>2023-10-22T13:51:58Z</time>
      </trkpt>
      <trkpt lat="47.16889" lon="-1.62237">
        <ele>74.75</ele>
        <time>2023-10-22T13:52:00Z</time>
      </trkpt>
      <trkpt lat="47.16879" lon="-1.6225">
        <ele>74.83</ele>
        <time>2023-10-22T13:52:02Z</time>
      </trkpt>
      <trkpt lat="47.16868" lon="-1.62262">
        <ele>75.39</ele>
        <time>2023-10-22T13:52:04Z</time>
      </trkpt>
      <trkpt lat="47.16858" lon="-1.62275">
        <ele>75.91</ele>
        <time>2023-10-22T13:52:06Z</time>
      </trkpt>
      <trkpt lat="47.16848" lon="-1.62288">
        <ele>75.97</ele>
        <time>2023-10-22T13:52:08Z</time>
      </trkpt>
      <trkpt lat="47.16837" lon="-1.623">
        <ele>75.96</ele>
        <time>2023-10-22T13:52:10Z</time>
      </trkpt>
      <trkpt lat="47.16826" lon="-1.62311">
        <ele>76.31</ele>
        <time>2023-10-22T13:52:12Z</time>
      </trkpt>
      <trkpt lat="47.16815" lon="-1.6232">
        <ele>76.05</ele>
        <time>2023-10-22T13:52:14Z</time>
      </trkpt>
      <trkpt lat="47.16803" lon="-1.62327">
        <ele>75.57</ele>
        <time>2023-10-22T13:52:16Z</time>
      </trkpt>
      <trkpt lat="47.16791" lon="-1.62335">
        <ele>75.3</ele>
        <time>2023-10-22T13:52:18Z</time>
      </trkpt>
      <trkpt lat="47.16779" lon="-1.62342">
        <ele>75.08</ele>
        <time>2023-10-22T13:52:20Z</time>
      </trkpt>
      <trkpt lat="47.16766" lon="-1.62348">
        <ele>75.46</ele>
        <time>2023-10-22T13:52:22Z</time>
      </trkpt>
      <trkpt lat="47.16753" lon="-1.62356">
        <ele>75.38</ele>
        <time>2023-10-22T13:52:24Z</time>
      </trkpt>
      <trkpt lat="47.16742" lon="-1.62369">
        <ele>75.02</ele>
        <time>2023-10-22T13:52:26Z</time>
      </trkpt>
      <trkpt lat="47.16734" lon="-1.62386">
        <ele>74.62</ele>
        <time>2023-10-22T13:52:28Z</time>
      </trkpt>
      <trkpt lat="47.1673" lon="-1.62404">
        <ele>75.25</ele>
        <time>2023-10-22T13:52:30Z</time>
      </trkpt>
      <trkpt lat="47.16728" lon="-1.62423">
        <ele>75.06</ele>
        <time>2023-10-22T13:52:32Z</time>
      </trkpt>
      <trkpt lat="47.16724" lon="-1.62442">
        <ele>75.04</ele>
        <time>2023-10-22T13:52:34Z</time>
      </trkpt>
      <trkpt lat="47.1672" lon="-1.6246">
        <ele>74.48</ele>
        <time>2023-10-22T13:52:36Z</time>
      </trkpt>
      <trkpt lat="47.16716" lon="-1.62478">
        <ele>74.69</ele>
        <time>2023-10-22T13:52:38Z</time>
      </trkpt>
      <trkpt lat="47.16721" lon="-1.62494">
        <ele>75.06</ele>
        <time>2023-10-22T13:52:40Z</time>
      </trkpt>
      <trkpt lat="47.16733" lon="-1.62501">
        <ele>74.7</ele>
        <time>2023-10-22T13:52:42Z</time>
      </trkpt>
      <trkpt lat="47.16745" lon="-1.62506">
        <ele>74.44</ele>
        <time>2023-10-22T13:52:44Z</time>
      </trkpt>
      <trkpt lat="47.16757" lon="-1.62512">
        <ele>73.78</ele>
        <time>2023-10-22T13:52:46Z</time>
      </trkpt>
      <trkpt lat="47.16769" lon="-1.62519">
        <ele>74.36</ele>
        <time>2023-10-22T13:52:48Z</time>
      </trkpt>
      <trkpt lat="47.1678" lon="-1.62526">
        <ele>74.19</ele>
        <time>2023-10-22T13:52:50Z</time>
      </trkpt>
      <trkpt lat="47.16791" lon="-1.62532">
        <ele>74.04</ele>
        <time>2023-10-22T13:52:52Z</time>
      </trkpt>
      <trkpt lat="47.16802" lon="-1.62541">
        <ele>74.51</ele>
        <time>2023-10-22T13:52:54Z</time>
      </trkpt>
      <trkpt lat="47.16812" lon="-1.62549">
        <ele>73.93</ele>
        <time>2023-10-22T13:52:56Z</time>
      </trkpt>
      <trkpt lat="47.16821" lon="-1.62559">
        <ele>73.61</ele>
        <time>2023-10-22T13:52:58Z</time>
      </trkpt>
      <trkpt lat="47.1683" lon="-1.62571">
        <ele>73.66</ele>
        <time>2023-10-22T13:53:00Z</time>
      </trkpt>
      <trkpt lat="47.1683" lon="-1.62588">
        <ele>73.63</ele>
        <time>2023-10-22T13:53:02Z</time>
      </trkpt>
      <trkpt lat="47.16823" lon="-1.62601">
        <ele>73.85</ele>
        <time>2023-10-22T13:53:04Z</time>
      </trkpt>
      <trkpt lat="47.16815" lon="-1.62613">
        <ele>73.53</ele>
        <time>2023-10-22T13:53:06Z</time>
      </trkpt>
      <trkpt lat="47.16808" lon="-1.62626">
        <ele>74.24</ele>
        <time>2023-10-22T13:53:08Z</time>
      </trkpt>
      <trkpt lat="47.16801" lon="-1.62637">
        <ele>74.22</ele>
        <time>2023-10-22T13:53:10Z</time>
      </trkpt>
      <trkpt lat="47.16795" lon="-1.62648">
        <ele>73.84</ele>
        <time>2023-10-22T13:53:12Z</time>
      </trkpt>
      <trkpt lat="47.16788" lon="-1.62662">
        <ele>74.72</ele>
        <time>2023-10-22T13:53:15Z</time>
      </trkpt>
      <trkpt lat="47.16779" lon="-1.62658">
        <ele>75.54</ele>
        <time>2023-10-22T13:53:19Z</time>
      </trkpt>
    </trkseg>
  </trk>
</gpx>